<?xml version='1.0' encoding='UTF-8'?><gpx version="1.1" creator="JPX - https://github.com/jenetics/jpx" xmlns="http://www.topografix.com/GPX/1/1"><trk><trkseg><trkpt lat="43.68596924204031" lon="12.785530358668762"><ele>127.99999999999999</ele><time>2026-04-07T13:23:57Z</time></trkpt><trkpt lat="43.685921292422805" lon="12.785641828336999"><ele>128.0</ele><time>2026-04-07T13:24:00Z</time></trkpt><trkpt lat="43.68587485150582" lon="12.785705397590236"><ele>128.0</ele><time>2026-04-07T13:24:02Z</time></trkpt><trkpt lat="43.68580167175068" lon="12.78575676716236"><ele>128.0</ele><time>2026-04-07T13:24:17Z</time></trkpt><trkpt lat="43.68579180711973" lon="12.785852850733344"><ele>127.99999999999999</ele><time>2026-04-07T13:24:18Z</time></trkpt><trkpt lat="43.68579775989241" lon="12.786019884312672"><ele>128.0</ele><time>2026-04-07T13:24:20Z</time></trkpt><trkpt lat="43.68579747774707" lon="12.786118418561395"><ele>128.16666666666666</ele><time>2026-04-07T13:24:21Z</time></trkpt><trkpt lat="43.685799987413844" lon="12.786221679549099"><ele>128.33333333333331</ele><time>2026-04-07T13:24:22Z</time></trkpt><trkpt lat="43.68579992376857" lon="12.786328659421844"><ele>128.5</ele><time>2026-04-07T13:24:23Z</time></trkpt><trkpt lat="43.685806857878426" lon="12.786446676930105"><ele>128.66666666666666</ele><time>2026-04-07T13:24:24Z</time></trkpt><trkpt lat="43.68581011065973" lon="12.786567808427218"><ele>128.83333333333334</ele><time>2026-04-07T13:24:25Z</time></trkpt><trkpt lat="43.68581286479548" lon="12.786691681412298"><ele>129.0</ele><time>2026-04-07T13:24:26Z</time></trkpt><trkpt lat="43.685816306885876" lon="12.786818409598922"><ele>129.4</ele><time>2026-04-07T13:24:27Z</time></trkpt><trkpt lat="43.68582315275381" lon="12.786948092069318"><ele>129.8</ele><time>2026-04-07T13:24:28Z</time></trkpt><trkpt lat="43.685825415026585" lon="12.787074971687439"><ele>130.2</ele><time>2026-04-07T13:24:29Z</time></trkpt><trkpt lat="43.685833067658116" lon="12.787206932646095"><ele>130.6</ele><time>2026-04-07T13:24:30Z</time></trkpt><trkpt lat="43.68584388816041" lon="12.787340641492898"><ele>131.0</ele><time>2026-04-07T13:24:31Z</time></trkpt><trkpt lat="43.68584972522753" lon="12.787476458260542"><ele>131.0</ele><time>2026-04-07T13:24:32Z</time></trkpt><trkpt lat="43.68585598753497" lon="12.787615302384287"><ele>131.0</ele><time>2026-04-07T13:24:33Z</time></trkpt><trkpt lat="43.685864313193846" lon="12.787755816586772"><ele>131.0</ele><time>2026-04-07T13:24:34Z</time></trkpt><trkpt lat="43.685872368493555" lon="12.787896263894318"><ele>131.0</ele><time>2026-04-07T13:24:35Z</time></trkpt><trkpt lat="43.685880260471954" lon="12.788038028960328"><ele>131.0</ele><time>2026-04-07T13:24:36Z</time></trkpt><trkpt lat="43.68588744839221" lon="12.788184699353048"><ele>131.0</ele><time>2026-04-07T13:24:37Z</time></trkpt><trkpt lat="43.68589441356841" lon="12.788334202472813"><ele>131.0</ele><time>2026-04-07T13:24:38Z</time></trkpt><trkpt lat="43.68590281679569" lon="12.788484868582769"><ele>131.0</ele><time>2026-04-07T13:24:39Z</time></trkpt><trkpt lat="43.68590722197708" lon="12.788634714832211"><ele>131.0</ele><time>2026-04-07T13:24:40Z</time></trkpt><trkpt lat="43.68591558630765" lon="12.788788563901681"><ele>131.0</ele><time>2026-04-07T13:24:41Z</time></trkpt><trkpt lat="43.685919960091546" lon="12.788939824064373"><ele>130.6</ele><time>2026-04-07T13:24:42Z</time></trkpt><trkpt lat="43.68592527849264" lon="12.789092123713928"><ele>130.2</ele><time>2026-04-07T13:24:43Z</time></trkpt><trkpt lat="43.68592646777822" lon="12.789242838146164"><ele>129.8</ele><time>2026-04-07T13:24:44Z</time></trkpt><trkpt lat="43.68592970041752" lon="12.78938853509512"><ele>129.4</ele><time>2026-04-07T13:24:45Z</time></trkpt><trkpt lat="43.68593322257556" lon="12.789537941826026"><ele>129.0</ele><time>2026-04-07T13:24:46Z</time></trkpt><trkpt lat="43.685931518364505" lon="12.78968366082037"><ele>129.0</ele><time>2026-04-07T13:24:47Z</time></trkpt><trkpt lat="43.68593165504678" lon="12.789820220422527"><ele>129.0</ele><time>2026-04-07T13:24:48Z</time></trkpt><trkpt lat="43.68592879961351" lon="12.789952633682972"><ele>129.0</ele><time>2026-04-07T13:24:49Z</time></trkpt><trkpt lat="43.68592340869454" lon="12.790085219997728"><ele>129.0</ele><time>2026-04-07T13:24:50Z</time></trkpt><trkpt lat="43.68590867568258" lon="12.790209589172576"><ele>129.0</ele><time>2026-04-07T13:24:51Z</time></trkpt><trkpt lat="43.68588801803336" lon="12.790327224165202"><ele>129.0</ele><time>2026-04-07T13:24:52Z</time></trkpt><trkpt lat="43.685853160894005" lon="12.790426088063175"><ele>129.0</ele><time>2026-04-07T13:24:53Z</time></trkpt><trkpt lat="43.68578579442183" lon="12.79052069308113"><ele>129.0</ele><time>2026-04-07T13:24:55Z</time></trkpt><trkpt lat="43.68573307963917" lon="12.79058496883423"><ele>129.0</ele><time>2026-04-07T13:24:57Z</time></trkpt><trkpt lat="43.68581218226141" lon="12.790744681742332"><ele>129.0</ele><time>2026-04-07T13:24:58Z</time></trkpt><trkpt lat="43.68584154774242" lon="12.790828855266527"><ele>129.0</ele><time>2026-04-07T13:25:01Z</time></trkpt><trkpt lat="43.6858847404879" lon="12.790933305092164"><ele>129.0</ele><time>2026-04-07T13:25:06Z</time></trkpt><trkpt lat="43.685955113302576" lon="12.791081013431326"><ele>129.0</ele><time>2026-04-07T13:25:08Z</time></trkpt><trkpt lat="43.68598627158307" lon="12.791177121206102"><ele>129.0</ele><time>2026-04-07T13:25:09Z</time></trkpt><trkpt lat="43.68600814014215" lon="12.791290019526768"><ele>129.0</ele><time>2026-04-07T13:25:10Z</time></trkpt><trkpt lat="43.68602157845914" lon="12.791417253002193"><ele>129.2</ele><time>2026-04-07T13:25:11Z</time></trkpt><trkpt lat="43.68602768063447" lon="12.791548400445928"><ele>129.4</ele><time>2026-04-07T13:25:12Z</time></trkpt><trkpt lat="43.68603244773478" lon="12.791686938952813"><ele>129.6</ele><time>2026-04-07T13:25:13Z</time></trkpt><trkpt lat="43.68604038258155" lon="12.791827230662996"><ele>129.8</ele><time>2026-04-07T13:25:14Z</time></trkpt><trkpt lat="43.68605020321281" lon="12.791975478713406"><ele>130.0</ele><time>2026-04-07T13:25:15Z</time></trkpt><trkpt lat="43.68605921380779" lon="12.792128002038005"><ele>130.0</ele><time>2026-04-07T13:25:16Z</time></trkpt><trkpt lat="43.68606810211145" lon="12.792288728278834"><ele>130.0</ele><time>2026-04-07T13:25:17Z</time></trkpt><trkpt lat="43.686073266273695" lon="12.792445232925965"><ele>130.0</ele><time>2026-04-07T13:25:18Z</time></trkpt><trkpt lat="43.686082518143046" lon="12.792600012302822"><ele>130.0</ele><time>2026-04-07T13:25:19Z</time></trkpt><trkpt lat="43.686087806056634" lon="12.792774043733784"><ele>134.0</ele><time>2026-04-07T13:25:20Z</time></trkpt><trkpt lat="43.68609797392326" lon="12.792910194836155"><ele>138.0</ele><time>2026-04-07T13:25:21Z</time></trkpt><trkpt lat="43.68610437068422" lon="12.793054535390738"><ele>142.0</ele><time>2026-04-07T13:25:22Z</time></trkpt><trkpt lat="43.68611097098934" lon="12.793195305020333"><ele>146.0</ele><time>2026-04-07T13:25:23Z</time></trkpt><trkpt lat="43.68611954927637" lon="12.793341345445592"><ele>150.0</ele><time>2026-04-07T13:25:24Z</time></trkpt><trkpt lat="43.686126158471936" lon="12.793488894818644"><ele>149.4</ele><time>2026-04-07T13:25:25Z</time></trkpt><trkpt lat="43.68613291376908" lon="12.79363992091575"><ele>148.8</ele><time>2026-04-07T13:25:26Z</time></trkpt><trkpt lat="43.68613987302883" lon="12.793790634015327"><ele>148.2</ele><time>2026-04-07T13:25:27Z</time></trkpt><trkpt lat="43.68614767551682" lon="12.793940949930606"><ele>147.6</ele><time>2026-04-07T13:25:28Z</time></trkpt><trkpt lat="43.6861495456753" lon="12.794094302249295"><ele>147.0</ele><time>2026-04-07T13:25:29Z</time></trkpt><trkpt lat="43.68615602565754" lon="12.794248811041443"><ele>144.79999999999998</ele><time>2026-04-07T13:25:30Z</time></trkpt><trkpt lat="43.686166090498496" lon="12.794401716548071"><ele>142.6</ele><time>2026-04-07T13:25:31Z</time></trkpt><trkpt lat="43.686174052527015" lon="12.794550742684281"><ele>140.39999999999998</ele><time>2026-04-07T13:25:32Z</time></trkpt><trkpt lat="43.68618251824121" lon="12.7947017845583"><ele>138.2</ele><time>2026-04-07T13:25:33Z</time></trkpt><trkpt lat="43.686193615106305" lon="12.794852412747352"><ele>136.0</ele><time>2026-04-07T13:25:34Z</time></trkpt><trkpt lat="43.68620334168622" lon="12.794973383543374"><ele>136.0</ele><time>2026-04-07T13:25:35Z</time></trkpt><trkpt lat="43.68620904160333" lon="12.795065478827432"><ele>136.0</ele><time>2026-04-07T13:25:36Z</time></trkpt><trkpt lat="43.686216860396904" lon="12.795158348150917"><ele>136.0</ele><time>2026-04-07T13:25:37Z</time></trkpt><trkpt lat="43.68622629308888" lon="12.795262838429291"><ele>136.0</ele><time>2026-04-07T13:25:38Z</time></trkpt><trkpt lat="43.68624097660399" lon="12.795379157191297"><ele>136.0</ele><time>2026-04-07T13:25:39Z</time></trkpt><trkpt lat="43.68625604592104" lon="12.795503538088184"><ele>136.0</ele><time>2026-04-07T13:25:40Z</time></trkpt><trkpt lat="43.686273505193626" lon="12.795630720335733"><ele>134.0</ele><time>2026-04-07T13:25:41Z</time></trkpt><trkpt lat="43.68629003252773" lon="12.795762856649931"><ele>132.0</ele><time>2026-04-07T13:25:42Z</time></trkpt><trkpt lat="43.68630677295878" lon="12.795895970924729"><ele>130.0</ele><time>2026-04-07T13:25:43Z</time></trkpt><trkpt lat="43.68632432294509" lon="12.796032501255432"><ele>128.0</ele><time>2026-04-07T13:25:44Z</time></trkpt><trkpt lat="43.686342072735854" lon="12.796171485109927"><ele>126.0</ele><time>2026-04-07T13:25:45Z</time></trkpt><trkpt lat="43.68636995255302" lon="12.796311717533507"><ele>125.0</ele><time>2026-04-07T13:25:46Z</time></trkpt><trkpt lat="43.686403926538816" lon="12.796459288687684"><ele>124.0</ele><time>2026-04-07T13:25:47Z</time></trkpt><trkpt lat="43.68645243073642" lon="12.796600870418516"><ele>123.0</ele><time>2026-04-07T13:25:48Z</time></trkpt><trkpt lat="43.68650372185831" lon="12.796744611429304"><ele>122.0</ele><time>2026-04-07T13:25:49Z</time></trkpt><trkpt lat="43.686559210512655" lon="12.796888779639472"><ele>121.75</ele><time>2026-04-07T13:25:50Z</time></trkpt><trkpt lat="43.68661413688484" lon="12.7970271454792"><ele>121.5</ele><time>2026-04-07T13:25:51Z</time></trkpt><trkpt lat="43.68667823216022" lon="12.797157331587265"><ele>121.25</ele><time>2026-04-07T13:25:52Z</time></trkpt><trkpt lat="43.686729751704284" lon="12.797285314520675"><ele>121.0</ele><time>2026-04-07T13:25:53Z</time></trkpt><trkpt lat="43.686786606333015" lon="12.797427947249256"><ele>121.0</ele><time>2026-04-07T13:25:54Z</time></trkpt><trkpt lat="43.68684603153092" lon="12.79755650660926"><ele>121.0</ele><time>2026-04-07T13:25:55Z</time></trkpt><trkpt lat="43.686905749360115" lon="12.797684195277302"><ele>121.0</ele><time>2026-04-07T13:25:56Z</time></trkpt><trkpt lat="43.68696324317775" lon="12.797813849488826"><ele>121.0</ele><time>2026-04-07T13:25:57Z</time></trkpt><trkpt lat="43.6870292759175" lon="12.797940250603979"><ele>121.0</ele><time>2026-04-07T13:25:58Z</time></trkpt><trkpt lat="43.6870929317106" lon="12.798077145908222"><ele>122.5</ele><time>2026-04-07T13:25:59Z</time></trkpt><trkpt lat="43.68717690383884" lon="12.798184150884376"><ele>124.0</ele><time>2026-04-07T13:26:00Z</time></trkpt><trkpt lat="43.687257691589295" lon="12.79830134993345"><ele>125.5</ele><time>2026-04-07T13:26:01Z</time></trkpt><trkpt lat="43.68733153204494" lon="12.798430983708556"><ele>127.0</ele><time>2026-04-07T13:26:02Z</time></trkpt><trkpt lat="43.687429384188775" lon="12.798520488765138"><ele>129.4</ele><time>2026-04-07T13:26:03Z</time></trkpt><trkpt lat="43.68751538635787" lon="12.79860713424598"><ele>131.79999999999998</ele><time>2026-04-07T13:26:04Z</time></trkpt><trkpt lat="43.68760096991466" lon="12.7986811664078"><ele>134.2</ele><time>2026-04-07T13:26:05Z</time></trkpt><trkpt lat="43.687680922985265" lon="12.798750546181129"><ele>136.6</ele><time>2026-04-07T13:26:06Z</time></trkpt><trkpt lat="43.687755543212766" lon="12.798820565992141"><ele>139.0</ele><time>2026-04-07T13:26:07Z</time></trkpt><trkpt lat="43.68781942239185" lon="12.798881632424393"><ele>139.0</ele><time>2026-04-07T13:26:08Z</time></trkpt><trkpt lat="43.68787554929837" lon="12.798938450048816"><ele>139.0</ele><time>2026-04-07T13:26:09Z</time></trkpt><trkpt lat="43.687930880336495" lon="12.7989904420883"><ele>139.0</ele><time>2026-04-07T13:26:10Z</time></trkpt><trkpt lat="43.68798591733732" lon="12.79904458506599"><ele>139.0</ele><time>2026-04-07T13:26:11Z</time></trkpt><trkpt lat="43.68804156949497" lon="12.79910697797688"><ele>139.0</ele><time>2026-04-07T13:26:12Z</time></trkpt><trkpt lat="43.68810249234016" lon="12.799187269416986"><ele>139.0</ele><time>2026-04-07T13:26:13Z</time></trkpt><trkpt lat="43.68816842141066" lon="12.799274137685433"><ele>134.0</ele><time>2026-04-07T13:26:14Z</time></trkpt><trkpt lat="43.68823147970261" lon="12.799380393765691"><ele>129.0</ele><time>2026-04-07T13:26:15Z</time></trkpt><trkpt lat="43.68829143152896" lon="12.799496471319198"><ele>124.0</ele><time>2026-04-07T13:26:16Z</time></trkpt><trkpt lat="43.688348892948994" lon="12.799622352399249"><ele>119.0</ele><time>2026-04-07T13:26:17Z</time></trkpt><trkpt lat="43.688400025542954" lon="12.799755582114773"><ele>114.0</ele><time>2026-04-07T13:26:18Z</time></trkpt><trkpt lat="43.688452098617425" lon="12.79988217682594"><ele>114.0</ele><time>2026-04-07T13:26:19Z</time></trkpt><trkpt lat="43.688505753128055" lon="12.800008450281432"><ele>114.0</ele><time>2026-04-07T13:26:20Z</time></trkpt><trkpt lat="43.6885582624078" lon="12.800135812325763"><ele>114.0</ele><time>2026-04-07T13:26:21Z</time></trkpt><trkpt lat="43.68861155246215" lon="12.800258936988659"><ele>114.0</ele><time>2026-04-07T13:26:22Z</time></trkpt><trkpt lat="43.68866083918795" lon="12.80038327317776"><ele>114.0</ele><time>2026-04-07T13:26:23Z</time></trkpt><trkpt lat="43.6886971616492" lon="12.800519468773919"><ele>116.80000000000001</ele><time>2026-04-07T13:26:24Z</time></trkpt><trkpt lat="43.688756857842066" lon="12.800637778482008"><ele>119.60000000000001</ele><time>2026-04-07T13:26:25Z</time></trkpt><trkpt lat="43.68879204202198" lon="12.800769766781281"><ele>122.4</ele><time>2026-04-07T13:26:26Z</time></trkpt><trkpt lat="43.688827009522406" lon="12.800905338781801"><ele>125.2</ele><time>2026-04-07T13:26:27Z</time></trkpt><trkpt lat="43.68885636995845" lon="12.801046404973807"><ele>128.0</ele><time>2026-04-07T13:26:28Z</time></trkpt><trkpt lat="43.688882667602584" lon="12.801187010603709"><ele>127.99999999999999</ele><time>2026-04-07T13:26:29Z</time></trkpt><trkpt lat="43.68888057670474" lon="12.801324582191667"><ele>128.0</ele><time>2026-04-07T13:26:30Z</time></trkpt><trkpt lat="43.68890721917344" lon="12.80145467122913"><ele>128.0</ele><time>2026-04-07T13:26:31Z</time></trkpt><trkpt lat="43.68891326763585" lon="12.801582353370941"><ele>128.0</ele><time>2026-04-07T13:26:32Z</time></trkpt><trkpt lat="43.68891536286477" lon="12.801697213736945"><ele>127.99999999999999</ele><time>2026-04-07T13:26:33Z</time></trkpt><trkpt lat="43.6889153805168" lon="12.801800573403566"><ele>128.0</ele><time>2026-04-07T13:26:34Z</time></trkpt><trkpt lat="43.68891189609499" lon="12.801896959592746"><ele>128.16666666666666</ele><time>2026-04-07T13:26:35Z</time></trkpt><trkpt lat="43.68890571700284" lon="12.802036013842983"><ele>128.33333333333331</ele><time>2026-04-07T13:26:37Z</time></trkpt><trkpt lat="43.688892555280894" lon="12.802128721947549"><ele>128.5</ele><time>2026-04-07T13:28:04Z</time></trkpt><trkpt lat="43.688900739508576" lon="12.802266702831153"><ele>128.66666666666666</ele><time>2026-04-07T13:28:06Z</time></trkpt><trkpt lat="43.68889656586639" lon="12.802356806399366"><ele>128.83333333333334</ele><time>2026-04-07T13:28:07Z</time></trkpt><trkpt lat="43.68889080562991" lon="12.802461426471623"><ele>129.0</ele><time>2026-04-07T13:28:08Z</time></trkpt><trkpt lat="43.68888516965151" lon="12.802578438129672"><ele>128.16666666666666</ele><time>2026-04-07T13:28:09Z</time></trkpt><trkpt lat="43.688880537395555" lon="12.802704946289316"><ele>127.33333333333334</ele><time>2026-04-07T13:28:10Z</time></trkpt><trkpt lat="43.68886056412323" lon="12.802837272250875"><ele>126.5</ele><time>2026-04-07T13:28:11Z</time></trkpt><trkpt lat="43.68885612207556" lon="12.802960966333034"><ele>125.66666666666667</ele><time>2026-04-07T13:28:12Z</time></trkpt><trkpt lat="43.688850396142115" lon="12.803078436517252"><ele>124.83333333333334</ele><time>2026-04-07T13:28:13Z</time></trkpt><trkpt lat="43.68884263613032" lon="12.803190641985477"><ele>124.0</ele><time>2026-04-07T13:28:14Z</time></trkpt><trkpt lat="43.68883222933383" lon="12.803301102695158"><ele>124.00000000000001</ele><time>2026-04-07T13:28:15Z</time></trkpt><trkpt lat="43.688821845531486" lon="12.803412536458316"><ele>124.0</ele><time>2026-04-07T13:28:16Z</time></trkpt><trkpt lat="43.68880592839387" lon="12.803518158762245"><ele>124.0</ele><time>2026-04-07T13:28:17Z</time></trkpt><trkpt lat="43.68878460031538" lon="12.803624239352954"><ele>124.0</ele><time>2026-04-07T13:28:18Z</time></trkpt><trkpt lat="43.688762827329334" lon="12.803737824594066"><ele>124.00000000000001</ele><time>2026-04-07T13:28:19Z</time></trkpt><trkpt lat="43.688726133937045" lon="12.803859282964819"><ele>124.0</ele><time>2026-04-07T13:28:20Z</time></trkpt><trkpt lat="43.68866593214558" lon="12.803970109972134"><ele>124.5</ele><time>2026-04-07T13:28:21Z</time></trkpt><trkpt lat="43.68862846487642" lon="12.804107661925375"><ele>125.0</ele><time>2026-04-07T13:28:22Z</time></trkpt><trkpt lat="43.68855948091414" lon="12.80423259906776"><ele>125.5</ele><time>2026-04-07T13:28:23Z</time></trkpt><trkpt lat="43.68850151010463" lon="12.804369824284407"><ele>126.0</ele><time>2026-04-07T13:28:24Z</time></trkpt><trkpt lat="43.68845639683248" lon="12.804519748080802"><ele>120.5</ele><time>2026-04-07T13:28:25Z</time></trkpt><trkpt lat="43.688387518862335" lon="12.804656570578613"><ele>115.0</ele><time>2026-04-07T13:28:26Z</time></trkpt><trkpt lat="43.68834268670604" lon="12.80481220471946"><ele>109.5</ele><time>2026-04-07T13:28:27Z</time></trkpt><trkpt lat="43.688291548612646" lon="12.804951906312436"><ele>104.0</ele><time>2026-04-07T13:28:28Z</time></trkpt><trkpt lat="43.68824058641471" lon="12.805086977971618"><ele>105.5</ele><time>2026-04-07T13:28:29Z</time></trkpt><trkpt lat="43.68817818569454" lon="12.805220189347459"><ele>107.0</ele><time>2026-04-07T13:28:30Z</time></trkpt><trkpt lat="43.68812717778062" lon="12.805365597386228"><ele>108.5</ele><time>2026-04-07T13:28:31Z</time></trkpt><trkpt lat="43.68808957210735" lon="12.805522487863563"><ele>110.0</ele><time>2026-04-07T13:28:32Z</time></trkpt><trkpt lat="43.68803911300957" lon="12.805672719031527"><ele>110.0</ele><time>2026-04-07T13:28:33Z</time></trkpt><trkpt lat="43.6879872180065" lon="12.80582072681879"><ele>110.0</ele><time>2026-04-07T13:28:34Z</time></trkpt><trkpt lat="43.68793708097549" lon="12.805964479368704"><ele>110.0</ele><time>2026-04-07T13:28:35Z</time></trkpt><trkpt lat="43.68788855874635" lon="12.806103522770702"><ele>110.0</ele><time>2026-04-07T13:28:36Z</time></trkpt><trkpt lat="43.68783889495589" lon="12.806245747051998"><ele>109.8</ele><time>2026-04-07T13:28:37Z</time></trkpt><trkpt lat="43.6877925178282" lon="12.806374474526372"><ele>109.6</ele><time>2026-04-07T13:28:38Z</time></trkpt><trkpt lat="43.687741040948815" lon="12.806527246408914"><ele>109.4</ele><time>2026-04-07T13:28:39Z</time></trkpt><trkpt lat="43.68769847094949" lon="12.806668045980752"><ele>109.2</ele><time>2026-04-07T13:28:40Z</time></trkpt><trkpt lat="43.68765933404501" lon="12.806804756767852"><ele>109.0</ele><time>2026-04-07T13:28:41Z</time></trkpt><trkpt lat="43.68763137271564" lon="12.806947420760533"><ele>109.0</ele><time>2026-04-07T13:28:42Z</time></trkpt><trkpt lat="43.68762154955597" lon="12.807092619251119"><ele>109.0</ele><time>2026-04-07T13:28:43Z</time></trkpt><trkpt lat="43.68762298394043" lon="12.80724622093305"><ele>109.0</ele><time>2026-04-07T13:28:44Z</time></trkpt><trkpt lat="43.68764543997839" lon="12.807391482569328"><ele>109.0</ele><time>2026-04-07T13:28:45Z</time></trkpt><trkpt lat="43.6876798320426" lon="12.8075305082121"><ele>109.0</ele><time>2026-04-07T13:28:46Z</time></trkpt><trkpt lat="43.68772392565389" lon="12.807654600039566"><ele>110.80000000000001</ele><time>2026-04-07T13:28:47Z</time></trkpt><trkpt lat="43.68777797974621" lon="12.807771201847109"><ele>112.60000000000001</ele><time>2026-04-07T13:28:48Z</time></trkpt><trkpt lat="43.68784255198049" lon="12.807884906228956"><ele>114.4</ele><time>2026-04-07T13:28:49Z</time></trkpt><trkpt lat="43.68790904953282" lon="12.807999401207434"><ele>116.2</ele><time>2026-04-07T13:28:50Z</time></trkpt><trkpt lat="43.687974931294164" lon="12.808111317840089"><ele>118.0</ele><time>2026-04-07T13:28:51Z</time></trkpt><trkpt lat="43.688043105841246" lon="12.808226303639982"><ele>118.0</ele><time>2026-04-07T13:28:52Z</time></trkpt><trkpt lat="43.68811101186848" lon="12.80834058012919"><ele>118.00000000000001</ele><time>2026-04-07T13:28:53Z</time></trkpt><trkpt lat="43.68817582424025" lon="12.80845748808454"><ele>118.00000000000001</ele><time>2026-04-07T13:28:54Z</time></trkpt><trkpt lat="43.68823966052259" lon="12.808570912900068"><ele>118.0</ele><time>2026-04-07T13:28:55Z</time></trkpt><trkpt lat="43.68830633587763" lon="12.808682762495218"><ele>118.0</ele><time>2026-04-07T13:28:56Z</time></trkpt><trkpt lat="43.68837282061796" lon="12.808794271232978"><ele>118.0</ele><time>2026-04-07T13:28:57Z</time></trkpt><trkpt lat="43.688439154101005" lon="12.808907128155486"><ele>118.00000000000001</ele><time>2026-04-07T13:28:58Z</time></trkpt><trkpt lat="43.6884991297163" lon="12.809013347827786"><ele>118.00000000000001</ele><time>2026-04-07T13:28:59Z</time></trkpt><trkpt lat="43.68855225323383" lon="12.809114070684904"><ele>118.0</ele><time>2026-04-07T13:29:00Z</time></trkpt><trkpt lat="43.68861134706836" lon="12.809215135836224"><ele>118.0</ele><time>2026-04-07T13:29:01Z</time></trkpt><trkpt lat="43.6886701903564" lon="12.809321904954523"><ele>118.2</ele><time>2026-04-07T13:29:02Z</time></trkpt><trkpt lat="43.68872603188466" lon="12.809413043447208"><ele>118.4</ele><time>2026-04-07T13:29:03Z</time></trkpt><trkpt lat="43.68878913250847" lon="12.809530534524795"><ele>118.60000000000001</ele><time>2026-04-07T13:29:04Z</time></trkpt><trkpt lat="43.688850481752844" lon="12.809637400755124"><ele>118.80000000000001</ele><time>2026-04-07T13:29:05Z</time></trkpt><trkpt lat="43.68891637942905" lon="12.809744003197684"><ele>119.0</ele><time>2026-04-07T13:29:06Z</time></trkpt><trkpt lat="43.68898132296931" lon="12.80985284221874"><ele>119.0</ele><time>2026-04-07T13:29:07Z</time></trkpt><trkpt lat="43.68904710895044" lon="12.809959709993846"><ele>119.0</ele><time>2026-04-07T13:29:08Z</time></trkpt><trkpt lat="43.689115457828635" lon="12.810066593735058"><ele>119.0</ele><time>2026-04-07T13:29:09Z</time></trkpt><trkpt lat="43.689185831824844" lon="12.810161868514871"><ele>119.0</ele><time>2026-04-07T13:29:10Z</time></trkpt><trkpt lat="43.689254169824224" lon="12.810244801789834"><ele>119.0</ele><time>2026-04-07T13:29:11Z</time></trkpt><trkpt lat="43.689312014311696" lon="12.810347169797273"><ele>118.99999999999999</ele><time>2026-04-07T13:29:12Z</time></trkpt><trkpt lat="43.6893798639445" lon="12.810431932226342"><ele>119.0</ele><time>2026-04-07T13:29:13Z</time></trkpt><trkpt lat="43.689452420495066" lon="12.81049164000155"><ele>119.0</ele><time>2026-04-07T13:29:14Z</time></trkpt><trkpt lat="43.68950103127943" lon="12.810586924190103"><ele>119.0</ele><time>2026-04-07T13:29:15Z</time></trkpt><trkpt lat="43.68954887820713" lon="12.810660620111877"><ele>118.99999999999999</ele><time>2026-04-07T13:29:16Z</time></trkpt><trkpt lat="43.689616777645654" lon="12.810787989300806"><ele>119.0</ele><time>2026-04-07T13:29:18Z</time></trkpt><trkpt lat="43.689644863988654" lon="12.810871923527547"><ele>118.6</ele><time>2026-04-07T13:29:19Z</time></trkpt><trkpt lat="43.68968504566749" lon="12.810969372415613"><ele>118.2</ele><time>2026-04-07T13:29:20Z</time></trkpt><trkpt lat="43.68973816528865" lon="12.81106976442419"><ele>117.79999999999998</ele><time>2026-04-07T13:29:21Z</time></trkpt><trkpt lat="43.689800621968466" lon="12.811172460778879"><ele>117.39999999999999</ele><time>2026-04-07T13:29:22Z</time></trkpt><trkpt lat="43.68985310759316" lon="12.81128973915297"><ele>117.0</ele><time>2026-04-07T13:29:23Z</time></trkpt><trkpt lat="43.68990098036309" lon="12.811412828968919"><ele>116.66666666666667</ele><time>2026-04-07T13:29:24Z</time></trkpt><trkpt lat="43.689945113302635" lon="12.811520340690588"><ele>116.33333333333334</ele><time>2026-04-07T13:29:25Z</time></trkpt><trkpt lat="43.689983949690266" lon="12.81162004408511"><ele>116.0</ele><time>2026-04-07T13:29:26Z</time></trkpt><trkpt lat="43.69002095669555" lon="12.81171126442233"><ele>115.66666666666667</ele><time>2026-04-07T13:29:27Z</time></trkpt><trkpt lat="43.69005825919446" lon="12.81180215707473"><ele>115.33333333333334</ele><time>2026-04-07T13:29:28Z</time></trkpt><trkpt lat="43.69009592995675" lon="12.81189575354077"><ele>115.0</ele><time>2026-04-07T13:29:29Z</time></trkpt><trkpt lat="43.69013592734059" lon="12.811995973122645"><ele>114.8</ele><time>2026-04-07T13:29:30Z</time></trkpt><trkpt lat="43.690179662850234" lon="12.812102433021646"><ele>114.6</ele><time>2026-04-07T13:29:31Z</time></trkpt><trkpt lat="43.690228077943246" lon="12.81221435002074"><ele>114.4</ele><time>2026-04-07T13:29:32Z</time></trkpt><trkpt lat="43.69027730399387" lon="12.812332651428274"><ele>114.2</ele><time>2026-04-07T13:29:33Z</time></trkpt><trkpt lat="43.69032386831598" lon="12.812445639039195"><ele>114.0</ele><time>2026-04-07T13:29:34Z</time></trkpt><trkpt lat="43.69037441944791" lon="12.812554748665779"><ele>114.0</ele><time>2026-04-07T13:29:35Z</time></trkpt><trkpt lat="43.690420803222295" lon="12.812669840116767"><ele>114.0</ele><time>2026-04-07T13:29:36Z</time></trkpt><trkpt lat="43.690465896944424" lon="12.81278536296965"><ele>114.0</ele><time>2026-04-07T13:29:37Z</time></trkpt><trkpt lat="43.69051435257348" lon="12.81290206646348"><ele>114.0</ele><time>2026-04-07T13:29:38Z</time></trkpt><trkpt lat="43.690563829050895" lon="12.813017857302913"><ele>114.0</ele><time>2026-04-07T13:29:39Z</time></trkpt><trkpt lat="43.690611808943316" lon="12.813135042684348"><ele>114.0</ele><time>2026-04-07T13:29:40Z</time></trkpt><trkpt lat="43.69066213147815" lon="12.813257735532103"><ele>114.0</ele><time>2026-04-07T13:29:41Z</time></trkpt><trkpt lat="43.69071184218283" lon="12.813377665651295"><ele>114.0</ele><time>2026-04-07T13:29:42Z</time></trkpt><trkpt lat="43.690761936294635" lon="12.81350066740053"><ele>114.0</ele><time>2026-04-07T13:29:43Z</time></trkpt><trkpt lat="43.69081305651036" lon="12.813623569096517"><ele>114.0</ele><time>2026-04-07T13:29:44Z</time></trkpt><trkpt lat="43.69086224949979" lon="12.813744259642409"><ele>113.4</ele><time>2026-04-07T13:29:45Z</time></trkpt><trkpt lat="43.69091148641711" lon="12.813863696011834"><ele>112.80000000000001</ele><time>2026-04-07T13:29:46Z</time></trkpt><trkpt lat="43.69095903079594" lon="12.813981870180461"><ele>112.19999999999999</ele><time>2026-04-07T13:29:47Z</time></trkpt><trkpt lat="43.69101214107697" lon="12.814102301735238"><ele>111.6</ele><time>2026-04-07T13:29:48Z</time></trkpt><trkpt lat="43.691063335578804" lon="12.814224727799134"><ele>111.0</ele><time>2026-04-07T13:29:49Z</time></trkpt><trkpt lat="43.691112955969906" lon="12.814338003424831"><ele>111.0</ele><time>2026-04-07T13:29:50Z</time></trkpt><trkpt lat="43.6911603450562" lon="12.81445284649709"><ele>111.0</ele><time>2026-04-07T13:29:51Z</time></trkpt><trkpt lat="43.69120045549019" lon="12.814558187138665"><ele>111.0</ele><time>2026-04-07T13:29:52Z</time></trkpt><trkpt lat="43.691239916127955" lon="12.814662014854473"><ele>111.0</ele><time>2026-04-07T13:29:53Z</time></trkpt><trkpt lat="43.6912821066227" lon="12.81476185110174"><ele>111.0</ele><time>2026-04-07T13:29:54Z</time></trkpt><trkpt lat="43.6913253358734" lon="12.814871403244767"><ele>111.0</ele><time>2026-04-07T13:29:55Z</time></trkpt><trkpt lat="43.69137153087197" lon="12.814985355997704"><ele>111.0</ele><time>2026-04-07T13:29:56Z</time></trkpt><trkpt lat="43.691418779877885" lon="12.815101492691158"><ele>111.0</ele><time>2026-04-07T13:29:57Z</time></trkpt><trkpt lat="43.691467627584544" lon="12.815220365980139"><ele>111.0</ele><time>2026-04-07T13:29:58Z</time></trkpt><trkpt lat="43.691518878358124" lon="12.815341071855336"><ele>111.0</ele><time>2026-04-07T13:29:59Z</time></trkpt><trkpt lat="43.69157312695562" lon="12.815462778937007"><ele>111.0</ele><time>2026-04-07T13:30:00Z</time></trkpt><trkpt lat="43.69162385174756" lon="12.815595025266944"><ele>110.6</ele><time>2026-04-07T13:30:01Z</time></trkpt><trkpt lat="43.69167800195211" lon="12.815717957466093"><ele>110.19999999999999</ele><time>2026-04-07T13:30:02Z</time></trkpt><trkpt lat="43.69173158847549" lon="12.815836720935417"><ele>109.80000000000001</ele><time>2026-04-07T13:30:03Z</time></trkpt><trkpt lat="43.6917858046617" lon="12.815959669317017"><ele>109.4</ele><time>2026-04-07T13:30:04Z</time></trkpt><trkpt lat="43.691840576786575" lon="12.816088949784195"><ele>109.0</ele><time>2026-04-07T13:30:05Z</time></trkpt><trkpt lat="43.691895309577895" lon="12.816221463173143"><ele>109.2</ele><time>2026-04-07T13:30:06Z</time></trkpt><trkpt lat="43.69195021486915" lon="12.816351803959897"><ele>109.4</ele><time>2026-04-07T13:30:07Z</time></trkpt><trkpt lat="43.692003752561554" lon="12.816480622284399"><ele>109.6</ele><time>2026-04-07T13:30:08Z</time></trkpt><trkpt lat="43.692056047006304" lon="12.816610475192794"><ele>109.8</ele><time>2026-04-07T13:30:09Z</time></trkpt><trkpt lat="43.69210834418735" lon="12.816736618348086"><ele>110.0</ele><time>2026-04-07T13:30:10Z</time></trkpt><trkpt lat="43.69216148568734" lon="12.816862379498698"><ele>110.0</ele><time>2026-04-07T13:30:11Z</time></trkpt><trkpt lat="43.69221322776147" lon="12.81699029715295"><ele>110.0</ele><time>2026-04-07T13:30:12Z</time></trkpt><trkpt lat="43.69226431455467" lon="12.817117864836973"><ele>110.0</ele><time>2026-04-07T13:30:13Z</time></trkpt><trkpt lat="43.69231922326905" lon="12.817246059349475"><ele>110.0</ele><time>2026-04-07T13:30:14Z</time></trkpt><trkpt lat="43.69237443797161" lon="12.817373923518803"><ele>110.0</ele><time>2026-04-07T13:30:15Z</time></trkpt><trkpt lat="43.69242795305564" lon="12.81750564663612"><ele>110.0</ele><time>2026-04-07T13:30:16Z</time></trkpt><trkpt lat="43.69247949431154" lon="12.817641697955054"><ele>110.0</ele><time>2026-04-07T13:30:17Z</time></trkpt><trkpt lat="43.69253734910579" lon="12.817771139148622"><ele>110.0</ele><time>2026-04-07T13:30:18Z</time></trkpt><trkpt lat="43.69259017359283" lon="12.817899419896891"><ele>110.0</ele><time>2026-04-07T13:30:19Z</time></trkpt><trkpt lat="43.692644628275524" lon="12.818026785786957"><ele>110.0</ele><time>2026-04-07T13:30:20Z</time></trkpt><trkpt lat="43.69269819939111" lon="12.818157882173493"><ele>109.8</ele><time>2026-04-07T13:30:21Z</time></trkpt><trkpt lat="43.69275021372773" lon="12.818291802703436"><ele>109.6</ele><time>2026-04-07T13:30:22Z</time></trkpt><trkpt lat="43.69280701569796" lon="12.818423688439655"><ele>109.4</ele><time>2026-04-07T13:30:23Z</time></trkpt><trkpt lat="43.692861334786976" lon="12.818555698036008"><ele>109.2</ele><time>2026-04-07T13:30:24Z</time></trkpt><trkpt lat="43.69291890755179" lon="12.818685830745833"><ele>109.0</ele><time>2026-04-07T13:30:25Z</time></trkpt><trkpt lat="43.69297069836248" lon="12.81882379908822"><ele>108.4</ele><time>2026-04-07T13:30:26Z</time></trkpt><trkpt lat="43.69303137149634" lon="12.818952524248276"><ele>107.80000000000001</ele><time>2026-04-07T13:30:27Z</time></trkpt><trkpt lat="43.693081881368016" lon="12.8190776561758"><ele>107.19999999999999</ele><time>2026-04-07T13:30:28Z</time></trkpt><trkpt lat="43.693135607054174" lon="12.819198536028196"><ele>106.6</ele><time>2026-04-07T13:30:29Z</time></trkpt><trkpt lat="43.69318641086326" lon="12.819322919801149"><ele>106.0</ele><time>2026-04-07T13:30:30Z</time></trkpt><trkpt lat="43.69323680011307" lon="12.819446622840015"><ele>105.8</ele><time>2026-04-07T13:30:31Z</time></trkpt><trkpt lat="43.693285801320165" lon="12.819557805980914"><ele>105.6</ele><time>2026-04-07T13:30:32Z</time></trkpt><trkpt lat="43.6933238672292" lon="12.819662806526376"><ele>105.4</ele><time>2026-04-07T13:30:33Z</time></trkpt><trkpt lat="43.69335603589182" lon="12.819753514308227"><ele>105.2</ele><time>2026-04-07T13:30:34Z</time></trkpt><trkpt lat="43.69336596607306" lon="12.819981257319036"><ele>105.0</ele><time>2026-04-07T13:30:36Z</time></trkpt><trkpt lat="43.693359159734094" lon="12.820078571318447"><ele>105.2</ele><time>2026-04-07T13:30:37Z</time></trkpt><trkpt lat="43.693373742065624" lon="12.820219102554393"><ele>105.4</ele><time>2026-04-07T13:30:39Z</time></trkpt><trkpt lat="43.69347265764818" lon="12.820275493324873"><ele>105.6</ele><time>2026-04-07T13:30:41Z</time></trkpt><trkpt lat="43.69356771548189" lon="12.820285200559237"><ele>105.8</ele><time>2026-04-07T13:30:43Z</time></trkpt><trkpt lat="43.69360356983256" lon="12.820166253391182"><ele>106.0</ele><time>2026-04-07T13:30:44Z</time></trkpt><trkpt lat="43.693602789025775" lon="12.820005596089104"><ele>106.00000000000001</ele><time>2026-04-07T13:30:46Z</time></trkpt><trkpt lat="43.693507067616764" lon="12.819907567574017"><ele>106.0</ele><time>2026-04-07T13:30:48Z</time></trkpt><trkpt lat="43.693442380682995" lon="12.819916522064334"><ele>106.0</ele><time>2026-04-07T13:30:49Z</time></trkpt><trkpt lat="43.69338129116958" lon="12.819948680216145"><ele>106.0</ele><time>2026-04-07T13:30:50Z</time></trkpt><trkpt lat="43.69334265413667" lon="12.820026824225499"><ele>106.00000000000001</ele><time>2026-04-07T13:30:51Z</time></trkpt><trkpt lat="43.69332721507372" lon="12.82011371619834"><ele>106.0</ele><time>2026-04-07T13:30:52Z</time></trkpt><trkpt lat="43.69334810797593" lon="12.820202846221829"><ele>106.00000000000001</ele><time>2026-04-07T13:30:53Z</time></trkpt><trkpt lat="43.69340189544101" lon="12.820267824770923"><ele>106.0</ele><time>2026-04-07T13:30:54Z</time></trkpt><trkpt lat="43.6934598657769" lon="12.82030504150465"><ele>106.0</ele><time>2026-04-07T13:30:55Z</time></trkpt><trkpt lat="43.6935684753986" lon="12.820377579488861"><ele>106.0</ele><time>2026-04-07T13:30:57Z</time></trkpt><trkpt lat="43.69366162168605" lon="12.820490064769276"><ele>106.00000000000001</ele><time>2026-04-07T13:30:59Z</time></trkpt><trkpt lat="43.69370810342196" lon="12.820561579230068"><ele>106.0</ele><time>2026-04-07T13:31:00Z</time></trkpt><trkpt lat="43.693757471181264" lon="12.820625293339578"><ele>106.19999999999999</ele><time>2026-04-07T13:31:01Z</time></trkpt><trkpt lat="43.69387259723739" lon="12.820667990595554"><ele>106.39999999999999</ele><time>2026-04-07T13:31:03Z</time></trkpt><trkpt lat="43.6939308282951" lon="12.820558541914707"><ele>106.6</ele><time>2026-04-07T13:31:04Z</time></trkpt><trkpt lat="43.69398475637636" lon="12.820490457407473"><ele>106.8</ele><time>2026-04-07T13:31:05Z</time></trkpt><trkpt lat="43.69404733745363" lon="12.820426585453907"><ele>107.0</ele><time>2026-04-07T13:31:06Z</time></trkpt><trkpt lat="43.694126371866965" lon="12.8203615380458"><ele>107.0</ele><time>2026-04-07T13:31:07Z</time></trkpt><trkpt lat="43.69421197776647" lon="12.820300723346735"><ele>106.99999999999999</ele><time>2026-04-07T13:31:08Z</time></trkpt><trkpt lat="43.69429796336422" lon="12.820238022842203"><ele>106.99999999999999</ele><time>2026-04-07T13:31:09Z</time></trkpt><trkpt lat="43.69438000038605" lon="12.82016080988443"><ele>107.0</ele><time>2026-04-07T13:31:10Z</time></trkpt><trkpt lat="43.69445322143225" lon="12.820069207180158"><ele>107.0</ele><time>2026-04-07T13:31:11Z</time></trkpt><trkpt lat="43.69451701307678" lon="12.81997036489216"><ele>107.83333333333333</ele><time>2026-04-07T13:31:12Z</time></trkpt><trkpt lat="43.69456120094029" lon="12.819865127968923"><ele>108.66666666666666</ele><time>2026-04-07T13:31:13Z</time></trkpt><trkpt lat="43.694593727265314" lon="12.819754570850682"><ele>109.5</ele><time>2026-04-07T13:31:14Z</time></trkpt><trkpt lat="43.69461260315557" lon="12.819639823443563"><ele>110.33333333333334</ele><time>2026-04-07T13:31:15Z</time></trkpt><trkpt lat="43.69462240141014" lon="12.819537641250365"><ele>111.16666666666667</ele><time>2026-04-07T13:31:16Z</time></trkpt><trkpt lat="43.69464151397685" lon="12.819399246753159"><ele>112.0</ele><time>2026-04-07T13:31:18Z</time></trkpt><trkpt lat="43.694791387651065" lon="12.819344453338323"><ele>112.00000000000001</ele><time>2026-04-07T13:31:21Z</time></trkpt><trkpt lat="43.69485932887599" lon="12.819401736218007"><ele>112.0</ele><time>2026-04-07T13:31:22Z</time></trkpt><trkpt lat="43.69493088738718" lon="12.819455654149797"><ele>112.0</ele><time>2026-04-07T13:31:23Z</time></trkpt><trkpt lat="43.69500762518642" lon="12.819513987375695"><ele>112.0</ele><time>2026-04-07T13:31:24Z</time></trkpt><trkpt lat="43.695084097848074" lon="12.819577370727044"><ele>112.00000000000001</ele><time>2026-04-07T13:31:25Z</time></trkpt><trkpt lat="43.695165649072344" lon="12.819645185527596"><ele>112.0</ele><time>2026-04-07T13:31:26Z</time></trkpt><trkpt lat="43.69525003496625" lon="12.819708963048058"><ele>113.6</ele><time>2026-04-07T13:31:27Z</time></trkpt><trkpt lat="43.69533472994335" lon="12.819771661847508"><ele>115.19999999999999</ele><time>2026-04-07T13:31:28Z</time></trkpt><trkpt lat="43.69540873232781" lon="12.819854584118566"><ele>116.8</ele><time>2026-04-07T13:31:29Z</time></trkpt><trkpt lat="43.695489621839435" lon="12.819923283035488"><ele>118.4</ele><time>2026-04-07T13:31:30Z</time></trkpt><trkpt lat="43.69557357847874" lon="12.819991999605703"><ele>120.0</ele><time>2026-04-07T13:31:31Z</time></trkpt><trkpt lat="43.695665666616385" lon="12.820040061169655"><ele>120.0</ele><time>2026-04-07T13:31:32Z</time></trkpt><trkpt lat="43.695751383715674" lon="12.820115156841448"><ele>120.0</ele><time>2026-04-07T13:31:33Z</time></trkpt><trkpt lat="43.69583034155924" lon="12.820175740991123"><ele>120.0</ele><time>2026-04-07T13:31:34Z</time></trkpt><trkpt lat="43.69590942383627" lon="12.820239397333664"><ele>120.0</ele><time>2026-04-07T13:31:35Z</time></trkpt><trkpt lat="43.69598872773735" lon="12.820306134314942"><ele>120.0</ele><time>2026-04-07T13:31:36Z</time></trkpt><trkpt lat="43.69606502940013" lon="12.820370371707845"><ele>120.16666666666667</ele><time>2026-04-07T13:31:37Z</time></trkpt><trkpt lat="43.6961285347506" lon="12.820424354146935"><ele>120.33333333333334</ele><time>2026-04-07T13:31:38Z</time></trkpt><trkpt lat="43.69618791185783" lon="12.820485653722114"><ele>120.5</ele><time>2026-04-07T13:31:39Z</time></trkpt><trkpt lat="43.69625401521128" lon="12.82055109914767"><ele>120.66666666666667</ele><time>2026-04-07T13:31:40Z</time></trkpt><trkpt lat="43.6963246226787" lon="12.8206359781796"><ele>120.83333333333334</ele><time>2026-04-07T13:31:41Z</time></trkpt><trkpt lat="43.69639445699619" lon="12.820732086017879"><ele>121.0</ele><time>2026-04-07T13:31:42Z</time></trkpt><trkpt lat="43.6964630824818" lon="12.820848775135143"><ele>121.0</ele><time>2026-04-07T13:31:43Z</time></trkpt><trkpt lat="43.69653656375842" lon="12.82096563493215"><ele>121.0</ele><time>2026-04-07T13:31:44Z</time></trkpt><trkpt lat="43.69660439719996" lon="12.821072640917187"><ele>121.0</ele><time>2026-04-07T13:31:45Z</time></trkpt><trkpt lat="43.69667315338163" lon="12.821178405579735"><ele>121.0</ele><time>2026-04-07T13:31:46Z</time></trkpt><trkpt lat="43.696740144431786" lon="12.8212812669012"><ele>121.0</ele><time>2026-04-07T13:31:47Z</time></trkpt><trkpt lat="43.6968022741303" lon="12.821373726241424"><ele>120.8</ele><time>2026-04-07T13:31:48Z</time></trkpt><trkpt lat="43.696865740343924" lon="12.821447524959183"><ele>120.6</ele><time>2026-04-07T13:31:49Z</time></trkpt><trkpt lat="43.69692712434651" lon="12.821547019672412"><ele>120.4</ele><time>2026-04-07T13:31:50Z</time></trkpt><trkpt lat="43.696986923087536" lon="12.821658973916788"><ele>120.2</ele><time>2026-04-07T13:31:51Z</time></trkpt><trkpt lat="43.69705264952523" lon="12.821769715519299"><ele>120.0</ele><time>2026-04-07T13:31:52Z</time></trkpt><trkpt lat="43.697123941091796" lon="12.821881076647838"><ele>120.0</ele><time>2026-04-07T13:31:53Z</time></trkpt><trkpt lat="43.69719610903372" lon="12.82198962116742"><ele>120.0</ele><time>2026-04-07T13:31:54Z</time></trkpt><trkpt lat="43.6972624425005" lon="12.822085572685637"><ele>120.0</ele><time>2026-04-07T13:31:55Z</time></trkpt><trkpt lat="43.69731896362245" lon="12.82217842332436"><ele>120.0</ele><time>2026-04-07T13:31:56Z</time></trkpt><trkpt lat="43.69737106264819" lon="12.82225420307763"><ele>120.0</ele><time>2026-04-07T13:31:57Z</time></trkpt><trkpt lat="43.69741173853108" lon="12.82232354399933"><ele>120.0</ele><time>2026-04-07T13:31:58Z</time></trkpt><trkpt lat="43.697467518617266" lon="12.822423560992192"><ele>120.0</ele><time>2026-04-07T13:32:00Z</time></trkpt><trkpt lat="43.69753816004814" lon="12.822493842728793"><ele>120.0</ele><time>2026-04-07T13:32:03Z</time></trkpt><trkpt lat="43.69767766535933" lon="12.822385040580043"><ele>120.0</ele><time>2026-04-07T13:32:06Z</time></trkpt><trkpt lat="43.69776434986942" lon="12.822243898821796"><ele>120.0</ele><time>2026-04-07T13:32:08Z</time></trkpt><trkpt lat="43.697815564676205" lon="12.822158729451253"><ele>121.0</ele><time>2026-04-07T13:32:09Z</time></trkpt><trkpt lat="43.69787018306456" lon="12.822066491313077"><ele>122.0</ele><time>2026-04-07T13:32:10Z</time></trkpt><trkpt lat="43.697929662902126" lon="12.821971214667261"><ele>123.0</ele><time>2026-04-07T13:32:11Z</time></trkpt><trkpt lat="43.697988529142535" lon="12.821872664110453"><ele>124.0</ele><time>2026-04-07T13:32:12Z</time></trkpt><trkpt lat="43.69805693761237" lon="12.82178451394056"><ele>125.0</ele><time>2026-04-07T13:32:13Z</time></trkpt><trkpt lat="43.69813474166334" lon="12.821673703084322"><ele>125.8</ele><time>2026-04-07T13:32:14Z</time></trkpt><trkpt lat="43.69819989148114" lon="12.821543497116089"><ele>126.6</ele><time>2026-04-07T13:32:15Z</time></trkpt><trkpt lat="43.69829652839562" lon="12.821416783349441"><ele>127.4</ele><time>2026-04-07T13:32:16Z</time></trkpt><trkpt lat="43.69835129386374" lon="12.821312952282963"><ele>128.2</ele><time>2026-04-07T13:32:17Z</time></trkpt><trkpt lat="43.6984245950521" lon="12.82120604130615"><ele>129.0</ele><time>2026-04-07T13:32:18Z</time></trkpt><trkpt lat="43.698503169694725" lon="12.821095700028616"><ele>129.6</ele><time>2026-04-07T13:32:19Z</time></trkpt><trkpt lat="43.69857243621351" lon="12.820982028710633"><ele>130.2</ele><time>2026-04-07T13:32:20Z</time></trkpt><trkpt lat="43.698643779162644" lon="12.820874964979586"><ele>130.79999999999998</ele><time>2026-04-07T13:32:21Z</time></trkpt><trkpt lat="43.698702414938765" lon="12.820758237034477"><ele>131.4</ele><time>2026-04-07T13:32:22Z</time></trkpt><trkpt lat="43.69876867179103" lon="12.820663095874208"><ele>132.0</ele><time>2026-04-07T13:32:23Z</time></trkpt><trkpt lat="43.69881196544568" lon="12.820543080356071"><ele>132.0</ele><time>2026-04-07T13:32:24Z</time></trkpt><trkpt lat="43.69887944516817" lon="12.820454004665947"><ele>132.0</ele><time>2026-04-07T13:32:25Z</time></trkpt><trkpt lat="43.69892859895721" lon="12.820335661117033"><ele>132.0</ele><time>2026-04-07T13:32:26Z</time></trkpt><trkpt lat="43.69903952350032" lon="12.82011791401321"><ele>132.0</ele><time>2026-04-07T13:32:28Z</time></trkpt><trkpt lat="43.69909638373277" lon="12.820008002723831"><ele>132.0</ele><time>2026-04-07T13:32:29Z</time></trkpt><trkpt lat="43.69915462149427" lon="12.819896981081865"><ele>132.0</ele><time>2026-04-07T13:32:30Z</time></trkpt><trkpt lat="43.69921428303683" lon="12.81978323735645"><ele>132.0</ele><time>2026-04-07T13:32:31Z</time></trkpt><trkpt lat="43.69927831828195" lon="12.819672297576062"><ele>132.0</ele><time>2026-04-07T13:32:32Z</time></trkpt><trkpt lat="43.69934741819788" lon="12.819559442117622"><ele>132.0</ele><time>2026-04-07T13:32:33Z</time></trkpt><trkpt lat="43.69941994674431" lon="12.819448770748364"><ele>132.0</ele><time>2026-04-07T13:32:34Z</time></trkpt><trkpt lat="43.69949065054137" lon="12.819337072347214"><ele>132.0</ele><time>2026-04-07T13:32:35Z</time></trkpt><trkpt lat="43.699569375632144" lon="12.819227239505567"><ele>132.0</ele><time>2026-04-07T13:32:36Z</time></trkpt><trkpt lat="43.699648675531286" lon="12.819114091875692"><ele>132.0</ele><time>2026-04-07T13:32:37Z</time></trkpt><trkpt lat="43.699725245894875" lon="12.818991008096408"><ele>133.75</ele><time>2026-04-07T13:32:38Z</time></trkpt><trkpt lat="43.6998017637827" lon="12.81886857279904"><ele>135.5</ele><time>2026-04-07T13:32:39Z</time></trkpt><trkpt lat="43.69987180560259" lon="12.818737072108124"><ele>137.25</ele><time>2026-04-07T13:32:40Z</time></trkpt><trkpt lat="43.699933008962574" lon="12.818595104134152"><ele>139.0</ele><time>2026-04-07T13:32:41Z</time></trkpt><trkpt lat="43.69999128772961" lon="12.818446740347275"><ele>140.25</ele><time>2026-04-07T13:32:42Z</time></trkpt><trkpt lat="43.70004960960397" lon="12.818295307694314"><ele>141.5</ele><time>2026-04-07T13:32:43Z</time></trkpt><trkpt lat="43.70010481576409" lon="12.818138590408104"><ele>142.75</ele><time>2026-04-07T13:32:44Z</time></trkpt><trkpt lat="43.70016415818433" lon="12.81799521623328"><ele>144.0</ele><time>2026-04-07T13:32:45Z</time></trkpt><trkpt lat="43.70023478057914" lon="12.817862482315387"><ele>144.5</ele><time>2026-04-07T13:32:46Z</time></trkpt><trkpt lat="43.70032298366819" lon="12.817748027262637"><ele>145.0</ele><time>2026-04-07T13:32:47Z</time></trkpt><trkpt lat="43.7004035607824" lon="12.817626706690822"><ele>145.5</ele><time>2026-04-07T13:32:48Z</time></trkpt><trkpt lat="43.70047452069033" lon="12.817506086712411"><ele>146.0</ele><time>2026-04-07T13:32:49Z</time></trkpt><trkpt lat="43.7005561037155" lon="12.817381083009115"><ele>146.0</ele><time>2026-04-07T13:32:50Z</time></trkpt><trkpt lat="43.70063160215875" lon="12.81726842599617"><ele>146.0</ele><time>2026-04-07T13:32:51Z</time></trkpt><trkpt lat="43.700707715004555" lon="12.817153620774748"><ele>146.0</ele><time>2026-04-07T13:32:52Z</time></trkpt><trkpt lat="43.70075993712209" lon="12.817026343979894"><ele>146.0</ele><time>2026-04-07T13:32:53Z</time></trkpt><trkpt lat="43.70080187828046" lon="12.81689895149254"><ele>146.0</ele><time>2026-04-07T13:32:54Z</time></trkpt><trkpt lat="43.70084935114723" lon="12.816764095973157"><ele>146.0</ele><time>2026-04-07T13:32:55Z</time></trkpt><trkpt lat="43.70090950883328" lon="12.81663440987413"><ele>146.0</ele><time>2026-04-07T13:32:56Z</time></trkpt><trkpt lat="43.700969242272194" lon="12.81649227492302"><ele>146.0</ele><time>2026-04-07T13:32:57Z</time></trkpt><trkpt lat="43.7010360850462" lon="12.816364796480219"><ele>146.0</ele><time>2026-04-07T13:32:58Z</time></trkpt><trkpt lat="43.70111995247622" lon="12.816249787759242"><ele>146.0</ele><time>2026-04-07T13:32:59Z</time></trkpt><trkpt lat="43.70118847349403" lon="12.816131545230059"><ele>146.0</ele><time>2026-04-07T13:33:00Z</time></trkpt><trkpt lat="43.7012453496228" lon="12.81600326862214"><ele>146.0</ele><time>2026-04-07T13:33:01Z</time></trkpt><trkpt lat="43.70131466463661" lon="12.815890817272775"><ele>146.0</ele><time>2026-04-07T13:33:02Z</time></trkpt><trkpt lat="43.70137974006504" lon="12.815789894945196"><ele>146.0</ele><time>2026-04-07T13:33:03Z</time></trkpt><trkpt lat="43.701442625910346" lon="12.815691710692299"><ele>145.83333333333331</ele><time>2026-04-07T13:33:04Z</time></trkpt><trkpt lat="43.701493901829814" lon="12.815592083672978"><ele>145.66666666666666</ele><time>2026-04-07T13:33:05Z</time></trkpt><trkpt lat="43.701541004327794" lon="12.81550184652895"><ele>145.5</ele><time>2026-04-07T13:33:06Z</time></trkpt><trkpt lat="43.70158524773196" lon="12.815407652618452"><ele>145.33333333333334</ele><time>2026-04-07T13:33:07Z</time></trkpt><trkpt lat="43.701625768422986" lon="12.815304515193606"><ele>145.16666666666669</ele><time>2026-04-07T13:33:08Z</time></trkpt><trkpt lat="43.70167154128377" lon="12.815220689075856"><ele>145.0</ele><time>2026-04-07T13:33:09Z</time></trkpt><trkpt lat="43.70168575759408" lon="12.815118946586928"><ele>145.0</ele><time>2026-04-07T13:33:10Z</time></trkpt><trkpt lat="43.70169711012093" lon="12.815008909827512"><ele>145.0</ele><time>2026-04-07T13:33:10.999Z</time></trkpt><trkpt lat="43.70171309482647" lon="12.814897730129381"><ele>145.0</ele><time>2026-04-07T13:33:11.999Z</time></trkpt><trkpt lat="43.701752587689874" lon="12.814791855842957"><ele>145.0</ele><time>2026-04-07T13:33:12.999Z</time></trkpt><trkpt lat="43.70180380868804" lon="12.814710702181031"><ele>145.0</ele><time>2026-04-07T13:33:13.999Z</time></trkpt><trkpt lat="43.70188576317382" lon="12.81465846298853"><ele>145.0</ele><time>2026-04-07T13:33:14.999Z</time></trkpt><trkpt lat="43.701962042109585" lon="12.814624297204153"><ele>146.8</ele><time>2026-04-07T13:33:15.999Z</time></trkpt><trkpt lat="43.70204451638198" lon="12.814582140953489"><ele>148.6</ele><time>2026-04-07T13:33:16.999Z</time></trkpt><trkpt lat="43.7021352287758" lon="12.814560131532291"><ele>150.4</ele><time>2026-04-07T13:33:17.999Z</time></trkpt><trkpt lat="43.702215359775806" lon="12.814512636140686"><ele>152.2</ele><time>2026-04-07T13:33:18.999Z</time></trkpt><trkpt lat="43.70232417249677" lon="12.814529271827068"><ele>154.0</ele><time>2026-04-07T13:33:20.999Z</time></trkpt><trkpt lat="43.70249312619676" lon="12.814538133212668"><ele>154.0</ele><time>2026-04-07T13:33:21.999Z</time></trkpt><trkpt lat="43.70258463825344" lon="12.814496240118393"><ele>154.0</ele><time>2026-04-07T13:33:22.999Z</time></trkpt><trkpt lat="43.702673051233425" lon="12.814461682128673"><ele>154.0</ele><time>2026-04-07T13:33:23.999Z</time></trkpt><trkpt lat="43.702748770659255" lon="12.814392990188663"><ele>154.0</ele><time>2026-04-07T13:33:24.999Z</time></trkpt><trkpt lat="43.702816188345" lon="12.81430662024241"><ele>154.0</ele><time>2026-04-07T13:33:25.999Z</time></trkpt><trkpt lat="43.702900937638496" lon="12.814248949839852"><ele>155.8</ele><time>2026-04-07T13:33:26.999Z</time></trkpt><trkpt lat="43.70298385682229" lon="12.81419486946214"><ele>157.60000000000002</ele><time>2026-04-07T13:33:27.999Z</time></trkpt><trkpt lat="43.70306959331642" lon="12.814139628225243"><ele>159.4</ele><time>2026-04-07T13:33:28.999Z</time></trkpt><trkpt lat="43.70315736658585" lon="12.814085472853918"><ele>161.20000000000002</ele><time>2026-04-07T13:33:29.999Z</time></trkpt><trkpt lat="43.70324876553981" lon="12.814040182423948"><ele>163.0</ele><time>2026-04-07T13:33:30.999Z</time></trkpt><trkpt lat="43.703331020130456" lon="12.814011905424548"><ele>163.0</ele><time>2026-04-07T13:33:31.999Z</time></trkpt><trkpt lat="43.70340889231577" lon="12.813995912032722"><ele>163.0</ele><time>2026-04-07T13:33:32.999Z</time></trkpt><trkpt lat="43.70348928140628" lon="12.81399352679269"><ele>163.0</ele><time>2026-04-07T13:33:33.999Z</time></trkpt><trkpt lat="43.70358081310783" lon="12.814000767140458"><ele>163.0</ele><time>2026-04-07T13:33:34.999Z</time></trkpt><trkpt lat="43.703675612788224" lon="12.813999697683212"><ele>163.0</ele><time>2026-04-07T13:33:35.999Z</time></trkpt><trkpt lat="43.70377397625791" lon="12.813993811674896"><ele>163.0</ele><time>2026-04-07T13:33:36.999Z</time></trkpt><trkpt lat="43.70387223265932" lon="12.813957851155909"><ele>166.2</ele><time>2026-04-07T13:33:38Z</time></trkpt><trkpt lat="43.70395817379236" lon="12.81394586017174"><ele>169.4</ele><time>2026-04-07T13:33:39Z</time></trkpt><trkpt lat="43.70406016834136" lon="12.813904591863048"><ele>172.6</ele><time>2026-04-07T13:33:41Z</time></trkpt><trkpt lat="43.704153734742626" lon="12.813866083182878"><ele>175.79999999999998</ele><time>2026-04-07T13:33:49Z</time></trkpt><trkpt lat="43.70425333738687" lon="12.813827866621175"><ele>179.0</ele><time>2026-04-07T13:33:51Z</time></trkpt><trkpt lat="43.70437672461471" lon="12.813787445776345"><ele>181.33333333333331</ele><time>2026-04-07T13:33:53Z</time></trkpt><trkpt lat="43.70444024254502" lon="12.813757228767487"><ele>183.66666666666666</ele><time>2026-04-07T13:33:54Z</time></trkpt><trkpt lat="43.70449927901613" lon="12.813726051154603"><ele>186.0</ele><time>2026-04-07T13:33:55Z</time></trkpt><trkpt lat="43.70456571328113" lon="12.813701295438568"><ele>188.33333333333331</ele><time>2026-04-07T13:33:56Z</time></trkpt><trkpt lat="43.704679247372674" lon="12.813644653562049"><ele>190.66666666666666</ele><time>2026-04-07T13:33:58Z</time></trkpt><trkpt lat="43.70476822072581" lon="12.813590951092571"><ele>193.0</ele><time>2026-04-07T13:34:00Z</time></trkpt><trkpt lat="43.704836567890965" lon="12.813540365309866"><ele>192.99999999999997</ele><time>2026-04-07T13:34:02Z</time></trkpt><trkpt lat="43.704922837513884" lon="12.813506216702008"><ele>193.0</ele><time>2026-04-07T13:34:04Z</time></trkpt><trkpt lat="43.705027763266145" lon="12.813435082344347"><ele>193.0</ele><time>2026-04-07T13:34:06Z</time></trkpt><trkpt lat="43.70508836977044" lon="12.813391811179683"><ele>193.0</ele><time>2026-04-07T13:34:07Z</time></trkpt><trkpt lat="43.70514271592008" lon="12.81332872401045"><ele>192.99999999999997</ele><time>2026-04-07T13:34:08Z</time></trkpt><trkpt lat="43.70520857116872" lon="12.813284685205437"><ele>193.0</ele><time>2026-04-07T13:34:09Z</time></trkpt><trkpt lat="43.70527453702702" lon="12.813238619932488"><ele>194.83333333333331</ele><time>2026-04-07T13:34:10Z</time></trkpt><trkpt lat="43.70534028066992" lon="12.813194475860458"><ele>196.66666666666666</ele><time>2026-04-07T13:34:11Z</time></trkpt><trkpt lat="43.70540294423726" lon="12.813159117316253"><ele>198.5</ele><time>2026-04-07T13:34:12Z</time></trkpt><trkpt lat="43.705476059400475" lon="12.813126277045418"><ele>200.33333333333331</ele><time>2026-04-07T13:34:13Z</time></trkpt><trkpt lat="43.70554764305225" lon="12.813093121726695"><ele>202.16666666666666</ele><time>2026-04-07T13:34:14Z</time></trkpt><trkpt lat="43.70562915702843" lon="12.813076667144193"><ele>204.0</ele><time>2026-04-07T13:34:15Z</time></trkpt><trkpt lat="43.70570475138259" lon="12.813072977041584"><ele>204.0</ele><time>2026-04-07T13:34:16Z</time></trkpt><trkpt lat="43.70577734386191" lon="12.813051522494927"><ele>204.0</ele><time>2026-04-07T13:34:17Z</time></trkpt><trkpt lat="43.705848590635235" lon="12.813053215030976"><ele>204.0</ele><time>2026-04-07T13:34:18Z</time></trkpt><trkpt lat="43.705928387118135" lon="12.813035508435828"><ele>204.0</ele><time>2026-04-07T13:34:19Z</time></trkpt><trkpt lat="43.70599897547231" lon="12.813031280920093"><ele>204.0</ele><time>2026-04-07T13:34:20Z</time></trkpt><trkpt lat="43.70608028298282" lon="12.813007700921734"><ele>204.0</ele><time>2026-04-07T13:34:21Z</time></trkpt><trkpt lat="43.70616141006737" lon="12.812996395885813"><ele>205.83333333333334</ele><time>2026-04-07T13:34:22Z</time></trkpt><trkpt lat="43.70624504206069" lon="12.812988241004783"><ele>207.66666666666669</ele><time>2026-04-07T13:34:23Z</time></trkpt><trkpt lat="43.70632766616804" lon="12.812988158955742"><ele>209.5</ele><time>2026-04-07T13:34:24Z</time></trkpt><trkpt lat="43.70641135111522" lon="12.812988793359887"><ele>211.33333333333334</ele><time>2026-04-07T13:34:25Z</time></trkpt><trkpt lat="43.70649798077658" lon="12.813009170338708"><ele>213.16666666666669</ele><time>2026-04-07T13:34:26Z</time></trkpt><trkpt lat="43.70658126286876" lon="12.813032382031365"><ele>215.0</ele><time>2026-04-07T13:34:27Z</time></trkpt><trkpt lat="43.706660708133015" lon="12.813064593332605"><ele>215.00000000000003</ele><time>2026-04-07T13:34:28Z</time></trkpt><trkpt lat="43.706734957312555" lon="12.813097160560902"><ele>215.0</ele><time>2026-04-07T13:34:29Z</time></trkpt><trkpt lat="43.70681305735161" lon="12.813131185452365"><ele>215.0</ele><time>2026-04-07T13:34:30Z</time></trkpt><trkpt lat="43.70688948948802" lon="12.813165183743475"><ele>215.0</ele><time>2026-04-07T13:34:31Z</time></trkpt><trkpt lat="43.706965213098826" lon="12.813195427598616"><ele>215.00000000000003</ele><time>2026-04-07T13:34:32Z</time></trkpt><trkpt lat="43.70704159792238" lon="12.813220886938028"><ele>215.0</ele><time>2026-04-07T13:34:33Z</time></trkpt><trkpt lat="43.70711759476779" lon="12.813266215444528"><ele>216.00000000000003</ele><time>2026-04-07T13:34:34Z</time></trkpt><trkpt lat="43.707199227678565" lon="12.813304810674529"><ele>217.0</ele><time>2026-04-07T13:34:35Z</time></trkpt><trkpt lat="43.70727454217134" lon="12.813358099158727"><ele>218.0</ele><time>2026-04-07T13:34:36Z</time></trkpt><trkpt lat="43.70735394083821" lon="12.813401140604457"><ele>219.0</ele><time>2026-04-07T13:34:37Z</time></trkpt><trkpt lat="43.70742119877296" lon="12.81346659544212"><ele>220.00000000000003</ele><time>2026-04-07T13:34:38Z</time></trkpt><trkpt lat="43.707477964856665" lon="12.813549933821292"><ele>221.0</ele><time>2026-04-07T13:34:39Z</time></trkpt><trkpt lat="43.70753826276627" lon="12.813641866575404"><ele>221.8</ele><time>2026-04-07T13:34:40Z</time></trkpt><trkpt lat="43.7075975208236" lon="12.813744861254763"><ele>222.60000000000002</ele><time>2026-04-07T13:34:41Z</time></trkpt><trkpt lat="43.70763798696277" lon="12.813876070169512"><ele>223.4</ele><time>2026-04-07T13:34:42Z</time></trkpt><trkpt lat="43.707702946881724" lon="12.813993652322397"><ele>224.2</ele><time>2026-04-07T13:34:43Z</time></trkpt><trkpt lat="43.70775778162076" lon="12.81411009314349"><ele>225.0</ele><time>2026-04-07T13:34:44Z</time></trkpt><trkpt lat="43.70781485984501" lon="12.81423077608666"><ele>225.8</ele><time>2026-04-07T13:34:45Z</time></trkpt><trkpt lat="43.707874545932924" lon="12.814349323153769"><ele>226.6</ele><time>2026-04-07T13:34:46Z</time></trkpt><trkpt lat="43.70794065562265" lon="12.814469005815221"><ele>227.39999999999998</ele><time>2026-04-07T13:34:47Z</time></trkpt><trkpt lat="43.7080084994195" lon="12.81458993821178"><ele>228.2</ele><time>2026-04-07T13:34:48Z</time></trkpt><trkpt lat="43.708077969491555" lon="12.81470458310587"><ele>229.0</ele><time>2026-04-07T13:34:49Z</time></trkpt><trkpt lat="43.70815694244347" lon="12.81480267102008"><ele>228.99999999999997</ele><time>2026-04-07T13:34:50Z</time></trkpt><trkpt lat="43.70824881141582" lon="12.814883828242392"><ele>229.0</ele><time>2026-04-07T13:34:51Z</time></trkpt><trkpt lat="43.7083421166934" lon="12.814945949972625"><ele>229.0</ele><time>2026-04-07T13:34:52Z</time></trkpt><trkpt lat="43.70841432542783" lon="12.81498846470403"><ele>229.0</ele><time>2026-04-07T13:34:53Z</time></trkpt><trkpt lat="43.708474461216404" lon="12.81501919526161"><ele>228.99999999999997</ele><time>2026-04-07T13:34:55Z</time></trkpt><trkpt lat="43.70855645184346" lon="12.815057168298114"><ele>229.0</ele><time>2026-04-07T13:34:57Z</time></trkpt><trkpt lat="43.708681201824646" lon="12.815043408691231"><ele>228.0</ele><time>2026-04-07T13:34:59Z</time></trkpt><trkpt lat="43.7087562652331" lon="12.815018420091357"><ele>226.99999999999997</ele><time>2026-04-07T13:35:00Z</time></trkpt><trkpt lat="43.70884080056219" lon="12.815005223585521"><ele>225.99999999999997</ele><time>2026-04-07T13:35:01Z</time></trkpt><trkpt lat="43.70893522653829" lon="12.81500149931438"><ele>225.0</ele><time>2026-04-07T13:35:02Z</time></trkpt><trkpt lat="43.70902978064339" lon="12.81499889610652"><ele>224.0</ele><time>2026-04-07T13:35:03Z</time></trkpt><trkpt lat="43.7091314865088" lon="12.815009905418659"><ele>224.0</ele><time>2026-04-07T13:35:04Z</time></trkpt><trkpt lat="43.70924038538052" lon="12.815024455301533"><ele>223.99999999999997</ele><time>2026-04-07T13:35:05Z</time></trkpt><trkpt lat="43.70934924018339" lon="12.815036081024736"><ele>223.99999999999997</ele><time>2026-04-07T13:35:06Z</time></trkpt><trkpt lat="43.70946211557206" lon="12.815056950639319"><ele>224.0</ele><time>2026-04-07T13:35:07Z</time></trkpt><trkpt lat="43.709570734792464" lon="12.815082112770883"><ele>224.0</ele><time>2026-04-07T13:35:08Z</time></trkpt><trkpt lat="43.709673563438" lon="12.81510947986645"><ele>224.0</ele><time>2026-04-07T13:35:09Z</time></trkpt><trkpt lat="43.709762634743946" lon="12.815138063354427"><ele>223.99999999999997</ele><time>2026-04-07T13:35:10Z</time></trkpt><trkpt lat="43.709843686880106" lon="12.815153705685937"><ele>223.99999999999997</ele><time>2026-04-07T13:35:11Z</time></trkpt><trkpt lat="43.709926637074645" lon="12.815150583359772"><ele>224.0</ele><time>2026-04-07T13:35:12Z</time></trkpt><trkpt lat="43.71001990490563" lon="12.815129959722793"><ele>224.0</ele><time>2026-04-07T13:35:13Z</time></trkpt><trkpt lat="43.71011571372928" lon="12.815092943751118"><ele>224.0</ele><time>2026-04-07T13:35:14Z</time></trkpt><trkpt lat="43.710209842756655" lon="12.815054098815885"><ele>223.99999999999997</ele><time>2026-04-07T13:35:15Z</time></trkpt><trkpt lat="43.710300139709105" lon="12.815033044577246"><ele>223.99999999999997</ele><time>2026-04-07T13:35:15.999Z</time></trkpt><trkpt lat="43.71039703917569" lon="12.815050338052549"><ele>224.0</ele><time>2026-04-07T13:35:16.999Z</time></trkpt><trkpt lat="43.710490474334094" lon="12.815092924480718"><ele>224.0</ele><time>2026-04-07T13:35:17.999Z</time></trkpt><trkpt lat="43.710579491328794" lon="12.815149234495113"><ele>222.79999999999998</ele><time>2026-04-07T13:35:18.999Z</time></trkpt><trkpt lat="43.710663753114275" lon="12.815204788192169"><ele>221.59999999999997</ele><time>2026-04-07T13:35:19.999Z</time></trkpt><trkpt lat="43.71075003268274" lon="12.815249740694265"><ele>220.4</ele><time>2026-04-07T13:35:20.999Z</time></trkpt><trkpt lat="43.710843463967386" lon="12.815284238076458"><ele>219.2</ele><time>2026-04-07T13:35:21.999Z</time></trkpt><trkpt lat="43.71094074900521" lon="12.81531687638261"><ele>218.0</ele><time>2026-04-07T13:35:22.999Z</time></trkpt><trkpt lat="43.711040034120415" lon="12.815343903521496"><ele>219.2</ele><time>2026-04-07T13:35:23.999Z</time></trkpt><trkpt lat="43.71113989848457" lon="12.815361529215178"><ele>220.4</ele><time>2026-04-07T13:35:24.999Z</time></trkpt><trkpt lat="43.711236779883265" lon="12.81534695725814"><ele>221.59999999999997</ele><time>2026-04-07T13:35:25.999Z</time></trkpt><trkpt lat="43.71132280688501" lon="12.815316882362854"><ele>222.79999999999998</ele><time>2026-04-07T13:35:26.999Z</time></trkpt><trkpt lat="43.71140419031091" lon="12.815290937327916"><ele>224.0</ele><time>2026-04-07T13:35:27.999Z</time></trkpt><trkpt lat="43.711490572884735" lon="12.815298482993564"><ele>224.0</ele><time>2026-04-07T13:35:28.999Z</time></trkpt><trkpt lat="43.71157281928734" lon="12.815342043887593"><ele>223.99999999999997</ele><time>2026-04-07T13:35:29.999Z</time></trkpt><trkpt lat="43.71164850062501" lon="12.815413748142236"><ele>223.99999999999997</ele><time>2026-04-07T13:35:30.999Z</time></trkpt><trkpt lat="43.71170697064474" lon="12.81551291014165"><ele>224.0</ele><time>2026-04-07T13:35:31.999Z</time></trkpt><trkpt lat="43.71176225339426" lon="12.815625087457287"><ele>224.0</ele><time>2026-04-07T13:35:32.999Z</time></trkpt><trkpt lat="43.71181858096223" lon="12.815732623618173"><ele>224.0</ele><time>2026-04-07T13:35:33.999Z</time></trkpt><trkpt lat="43.71187821029039" lon="12.815841080874284"><ele>223.99999999999997</ele><time>2026-04-07T13:35:34.999Z</time></trkpt><trkpt lat="43.71193418352692" lon="12.815946303722685"><ele>223.99999999999997</ele><time>2026-04-07T13:35:35.999Z</time></trkpt><trkpt lat="43.71199715431561" lon="12.816046976900195"><ele>224.0</ele><time>2026-04-07T13:35:36.999Z</time></trkpt><trkpt lat="43.712070453823465" lon="12.816146885181663"><ele>224.0</ele><time>2026-04-07T13:35:37.999Z</time></trkpt><trkpt lat="43.71215544694137" lon="12.816240919328997"><ele>224.79999999999998</ele><time>2026-04-07T13:35:38.999Z</time></trkpt><trkpt lat="43.71224588176377" lon="12.816328057558508"><ele>225.59999999999997</ele><time>2026-04-07T13:35:39.999Z</time></trkpt><trkpt lat="43.71233953152896" lon="12.81641414136658"><ele>226.4</ele><time>2026-04-07T13:35:40.999Z</time></trkpt><trkpt lat="43.71243439333309" lon="12.816487379538518"><ele>227.2</ele><time>2026-04-07T13:35:41.999Z</time></trkpt><trkpt lat="43.71253028376261" lon="12.816549554843151"><ele>228.0</ele><time>2026-04-07T13:35:43Z</time></trkpt><trkpt lat="43.71262043660153" lon="12.816612806972614"><ele>228.0</ele><time>2026-04-07T13:35:44Z</time></trkpt><trkpt lat="43.712702834746544" lon="12.81667729743144"><ele>228.0</ele><time>2026-04-07T13:35:45Z</time></trkpt><trkpt lat="43.712767419560066" lon="12.81676787531294"><ele>228.0</ele><time>2026-04-07T13:35:46Z</time></trkpt><trkpt lat="43.71283802368269" lon="12.816852091182314"><ele>228.0</ele><time>2026-04-07T13:35:47Z</time></trkpt><trkpt lat="43.71288967461651" lon="12.816931272302076"><ele>228.0</ele><time>2026-04-07T13:35:48Z</time></trkpt><trkpt lat="43.71294212470589" lon="12.816983695648258"><ele>228.0</ele><time>2026-04-07T13:35:49Z</time></trkpt><trkpt lat="43.713048462793324" lon="12.817066773466907"><ele>227.0</ele><time>2026-04-07T13:35:51Z</time></trkpt><trkpt lat="43.71310732750621" lon="12.817115470902928"><ele>226.0</ele><time>2026-04-07T13:35:52Z</time></trkpt><trkpt lat="43.713173097641324" lon="12.817148181863754"><ele>225.0</ele><time>2026-04-07T13:35:53Z</time></trkpt><trkpt lat="43.71326796469762" lon="12.81711160557846"><ele>224.0</ele><time>2026-04-07T13:35:54Z</time></trkpt><trkpt lat="43.71334248586593" lon="12.817036974837475"><ele>223.0</ele><time>2026-04-07T13:35:55Z</time></trkpt><trkpt lat="43.713425411083655" lon="12.81698006772264"><ele>222.0</ele><time>2026-04-07T13:35:56Z</time></trkpt><trkpt lat="43.7135128708428" lon="12.81692168117723"><ele>221.6</ele><time>2026-04-07T13:35:57Z</time></trkpt><trkpt lat="43.713598956329776" lon="12.816859240111773"><ele>221.2</ele><time>2026-04-07T13:35:58Z</time></trkpt><trkpt lat="43.713688742996865" lon="12.816795379024999"><ele>220.8</ele><time>2026-04-07T13:35:59Z</time></trkpt><trkpt lat="43.71378267102452" lon="12.816739938599731"><ele>220.4</ele><time>2026-04-07T13:36:00Z</time></trkpt><trkpt lat="43.713875291884605" lon="12.81668178877482"><ele>220.0</ele><time>2026-04-07T13:36:01Z</time></trkpt><trkpt lat="43.71396126227127" lon="12.816624793231199"><ele>219.99999999999997</ele><time>2026-04-07T13:36:02Z</time></trkpt><trkpt lat="43.71404770469651" lon="12.816573509428517"><ele>220.0</ele><time>2026-04-07T13:36:03Z</time></trkpt><trkpt lat="43.71412997611003" lon="12.816521570955263"><ele>220.0</ele><time>2026-04-07T13:36:04Z</time></trkpt><trkpt lat="43.71420335421433" lon="12.816474645732425"><ele>220.0</ele><time>2026-04-07T13:36:05Z</time></trkpt><trkpt lat="43.714272034639194" lon="12.81642429159745"><ele>219.99999999999997</ele><time>2026-04-07T13:36:06Z</time></trkpt><trkpt lat="43.71433988711113" lon="12.816375875338025"><ele>220.0</ele><time>2026-04-07T13:36:07Z</time></trkpt><trkpt lat="43.71441510960906" lon="12.816344819661074"><ele>219.49999999999997</ele><time>2026-04-07T13:36:08Z</time></trkpt><trkpt lat="43.71448048060419" lon="12.816275546823706"><ele>219.0</ele><time>2026-04-07T13:36:09Z</time></trkpt><trkpt lat="43.71455849234762" lon="12.816229163834278"><ele>218.5</ele><time>2026-04-07T13:36:10Z</time></trkpt><trkpt lat="43.71464130225892" lon="12.816196698423362"><ele>218.0</ele><time>2026-04-07T13:36:11Z</time></trkpt><trkpt lat="43.71472744331462" lon="12.816190414118319"><ele>217.49999999999997</ele><time>2026-04-07T13:36:12Z</time></trkpt><trkpt lat="43.71481892674534" lon="12.816223446661063"><ele>217.0</ele><time>2026-04-07T13:36:13Z</time></trkpt><trkpt lat="43.71488484242582" lon="12.816330115113157"><ele>217.0</ele><time>2026-04-07T13:36:14Z</time></trkpt><trkpt lat="43.714974324738854" lon="12.816406199506789"><ele>217.0</ele><time>2026-04-07T13:36:15Z</time></trkpt><trkpt lat="43.71506164014894" lon="12.81645918995428"><ele>217.0</ele><time>2026-04-07T13:36:16Z</time></trkpt><trkpt lat="43.7151477271824" lon="12.816527725187168"><ele>217.0</ele><time>2026-04-07T13:36:17Z</time></trkpt><trkpt lat="43.715234340148626" lon="12.816582981593317"><ele>217.0</ele><time>2026-04-07T13:36:18Z</time></trkpt><trkpt lat="43.71531169079016" lon="12.81663269414129"><ele>216.49999999999997</ele><time>2026-04-07T13:36:19Z</time></trkpt><trkpt lat="43.715384674007886" lon="12.816672993213604"><ele>216.0</ele><time>2026-04-07T13:36:20Z</time></trkpt><trkpt lat="43.71545878836651" lon="12.816716798043416"><ele>215.5</ele><time>2026-04-07T13:36:21Z</time></trkpt><trkpt lat="43.7155287293029" lon="12.816776965318784"><ele>215.0</ele><time>2026-04-07T13:36:22Z</time></trkpt><trkpt lat="43.7155979156151" lon="12.816783702221924"><ele>214.49999999999997</ele><time>2026-04-07T13:36:23Z</time></trkpt><trkpt lat="43.71569715724142" lon="12.81683176874137"><ele>214.0</ele><time>2026-04-07T13:36:25Z</time></trkpt><trkpt lat="43.71579735934793" lon="12.81689315508748"><ele>213.6</ele><time>2026-04-07T13:36:27Z</time></trkpt><trkpt lat="43.71590218506158" lon="12.816962720715077"><ele>213.2</ele><time>2026-04-07T13:36:29Z</time></trkpt><trkpt lat="43.716009203374455" lon="12.817059491910873"><ele>212.79999999999998</ele><time>2026-04-07T13:36:31Z</time></trkpt><trkpt lat="43.71606548645296" lon="12.81711582493725"><ele>212.39999999999998</ele><time>2026-04-07T13:36:32Z</time></trkpt><trkpt lat="43.716123381138985" lon="12.817175730082093"><ele>212.0</ele><time>2026-04-07T13:36:33Z</time></trkpt><trkpt lat="43.71618790323706" lon="12.817218668149806"><ele>210.14285714285714</ele><time>2026-04-07T13:36:34Z</time></trkpt><trkpt lat="43.716251797346054" lon="12.817260525796778"><ele>208.28571428571428</ele><time>2026-04-07T13:36:35Z</time></trkpt><trkpt lat="43.71631327556284" lon="12.817289884507158"><ele>206.42857142857142</ele><time>2026-04-07T13:36:36Z</time></trkpt><trkpt lat="43.716384109387356" lon="12.817314813928194"><ele>204.57142857142856</ele><time>2026-04-07T13:36:37Z</time></trkpt><trkpt lat="43.71645595115092" lon="12.81733400881281"><ele>202.71428571428572</ele><time>2026-04-07T13:36:38Z</time></trkpt><trkpt lat="43.716525324379525" lon="12.817349896823753"><ele>200.85714285714283</ele><time>2026-04-07T13:36:39Z</time></trkpt><trkpt lat="43.71659252211968" lon="12.817364299390194"><ele>199.0</ele><time>2026-04-07T13:36:40Z</time></trkpt><trkpt lat="43.71665808894169" lon="12.81738191572562"><ele>198.99999999999997</ele><time>2026-04-07T13:36:41Z</time></trkpt><trkpt lat="43.71672411282522" lon="12.817411209778246"><ele>199.0</ele><time>2026-04-07T13:36:42Z</time></trkpt><trkpt lat="43.71679343345286" lon="12.817437174069486"><ele>199.0</ele><time>2026-04-07T13:36:43Z</time></trkpt><trkpt lat="43.716858940461044" lon="12.817459857991484"><ele>199.0</ele><time>2026-04-07T13:36:44Z</time></trkpt><trkpt lat="43.716919764549" lon="12.817487170831152"><ele>198.99999999999997</ele><time>2026-04-07T13:36:45Z</time></trkpt><trkpt lat="43.717039888672964" lon="12.817545601460363"><ele>199.0</ele><time>2026-04-07T13:36:47Z</time></trkpt><trkpt lat="43.71710199585711" lon="12.817583808467315"><ele>196.83333333333331</ele><time>2026-04-07T13:36:48Z</time></trkpt><trkpt lat="43.717214375759255" lon="12.817674020844564"><ele>194.66666666666666</ele><time>2026-04-07T13:36:50Z</time></trkpt><trkpt lat="43.717265407945696" lon="12.817733527103556"><ele>192.5</ele><time>2026-04-07T13:36:51Z</time></trkpt><trkpt lat="43.71732675013849" lon="12.817797589825075"><ele>190.33333333333331</ele><time>2026-04-07T13:36:52Z</time></trkpt><trkpt lat="43.71739206620947" lon="12.817874722260257"><ele>188.16666666666666</ele><time>2026-04-07T13:36:53Z</time></trkpt><trkpt lat="43.71745173822531" lon="12.81795956794225"><ele>186.0</ele><time>2026-04-07T13:36:54Z</time></trkpt><trkpt lat="43.7175174134842" lon="12.81803397233083"><ele>186.0</ele><time>2026-04-07T13:36:55Z</time></trkpt><trkpt lat="43.717579021893016" lon="12.818119448717065"><ele>186.0</ele><time>2026-04-07T13:36:56Z</time></trkpt><trkpt lat="43.717663347971644" lon="12.818184456115992"><ele>186.0</ele><time>2026-04-07T13:36:57Z</time></trkpt><trkpt lat="43.71774775526403" lon="12.818250656995453"><ele>186.0</ele><time>2026-04-07T13:36:58Z</time></trkpt><trkpt lat="43.71783110484082" lon="12.818304181895686"><ele>186.0</ele><time>2026-04-07T13:36:59Z</time></trkpt><trkpt lat="43.71791316551249" lon="12.81835624547639"><ele>184.5</ele><time>2026-04-07T13:37:00Z</time></trkpt><trkpt lat="43.71798559770769" lon="12.818413052349547"><ele>183.0</ele><time>2026-04-07T13:37:01Z</time></trkpt><trkpt lat="43.718056778514146" lon="12.81847771169451"><ele>181.5</ele><time>2026-04-07T13:37:02Z</time></trkpt><trkpt lat="43.718120539853636" lon="12.818550425663316"><ele>180.0</ele><time>2026-04-07T13:37:03Z</time></trkpt><trkpt lat="43.71816748461705" lon="12.818639032990232"><ele>178.5</ele><time>2026-04-07T13:37:04Z</time></trkpt><trkpt lat="43.71820471363845" lon="12.818731766443733"><ele>177.0</ele><time>2026-04-07T13:37:05Z</time></trkpt><trkpt lat="43.71823095082855" lon="12.818823198776713"><ele>177.0</ele><time>2026-04-07T13:37:06Z</time></trkpt><trkpt lat="43.71825043800097" lon="12.81891435213387"><ele>177.0</ele><time>2026-04-07T13:37:07Z</time></trkpt><trkpt lat="43.718260690505446" lon="12.819010338918323"><ele>177.0</ele><time>2026-04-07T13:37:08Z</time></trkpt><trkpt lat="43.71825205583984" lon="12.819121733986497"><ele>177.0</ele><time>2026-04-07T13:37:09Z</time></trkpt><trkpt lat="43.71825877644463" lon="12.819233576963565"><ele>177.0</ele><time>2026-04-07T13:37:10Z</time></trkpt><trkpt lat="43.718278952494536" lon="12.819329882213886"><ele>177.0</ele><time>2026-04-07T13:37:11Z</time></trkpt><trkpt lat="43.71828300168619" lon="12.81942264484326"><ele>177.0</ele><time>2026-04-07T13:37:12Z</time></trkpt><trkpt lat="43.71830191516405" lon="12.819513147943953"><ele>176.0</ele><time>2026-04-07T13:37:13Z</time></trkpt><trkpt lat="43.718317755568236" lon="12.81960991303335"><ele>175.0</ele><time>2026-04-07T13:37:14Z</time></trkpt><trkpt lat="43.71833584610651" lon="12.819717962756894"><ele>174.0</ele><time>2026-04-07T13:37:15Z</time></trkpt><trkpt lat="43.718342745351386" lon="12.819837643725046"><ele>173.0</ele><time>2026-04-07T13:37:16Z</time></trkpt><trkpt lat="43.71836374869722" lon="12.819961471659314"><ele>172.0</ele><time>2026-04-07T13:37:17Z</time></trkpt><trkpt lat="43.71838548533753" lon="12.820082841022913"><ele>171.0</ele><time>2026-04-07T13:37:18Z</time></trkpt><trkpt lat="43.71840788008646" lon="12.820207885018696"><ele>170.0</ele><time>2026-04-07T13:37:19Z</time></trkpt><trkpt lat="43.71843417373932" lon="12.820346030091375"><ele>169.0</ele><time>2026-04-07T13:37:20Z</time></trkpt><trkpt lat="43.718461774662465" lon="12.82048921945628"><ele>168.0</ele><time>2026-04-07T13:37:21Z</time></trkpt><trkpt lat="43.718505472004246" lon="12.820627905246221"><ele>167.0</ele><time>2026-04-07T13:37:21.999Z</time></trkpt><trkpt lat="43.71853449098801" lon="12.820771819233885"><ele>166.0</ele><time>2026-04-07T13:37:22.999Z</time></trkpt><trkpt lat="43.71856040183954" lon="12.820910214743211"><ele>166.20000000000002</ele><time>2026-04-07T13:37:23.999Z</time></trkpt><trkpt lat="43.71859140527295" lon="12.821047870509036"><ele>166.4</ele><time>2026-04-07T13:37:24.999Z</time></trkpt><trkpt lat="43.71861466500099" lon="12.821181805046926"><ele>166.6</ele><time>2026-04-07T13:37:25.999Z</time></trkpt><trkpt lat="43.718639117196204" lon="12.821307150353318"><ele>166.8</ele><time>2026-04-07T13:37:26.999Z</time></trkpt><trkpt lat="43.71866348033835" lon="12.821424410093302"><ele>167.0</ele><time>2026-04-07T13:37:27.999Z</time></trkpt><trkpt lat="43.71866688394859" lon="12.82153884373811"><ele>167.0</ele><time>2026-04-07T13:37:28.999Z</time></trkpt><trkpt lat="43.71868453043197" lon="12.821634899749437"><ele>167.0</ele><time>2026-04-07T13:37:29.999Z</time></trkpt><trkpt lat="43.71871685432998" lon="12.821773249856621"><ele>167.0</ele><time>2026-04-07T13:37:31.999Z</time></trkpt><trkpt lat="43.71875857529506" lon="12.82191342678193"><ele>167.0</ele><time>2026-04-07T13:37:33.999Z</time></trkpt><trkpt lat="43.71880977865766" lon="12.822050705535913"><ele>167.0</ele><time>2026-04-07T13:37:35.999Z</time></trkpt><trkpt lat="43.71884211965568" lon="12.822127884734439"><ele>166.57142857142856</ele><time>2026-04-07T13:37:36.999Z</time></trkpt><trkpt lat="43.718890536534666" lon="12.822194029830218"><ele>166.14285714285714</ele><time>2026-04-07T13:37:38Z</time></trkpt><trkpt lat="43.718924997878084" lon="12.82226907289082"><ele>165.71428571428572</ele><time>2026-04-07T13:37:39Z</time></trkpt><trkpt lat="43.718964964302714" lon="12.822341697072568"><ele>165.28571428571428</ele><time>2026-04-07T13:37:40Z</time></trkpt><trkpt lat="43.719012408818436" lon="12.82240914736485"><ele>164.85714285714286</ele><time>2026-04-07T13:37:41Z</time></trkpt><trkpt lat="43.71906560314945" lon="12.822488845650243"><ele>164.42857142857142</ele><time>2026-04-07T13:37:42Z</time></trkpt><trkpt lat="43.71911485441812" lon="12.822574868020727"><ele>164.0</ele><time>2026-04-07T13:37:43Z</time></trkpt><trkpt lat="43.7191657031802" lon="12.822664371795424"><ele>164.0</ele><time>2026-04-07T13:37:44Z</time></trkpt><trkpt lat="43.71921811129768" lon="12.822759871962882"><ele>164.0</ele><time>2026-04-07T13:37:45Z</time></trkpt><trkpt lat="43.71926889654309" lon="12.822869184105327"><ele>164.0</ele><time>2026-04-07T13:37:46Z</time></trkpt><trkpt lat="43.719318072845326" lon="12.822986970752053"><ele>164.0</ele><time>2026-04-07T13:37:47Z</time></trkpt><trkpt lat="43.71936537877494" lon="12.823115817487144"><ele>164.0</ele><time>2026-04-07T13:37:48Z</time></trkpt><trkpt lat="43.71940911727295" lon="12.823245612422824"><ele>164.0</ele><time>2026-04-07T13:37:49Z</time></trkpt><trkpt lat="43.71945275820163" lon="12.823374986908345"><ele>164.0</ele><time>2026-04-07T13:37:50Z</time></trkpt><trkpt lat="43.71949744514424" lon="12.82351208984996"><ele>164.0</ele><time>2026-04-07T13:37:51Z</time></trkpt><trkpt lat="43.71954431910489" lon="12.823644556485409"><ele>164.0</ele><time>2026-04-07T13:37:52Z</time></trkpt><trkpt lat="43.719592950042255" lon="12.823779297394719"><ele>164.0</ele><time>2026-04-07T13:37:53Z</time></trkpt><trkpt lat="43.719636506658155" lon="12.82391115349497"><ele>162.6</ele><time>2026-04-07T13:37:54Z</time></trkpt><trkpt lat="43.7196858850992" lon="12.824041115918428"><ele>161.2</ele><time>2026-04-07T13:37:55Z</time></trkpt><trkpt lat="43.71973152610892" lon="12.824171036007144"><ele>159.79999999999998</ele><time>2026-04-07T13:37:56Z</time></trkpt><trkpt lat="43.71975824669109" lon="12.82431446838808"><ele>158.39999999999998</ele><time>2026-04-07T13:37:57Z</time></trkpt><trkpt lat="43.719795556322275" lon="12.824450006007472"><ele>157.0</ele><time>2026-04-07T13:37:58Z</time></trkpt><trkpt lat="43.71983159496639" lon="12.824583317282997"><ele>156.2</ele><time>2026-04-07T13:37:59Z</time></trkpt><trkpt lat="43.7198803389198" lon="12.824716025375155"><ele>155.39999999999998</ele><time>2026-04-07T13:38:00Z</time></trkpt><trkpt lat="43.71991531305846" lon="12.824853942011062"><ele>154.60000000000002</ele><time>2026-04-07T13:38:01Z</time></trkpt><trkpt lat="43.71995218384543" lon="12.824996751242534"><ele>153.8</ele><time>2026-04-07T13:38:02Z</time></trkpt><trkpt lat="43.719988794621024" lon="12.825144482688502"><ele>153.0</ele><time>2026-04-07T13:38:03Z</time></trkpt><trkpt lat="43.720003399937404" lon="12.825287166322411"><ele>152.20000000000002</ele><time>2026-04-07T13:38:04Z</time></trkpt><trkpt lat="43.720018363491775" lon="12.825425927268174"><ele>151.4</ele><time>2026-04-07T13:38:05Z</time></trkpt><trkpt lat="43.72002340484263" lon="12.825557431567356"><ele>150.60000000000002</ele><time>2026-04-07T13:38:06Z</time></trkpt><trkpt lat="43.7200283348647" lon="12.825685658622243"><ele>149.8</ele><time>2026-04-07T13:38:07Z</time></trkpt><trkpt lat="43.72003831953026" lon="12.825809812156844"><ele>149.0</ele><time>2026-04-07T13:38:08Z</time></trkpt><trkpt lat="43.72005060652377" lon="12.825937088373625"><ele>148.8</ele><time>2026-04-07T13:38:09Z</time></trkpt><trkpt lat="43.7200660287879" lon="12.826071585325115"><ele>148.60000000000002</ele><time>2026-04-07T13:38:10Z</time></trkpt><trkpt lat="43.720084685508475" lon="12.826207221312309"><ele>148.4</ele><time>2026-04-07T13:38:11Z</time></trkpt><trkpt lat="43.72010834000963" lon="12.826345658646298"><ele>148.20000000000002</ele><time>2026-04-07T13:38:12Z</time></trkpt><trkpt lat="43.72014929808895" lon="12.826468741758076"><ele>148.0</ele><time>2026-04-07T13:38:13Z</time></trkpt><trkpt lat="43.72015931457015" lon="12.826597775008612"><ele>148.0</ele><time>2026-04-07T13:38:14Z</time></trkpt><trkpt lat="43.720200253723235" lon="12.826711747614493"><ele>148.0</ele><time>2026-04-07T13:38:15Z</time></trkpt><trkpt lat="43.72022255647023" lon="12.826829766482142"><ele>148.0</ele><time>2026-04-07T13:38:16Z</time></trkpt><trkpt lat="43.720245548504224" lon="12.826948835141598"><ele>148.0</ele><time>2026-04-07T13:38:17Z</time></trkpt><trkpt lat="43.72026172232945" lon="12.827070189092089"><ele>148.0</ele><time>2026-04-07T13:38:18Z</time></trkpt><trkpt lat="43.72029781605226" lon="12.827180545540427"><ele>148.0</ele><time>2026-04-07T13:38:19Z</time></trkpt><trkpt lat="43.720319613195" lon="12.827295062001562"><ele>148.0</ele><time>2026-04-07T13:38:20Z</time></trkpt><trkpt lat="43.72034691235269" lon="12.827403968408293"><ele>148.0</ele><time>2026-04-07T13:38:21Z</time></trkpt><trkpt lat="43.72036876143357" lon="12.827518108497802"><ele>148.0</ele><time>2026-04-07T13:38:22Z</time></trkpt><trkpt lat="43.720375790539165" lon="12.827642577794249"><ele>148.0</ele><time>2026-04-07T13:38:23Z</time></trkpt><trkpt lat="43.720403748764284" lon="12.82776281714452"><ele>148.0</ele><time>2026-04-07T13:38:24Z</time></trkpt><trkpt lat="43.72040485145138" lon="12.82789142726744"><ele>148.0</ele><time>2026-04-07T13:38:25Z</time></trkpt><trkpt lat="43.720431174844975" lon="12.82802054314873"><ele>147.20000000000002</ele><time>2026-04-07T13:38:26Z</time></trkpt><trkpt lat="43.7204432845908" lon="12.828158172975082"><ele>146.4</ele><time>2026-04-07T13:38:27Z</time></trkpt><trkpt lat="43.72044535873035" lon="12.828306794519234"><ele>145.60000000000002</ele><time>2026-04-07T13:38:28Z</time></trkpt><trkpt lat="43.72045357007359" lon="12.828458138574426"><ele>144.8</ele><time>2026-04-07T13:38:29Z</time></trkpt><trkpt lat="43.720467051722984" lon="12.828606224415237"><ele>144.0</ele><time>2026-04-07T13:38:30Z</time></trkpt><trkpt lat="43.72047517391066" lon="12.82875760829761"><ele>142.6</ele><time>2026-04-07T13:38:31Z</time></trkpt><trkpt lat="43.72047399443866" lon="12.828904960676603"><ele>141.2</ele><time>2026-04-07T13:38:32Z</time></trkpt><trkpt lat="43.72048275422084" lon="12.829060416451334"><ele>139.79999999999998</ele><time>2026-04-07T13:38:33Z</time></trkpt><trkpt lat="43.720491257252924" lon="12.829211315610682"><ele>138.4</ele><time>2026-04-07T13:38:34Z</time></trkpt><trkpt lat="43.7204984557293" lon="12.829351570416426"><ele>137.0</ele><time>2026-04-07T13:38:35Z</time></trkpt><trkpt lat="43.72050389016903" lon="12.829475563172888"><ele>136.16666666666666</ele><time>2026-04-07T13:38:36Z</time></trkpt><trkpt lat="43.720506885938896" lon="12.829587054903309"><ele>135.33333333333331</ele><time>2026-04-07T13:38:37Z</time></trkpt><trkpt lat="43.72050664970988" lon="12.829698166227281"><ele>134.5</ele><time>2026-04-07T13:38:38Z</time></trkpt><trkpt lat="43.72049916017129" lon="12.82979714662675"><ele>133.66666666666666</ele><time>2026-04-07T13:38:39Z</time></trkpt><trkpt lat="43.72048180429215" lon="12.829890913511715"><ele>132.83333333333334</ele><time>2026-04-07T13:38:40Z</time></trkpt><trkpt lat="43.72045499504044" lon="12.829983453749033"><ele>132.0</ele><time>2026-04-07T13:38:41Z</time></trkpt><trkpt lat="43.72042025626323" lon="12.830083888993862"><ele>131.33333333333334</ele><time>2026-04-07T13:38:42Z</time></trkpt><trkpt lat="43.72039749293735" lon="12.830194140537227"><ele>130.66666666666666</ele><time>2026-04-07T13:38:43Z</time></trkpt><trkpt lat="43.720384740191854" lon="12.830304480006275"><ele>130.0</ele><time>2026-04-07T13:38:44Z</time></trkpt><trkpt lat="43.720394627397795" lon="12.830410208415579"><ele>129.33333333333331</ele><time>2026-04-07T13:38:45Z</time></trkpt><trkpt lat="43.72044434663171" lon="12.830508154518094"><ele>128.66666666666666</ele><time>2026-04-07T13:38:46Z</time></trkpt><trkpt lat="43.72048374359397" lon="12.830597317351028"><ele>128.0</ele><time>2026-04-07T13:38:47Z</time></trkpt><trkpt lat="43.720524614108655" lon="12.83066588323272"><ele>127.99999999999999</ele><time>2026-04-07T13:38:48Z</time></trkpt><trkpt lat="43.72062135228104" lon="12.83077430144838"><ele>128.0</ele><time>2026-04-07T13:38:50Z</time></trkpt><trkpt lat="43.72067051892622" lon="12.83083132499188"><ele>128.0</ele><time>2026-04-07T13:38:51Z</time></trkpt><trkpt lat="43.72071947601327" lon="12.83089258929778"><ele>128.0</ele><time>2026-04-07T13:38:52Z</time></trkpt><trkpt lat="43.72076715750542" lon="12.830950600889292"><ele>127.99999999999999</ele><time>2026-04-07T13:38:53Z</time></trkpt><trkpt lat="43.7208191653284" lon="12.831007338654409"><ele>128.0</ele><time>2026-04-07T13:38:54Z</time></trkpt><trkpt lat="43.72085800753457" lon="12.83108478736979"><ele>127.33333333333333</ele><time>2026-04-07T13:38:55Z</time></trkpt><trkpt lat="43.72091528820381" lon="12.831156325414101"><ele>126.66666666666666</ele><time>2026-04-07T13:38:56Z</time></trkpt><trkpt lat="43.72097722056624" lon="12.831217544926043"><ele>126.0</ele><time>2026-04-07T13:38:57Z</time></trkpt><trkpt lat="43.72104065047348" lon="12.8312858777227"><ele>125.33333333333334</ele><time>2026-04-07T13:38:58Z</time></trkpt><trkpt lat="43.72110042488126" lon="12.831361613933087"><ele>124.66666666666667</ele><time>2026-04-07T13:38:59Z</time></trkpt><trkpt lat="43.72115400205606" lon="12.831440371035786"><ele>124.0</ele><time>2026-04-07T13:39:00Z</time></trkpt><trkpt lat="43.72121213155607" lon="12.831500943692662"><ele>122.66666666666667</ele><time>2026-04-07T13:39:01Z</time></trkpt><trkpt lat="43.72125315961896" lon="12.831584779921997"><ele>121.33333333333334</ele><time>2026-04-07T13:39:02Z</time></trkpt><trkpt lat="43.72131549600357" lon="12.831636564807502"><ele>120.0</ele><time>2026-04-07T13:39:03Z</time></trkpt><trkpt lat="43.72136528242602" lon="12.831705092445427"><ele>118.66666666666666</ele><time>2026-04-07T13:39:04Z</time></trkpt><trkpt lat="43.72140853246209" lon="12.83178747360324"><ele>117.33333333333333</ele><time>2026-04-07T13:39:05Z</time></trkpt><trkpt lat="43.721460653812706" lon="12.831848875446438"><ele>116.0</ele><time>2026-04-07T13:39:06Z</time></trkpt><trkpt lat="43.721545647165854" lon="12.831949063257776"><ele>115.19999999999999</ele><time>2026-04-07T13:39:08Z</time></trkpt><trkpt lat="43.72163718618369" lon="12.832038397939897"><ele>114.39999999999999</ele><time>2026-04-07T13:39:10Z</time></trkpt><trkpt lat="43.72172269564394" lon="12.832125845807909"><ele>113.6</ele><time>2026-04-07T13:39:12.001Z</time></trkpt><trkpt lat="43.721805249831604" lon="12.832204121036366"><ele>112.8</ele><time>2026-04-07T13:39:14.001Z</time></trkpt><trkpt lat="43.72187629880812" lon="12.832276180611153"><ele>112.0</ele><time>2026-04-07T13:39:16.001Z</time></trkpt><trkpt lat="43.721956520304936" lon="12.83234578584887"><ele>111.0</ele><time>2026-04-07T13:39:18.001Z</time></trkpt><trkpt lat="43.72204707735097" lon="12.832412892537006"><ele>109.99999999999999</ele><time>2026-04-07T13:39:20.001Z</time></trkpt><trkpt lat="43.72214886414832" lon="12.832501869891036"><ele>108.99999999999999</ele><time>2026-04-07T13:39:22.001Z</time></trkpt><trkpt lat="43.722203615195575" lon="12.832553538869679"><ele>108.0</ele><time>2026-04-07T13:39:23.001Z</time></trkpt><trkpt lat="43.722293748930085" lon="12.832665393409796"><ele>107.0</ele><time>2026-04-07T13:39:25.001Z</time></trkpt><trkpt lat="43.72238299477695" lon="12.832774408190494"><ele>106.99999999999999</ele><time>2026-04-07T13:39:27.001Z</time></trkpt><trkpt lat="43.72243373128825" lon="12.83282868139969"><ele>107.0</ele><time>2026-04-07T13:39:28Z</time></trkpt><trkpt lat="43.72248464771238" lon="12.8328926807601"><ele>107.0</ele><time>2026-04-07T13:39:29Z</time></trkpt><trkpt lat="43.72255932242391" lon="12.832915049383551"><ele>107.0</ele><time>2026-04-07T13:39:30Z</time></trkpt><trkpt lat="43.72264257172525" lon="12.832892235062216"><ele>106.99999999999999</ele><time>2026-04-07T13:39:31Z</time></trkpt><trkpt lat="43.72271775615322" lon="12.832861505446168"><ele>107.0</ele><time>2026-04-07T13:39:32Z</time></trkpt><trkpt lat="43.722795934492524" lon="12.832811225593735"><ele>106.33333333333333</ele><time>2026-04-07T13:39:33Z</time></trkpt><trkpt lat="43.72286214479537" lon="12.832774249177145"><ele>105.66666666666666</ele><time>2026-04-07T13:39:34Z</time></trkpt><trkpt lat="43.722932921387375" lon="12.832743972241241"><ele>105.0</ele><time>2026-04-07T13:39:35Z</time></trkpt><trkpt lat="43.723009151145355" lon="12.832709765625015"><ele>104.33333333333334</ele><time>2026-04-07T13:39:36Z</time></trkpt><trkpt lat="43.72308866606836" lon="12.83267788635173"><ele>103.66666666666667</ele><time>2026-04-07T13:39:37Z</time></trkpt><trkpt lat="43.72317235841873" lon="12.832639922124326"><ele>103.0</ele><time>2026-04-07T13:39:38Z</time></trkpt><trkpt lat="43.72325816314274" lon="12.8326011804148"><ele>103.00000000000001</ele><time>2026-04-07T13:39:39Z</time></trkpt><trkpt lat="43.72334255241334" lon="12.83256757447846"><ele>103.0</ele><time>2026-04-07T13:39:40Z</time></trkpt><trkpt lat="43.72342793098993" lon="12.832526275206645"><ele>103.0</ele><time>2026-04-07T13:39:41Z</time></trkpt><trkpt lat="43.72351235974258" lon="12.832495114681059"><ele>103.0</ele><time>2026-04-07T13:39:42Z</time></trkpt><trkpt lat="43.72360082292179" lon="12.83246448573651"><ele>103.00000000000001</ele><time>2026-04-07T13:39:43Z</time></trkpt><trkpt lat="43.72367800939314" lon="12.832451004049913"><ele>103.0</ele><time>2026-04-07T13:39:44Z</time></trkpt><trkpt lat="43.7237589832812" lon="12.832448487059597"><ele>104.50000000000001</ele><time>2026-04-07T13:39:45Z</time></trkpt><trkpt lat="43.723835649060646" lon="12.832442075420026"><ele>106.0</ele><time>2026-04-07T13:39:46Z</time></trkpt><trkpt lat="43.723916189751066" lon="12.832439390176503"><ele>107.5</ele><time>2026-04-07T13:39:47Z</time></trkpt><trkpt lat="43.723996053172016" lon="12.832427182895117"><ele>109.0</ele><time>2026-04-07T13:39:48Z</time></trkpt><trkpt lat="43.72408069098154" lon="12.832403858791444"><ele>110.50000000000001</ele><time>2026-04-07T13:39:49Z</time></trkpt><trkpt lat="43.72416358151274" lon="12.832375679292186"><ele>112.0</ele><time>2026-04-07T13:39:50Z</time></trkpt><trkpt lat="43.7242541217012" lon="12.832368174368145"><ele>112.0</ele><time>2026-04-07T13:39:51Z</time></trkpt><trkpt lat="43.72434738452564" lon="12.832374704646824"><ele>111.99999999999999</ele><time>2026-04-07T13:39:52Z</time></trkpt><trkpt lat="43.7244375249866" lon="12.832383776967038"><ele>111.99999999999999</ele><time>2026-04-07T13:39:53Z</time></trkpt><trkpt lat="43.7245264023418" lon="12.832401768068603"><ele>112.0</ele><time>2026-04-07T13:39:54Z</time></trkpt><trkpt lat="43.7246220183669" lon="12.83239630766222"><ele>112.0</ele><time>2026-04-07T13:39:54.999Z</time></trkpt><trkpt lat="43.7247167472225" lon="12.832366638863347"><ele>113.6</ele><time>2026-04-07T13:39:55.999Z</time></trkpt><trkpt lat="43.72480983639471" lon="12.83232383396197"><ele>115.19999999999999</ele><time>2026-04-07T13:39:56.999Z</time></trkpt><trkpt lat="43.724898095101906" lon="12.832274415014622"><ele>116.8</ele><time>2026-04-07T13:39:57.999Z</time></trkpt><trkpt lat="43.72497988817568" lon="12.832208250260317"><ele>118.4</ele><time>2026-04-07T13:39:58.999Z</time></trkpt><trkpt lat="43.72506660644159" lon="12.832149470951306"><ele>120.0</ele><time>2026-04-07T13:39:59.999Z</time></trkpt><trkpt lat="43.7251539196107" lon="12.832094510357765"><ele>122.4</ele><time>2026-04-07T13:40:00.999Z</time></trkpt><trkpt lat="43.725244157176796" lon="12.832047600566154"><ele>124.8</ele><time>2026-04-07T13:40:01.999Z</time></trkpt><trkpt lat="43.72533824046034" lon="12.832032615283557"><ele>127.19999999999999</ele><time>2026-04-07T13:40:02.999Z</time></trkpt><trkpt lat="43.725424812189594" lon="12.832040805459444"><ele>129.6</ele><time>2026-04-07T13:40:03.999Z</time></trkpt><trkpt lat="43.725516823453624" lon="12.832073808318608"><ele>132.0</ele><time>2026-04-07T13:40:04.999Z</time></trkpt><trkpt lat="43.7255879278449" lon="12.83214292538582"><ele>132.0</ele><time>2026-04-07T13:40:05.999Z</time></trkpt><trkpt lat="43.725642343005106" lon="12.832210037216074"><ele>132.0</ele><time>2026-04-07T13:40:06.999Z</time></trkpt><trkpt lat="43.72570140974557" lon="12.832302739874416"><ele>132.0</ele><time>2026-04-07T13:40:07.999Z</time></trkpt><trkpt lat="43.725773855530925" lon="12.83238544481621"><ele>132.0</ele><time>2026-04-07T13:40:08.999Z</time></trkpt><trkpt lat="43.725810777328356" lon="12.832489993166767"><ele>132.0</ele><time>2026-04-07T13:40:09.999Z</time></trkpt><trkpt lat="43.72583630849304" lon="12.832577565903685"><ele>132.0</ele><time>2026-04-07T13:40:10.999Z</time></trkpt><trkpt lat="43.72582905586438" lon="12.832681918243141"><ele>132.33333333333334</ele><time>2026-04-07T13:40:11.999Z</time></trkpt><trkpt lat="43.72579978367965" lon="12.832797514529908"><ele>132.66666666666666</ele><time>2026-04-07T13:40:12.999Z</time></trkpt><trkpt lat="43.7257697523384" lon="12.832912477857871"><ele>133.0</ele><time>2026-04-07T13:40:13.999Z</time></trkpt><trkpt lat="43.72573627259601" lon="12.83302308085975"><ele>133.33333333333331</ele><time>2026-04-07T13:40:14.999Z</time></trkpt><trkpt lat="43.72570190128247" lon="12.83313682927559"><ele>133.66666666666666</ele><time>2026-04-07T13:40:15.999Z</time></trkpt><trkpt lat="43.72567052380524" lon="12.83324415949584"><ele>134.0</ele><time>2026-04-07T13:40:16.999Z</time></trkpt><trkpt lat="43.72564730277182" lon="12.83334168015337"><ele>134.0</ele><time>2026-04-07T13:40:17.999Z</time></trkpt><trkpt lat="43.725626121720985" lon="12.833438941576945"><ele>134.0</ele><time>2026-04-07T13:40:18.999Z</time></trkpt><trkpt lat="43.725608845004274" lon="12.833529711485342"><ele>134.0</ele><time>2026-04-07T13:40:19.999Z</time></trkpt><trkpt lat="43.72560582255467" lon="12.833658918249993"><ele>134.0</ele><time>2026-04-07T13:40:21.999Z</time></trkpt><trkpt lat="43.72557519384632" lon="12.833806001891325"><ele>134.0</ele><time>2026-04-07T13:40:23.999Z</time></trkpt><trkpt lat="43.72554003757347" lon="12.833902058178893"><ele>134.0</ele><time>2026-04-07T13:40:24.999Z</time></trkpt><trkpt lat="43.72549138325926" lon="12.834000728334644"><ele>135.2</ele><time>2026-04-07T13:40:25.999Z</time></trkpt><trkpt lat="43.72543839417837" lon="12.834109612253854"><ele>136.4</ele><time>2026-04-07T13:40:26.999Z</time></trkpt><trkpt lat="43.72539032880015" lon="12.834229256704317"><ele>137.6</ele><time>2026-04-07T13:40:27.999Z</time></trkpt><trkpt lat="43.725344167695965" lon="12.834350895979009"><ele>138.8</ele><time>2026-04-07T13:40:28.999Z</time></trkpt><trkpt lat="43.72529557265395" lon="12.834470435412802"><ele>140.0</ele><time>2026-04-07T13:40:29.999Z</time></trkpt><trkpt lat="43.725248109944154" lon="12.834586593303234"><ele>139.4</ele><time>2026-04-07T13:40:30.999Z</time></trkpt><trkpt lat="43.72519920948885" lon="12.834702956950217"><ele>138.8</ele><time>2026-04-07T13:40:31.999Z</time></trkpt><trkpt lat="43.72515065018808" lon="12.834825880740729"><ele>138.2</ele><time>2026-04-07T13:40:32.999Z</time></trkpt><trkpt lat="43.7251014335625" lon="12.83494570744323"><ele>137.6</ele><time>2026-04-07T13:40:33.999Z</time></trkpt><trkpt lat="43.72505246431367" lon="12.835062143507242"><ele>137.0</ele><time>2026-04-07T13:40:34.999Z</time></trkpt><trkpt lat="43.72500840651676" lon="12.835174199313656"><ele>137.0</ele><time>2026-04-07T13:40:35.999Z</time></trkpt><trkpt lat="43.72496227436607" lon="12.835284682763415"><ele>137.0</ele><time>2026-04-07T13:40:36.999Z</time></trkpt><trkpt lat="43.72492070452581" lon="12.835386243850515"><ele>137.0</ele><time>2026-04-07T13:40:37.999Z</time></trkpt><trkpt lat="43.72488401016515" lon="12.83547531474127"><ele>137.0</ele><time>2026-04-07T13:40:38.999Z</time></trkpt><trkpt lat="43.72485300497088" lon="12.835553745021283"><ele>137.0</ele><time>2026-04-07T13:40:39.999Z</time></trkpt><trkpt lat="43.724795338507185" lon="12.835692881165576"><ele>137.0</ele><time>2026-04-07T13:40:41.999Z</time></trkpt><trkpt lat="43.724731690276926" lon="12.835847710849745"><ele>137.00000000000003</ele><time>2026-04-07T13:40:43.999Z</time></trkpt><trkpt lat="43.72469488150364" lon="12.835937540690214"><ele>137.0</ele><time>2026-04-07T13:40:44.999Z</time></trkpt><trkpt lat="43.72466150455372" lon="12.836023037680963"><ele>137.0</ele><time>2026-04-07T13:40:45.999Z</time></trkpt><trkpt lat="43.72462737776421" lon="12.83610740463984"><ele>137.0</ele><time>2026-04-07T13:40:46.999Z</time></trkpt><trkpt lat="43.724589884717595" lon="12.836196249163693"><ele>137.0</ele><time>2026-04-07T13:40:47.999Z</time></trkpt><trkpt lat="43.724551843900954" lon="12.836282532409145"><ele>137.00000000000003</ele><time>2026-04-07T13:40:48.999Z</time></trkpt><trkpt lat="43.724516335526175" lon="12.836372055774852"><ele>137.0</ele><time>2026-04-07T13:40:49.999Z</time></trkpt><trkpt lat="43.72448136690203" lon="12.836456928858405"><ele>137.0</ele><time>2026-04-07T13:40:50.999Z</time></trkpt><trkpt lat="43.72443093736639" lon="12.836586631170267"><ele>137.0</ele><time>2026-04-07T13:40:52.999Z</time></trkpt><trkpt lat="43.72439806676781" lon="12.836662789103363"><ele>137.0</ele><time>2026-04-07T13:40:55Z</time></trkpt><trkpt lat="43.72435986262262" lon="12.836758230099289"><ele>137.0</ele><time>2026-04-07T13:41:00Z</time></trkpt><trkpt lat="43.72436052670821" lon="12.836892267382796"><ele>137.0</ele><time>2026-04-07T13:41:03Z</time></trkpt><trkpt lat="43.724295374860645" lon="12.836888823369588"><ele>137.0</ele><time>2026-04-07T13:41:08Z</time></trkpt><trkpt lat="43.72456968325193" lon="12.8369248697563"><ele>137.0</ele><time>2026-04-07T13:41:22Z</time></trkpt><trkpt lat="43.724634086121505" lon="12.83692195519016"><ele>137.0</ele><time>2026-04-07T13:41:23Z</time></trkpt><trkpt lat="43.724710909268204" lon="12.83682996217805"><ele>137.0</ele><time>2026-04-07T13:41:25Z</time></trkpt><trkpt lat="43.72477380239619" lon="12.836762900234609"><ele>137.0</ele><time>2026-04-07T13:41:27Z</time></trkpt><trkpt lat="43.72483442248711" lon="12.836680413099272"><ele>137.0</ele><time>2026-04-07T13:41:29Z</time></trkpt><trkpt lat="43.724869716537334" lon="12.836581275795602"><ele>137.0</ele><time>2026-04-07T13:41:31Z</time></trkpt><trkpt lat="43.72488351018187" lon="12.836466266196775"><ele>137.0</ele><time>2026-04-07T13:41:33Z</time></trkpt><trkpt lat="43.72487631566098" lon="12.836368890359406"><ele>137.0</ele><time>2026-04-07T13:41:34.999Z</time></trkpt><trkpt lat="43.724871385472746" lon="12.836262950285015"><ele>137.0</ele><time>2026-04-07T13:41:36.999Z</time></trkpt><trkpt lat="43.72486669982741" lon="12.83615785191889"><ele>137.0</ele><time>2026-04-07T13:41:38.999Z</time></trkpt><trkpt lat="43.72486236452307" lon="12.836057818930822"><ele>137.0</ele><time>2026-04-07T13:41:41.999Z</time></trkpt><trkpt lat="43.72489517341698" lon="12.835964983841807"><ele>137.0</ele><time>2026-04-07T13:41:45Z</time></trkpt><trkpt lat="43.724996249754184" lon="12.83598290066462"><ele>137.0</ele><time>2026-04-07T13:41:47Z</time></trkpt><trkpt lat="43.72507913404477" lon="12.836004509705102"><ele>137.0</ele><time>2026-04-07T13:41:49Z</time></trkpt><trkpt lat="43.72518689791476" lon="12.836043515508987"><ele>137.0</ele><time>2026-04-07T13:41:51Z</time></trkpt><trkpt lat="43.72530124117442" lon="12.836104513750373"><ele>137.0</ele><time>2026-04-07T13:41:53Z</time></trkpt><trkpt lat="43.725415445143085" lon="12.836174077297242"><ele>137.0</ele><time>2026-04-07T13:41:55Z</time></trkpt><trkpt lat="43.72552084008376" lon="12.836249257163063"><ele>138.6</ele><time>2026-04-07T13:41:57Z</time></trkpt><trkpt lat="43.72562831157841" lon="12.83630814862989"><ele>140.2</ele><time>2026-04-07T13:41:59Z</time></trkpt><trkpt lat="43.725724690753744" lon="12.836366368343821"><ele>141.8</ele><time>2026-04-07T13:42:01Z</time></trkpt><trkpt lat="43.7258197342641" lon="12.836415502209094"><ele>143.4</ele><time>2026-04-07T13:42:03Z</time></trkpt><trkpt lat="43.72592969447964" lon="12.83644116849827"><ele>145.0</ele><time>2026-04-07T13:42:05Z</time></trkpt><trkpt lat="43.725992341150985" lon="12.83642915329612"><ele>145.0</ele><time>2026-04-07T13:42:06Z</time></trkpt><trkpt lat="43.72605273208137" lon="12.83638934118125"><ele>145.0</ele><time>2026-04-07T13:42:07Z</time></trkpt><trkpt lat="43.72610881491874" lon="12.836335023999032"><ele>145.0</ele><time>2026-04-07T13:42:08Z</time></trkpt><trkpt lat="43.726161228481985" lon="12.836265730404806"><ele>145.0</ele><time>2026-04-07T13:42:09Z</time></trkpt><trkpt lat="43.72620127639989" lon="12.836186663114697"><ele>145.0</ele><time>2026-04-07T13:42:10Z</time></trkpt><trkpt lat="43.72624599434185" lon="12.836104342935917"><ele>145.0</ele><time>2026-04-07T13:42:11Z</time></trkpt><trkpt lat="43.7262851338815" lon="12.836017581327614"><ele>145.0</ele><time>2026-04-07T13:42:12Z</time></trkpt><trkpt lat="43.72632504963564" lon="12.835945157463243"><ele>148.14285714285714</ele><time>2026-04-07T13:42:13Z</time></trkpt><trkpt lat="43.726373573031196" lon="12.835866739977535"><ele>151.2857142857143</ele><time>2026-04-07T13:42:14Z</time></trkpt><trkpt lat="43.726419071415464" lon="12.835793385405951"><ele>154.42857142857144</ele><time>2026-04-07T13:42:15Z</time></trkpt><trkpt lat="43.726463117561195" lon="12.835720806808553"><ele>157.57142857142858</ele><time>2026-04-07T13:42:16Z</time></trkpt><trkpt lat="43.726509535826494" lon="12.835649736063585"><ele>160.71428571428572</ele><time>2026-04-07T13:42:17.001Z</time></trkpt><trkpt lat="43.726554846500335" lon="12.835577783249468"><ele>163.85714285714286</ele><time>2026-04-07T13:42:18.001Z</time></trkpt><trkpt lat="43.72660132936219" lon="12.835505484011394"><ele>167.0</ele><time>2026-04-07T13:42:19.001Z</time></trkpt><trkpt lat="43.72664698262718" lon="12.835439596067886"><ele>167.0</ele><time>2026-04-07T13:42:20.001Z</time></trkpt><trkpt lat="43.726729083763544" lon="12.83533262443498"><ele>167.0</ele><time>2026-04-07T13:42:22.001Z</time></trkpt><trkpt lat="43.72681197530316" lon="12.835277004924654"><ele>167.0</ele><time>2026-04-07T13:42:24.001Z</time></trkpt><trkpt lat="43.726932432316865" lon="12.835332567628859"><ele>167.0</ele><time>2026-04-07T13:42:26.001Z</time></trkpt><trkpt lat="43.726977473621304" lon="12.835408192867659"><ele>167.0</ele><time>2026-04-07T13:42:27.001Z</time></trkpt><trkpt lat="43.72699177008813" lon="12.83551030245575"><ele>168.8</ele><time>2026-04-07T13:42:28.001Z</time></trkpt><trkpt lat="43.727012624410456" lon="12.835602188530096"><ele>170.6</ele><time>2026-04-07T13:42:29.001Z</time></trkpt><trkpt lat="43.7270590566934" lon="12.835785967208572"><ele>172.4</ele><time>2026-04-07T13:42:31.001Z</time></trkpt><trkpt lat="43.727076182759006" lon="12.835870759747793"><ele>174.20000000000002</ele><time>2026-04-07T13:42:32.001Z</time></trkpt><trkpt lat="43.72711905770664" lon="12.835997130207312"><ele>176.0</ele><time>2026-04-07T13:42:34.001Z</time></trkpt><trkpt lat="43.72719451184408" lon="12.836093924374284"><ele>176.66666666666666</ele><time>2026-04-07T13:42:36.001Z</time></trkpt><trkpt lat="43.72725969733715" lon="12.836109725314326"><ele>177.33333333333331</ele><time>2026-04-07T13:42:37.001Z</time></trkpt><trkpt lat="43.727328935076436" lon="12.836126687702144"><ele>178.0</ele><time>2026-04-07T13:42:38.001Z</time></trkpt><trkpt lat="43.72739668267953" lon="12.836145726169448"><ele>178.66666666666666</ele><time>2026-04-07T13:42:39.001Z</time></trkpt><trkpt lat="43.727505104427436" lon="12.836215424580253"><ele>179.33333333333334</ele><time>2026-04-07T13:42:41.001Z</time></trkpt><trkpt lat="43.727603811451445" lon="12.836295795522961"><ele>180.0</ele><time>2026-04-07T13:42:43.001Z</time></trkpt><trkpt lat="43.7277130282404" lon="12.836383617306222"><ele>180.28571428571428</ele><time>2026-04-07T13:42:45.001Z</time></trkpt><trkpt lat="43.72776446265121" lon="12.836435293282763"><ele>180.57142857142858</ele><time>2026-04-07T13:42:46.001Z</time></trkpt><trkpt lat="43.72781660857467" lon="12.836491265993727"><ele>180.85714285714286</ele><time>2026-04-07T13:42:47.001Z</time></trkpt><trkpt lat="43.727871159600646" lon="12.836550821252388"><ele>181.14285714285714</ele><time>2026-04-07T13:42:48.001Z</time></trkpt><trkpt lat="43.72792279347255" lon="12.836606122360264"><ele>181.42857142857144</ele><time>2026-04-07T13:42:49.001Z</time></trkpt><trkpt lat="43.7279745527162" lon="12.83667056059657"><ele>181.71428571428572</ele><time>2026-04-07T13:42:50.001Z</time></trkpt><trkpt lat="43.72802865364182" lon="12.836731913988343"><ele>182.0</ele><time>2026-04-07T13:42:51.001Z</time></trkpt><trkpt lat="43.72808813328341" lon="12.83679864788093"><ele>183.33333333333331</ele><time>2026-04-07T13:42:52.001Z</time></trkpt><trkpt lat="43.72814587854169" lon="12.836859081334726"><ele>184.66666666666666</ele><time>2026-04-07T13:42:53.001Z</time></trkpt><trkpt lat="43.728208737378544" lon="12.83690868682729"><ele>186.0</ele><time>2026-04-07T13:42:54.001Z</time></trkpt><trkpt lat="43.72827032922256" lon="12.83697456700685"><ele>187.33333333333334</ele><time>2026-04-07T13:42:55.001Z</time></trkpt><trkpt lat="43.72833429952311" lon="12.837015435798966"><ele>188.66666666666669</ele><time>2026-04-07T13:42:56.001Z</time></trkpt><trkpt lat="43.72844780764694" lon="12.837092078126826"><ele>190.0</ele><time>2026-04-07T13:42:58.001Z</time></trkpt><trkpt lat="43.7285156357149" lon="12.837119461363482"><ele>190.16666666666669</ele><time>2026-04-07T13:42:59.001Z</time></trkpt><trkpt lat="43.72863835661579" lon="12.837176569284761"><ele>190.33333333333334</ele><time>2026-04-07T13:43:01.001Z</time></trkpt><trkpt lat="43.72870932884895" lon="12.837200239771581"><ele>190.5</ele><time>2026-04-07T13:43:02.001Z</time></trkpt><trkpt lat="43.72877671431281" lon="12.837235251660873"><ele>190.66666666666666</ele><time>2026-04-07T13:43:03.001Z</time></trkpt><trkpt lat="43.72884794539403" lon="12.837265295495417"><ele>190.83333333333331</ele><time>2026-04-07T13:43:04.001Z</time></trkpt><trkpt lat="43.72890813773045" lon="12.837327760783324"><ele>191.0</ele><time>2026-04-07T13:43:05.001Z</time></trkpt><trkpt lat="43.72897010200751" lon="12.837379815378297"><ele>191.0</ele><time>2026-04-07T13:43:06.001Z</time></trkpt><trkpt lat="43.72906473377431" lon="12.837493233167622"><ele>191.0</ele><time>2026-04-07T13:43:08.001Z</time></trkpt><trkpt lat="43.72909589845191" lon="12.837577731933843"><ele>191.0</ele><time>2026-04-07T13:43:09.001Z</time></trkpt><trkpt lat="43.72913481784605" lon="12.837660880803496"><ele>191.0</ele><time>2026-04-07T13:43:10.001Z</time></trkpt><trkpt lat="43.72917941623863" lon="12.837725301590556"><ele>191.0</ele><time>2026-04-07T13:43:11.001Z</time></trkpt><trkpt lat="43.72923857760767" lon="12.83787355229831"><ele>192.33333333333331</ele><time>2026-04-07T13:43:13.001Z</time></trkpt><trkpt lat="43.72927021458043" lon="12.837955615034911"><ele>193.66666666666666</ele><time>2026-04-07T13:43:14.001Z</time></trkpt><trkpt lat="43.72930336827201" lon="12.83804436969676"><ele>195.0</ele><time>2026-04-07T13:43:15.001Z</time></trkpt><trkpt lat="43.72933171189794" lon="12.838133292173183"><ele>196.33333333333331</ele><time>2026-04-07T13:43:16.001Z</time></trkpt><trkpt lat="43.72936117198676" lon="12.838221455430817"><ele>197.66666666666666</ele><time>2026-04-07T13:43:17.001Z</time></trkpt><trkpt lat="43.72941489468411" lon="12.838379857871569"><ele>199.0</ele><time>2026-04-07T13:43:19.001Z</time></trkpt><trkpt lat="43.729429191159014" lon="12.838465226041057"><ele>200.6</ele><time>2026-04-07T13:43:20.001Z</time></trkpt><trkpt lat="43.72945940832318" lon="12.838543666649057"><ele>202.2</ele><time>2026-04-07T13:43:21.001Z</time></trkpt><trkpt lat="43.729517540577504" lon="12.83867944603335"><ele>203.79999999999998</ele><time>2026-04-07T13:43:23.001Z</time></trkpt><trkpt lat="43.72957422498987" lon="12.838833687224792"><ele>205.39999999999998</ele><time>2026-04-07T13:43:25.001Z</time></trkpt><trkpt lat="43.72963578260601" lon="12.838993292774232"><ele>207.0</ele><time>2026-04-07T13:43:27.001Z</time></trkpt><trkpt lat="43.72968323227926" lon="12.839059808475566"><ele>207.0</ele><time>2026-04-07T13:43:28.001Z</time></trkpt><trkpt lat="43.72975731319044" lon="12.839219250077303"><ele>207.0</ele><time>2026-04-07T13:43:30.001Z</time></trkpt><trkpt lat="43.72981865985116" lon="12.839296049770018"><ele>207.0</ele><time>2026-04-07T13:43:31.001Z</time></trkpt><trkpt lat="43.72988964747816" lon="12.83934599450411"><ele>207.0</ele><time>2026-04-07T13:43:32.001Z</time></trkpt><trkpt lat="43.72994816580907" lon="12.839381564824851"><ele>207.0</ele><time>2026-04-07T13:43:33.001Z</time></trkpt><trkpt lat="43.73002728292419" lon="12.839478032607492"><ele>207.8</ele><time>2026-04-07T13:43:35.001Z</time></trkpt><trkpt lat="43.730072748128975" lon="12.8395495571919"><ele>208.6</ele><time>2026-04-07T13:43:37.001Z</time></trkpt><trkpt lat="43.73020302503687" lon="12.839490881892937"><ele>209.4</ele><time>2026-04-07T13:43:40Z</time></trkpt><trkpt lat="43.73032611326922" lon="12.83942471457681"><ele>210.20000000000002</ele><time>2026-04-07T13:43:42Z</time></trkpt><trkpt lat="43.730412992438644" lon="12.839408253519965"><ele>211.0</ele><time>2026-04-07T13:43:43Z</time></trkpt><trkpt lat="43.73051286611905" lon="12.839407148764764"><ele>211.75</ele><time>2026-04-07T13:43:44Z</time></trkpt><trkpt lat="43.73062320984219" lon="12.8394149220491"><ele>212.5</ele><time>2026-04-07T13:43:45Z</time></trkpt><trkpt lat="43.73074239172987" lon="12.839429611403512"><ele>213.25</ele><time>2026-04-07T13:43:46Z</time></trkpt><trkpt lat="43.730864360370965" lon="12.839446256190744"><ele>214.0</ele><time>2026-04-07T13:43:47Z</time></trkpt><trkpt lat="43.73099288976443" lon="12.839454621757593"><ele>214.0</ele><time>2026-04-07T13:43:48Z</time></trkpt><trkpt lat="43.731119319393734" lon="12.839450110217584"><ele>214.0</ele><time>2026-04-07T13:43:49Z</time></trkpt><trkpt lat="43.73123474687941" lon="12.839420236466108"><ele>214.0</ele><time>2026-04-07T13:43:50Z</time></trkpt><trkpt lat="43.7313423546831" lon="12.839362166804149"><ele>214.0</ele><time>2026-04-07T13:43:51Z</time></trkpt><trkpt lat="43.731439458682296" lon="12.839274401721914"><ele>213.0</ele><time>2026-04-07T13:43:52Z</time></trkpt><trkpt lat="43.731529330078146" lon="12.839182060044212"><ele>211.99999999999997</ele><time>2026-04-07T13:43:53Z</time></trkpt><trkpt lat="43.731618430812446" lon="12.839101253829815"><ele>211.0</ele><time>2026-04-07T13:43:54Z</time></trkpt><trkpt lat="43.7317105920734" lon="12.83901846334042"><ele>210.0</ele><time>2026-04-07T13:43:55Z</time></trkpt><trkpt lat="43.73180271285565" lon="12.838939771599204"><ele>209.0</ele><time>2026-04-07T13:43:56Z</time></trkpt><trkpt lat="43.73188922251311" lon="12.838863561535705"><ele>210.39999999999998</ele><time>2026-04-07T13:43:57Z</time></trkpt><trkpt lat="43.73197869183591" lon="12.83880143831268"><ele>211.8</ele><time>2026-04-07T13:43:58Z</time></trkpt><trkpt lat="43.73207366865238" lon="12.838759810106467"><ele>213.20000000000002</ele><time>2026-04-07T13:43:59Z</time></trkpt><trkpt lat="43.732171997874694" lon="12.838740950557536"><ele>214.60000000000002</ele><time>2026-04-07T13:44:00.001Z</time></trkpt><trkpt lat="43.732270002083965" lon="12.838725937506632"><ele>216.0</ele><time>2026-04-07T13:44:01.001Z</time></trkpt><trkpt lat="43.73236904257772" lon="12.838710046174205"><ele>216.0</ele><time>2026-04-07T13:44:02.001Z</time></trkpt><trkpt lat="43.73246900678769" lon="12.83868216515794"><ele>216.00000000000003</ele><time>2026-04-07T13:44:03.001Z</time></trkpt><trkpt lat="43.73256358492198" lon="12.838640448938234"><ele>216.00000000000003</ele><time>2026-04-07T13:44:04.001Z</time></trkpt><trkpt lat="43.73265095098354" lon="12.838582878526"><ele>216.0</ele><time>2026-04-07T13:44:05.001Z</time></trkpt><trkpt lat="43.73273787405215" lon="12.838544019541015"><ele>216.0</ele><time>2026-04-07T13:44:06.001Z</time></trkpt><trkpt lat="43.732803157467636" lon="12.838449001726394"><ele>216.4</ele><time>2026-04-07T13:44:07.001Z</time></trkpt><trkpt lat="43.73286194668509" lon="12.838353279230839"><ele>216.8</ele><time>2026-04-07T13:44:08.001Z</time></trkpt><trkpt lat="43.732908004472364" lon="12.83824023484674"><ele>217.20000000000002</ele><time>2026-04-07T13:44:09.001Z</time></trkpt><trkpt lat="43.73294904716513" lon="12.838123423630726"><ele>217.60000000000002</ele><time>2026-04-07T13:44:10.001Z</time></trkpt><trkpt lat="43.732992595266204" lon="12.838007639081653"><ele>218.0</ele><time>2026-04-07T13:44:11.001Z</time></trkpt><trkpt lat="43.73303731334284" lon="12.837889057558682"><ele>218.0</ele><time>2026-04-07T13:44:12.001Z</time></trkpt><trkpt lat="43.7330796898126" lon="12.83777126724882"><ele>218.0</ele><time>2026-04-07T13:44:13.001Z</time></trkpt><trkpt lat="43.73312121776839" lon="12.83765614972941"><ele>218.0</ele><time>2026-04-07T13:44:14.001Z</time></trkpt><trkpt lat="43.73316489588305" lon="12.837542548372351"><ele>218.0</ele><time>2026-04-07T13:44:15.001Z</time></trkpt><trkpt lat="43.73320140692817" lon="12.837429934262483"><ele>218.0</ele><time>2026-04-07T13:44:16.001Z</time></trkpt><trkpt lat="43.7332303974656" lon="12.837317163782595"><ele>219.60000000000002</ele><time>2026-04-07T13:44:17.001Z</time></trkpt><trkpt lat="43.73324162460832" lon="12.837196848814521"><ele>221.20000000000002</ele><time>2026-04-07T13:44:18.001Z</time></trkpt><trkpt lat="43.73323068476182" lon="12.83707438611442"><ele>222.8</ele><time>2026-04-07T13:44:19.001Z</time></trkpt><trkpt lat="43.73319822128176" lon="12.836958685369993"><ele>224.4</ele><time>2026-04-07T13:44:20.001Z</time></trkpt><trkpt lat="43.733159203219714" lon="12.836843600839119"><ele>226.0</ele><time>2026-04-07T13:44:21.001Z</time></trkpt><trkpt lat="43.73311397276156" lon="12.836732799077442"><ele>227.8</ele><time>2026-04-07T13:44:22.001Z</time></trkpt><trkpt lat="43.733058608860844" lon="12.836627608082987"><ele>229.60000000000002</ele><time>2026-04-07T13:44:23.001Z</time></trkpt><trkpt lat="43.73300105918986" lon="12.836522982328134"><ele>231.4</ele><time>2026-04-07T13:44:24.001Z</time></trkpt><trkpt lat="43.732943924615896" lon="12.836418025848939"><ele>233.2</ele><time>2026-04-07T13:44:25.001Z</time></trkpt><trkpt lat="43.732876112766924" lon="12.836319498801528"><ele>235.0</ele><time>2026-04-07T13:44:26.001Z</time></trkpt><trkpt lat="43.732801303162795" lon="12.836234266834"><ele>234.99999999999997</ele><time>2026-04-07T13:44:27.001Z</time></trkpt><trkpt lat="43.73272965877736" lon="12.83615965396505"><ele>235.0</ele><time>2026-04-07T13:44:28.001Z</time></trkpt><trkpt lat="43.732656689575215" lon="12.836090551920122"><ele>235.0</ele><time>2026-04-07T13:44:29.001Z</time></trkpt><trkpt lat="43.73258688038789" lon="12.836014481726568"><ele>235.0</ele><time>2026-04-07T13:44:30.001Z</time></trkpt><trkpt lat="43.73252232823068" lon="12.835925514296491"><ele>234.99999999999997</ele><time>2026-04-07T13:44:31.001Z</time></trkpt><trkpt lat="43.73247396995432" lon="12.835836625240486"><ele>235.0</ele><time>2026-04-07T13:44:32.001Z</time></trkpt><trkpt lat="43.73244201114203" lon="12.835749746897385"><ele>234.33333333333331</ele><time>2026-04-07T13:44:33.001Z</time></trkpt><trkpt lat="43.732432516656274" lon="12.835644330095443"><ele>233.66666666666666</ele><time>2026-04-07T13:44:34.001Z</time></trkpt><trkpt lat="43.73244637737789" lon="12.83553382289403"><ele>233.0</ele><time>2026-04-07T13:44:35.001Z</time></trkpt><trkpt lat="43.73248412247641" lon="12.835426130978044"><ele>232.33333333333331</ele><time>2026-04-07T13:44:36.001Z</time></trkpt><trkpt lat="43.73254240179078" lon="12.835331260654549"><ele>231.66666666666666</ele><time>2026-04-07T13:44:37.001Z</time></trkpt><trkpt lat="43.73261304987251" lon="12.835254284978047"><ele>231.0</ele><time>2026-04-07T13:44:38.001Z</time></trkpt><trkpt lat="43.73269896435597" lon="12.835191164362454"><ele>233.20000000000002</ele><time>2026-04-07T13:44:39.001Z</time></trkpt><trkpt lat="43.73279171333296" lon="12.835145209579524"><ele>235.40000000000003</ele><time>2026-04-07T13:44:40.001Z</time></trkpt><trkpt lat="43.73288492498112" lon="12.835098408354604"><ele>237.6</ele><time>2026-04-07T13:44:41.001Z</time></trkpt><trkpt lat="43.732978188889234" lon="12.835050356005558"><ele>239.8</ele><time>2026-04-07T13:44:42.001Z</time></trkpt><trkpt lat="43.73307428622769" lon="12.835013157556075"><ele>242.0</ele><time>2026-04-07T13:44:43.001Z</time></trkpt><trkpt lat="43.73316212865248" lon="12.835018470249514"><ele>242.0</ele><time>2026-04-07T13:44:44.001Z</time></trkpt><trkpt lat="43.73325048212945" lon="12.835027575044188"><ele>242.0</ele><time>2026-04-07T13:44:45.001Z</time></trkpt><trkpt lat="43.73333182730526" lon="12.835076288940003"><ele>242.0</ele><time>2026-04-07T13:44:46.001Z</time></trkpt><trkpt lat="43.73341674465674" lon="12.835128432791128"><ele>242.0</ele><time>2026-04-07T13:44:47.001Z</time></trkpt><trkpt lat="43.73349999108663" lon="12.835188762026922"><ele>242.0</ele><time>2026-04-07T13:44:48.001Z</time></trkpt><trkpt lat="43.733586049684284" lon="12.835241620803055"><ele>244.0</ele><time>2026-04-07T13:44:49.001Z</time></trkpt><trkpt lat="43.73367371072096" lon="12.835288672704317"><ele>246.0</ele><time>2026-04-07T13:44:50.001Z</time></trkpt><trkpt lat="43.733763921676925" lon="12.835330421588608"><ele>248.0</ele><time>2026-04-07T13:44:51.001Z</time></trkpt><trkpt lat="43.73385996263806" lon="12.835351531375498"><ele>250.0</ele><time>2026-04-07T13:44:52.001Z</time></trkpt><trkpt lat="43.733955378278395" lon="12.835343230493592"><ele>252.0</ele><time>2026-04-07T13:44:53.001Z</time></trkpt><trkpt lat="43.734048848259036" lon="12.835307955589245"><ele>252.0</ele><time>2026-04-07T13:44:54.001Z</time></trkpt><trkpt lat="43.73413701888624" lon="12.83526815073375"><ele>252.0</ele><time>2026-04-07T13:44:55.001Z</time></trkpt><trkpt lat="43.73422855905792" lon="12.835217672703575"><ele>252.0</ele><time>2026-04-07T13:44:56.001Z</time></trkpt><trkpt lat="43.73432127037884" lon="12.835155439966124"><ele>252.0</ele><time>2026-04-07T13:44:57.001Z</time></trkpt><trkpt lat="43.734412862334636" lon="12.835089720464767"><ele>252.0</ele><time>2026-04-07T13:44:58.001Z</time></trkpt><trkpt lat="43.734508478847026" lon="12.835031266725506"><ele>253.0</ele><time>2026-04-07T13:44:59.001Z</time></trkpt><trkpt lat="43.73460187513549" lon="12.834969772047842"><ele>254.0</ele><time>2026-04-07T13:45:00.001Z</time></trkpt><trkpt lat="43.73469202759616" lon="12.834906017632122"><ele>255.0</ele><time>2026-04-07T13:45:01.001Z</time></trkpt><trkpt lat="43.7347863540747" lon="12.834846008397728"><ele>256.0</ele><time>2026-04-07T13:45:02.001Z</time></trkpt><trkpt lat="43.7348787772312" lon="12.834783336566819"><ele>257.0</ele><time>2026-04-07T13:45:03.001Z</time></trkpt><trkpt lat="43.73496906146545" lon="12.834720279465149"><ele>257.0</ele><time>2026-04-07T13:45:04.001Z</time></trkpt><trkpt lat="43.73505639688695" lon="12.83466109576145"><ele>257.0</ele><time>2026-04-07T13:45:05.001Z</time></trkpt><trkpt lat="43.735138543422984" lon="12.834604263087387"><ele>257.0</ele><time>2026-04-07T13:45:06.001Z</time></trkpt><trkpt lat="43.735196236824734" lon="12.834562018208926"><ele>257.0</ele><time>2026-04-07T13:45:07.001Z</time></trkpt><trkpt lat="43.73530411746478" lon="12.834518832416155"><ele>257.0</ele><time>2026-04-07T13:45:09.001Z</time></trkpt><trkpt lat="43.73536749814039" lon="12.83451283135859"><ele>257.0</ele><time>2026-04-07T13:45:10.001Z</time></trkpt><trkpt lat="43.735430839689954" lon="12.834521397476886"><ele>256.33333333333337</ele><time>2026-04-07T13:45:11.001Z</time></trkpt><trkpt lat="43.73548872304213" lon="12.834587482810651"><ele>255.66666666666669</ele><time>2026-04-07T13:45:12.001Z</time></trkpt><trkpt lat="43.735559157690794" lon="12.834647383557101"><ele>255.0</ele><time>2026-04-07T13:45:13.001Z</time></trkpt><trkpt lat="43.73563155713057" lon="12.834719425120936"><ele>254.33333333333331</ele><time>2026-04-07T13:45:14.001Z</time></trkpt><trkpt lat="43.73571604707328" lon="12.83478625952912"><ele>253.66666666666666</ele><time>2026-04-07T13:45:15.001Z</time></trkpt><trkpt lat="43.73578841537769" lon="12.834877833914065"><ele>253.0</ele><time>2026-04-07T13:45:16.001Z</time></trkpt><trkpt lat="43.7358657897826" lon="12.834971509070149"><ele>253.0</ele><time>2026-04-07T13:45:17.001Z</time></trkpt><trkpt lat="43.7359459492805" lon="12.835074347716475"><ele>253.0</ele><time>2026-04-07T13:45:18.001Z</time></trkpt><trkpt lat="43.736040177097905" lon="12.835167860980322"><ele>253.0</ele><time>2026-04-07T13:45:19.001Z</time></trkpt><trkpt lat="43.736134377358255" lon="12.835273617560762"><ele>253.0</ele><time>2026-04-07T13:45:20.001Z</time></trkpt><trkpt lat="43.73622720256477" lon="12.835370401802562"><ele>251.4</ele><time>2026-04-07T13:45:21.001Z</time></trkpt><trkpt lat="43.736305693462974" lon="12.835452891047158"><ele>249.8</ele><time>2026-04-07T13:45:22.001Z</time></trkpt><trkpt lat="43.736380778126644" lon="12.835528532350638"><ele>248.2</ele><time>2026-04-07T13:45:23.001Z</time></trkpt><trkpt lat="43.736453144563306" lon="12.835598727887787"><ele>246.6</ele><time>2026-04-07T13:45:24.001Z</time></trkpt><trkpt lat="43.73652741216011" lon="12.835666659910338"><ele>245.0</ele><time>2026-04-07T13:45:25.001Z</time></trkpt><trkpt lat="43.736604004442654" lon="12.835714505338675"><ele>245.0</ele><time>2026-04-07T13:45:26.001Z</time></trkpt><trkpt lat="43.73668649363192" lon="12.835764841445926"><ele>245.0</ele><time>2026-04-07T13:45:27.001Z</time></trkpt><trkpt lat="43.736785300510455" lon="12.835728292723749"><ele>245.0</ele><time>2026-04-07T13:45:28.001Z</time></trkpt><trkpt lat="43.73687792559071" lon="12.835690977097103"><ele>245.0</ele><time>2026-04-07T13:45:29.001Z</time></trkpt><trkpt lat="43.736963447314146" lon="12.83561669792615"><ele>245.0</ele><time>2026-04-07T13:45:30.001Z</time></trkpt><trkpt lat="43.73704848648142" lon="12.83554024802211"><ele>245.2</ele><time>2026-04-07T13:45:31.001Z</time></trkpt><trkpt lat="43.73714448122048" lon="12.835492695398335"><ele>245.4</ele><time>2026-04-07T13:45:32.001Z</time></trkpt><trkpt lat="43.737229395589665" lon="12.835406167134252"><ele>245.60000000000002</ele><time>2026-04-07T13:45:33.001Z</time></trkpt><trkpt lat="43.737322056292605" lon="12.835338696260488"><ele>245.8</ele><time>2026-04-07T13:45:34.001Z</time></trkpt><trkpt lat="43.73741075925012" lon="12.835265303755518"><ele>246.0</ele><time>2026-04-07T13:45:35.001Z</time></trkpt><trkpt lat="43.73748421911903" lon="12.835172028661004"><ele>246.0</ele><time>2026-04-07T13:45:36.001Z</time></trkpt><trkpt lat="43.73753317653033" lon="12.835054689994214"><ele>246.00000000000003</ele><time>2026-04-07T13:45:37.001Z</time></trkpt><trkpt lat="43.737590494984616" lon="12.834953379605976"><ele>246.00000000000003</ele><time>2026-04-07T13:45:38.001Z</time></trkpt><trkpt lat="43.73764531427559" lon="12.83485991875579"><ele>246.0</ele><time>2026-04-07T13:45:39.001Z</time></trkpt><trkpt lat="43.73771081091306" lon="12.834772641304163"><ele>246.0</ele><time>2026-04-07T13:45:40.001Z</time></trkpt><trkpt lat="43.73778381418215" lon="12.834686505700873"><ele>246.8</ele><time>2026-04-07T13:45:41.001Z</time></trkpt><trkpt lat="43.73787009852325" lon="12.83461406321664"><ele>247.60000000000002</ele><time>2026-04-07T13:45:42.001Z</time></trkpt><trkpt lat="43.737962030032705" lon="12.834550727945693"><ele>248.4</ele><time>2026-04-07T13:45:43.001Z</time></trkpt><trkpt lat="43.738050830698555" lon="12.834494711579882"><ele>249.2</ele><time>2026-04-07T13:45:44.001Z</time></trkpt><trkpt lat="43.738133805084026" lon="12.83443427695587"><ele>250.0</ele><time>2026-04-07T13:45:45.001Z</time></trkpt><trkpt lat="43.73821545348699" lon="12.834379376304279"><ele>250.0</ele><time>2026-04-07T13:45:46.001Z</time></trkpt><trkpt lat="43.738302340568744" lon="12.834324871907366"><ele>250.0</ele><time>2026-04-07T13:45:47.001Z</time></trkpt><trkpt lat="43.73838989295" lon="12.834278713343894"><ele>250.0</ele><time>2026-04-07T13:45:48.001Z</time></trkpt><trkpt lat="43.73848311872329" lon="12.834239108442782"><ele>250.0</ele><time>2026-04-07T13:45:49.001Z</time></trkpt><trkpt lat="43.738584304097756" lon="12.834217309629102"><ele>250.0</ele><time>2026-04-07T13:45:50.001Z</time></trkpt><trkpt lat="43.73868973807283" lon="12.834221564024688"><ele>247.25</ele><time>2026-04-07T13:45:51.001Z</time></trkpt><trkpt lat="43.73879575905994" lon="12.834261995395956"><ele>244.5</ele><time>2026-04-07T13:45:52.001Z</time></trkpt><trkpt lat="43.73890423531455" lon="12.834331101898078"><ele>241.75</ele><time>2026-04-07T13:45:53.001Z</time></trkpt><trkpt lat="43.7390099960604" lon="12.834401904795712"><ele>239.0</ele><time>2026-04-07T13:45:54.001Z</time></trkpt><trkpt lat="43.739121862239955" lon="12.834455368515911"><ele>238.0</ele><time>2026-04-07T13:45:55Z</time></trkpt><trkpt lat="43.739245174631144" lon="12.83448009467103"><ele>237.0</ele><time>2026-04-07T13:45:56Z</time></trkpt><trkpt lat="43.73937161581364" lon="12.834471428921649"><ele>236.0</ele><time>2026-04-07T13:45:57Z</time></trkpt><trkpt lat="43.73949566433575" lon="12.834451943747501"><ele>235.0</ele><time>2026-04-07T13:45:58Z</time></trkpt><trkpt lat="43.73961694954263" lon="12.834427528982408"><ele>235.0</ele><time>2026-04-07T13:45:59Z</time></trkpt><trkpt lat="43.73973660984786" lon="12.834403811028185"><ele>235.0</ele><time>2026-04-07T13:46:00Z</time></trkpt><trkpt lat="43.7398538478286" lon="12.834385452296582"><ele>235.0</ele><time>2026-04-07T13:46:01Z</time></trkpt><trkpt lat="43.73997010440997" lon="12.83435999342048"><ele>235.0</ele><time>2026-04-07T13:46:02Z</time></trkpt><trkpt lat="43.74007805836479" lon="12.834359915159391"><ele>235.0</ele><time>2026-04-07T13:46:03Z</time></trkpt><trkpt lat="43.740185153291" lon="12.834327488647753"><ele>235.0</ele><time>2026-04-07T13:46:04Z</time></trkpt><trkpt lat="43.74029465737078" lon="12.834316821072386"><ele>235.0</ele><time>2026-04-07T13:46:05Z</time></trkpt><trkpt lat="43.74040155731891" lon="12.834297831480539"><ele>235.0</ele><time>2026-04-07T13:46:06Z</time></trkpt><trkpt lat="43.74050699934823" lon="12.83427215586264"><ele>235.0</ele><time>2026-04-07T13:46:07Z</time></trkpt><trkpt lat="43.74060693170333" lon="12.83421819154215"><ele>237.6</ele><time>2026-04-07T13:46:08Z</time></trkpt><trkpt lat="43.74069982373349" lon="12.834143315555618"><ele>240.2</ele><time>2026-04-07T13:46:09Z</time></trkpt><trkpt lat="43.74079129213237" lon="12.834066929157544"><ele>242.8</ele><time>2026-04-07T13:46:10Z</time></trkpt><trkpt lat="43.740881724378106" lon="12.833986876549167"><ele>245.4</ele><time>2026-04-07T13:46:11Z</time></trkpt><trkpt lat="43.74097947122327" lon="12.83390789846755"><ele>248.0</ele><time>2026-04-07T13:46:12Z</time></trkpt><trkpt lat="43.7410750284434" lon="12.833829484019386"><ele>249.4</ele><time>2026-04-07T13:46:13Z</time></trkpt><trkpt lat="43.74117688764863" lon="12.833771463209874"><ele>250.8</ele><time>2026-04-07T13:46:14Z</time></trkpt><trkpt lat="43.741276018757624" lon="12.83372225661988"><ele>252.2</ele><time>2026-04-07T13:46:15Z</time></trkpt><trkpt lat="43.741379218860196" lon="12.833691244074643"><ele>253.6</ele><time>2026-04-07T13:46:16Z</time></trkpt><trkpt lat="43.741485135771796" lon="12.833682269948353"><ele>255.0</ele><time>2026-04-07T13:46:17Z</time></trkpt><trkpt lat="43.74159173154018" lon="12.833674820396302"><ele>255.0</ele><time>2026-04-07T13:46:18Z</time></trkpt><trkpt lat="43.741701571683244" lon="12.833688159918607"><ele>255.0</ele><time>2026-04-07T13:46:19Z</time></trkpt><trkpt lat="43.7418148689795" lon="12.833699843326617"><ele>255.0</ele><time>2026-04-07T13:46:20Z</time></trkpt><trkpt lat="43.74193239479018" lon="12.833711064077944"><ele>255.0</ele><time>2026-04-07T13:46:21Z</time></trkpt><trkpt lat="43.74205061150955" lon="12.833725070057472"><ele>256.8</ele><time>2026-04-07T13:46:22Z</time></trkpt><trkpt lat="43.74216999757009" lon="12.83373639748906"><ele>258.6</ele><time>2026-04-07T13:46:23Z</time></trkpt><trkpt lat="43.74228641541678" lon="12.833743854831013"><ele>260.4</ele><time>2026-04-07T13:46:24Z</time></trkpt><trkpt lat="43.7423913466413" lon="12.833752841300887"><ele>262.2</ele><time>2026-04-07T13:46:25Z</time></trkpt><trkpt lat="43.74248407035038" lon="12.833763667341927"><ele>264.0</ele><time>2026-04-07T13:46:26Z</time></trkpt><trkpt lat="43.742572599583376" lon="12.833777100292261"><ele>264.0</ele><time>2026-04-07T13:46:27Z</time></trkpt><trkpt lat="43.74266451117025" lon="12.833784489121271"><ele>264.0</ele><time>2026-04-07T13:46:28Z</time></trkpt><trkpt lat="43.74275423659619" lon="12.833790679398593"><ele>264.0</ele><time>2026-04-07T13:46:29Z</time></trkpt><trkpt lat="43.74283418862512" lon="12.833792284494255"><ele>264.0</ele><time>2026-04-07T13:46:30Z</time></trkpt><trkpt lat="43.74290739900845" lon="12.833784315170027"><ele>264.0</ele><time>2026-04-07T13:46:31Z</time></trkpt><trkpt lat="43.742982823955764" lon="12.833761977937636"><ele>264.0</ele><time>2026-04-07T13:46:32Z</time></trkpt><trkpt lat="43.74305221579358" lon="12.833721784374807"><ele>264.1666666666667</ele><time>2026-04-07T13:46:33Z</time></trkpt><trkpt lat="43.743108111344746" lon="12.833663778151154"><ele>264.3333333333333</ele><time>2026-04-07T13:46:34Z</time></trkpt><trkpt lat="43.74315887203138" lon="12.833600875234035"><ele>264.5</ele><time>2026-04-07T13:46:35Z</time></trkpt><trkpt lat="43.74324096862575" lon="12.833523578824364"><ele>264.66666666666663</ele><time>2026-04-07T13:46:37Z</time></trkpt><trkpt lat="43.743321163215114" lon="12.833650955555637"><ele>264.8333333333333</ele><time>2026-04-07T13:46:38Z</time></trkpt><trkpt lat="43.74337497941459" lon="12.833711820131166"><ele>265.0</ele><time>2026-04-07T13:46:39Z</time></trkpt><trkpt lat="43.74344292897258" lon="12.83379059519482"><ele>265.0</ele><time>2026-04-07T13:46:41Z</time></trkpt><trkpt lat="43.74350010917295" lon="12.83388650952143"><ele>265.0</ele><time>2026-04-07T13:46:43Z</time></trkpt><trkpt lat="43.74355689187946" lon="12.834027123630612"><ele>265.0</ele><time>2026-04-07T13:46:45Z</time></trkpt><trkpt lat="43.74360051488033" lon="12.834157270145038"><ele>265.0</ele><time>2026-04-07T13:46:47Z</time></trkpt><trkpt lat="43.743662348543566" lon="12.834311603829358"><ele>265.0</ele><time>2026-04-07T13:46:49Z</time></trkpt><trkpt lat="43.7436937890153" lon="12.834399680962411"><ele>263.0</ele><time>2026-04-07T13:46:50Z</time></trkpt><trkpt lat="43.74372726969721" lon="12.834496929825027"><ele>261.0</ele><time>2026-04-07T13:46:51Z</time></trkpt><trkpt lat="43.74374770289028" lon="12.834601554278407"><ele>259.0</ele><time>2026-04-07T13:46:52Z</time></trkpt><trkpt lat="43.74375875115831" lon="12.834715258525991"><ele>257.0</ele><time>2026-04-07T13:46:53Z</time></trkpt><trkpt lat="43.74376096118798" lon="12.834833932500167"><ele>254.99999999999997</ele><time>2026-04-07T13:46:54Z</time></trkpt><trkpt lat="43.74375594821827" lon="12.834955961645452"><ele>253.0</ele><time>2026-04-07T13:46:55Z</time></trkpt><trkpt lat="43.743732052561064" lon="12.835076274145896"><ele>251.99999999999997</ele><time>2026-04-07T13:46:56Z</time></trkpt><trkpt lat="43.74371618473227" lon="12.835194690894667"><ele>251.0</ele><time>2026-04-07T13:46:57Z</time></trkpt><trkpt lat="43.743694777110214" lon="12.83531002155003"><ele>250.0</ele><time>2026-04-07T13:46:58Z</time></trkpt><trkpt lat="43.743686014289096" lon="12.835435375206737"><ele>249.0</ele><time>2026-04-07T13:46:59Z</time></trkpt><trkpt lat="43.74364984443472" lon="12.835551556674758"><ele>247.99999999999997</ele><time>2026-04-07T13:47:00Z</time></trkpt><trkpt lat="43.74362904953017" lon="12.835668463008366"><ele>247.0</ele><time>2026-04-07T13:47:01Z</time></trkpt><trkpt lat="43.74360877492746" lon="12.835781801257898"><ele>246.99999999999997</ele><time>2026-04-07T13:47:02Z</time></trkpt><trkpt lat="43.743586810742485" lon="12.835901501555423"><ele>247.0</ele><time>2026-04-07T13:47:03Z</time></trkpt><trkpt lat="43.7435627782715" lon="12.83602126133307"><ele>247.0</ele><time>2026-04-07T13:47:04Z</time></trkpt><trkpt lat="43.74353867193449" lon="12.836129543437467"><ele>247.0</ele><time>2026-04-07T13:47:05Z</time></trkpt><trkpt lat="43.743506277469045" lon="12.836229542419057"><ele>246.99999999999997</ele><time>2026-04-07T13:47:06Z</time></trkpt><trkpt lat="43.74345928772758" lon="12.836325328149067"><ele>247.0</ele><time>2026-04-07T13:47:07Z</time></trkpt><trkpt lat="43.74340344049645" lon="12.836428125215214"><ele>247.2</ele><time>2026-04-07T13:47:08Z</time></trkpt><trkpt lat="43.743355213729956" lon="12.836538679901347"><ele>247.39999999999998</ele><time>2026-04-07T13:47:09Z</time></trkpt><trkpt lat="43.74329722747934" lon="12.836638817888488"><ele>247.60000000000002</ele><time>2026-04-07T13:47:10Z</time></trkpt><trkpt lat="43.743232793098" lon="12.836735693315093"><ele>247.8</ele><time>2026-04-07T13:47:11Z</time></trkpt><trkpt lat="43.74315136366266" lon="12.836818017089398"><ele>248.0</ele><time>2026-04-07T13:47:12Z</time></trkpt><trkpt lat="43.743079041989084" lon="12.836919501453732"><ele>248.0</ele><time>2026-04-07T13:47:13Z</time></trkpt><trkpt lat="43.743004284375836" lon="12.83702440395849"><ele>248.0</ele><time>2026-04-07T13:47:14Z</time></trkpt><trkpt lat="43.74292837279476" lon="12.83712880584337"><ele>248.0</ele><time>2026-04-07T13:47:15Z</time></trkpt><trkpt lat="43.742851301170404" lon="12.837233278543966"><ele>248.0</ele><time>2026-04-07T13:47:16Z</time></trkpt><trkpt lat="43.74277420001133" lon="12.83733612831043"><ele>248.0</ele><time>2026-04-07T13:47:17Z</time></trkpt><trkpt lat="43.74269803444944" lon="12.837432938274313"><ele>248.2</ele><time>2026-04-07T13:47:18Z</time></trkpt><trkpt lat="43.742621743527714" lon="12.837530234090226"><ele>248.4</ele><time>2026-04-07T13:47:19Z</time></trkpt><trkpt lat="43.7425496609257" lon="12.837619636711624"><ele>248.59999999999997</ele><time>2026-04-07T13:47:20Z</time></trkpt><trkpt lat="43.74249283968333" lon="12.837719083570066"><ele>248.79999999999998</ele><time>2026-04-07T13:47:21Z</time></trkpt><trkpt lat="43.74242049210188" lon="12.837801143236057"><ele>249.0</ele><time>2026-04-07T13:47:22Z</time></trkpt><trkpt lat="43.74234322169524" lon="12.837885405447912"><ele>249.0</ele><time>2026-04-07T13:47:23Z</time></trkpt><trkpt lat="43.74226490071978" lon="12.837972373306204"><ele>248.99999999999997</ele><time>2026-04-07T13:47:24Z</time></trkpt><trkpt lat="43.74218685552251" lon="12.838067600207879"><ele>248.99999999999997</ele><time>2026-04-07T13:47:25Z</time></trkpt><trkpt lat="43.74210536071637" lon="12.838163590302074"><ele>249.0</ele><time>2026-04-07T13:47:26Z</time></trkpt><trkpt lat="43.74205553244456" lon="12.838309595372152"><ele>249.0</ele><time>2026-04-07T13:47:27Z</time></trkpt><trkpt lat="43.74201391980882" lon="12.838453405903094"><ele>249.2</ele><time>2026-04-07T13:47:28Z</time></trkpt><trkpt lat="43.741975814613596" lon="12.838594256600278"><ele>249.39999999999998</ele><time>2026-04-07T13:47:29Z</time></trkpt><trkpt lat="43.74195234421946" lon="12.838744972732444"><ele>249.6</ele><time>2026-04-07T13:47:30Z</time></trkpt><trkpt lat="43.741927019578604" lon="12.838895396705013"><ele>249.8</ele><time>2026-04-07T13:47:31Z</time></trkpt><trkpt lat="43.74189448096405" lon="12.839039408725352"><ele>250.0</ele><time>2026-04-07T13:47:32Z</time></trkpt><trkpt lat="43.741858318388935" lon="12.839180182866558"><ele>249.2</ele><time>2026-04-07T13:47:33Z</time></trkpt><trkpt lat="43.74182627064884" lon="12.839326944749603"><ele>248.4</ele><time>2026-04-07T13:47:34Z</time></trkpt><trkpt lat="43.741787350670606" lon="12.839477771968161"><ele>247.60000000000002</ele><time>2026-04-07T13:47:35Z</time></trkpt><trkpt lat="43.741753636671554" lon="12.839623180743915"><ele>246.8</ele><time>2026-04-07T13:47:36Z</time></trkpt><trkpt lat="43.741725104217366" lon="12.839752474819852"><ele>246.0</ele><time>2026-04-07T13:47:37Z</time></trkpt><trkpt lat="43.741707987634626" lon="12.839887381372973"><ele>246.0</ele><time>2026-04-07T13:47:38Z</time></trkpt><trkpt lat="43.74170058509954" lon="12.84001621684495"><ele>246.00000000000003</ele><time>2026-04-07T13:47:39Z</time></trkpt><trkpt lat="43.74168576070401" lon="12.840148013681146"><ele>246.00000000000003</ele><time>2026-04-07T13:47:40Z</time></trkpt><trkpt lat="43.741689801587476" lon="12.840270740445536"><ele>246.0</ele><time>2026-04-07T13:47:41Z</time></trkpt><trkpt lat="43.74166924854682" lon="12.84039216608129"><ele>246.0</ele><time>2026-04-07T13:47:42Z</time></trkpt><trkpt lat="43.74166183649639" lon="12.840518328736016"><ele>245.0</ele><time>2026-04-07T13:47:43Z</time></trkpt><trkpt lat="43.74165191436603" lon="12.840650139902468"><ele>244.00000000000003</ele><time>2026-04-07T13:47:44Z</time></trkpt><trkpt lat="43.741635372245625" lon="12.840790719523715"><ele>243.00000000000003</ele><time>2026-04-07T13:47:45Z</time></trkpt><trkpt lat="43.74162744213371" lon="12.840935423888448"><ele>242.0</ele><time>2026-04-07T13:47:46Z</time></trkpt><trkpt lat="43.74157328490837" lon="12.841071592798164"><ele>241.0</ele><time>2026-04-07T13:47:47Z</time></trkpt><trkpt lat="43.74151883054946" lon="12.841201592647629"><ele>240.0</ele><time>2026-04-07T13:47:48Z</time></trkpt><trkpt lat="43.74146180872696" lon="12.841340046641868"><ele>239.00000000000003</ele><time>2026-04-07T13:47:49Z</time></trkpt><trkpt lat="43.74140780102265" lon="12.841472349419803"><ele>238.00000000000003</ele><time>2026-04-07T13:47:50Z</time></trkpt><trkpt lat="43.74135444554814" lon="12.841600381887382"><ele>237.0</ele><time>2026-04-07T13:47:51Z</time></trkpt><trkpt lat="43.74130520571729" lon="12.841715941609467"><ele>236.0</ele><time>2026-04-07T13:47:52Z</time></trkpt><trkpt lat="43.74125923806818" lon="12.841820767380437"><ele>236.00000000000003</ele><time>2026-04-07T13:47:53Z</time></trkpt><trkpt lat="43.7412141848127" lon="12.841920189258083"><ele>236.0</ele><time>2026-04-07T13:47:54Z</time></trkpt><trkpt lat="43.741168450614225" lon="12.842013516533116"><ele>236.0</ele><time>2026-04-07T13:47:55Z</time></trkpt><trkpt lat="43.74112126381453" lon="12.842103794469473"><ele>236.0</ele><time>2026-04-07T13:47:56Z</time></trkpt><trkpt lat="43.74107357167698" lon="12.842188660454365"><ele>236.00000000000003</ele><time>2026-04-07T13:47:57Z</time></trkpt><trkpt lat="43.741025093847654" lon="12.842266261547957"><ele>236.0</ele><time>2026-04-07T13:47:58Z</time></trkpt><trkpt lat="43.74097746915447" lon="12.842325701615078"><ele>236.00000000000003</ele><time>2026-04-07T13:47:59Z</time></trkpt><trkpt lat="43.74090466277494" lon="12.842442993291689"><ele>236.0</ele><time>2026-04-07T13:48:01Z</time></trkpt><trkpt lat="43.74084902323737" lon="12.84250593339319"><ele>236.0</ele><time>2026-04-07T13:48:04Z</time></trkpt><trkpt lat="43.740794335958405" lon="12.842566606843615"><ele>236.0</ele><time>2026-04-07T13:48:09Z</time></trkpt><trkpt lat="43.74077328659635" lon="12.842721098706416"><ele>236.00000000000003</ele><time>2026-04-07T13:48:11Z</time></trkpt><trkpt lat="43.74075979107351" lon="12.842807856832959"><ele>236.0</ele><time>2026-04-07T13:48:12Z</time></trkpt><trkpt lat="43.74070461577174" lon="12.842962055849647"><ele>234.83333333333334</ele><time>2026-04-07T13:48:14Z</time></trkpt><trkpt lat="43.7406885632551" lon="12.843056467563608"><ele>233.66666666666669</ele><time>2026-04-07T13:48:15Z</time></trkpt><trkpt lat="43.74064890509585" lon="12.843141083104362"><ele>232.5</ele><time>2026-04-07T13:48:16Z</time></trkpt><trkpt lat="43.74060876373722" lon="12.843226899049357"><ele>231.33333333333331</ele><time>2026-04-07T13:48:17Z</time></trkpt><trkpt lat="43.74057127722168" lon="12.84332279445679"><ele>230.16666666666666</ele><time>2026-04-07T13:48:18Z</time></trkpt><trkpt lat="43.74054091623625" lon="12.843426322727268"><ele>229.0</ele><time>2026-04-07T13:48:19Z</time></trkpt><trkpt lat="43.74052400136741" lon="12.843526613326587"><ele>227.49999999999997</ele><time>2026-04-07T13:48:20Z</time></trkpt><trkpt lat="43.74049345401018" lon="12.843608931450357"><ele>226.0</ele><time>2026-04-07T13:48:21Z</time></trkpt><trkpt lat="43.74047540834702" lon="12.843714361546338"><ele>224.5</ele><time>2026-04-07T13:48:22Z</time></trkpt><trkpt lat="43.740460789015096" lon="12.843829949127407"><ele>223.0</ele><time>2026-04-07T13:48:23Z</time></trkpt><trkpt lat="43.74043136469726" lon="12.843942347335558"><ele>221.49999999999997</ele><time>2026-04-07T13:48:24Z</time></trkpt><trkpt lat="43.74038076249589" lon="12.844045705683323"><ele>220.0</ele><time>2026-04-07T13:48:25Z</time></trkpt><trkpt lat="43.74033435186838" lon="12.844143639945294"><ele>219.99999999999997</ele><time>2026-04-07T13:48:26Z</time></trkpt><trkpt lat="43.740293716189086" lon="12.844244578410455"><ele>220.0</ele><time>2026-04-07T13:48:27Z</time></trkpt><trkpt lat="43.74026935577594" lon="12.844356283524537"><ele>220.0</ele><time>2026-04-07T13:48:28Z</time></trkpt><trkpt lat="43.74024766356479" lon="12.844468065120491"><ele>220.0</ele><time>2026-04-07T13:48:29Z</time></trkpt><trkpt lat="43.74021550808229" lon="12.844574885254932"><ele>219.99999999999997</ele><time>2026-04-07T13:48:30Z</time></trkpt><trkpt lat="43.74017985650846" lon="12.84467217894694"><ele>220.0</ele><time>2026-04-07T13:48:31Z</time></trkpt><trkpt lat="43.74014113225275" lon="12.84477378703136"><ele>220.16666666666666</ele><time>2026-04-07T13:48:32Z</time></trkpt><trkpt lat="43.74008499320178" lon="12.84486449346723"><ele>220.33333333333331</ele><time>2026-04-07T13:48:33Z</time></trkpt><trkpt lat="43.74004575109378" lon="12.844967828234545"><ele>220.5</ele><time>2026-04-07T13:48:34Z</time></trkpt><trkpt lat="43.739997483629715" lon="12.845065179125282"><ele>220.66666666666669</ele><time>2026-04-07T13:48:35Z</time></trkpt><trkpt lat="43.73994174517677" lon="12.845161628451985"><ele>220.83333333333334</ele><time>2026-04-07T13:48:36Z</time></trkpt><trkpt lat="43.739890820663064" lon="12.845259636564641"><ele>221.0</ele><time>2026-04-07T13:48:37Z</time></trkpt><trkpt lat="43.739848782385" lon="12.845360723899347"><ele>219.50000000000003</ele><time>2026-04-07T13:48:38Z</time></trkpt><trkpt lat="43.73980873732966" lon="12.845463282336373"><ele>218.0</ele><time>2026-04-07T13:48:39Z</time></trkpt><trkpt lat="43.73976958737951" lon="12.845572795125273"><ele>216.5</ele><time>2026-04-07T13:48:40Z</time></trkpt><trkpt lat="43.739736079672596" lon="12.845678077502837"><ele>215.0</ele><time>2026-04-07T13:48:41Z</time></trkpt><trkpt lat="43.73970448939939" lon="12.84578213000115"><ele>213.50000000000003</ele><time>2026-04-07T13:48:42Z</time></trkpt><trkpt lat="43.73967235336025" lon="12.84588521894936"><ele>212.0</ele><time>2026-04-07T13:48:43Z</time></trkpt><trkpt lat="43.739623362845" lon="12.845984376785257"><ele>211.50000000000003</ele><time>2026-04-07T13:48:44Z</time></trkpt><trkpt lat="43.73958731114658" lon="12.84609456919617"><ele>211.0</ele><time>2026-04-07T13:48:45Z</time></trkpt><trkpt lat="43.73955083143804" lon="12.846200522274907"><ele>210.5</ele><time>2026-04-07T13:48:46Z</time></trkpt><trkpt lat="43.73951410847828" lon="12.846304822003944"><ele>210.0</ele><time>2026-04-07T13:48:47Z</time></trkpt><trkpt lat="43.73947539209502" lon="12.846406267933569"><ele>209.50000000000003</ele><time>2026-04-07T13:48:48Z</time></trkpt><trkpt lat="43.73943321895876" lon="12.84650424045178"><ele>209.0</ele><time>2026-04-07T13:48:49Z</time></trkpt><trkpt lat="43.73938607538511" lon="12.846598568988425"><ele>208.50000000000003</ele><time>2026-04-07T13:48:50Z</time></trkpt><trkpt lat="43.73933545191394" lon="12.84669176431788"><ele>208.0</ele><time>2026-04-07T13:48:51Z</time></trkpt><trkpt lat="43.73928647087862" lon="12.846777451672997"><ele>207.5</ele><time>2026-04-07T13:48:52Z</time></trkpt><trkpt lat="43.73923560388371" lon="12.846866759312052"><ele>207.0</ele><time>2026-04-07T13:48:53Z</time></trkpt><trkpt lat="43.739183571538355" lon="12.84695811299772"><ele>206.50000000000003</ele><time>2026-04-07T13:48:54Z</time></trkpt><trkpt lat="43.73913164113515" lon="12.84704928769849"><ele>206.0</ele><time>2026-04-07T13:48:55Z</time></trkpt><trkpt lat="43.73908152343396" lon="12.84713654948505"><ele>205.85714285714283</ele><time>2026-04-07T13:48:56Z</time></trkpt><trkpt lat="43.73902908175493" lon="12.847225525421598"><ele>205.71428571428572</ele><time>2026-04-07T13:48:57Z</time></trkpt><trkpt lat="43.73897901109007" lon="12.847310478538335"><ele>205.57142857142856</ele><time>2026-04-07T13:48:58Z</time></trkpt><trkpt lat="43.73893606531931" lon="12.847383343105859"><ele>205.42857142857142</ele><time>2026-04-07T13:48:59Z</time></trkpt><trkpt lat="43.73889217392426" lon="12.847454998945977"><ele>205.28571428571428</ele><time>2026-04-07T13:49:00Z</time></trkpt><trkpt lat="43.73884367051064" lon="12.84753412037686"><ele>205.14285714285714</ele><time>2026-04-07T13:49:01Z</time></trkpt><trkpt lat="43.73879387017808" lon="12.847613117524377"><ele>205.0</ele><time>2026-04-07T13:49:02Z</time></trkpt><trkpt lat="43.73873378285026" lon="12.847687906248687"><ele>203.66666666666666</ele><time>2026-04-07T13:49:03Z</time></trkpt><trkpt lat="43.73868971755508" lon="12.847755441260375"><ele>202.33333333333331</ele><time>2026-04-07T13:49:04Z</time></trkpt><trkpt lat="43.73866253859464" lon="12.847838404101486"><ele>201.0</ele><time>2026-04-07T13:49:05Z</time></trkpt><trkpt lat="43.738635610349" lon="12.848014583151947"><ele>199.66666666666669</ele><time>2026-04-07T13:49:07Z</time></trkpt><trkpt lat="43.738620098692365" lon="12.848111356202796"><ele>198.33333333333334</ele><time>2026-04-07T13:49:08Z</time></trkpt><trkpt lat="43.73861008374333" lon="12.848206026605682"><ele>197.0</ele><time>2026-04-07T13:49:09Z</time></trkpt><trkpt lat="43.73859416582239" lon="12.848305670833188"><ele>196.66666666666669</ele><time>2026-04-07T13:49:10Z</time></trkpt><trkpt lat="43.738536259811816" lon="12.848380576728072"><ele>196.33333333333334</ele><time>2026-04-07T13:49:11Z</time></trkpt><trkpt lat="43.73848908531947" lon="12.848469911407092"><ele>196.0</ele><time>2026-04-07T13:49:12Z</time></trkpt><trkpt lat="43.73843671015736" lon="12.848548295105958"><ele>195.66666666666669</ele><time>2026-04-07T13:49:13Z</time></trkpt><trkpt lat="43.7383846925798" lon="12.848630021480231"><ele>195.33333333333334</ele><time>2026-04-07T13:49:14Z</time></trkpt><trkpt lat="43.73833593741482" lon="12.848706622176968"><ele>195.0</ele><time>2026-04-07T13:49:15Z</time></trkpt><trkpt lat="43.7382841287475" lon="12.848793264024712"><ele>194.66666666666666</ele><time>2026-04-07T13:49:16Z</time></trkpt><trkpt lat="43.738248572420915" lon="12.848889515047304"><ele>194.33333333333331</ele><time>2026-04-07T13:49:17Z</time></trkpt><trkpt lat="43.73818746157086" lon="12.84897278535418"><ele>194.0</ele><time>2026-04-07T13:49:18Z</time></trkpt><trkpt lat="43.738151994271504" lon="12.849086655751078"><ele>193.66666666666666</ele><time>2026-04-07T13:49:19Z</time></trkpt><trkpt lat="43.738123540276604" lon="12.849205327677513"><ele>193.33333333333331</ele><time>2026-04-07T13:49:20Z</time></trkpt><trkpt lat="43.7381023897477" lon="12.849306174650497"><ele>193.0</ele><time>2026-04-07T13:49:21Z</time></trkpt><trkpt lat="43.73808383185671" lon="12.849393566224208"><ele>190.5</ele><time>2026-04-07T13:49:22Z</time></trkpt><trkpt lat="43.73802576609877" lon="12.849540331758359"><ele>188.0</ele><time>2026-04-07T13:49:24Z</time></trkpt><trkpt lat="43.73797847285937" lon="12.849702855599864"><ele>185.5</ele><time>2026-04-07T13:49:26Z</time></trkpt><trkpt lat="43.73794063313935" lon="12.849859176112155"><ele>183.0</ele><time>2026-04-07T13:49:28Z</time></trkpt><trkpt lat="43.7378878069144" lon="12.850010972623137"><ele>181.8</ele><time>2026-04-07T13:49:30Z</time></trkpt><trkpt lat="43.737852794457794" lon="12.850154494101087"><ele>180.60000000000002</ele><time>2026-04-07T13:49:32Z</time></trkpt><trkpt lat="43.73780808036423" lon="12.850295430989664"><ele>179.39999999999998</ele><time>2026-04-07T13:49:34Z</time></trkpt><trkpt lat="43.737767581199975" lon="12.850435649233475"><ele>178.2</ele><time>2026-04-07T13:49:36Z</time></trkpt><trkpt lat="43.737733291081526" lon="12.850571187871484"><ele>177.0</ele><time>2026-04-07T13:49:38Z</time></trkpt><trkpt lat="43.73768978713109" lon="12.850706754070293"><ele>177.0</ele><time>2026-04-07T13:49:40Z</time></trkpt><trkpt lat="43.73764264374039" lon="12.850855152556658"><ele>177.0</ele><time>2026-04-07T13:49:42Z</time></trkpt><trkpt lat="43.737598461780145" lon="12.851012329100667"><ele>177.0</ele><time>2026-04-07T13:49:44Z</time></trkpt><trkpt lat="43.737552168116935" lon="12.851170216942043"><ele>177.0</ele><time>2026-04-07T13:49:46Z</time></trkpt><trkpt lat="43.73748736295451" lon="12.851292466166257"><ele>176.8</ele><time>2026-04-07T13:49:48Z</time></trkpt><trkpt lat="43.73743707738005" lon="12.85142997069416"><ele>176.6</ele><time>2026-04-07T13:49:50.001Z</time></trkpt><trkpt lat="43.73740269937315" lon="12.851583061484389"><ele>176.4</ele><time>2026-04-07T13:49:52.001Z</time></trkpt><trkpt lat="43.73737521437683" lon="12.851671340312693"><ele>176.20000000000002</ele><time>2026-04-07T13:49:53.001Z</time></trkpt><trkpt lat="43.73734360640357" lon="12.85177954248249"><ele>176.0</ele><time>2026-04-07T13:49:54.001Z</time></trkpt><trkpt lat="43.73729946791081" lon="12.851878130006714"><ele>174.83333333333331</ele><time>2026-04-07T13:49:55.001Z</time></trkpt><trkpt lat="43.737268833377044" lon="12.851988903123425"><ele>173.66666666666666</ele><time>2026-04-07T13:49:56.001Z</time></trkpt><trkpt lat="43.73723850234858" lon="12.85210029741533"><ele>172.5</ele><time>2026-04-07T13:49:57Z</time></trkpt><trkpt lat="43.737224869174746" lon="12.852214103536353"><ele>171.33333333333334</ele><time>2026-04-07T13:49:58Z</time></trkpt><trkpt lat="43.737180142273345" lon="12.852315594173135"><ele>170.16666666666669</ele><time>2026-04-07T13:49:59Z</time></trkpt><trkpt lat="43.73715039239691" lon="12.852428506593597"><ele>169.0</ele><time>2026-04-07T13:50:00Z</time></trkpt><trkpt lat="43.73711972269368" lon="12.852544910132009"><ele>167.66666666666669</ele><time>2026-04-07T13:50:01Z</time></trkpt><trkpt lat="43.737088902224855" lon="12.852661885868008"><ele>166.33333333333334</ele><time>2026-04-07T13:50:02Z</time></trkpt><trkpt lat="43.7370599538974" lon="12.852776218007158"><ele>165.0</ele><time>2026-04-07T13:50:03Z</time></trkpt><trkpt lat="43.737046651505324" lon="12.852899301454297"><ele>163.66666666666666</ele><time>2026-04-07T13:50:04Z</time></trkpt><trkpt lat="43.73701343608297" lon="12.853010462151813"><ele>162.33333333333331</ele><time>2026-04-07T13:50:05Z</time></trkpt><trkpt lat="43.73698756275982" lon="12.853122514103115"><ele>161.0</ele><time>2026-04-07T13:50:06Z</time></trkpt><trkpt lat="43.73696211891179" lon="12.853241269266267"><ele>161.0</ele><time>2026-04-07T13:50:07Z</time></trkpt><trkpt lat="43.73692995068001" lon="12.853356261632172"><ele>161.0</ele><time>2026-04-07T13:50:08Z</time></trkpt><trkpt lat="43.73690133925587" lon="12.85347267879184"><ele>161.0</ele><time>2026-04-07T13:50:09Z</time></trkpt><trkpt lat="43.73685791416947" lon="12.853572290105006"><ele>161.0</ele><time>2026-04-07T13:50:10Z</time></trkpt><trkpt lat="43.73683648833131" lon="12.853689623752226"><ele>161.0</ele><time>2026-04-07T13:50:11Z</time></trkpt><trkpt lat="43.73678285130398" lon="12.853794640384292"><ele>161.0</ele><time>2026-04-07T13:50:12Z</time></trkpt><trkpt lat="43.73675563251033" lon="12.853913917475468"><ele>160.0</ele><time>2026-04-07T13:50:13Z</time></trkpt><trkpt lat="43.73671164271561" lon="12.854022865878047"><ele>159.0</ele><time>2026-04-07T13:50:14Z</time></trkpt><trkpt lat="43.73666989484558" lon="12.854133039229243"><ele>158.0</ele><time>2026-04-07T13:50:15Z</time></trkpt><trkpt lat="43.73663155969918" lon="12.854247025089936"><ele>157.0</ele><time>2026-04-07T13:50:16Z</time></trkpt><trkpt lat="43.73658463889929" lon="12.854358335457764"><ele>156.0</ele><time>2026-04-07T13:50:17Z</time></trkpt><trkpt lat="43.73654533333144" lon="12.854466775505097"><ele>156.0</ele><time>2026-04-07T13:50:18Z</time></trkpt><trkpt lat="43.736493511456835" lon="12.8545653582271"><ele>156.0</ele><time>2026-04-07T13:50:19Z</time></trkpt><trkpt lat="43.73645231894114" lon="12.854670492144697"><ele>156.0</ele><time>2026-04-07T13:50:20Z</time></trkpt><trkpt lat="43.73641060806571" lon="12.854776949063243"><ele>156.0</ele><time>2026-04-07T13:50:21Z</time></trkpt><trkpt lat="43.73637009138157" lon="12.854887719893414"><ele>156.0</ele><time>2026-04-07T13:50:22Z</time></trkpt><trkpt lat="43.736344652281915" lon="12.855009675198575"><ele>156.0</ele><time>2026-04-07T13:50:23Z</time></trkpt><trkpt lat="43.7363053883948" lon="12.855122973392477"><ele>155.6</ele><time>2026-04-07T13:50:24Z</time></trkpt><trkpt lat="43.73625760645649" lon="12.855237293583466"><ele>155.2</ele><time>2026-04-07T13:50:25Z</time></trkpt><trkpt lat="43.73623005514277" lon="12.855348554315592"><ele>154.8</ele><time>2026-04-07T13:50:26Z</time></trkpt><trkpt lat="43.73620922756826" lon="12.85547106534005"><ele>154.4</ele><time>2026-04-07T13:50:27Z</time></trkpt><trkpt lat="43.736192975780156" lon="12.85559526768471"><ele>154.0</ele><time>2026-04-07T13:50:28Z</time></trkpt><trkpt lat="43.73618014798024" lon="12.855723931729873"><ele>154.0</ele><time>2026-04-07T13:50:29Z</time></trkpt><trkpt lat="43.73617051347733" lon="12.855850212832788"><ele>154.0</ele><time>2026-04-07T13:50:30Z</time></trkpt><trkpt lat="43.736162955381296" lon="12.85596923859274"><ele>154.0</ele><time>2026-04-07T13:50:31Z</time></trkpt><trkpt lat="43.736157683918236" lon="12.8560952790111"><ele>154.0</ele><time>2026-04-07T13:50:32Z</time></trkpt><trkpt lat="43.736152896152525" lon="12.856219489891439"><ele>154.0</ele><time>2026-04-07T13:50:33Z</time></trkpt><trkpt lat="43.736146696969364" lon="12.85634103822587"><ele>154.0</ele><time>2026-04-07T13:50:34Z</time></trkpt><trkpt lat="43.73614778918312" lon="12.856468893626516"><ele>153.16666666666669</ele><time>2026-04-07T13:50:35Z</time></trkpt><trkpt lat="43.73614538229052" lon="12.856593102829176"><ele>152.33333333333334</ele><time>2026-04-07T13:50:36Z</time></trkpt><trkpt lat="43.73611502332534" lon="12.856713306330544"><ele>151.5</ele><time>2026-04-07T13:50:37Z</time></trkpt><trkpt lat="43.73610347923786" lon="12.856817855910572"><ele>150.66666666666666</ele><time>2026-04-07T13:50:38Z</time></trkpt><trkpt lat="43.73607496347131" lon="12.856913237553853"><ele>149.83333333333331</ele><time>2026-04-07T13:50:39Z</time></trkpt><trkpt lat="43.73602821783956" lon="12.857024015329884"><ele>149.0</ele><time>2026-04-07T13:50:40Z</time></trkpt><trkpt lat="43.73598866079736" lon="12.857096095064836"><ele>148.2</ele><time>2026-04-07T13:50:41Z</time></trkpt><trkpt lat="43.73591113410876" lon="12.857226207152705"><ele>147.4</ele><time>2026-04-07T13:50:43Z</time></trkpt><trkpt lat="43.735852923344055" lon="12.857318211162735"><ele>146.6</ele><time>2026-04-07T13:50:45Z</time></trkpt><trkpt lat="43.735792105866395" lon="12.85742192574371"><ele>145.8</ele><time>2026-04-07T13:51:02Z</time></trkpt><trkpt lat="43.7357521468945" lon="12.857498615848362"><ele>145.0</ele><time>2026-04-07T13:51:04Z</time></trkpt><trkpt lat="43.735715733427554" lon="12.85760019121546"><ele>144.6</ele><time>2026-04-07T13:51:06Z</time></trkpt><trkpt lat="43.735669824408" lon="12.857710712751855"><ele>144.2</ele><time>2026-04-07T13:51:08Z</time></trkpt><trkpt lat="43.735622218817085" lon="12.857829084939771"><ele>143.8</ele><time>2026-04-07T13:51:10Z</time></trkpt><trkpt lat="43.735574591656494" lon="12.857952209641429"><ele>143.4</ele><time>2026-04-07T13:51:12Z</time></trkpt><trkpt lat="43.735534185021976" lon="12.858088436144785"><ele>143.0</ele><time>2026-04-07T13:51:14Z</time></trkpt><trkpt lat="43.73548626007086" lon="12.858250699159482"><ele>143.0</ele><time>2026-04-07T13:51:16Z</time></trkpt><trkpt lat="43.735464037719474" lon="12.858339283501275"><ele>143.0</ele><time>2026-04-07T13:51:17Z</time></trkpt><trkpt lat="43.73543734286009" lon="12.858427570260924"><ele>143.0</ele><time>2026-04-07T13:51:18Z</time></trkpt><trkpt lat="43.73541221125569" lon="12.858523198921258"><ele>143.0</ele><time>2026-04-07T13:51:19Z</time></trkpt><trkpt lat="43.73538487160976" lon="12.85863157756076"><ele>143.0</ele><time>2026-04-07T13:51:20Z</time></trkpt><trkpt lat="43.73535527984038" lon="12.858747746332915"><ele>143.0</ele><time>2026-04-07T13:51:21Z</time></trkpt><trkpt lat="43.735324671458585" lon="12.858872040068189"><ele>142.16666666666666</ele><time>2026-04-07T13:51:22Z</time></trkpt><trkpt lat="43.73529233405883" lon="12.858997876468395"><ele>141.33333333333331</ele><time>2026-04-07T13:51:23Z</time></trkpt><trkpt lat="43.73526856468261" lon="12.859120661390026"><ele>140.5</ele><time>2026-04-07T13:51:24Z</time></trkpt><trkpt lat="43.73524447534975" lon="12.85923740760888"><ele>139.66666666666666</ele><time>2026-04-07T13:51:25Z</time></trkpt><trkpt lat="43.73521338074517" lon="12.859344108403642"><ele>138.83333333333334</ele><time>2026-04-07T13:51:26Z</time></trkpt><trkpt lat="43.735172183056434" lon="12.859435303785625"><ele>138.0</ele><time>2026-04-07T13:51:27Z</time></trkpt><trkpt lat="43.73513623625738" lon="12.859530293198622"><ele>137.83333333333334</ele><time>2026-04-07T13:51:28Z</time></trkpt><trkpt lat="43.73509443561747" lon="12.859622509965936"><ele>137.66666666666666</ele><time>2026-04-07T13:51:29Z</time></trkpt><trkpt lat="43.73504750027523" lon="12.859716074026087"><ele>137.5</ele><time>2026-04-07T13:51:30Z</time></trkpt><trkpt lat="43.73499541454038" lon="12.859808525685427"><ele>137.33333333333331</ele><time>2026-04-07T13:51:31Z</time></trkpt><trkpt lat="43.734938812421" lon="12.859906260318963"><ele>137.16666666666666</ele><time>2026-04-07T13:51:32Z</time></trkpt><trkpt lat="43.73488380688538" lon="12.859997623025938"><ele>137.0</ele><time>2026-04-07T13:51:33Z</time></trkpt><trkpt lat="43.734827568971745" lon="12.860089335054784"><ele>135.66666666666666</ele><time>2026-04-07T13:51:34Z</time></trkpt><trkpt lat="43.73477383199856" lon="12.86017696857423"><ele>134.33333333333331</ele><time>2026-04-07T13:51:35Z</time></trkpt><trkpt lat="43.73471908844922" lon="12.860267262563761"><ele>133.0</ele><time>2026-04-07T13:51:36Z</time></trkpt><trkpt lat="43.73467470482037" lon="12.860373152804126"><ele>131.66666666666666</ele><time>2026-04-07T13:51:37Z</time></trkpt><trkpt lat="43.734621270229475" lon="12.860463061626726"><ele>130.33333333333334</ele><time>2026-04-07T13:51:38Z</time></trkpt><trkpt lat="43.734566293941946" lon="12.860554092353023"><ele>129.0</ele><time>2026-04-07T13:51:39.001Z</time></trkpt><trkpt lat="43.73450727237552" lon="12.86064499166718"><ele>129.0</ele><time>2026-04-07T13:51:40.001Z</time></trkpt><trkpt lat="43.734452093530834" lon="12.860741504193879"><ele>129.0</ele><time>2026-04-07T13:51:41.001Z</time></trkpt><trkpt lat="43.73439535692251" lon="12.860838074916552"><ele>129.0</ele><time>2026-04-07T13:51:42.001Z</time></trkpt><trkpt lat="43.73434301623437" lon="12.860940175041156"><ele>129.0</ele><time>2026-04-07T13:51:43.001Z</time></trkpt><trkpt lat="43.73429177622282" lon="12.861039667354078"><ele>129.0</ele><time>2026-04-07T13:51:44.001Z</time></trkpt><trkpt lat="43.734242035958154" lon="12.86113708362771"><ele>129.0</ele><time>2026-04-07T13:51:45.001Z</time></trkpt><trkpt lat="43.73419764347621" lon="12.861237813445682"><ele>128.66666666666666</ele><time>2026-04-07T13:51:46.001Z</time></trkpt><trkpt lat="43.73415000537088" lon="12.861343552967389"><ele>128.33333333333334</ele><time>2026-04-07T13:51:47.001Z</time></trkpt><trkpt lat="43.73410682621098" lon="12.861441616572359"><ele>128.0</ele><time>2026-04-07T13:51:48.001Z</time></trkpt><trkpt lat="43.7340657489869" lon="12.861534286375685"><ele>127.66666666666667</ele><time>2026-04-07T13:51:49.001Z</time></trkpt><trkpt lat="43.73401529348579" lon="12.861605574790019"><ele>127.33333333333334</ele><time>2026-04-07T13:51:50.001Z</time></trkpt><trkpt lat="43.73397485923522" lon="12.861685075343194"><ele>127.0</ele><time>2026-04-07T13:51:51.001Z</time></trkpt><trkpt lat="43.73394033882504" lon="12.861783174980507"><ele>125.42857142857143</ele><time>2026-04-07T13:51:52.001Z</time></trkpt><trkpt lat="43.73389573435581" lon="12.861868365597632"><ele>123.85714285714286</ele><time>2026-04-07T13:51:53.001Z</time></trkpt><trkpt lat="43.73385239364481" lon="12.86194895327584"><ele>122.28571428571429</ele><time>2026-04-07T13:51:54.001Z</time></trkpt><trkpt lat="43.73380151051747" lon="12.862015742840212"><ele>120.71428571428572</ele><time>2026-04-07T13:51:55.001Z</time></trkpt><trkpt lat="43.7337672776919" lon="12.862107830413978"><ele>119.14285714285714</ele><time>2026-04-07T13:51:56.001Z</time></trkpt><trkpt lat="43.73372221309445" lon="12.862185855004274"><ele>117.57142857142858</ele><time>2026-04-07T13:51:57.001Z</time></trkpt><trkpt lat="43.73367858042968" lon="12.8622726055672"><ele>116.00000000000001</ele><time>2026-04-07T13:51:58.001Z</time></trkpt><trkpt lat="43.73362838504743" lon="12.862358469775705"><ele>115.99999999999999</ele><time>2026-04-07T13:51:59.001Z</time></trkpt><trkpt lat="43.73356518156648" lon="12.862428041111528"><ele>116.0</ele><time>2026-04-07T13:52:00.001Z</time></trkpt><trkpt lat="43.73350908534576" lon="12.862512569662288"><ele>116.0</ele><time>2026-04-07T13:52:01.001Z</time></trkpt><trkpt lat="43.733453508730236" lon="12.862597946290107"><ele>116.0</ele><time>2026-04-07T13:52:02.001Z</time></trkpt><trkpt lat="43.7334030528073" lon="12.862702226789398"><ele>115.99999999999999</ele><time>2026-04-07T13:52:03Z</time></trkpt><trkpt lat="43.73334361153054" lon="12.862798082332299"><ele>116.0</ele><time>2026-04-07T13:52:04Z</time></trkpt><trkpt lat="43.73327054523397" lon="12.862884510881864"><ele>115.8</ele><time>2026-04-07T13:52:05Z</time></trkpt><trkpt lat="43.73321526843706" lon="12.862996026834296"><ele>115.6</ele><time>2026-04-07T13:52:06Z</time></trkpt><trkpt lat="43.733157775398894" lon="12.86309765500047"><ele>115.4</ele><time>2026-04-07T13:52:07Z</time></trkpt><trkpt lat="43.73309823958541" lon="12.863204447506885"><ele>115.2</ele><time>2026-04-07T13:52:08Z</time></trkpt><trkpt lat="43.73304637267696" lon="12.863315211253902"><ele>115.0</ele><time>2026-04-07T13:52:09Z</time></trkpt><trkpt lat="43.73298624350392" lon="12.863416229549928"><ele>115.2</ele><time>2026-04-07T13:52:10Z</time></trkpt><trkpt lat="43.732929983149155" lon="12.863518678423747"><ele>115.4</ele><time>2026-04-07T13:52:11Z</time></trkpt><trkpt lat="43.73286915483472" lon="12.863617772730196"><ele>115.6</ele><time>2026-04-07T13:52:12Z</time></trkpt><trkpt lat="43.73280893899184" lon="12.863723240897132"><ele>115.8</ele><time>2026-04-07T13:52:13Z</time></trkpt><trkpt lat="43.73274197776607" lon="12.863825807720866"><ele>116.0</ele><time>2026-04-07T13:52:14Z</time></trkpt><trkpt lat="43.73266077355473" lon="12.863907952593985"><ele>116.0</ele><time>2026-04-07T13:52:15Z</time></trkpt><trkpt lat="43.73258879792015" lon="12.863998537770604"><ele>116.0</ele><time>2026-04-07T13:52:16Z</time></trkpt><trkpt lat="43.73251718679409" lon="12.864082955176334"><ele>116.0</ele><time>2026-04-07T13:52:17Z</time></trkpt><trkpt lat="43.732442669582994" lon="12.864170737690994"><ele>116.0</ele><time>2026-04-07T13:52:18Z</time></trkpt><trkpt lat="43.73236883075693" lon="12.864261576235897"><ele>116.0</ele><time>2026-04-07T13:52:19Z</time></trkpt><trkpt lat="43.73229230981537" lon="12.864363211093297"><ele>113.8</ele><time>2026-04-07T13:52:20Z</time></trkpt><trkpt lat="43.73221963095667" lon="12.864474414808308"><ele>111.6</ele><time>2026-04-07T13:52:21Z</time></trkpt><trkpt lat="43.732154281884675" lon="12.864593685816425"><ele>109.4</ele><time>2026-04-07T13:52:22Z</time></trkpt><trkpt lat="43.73209120654591" lon="12.86471187696983"><ele>107.2</ele><time>2026-04-07T13:52:23Z</time></trkpt><trkpt lat="43.73202671765732" lon="12.864827755062086"><ele>105.0</ele><time>2026-04-07T13:52:24Z</time></trkpt><trkpt lat="43.73195864007423" lon="12.864946851958068"><ele>106.8</ele><time>2026-04-07T13:52:25Z</time></trkpt><trkpt lat="43.73188475661926" lon="12.865065870319034"><ele>108.6</ele><time>2026-04-07T13:52:26Z</time></trkpt><trkpt lat="43.73181946793921" lon="12.865186504528"><ele>110.4</ele><time>2026-04-07T13:52:27Z</time></trkpt><trkpt lat="43.73174052821996" lon="12.865280272201568"><ele>112.2</ele><time>2026-04-07T13:52:28Z</time></trkpt><trkpt lat="43.731674644593944" lon="12.865373514909656"><ele>114.0</ele><time>2026-04-07T13:52:29Z</time></trkpt><trkpt lat="43.731615913979226" lon="12.865454353195286"><ele>114.0</ele><time>2026-04-07T13:52:30Z</time></trkpt><trkpt lat="43.73156126454811" lon="12.86552941963828"><ele>114.0</ele><time>2026-04-07T13:52:31Z</time></trkpt><trkpt lat="43.73151389766791" lon="12.865595078790516"><ele>114.0</ele><time>2026-04-07T13:52:32Z</time></trkpt><trkpt lat="43.731430523000896" lon="12.865711164224402"><ele>114.0</ele><time>2026-04-07T13:52:34Z</time></trkpt><trkpt lat="43.73138415430569" lon="12.865776283924703"><ele>114.0</ele><time>2026-04-07T13:52:35Z</time></trkpt><trkpt lat="43.73133552103297" lon="12.865845512017266"><ele>114.0</ele><time>2026-04-07T13:52:36Z</time></trkpt><trkpt lat="43.73128741929608" lon="12.865913983474941"><ele>113.80000000000001</ele><time>2026-04-07T13:52:37Z</time></trkpt><trkpt lat="43.731254368791475" lon="12.865993659532721"><ele>113.60000000000001</ele><time>2026-04-07T13:52:38Z</time></trkpt><trkpt lat="43.73116462789282" lon="12.86611889673929"><ele>113.4</ele><time>2026-04-07T13:52:40Z</time></trkpt><trkpt lat="43.73107333153679" lon="12.866250093485988"><ele>113.2</ele><time>2026-04-07T13:52:42Z</time></trkpt><trkpt lat="43.731021097970086" lon="12.866319709951195"><ele>113.0</ele><time>2026-04-07T13:52:43Z</time></trkpt><trkpt lat="43.730974635631824" lon="12.866393179050897"><ele>112.99999999999999</ele><time>2026-04-07T13:52:44Z</time></trkpt><trkpt lat="43.7309179478851" lon="12.866463051238423"><ele>113.0</ele><time>2026-04-07T13:52:45Z</time></trkpt><trkpt lat="43.73086383997123" lon="12.866545323336702"><ele>113.0</ele><time>2026-04-07T13:52:46Z</time></trkpt><trkpt lat="43.730803455082366" lon="12.866624999200818"><ele>113.0</ele><time>2026-04-07T13:52:47Z</time></trkpt><trkpt lat="43.73074860382452" lon="12.86670558706621"><ele>112.99999999999999</ele><time>2026-04-07T13:52:48Z</time></trkpt><trkpt lat="43.73068412009498" lon="12.866766322032278"><ele>113.0</ele><time>2026-04-07T13:52:49Z</time></trkpt><trkpt lat="43.730629652232544" lon="12.866855528948694"><ele>111.99999999999999</ele><time>2026-04-07T13:52:50Z</time></trkpt><trkpt lat="43.7305710899341" lon="12.866944903251236"><ele>111.0</ele><time>2026-04-07T13:52:51Z</time></trkpt><trkpt lat="43.730508616644165" lon="12.86702685670121"><ele>110.0</ele><time>2026-04-07T13:52:52Z</time></trkpt><trkpt lat="43.73043562932728" lon="12.867090665972025"><ele>109.0</ele><time>2026-04-07T13:52:53Z</time></trkpt><trkpt lat="43.7303720649897" lon="12.867164726605363"><ele>107.99999999999999</ele><time>2026-04-07T13:52:54Z</time></trkpt><trkpt lat="43.73030600768524" lon="12.867238963310623"><ele>107.0</ele><time>2026-04-07T13:52:55Z</time></trkpt><trkpt lat="43.73023847504414" lon="12.86731169956278"><ele>107.49999999999999</ele><time>2026-04-07T13:52:56Z</time></trkpt><trkpt lat="43.73017061286284" lon="12.86738288970108"><ele>108.0</ele><time>2026-04-07T13:52:57Z</time></trkpt><trkpt lat="43.73010080387815" lon="12.867453313039686"><ele>108.5</ele><time>2026-04-07T13:52:58Z</time></trkpt><trkpt lat="43.730040422239924" lon="12.867533121322573"><ele>109.0</ele><time>2026-04-07T13:52:59Z</time></trkpt><trkpt lat="43.729970878825796" lon="12.867590927536261"><ele>109.49999999999999</ele><time>2026-04-07T13:53:00Z</time></trkpt><trkpt lat="43.72989758030534" lon="12.867653251038567"><ele>110.0</ele><time>2026-04-07T13:53:01Z</time></trkpt><trkpt lat="43.72981485049822" lon="12.867694714242717"><ele>109.99999999999999</ele><time>2026-04-07T13:53:02Z</time></trkpt><trkpt lat="43.72975513553553" lon="12.867762152815992"><ele>110.0</ele><time>2026-04-07T13:53:03Z</time></trkpt><trkpt lat="43.72969833654853" lon="12.867800849526576"><ele>110.0</ele><time>2026-04-07T13:53:04Z</time></trkpt><trkpt lat="43.729629177314244" lon="12.867823922445135"><ele>110.0</ele><time>2026-04-07T13:53:05Z</time></trkpt><trkpt lat="43.7295652886261" lon="12.867882819380352"><ele>110.0</ele><time>2026-04-07T13:53:06Z</time></trkpt><trkpt lat="43.72949643425683" lon="12.867932442401374"><ele>109.99999999999999</ele><time>2026-04-07T13:53:07Z</time></trkpt><trkpt lat="43.729427970184794" lon="12.867994358286007"><ele>110.0</ele><time>2026-04-07T13:53:08Z</time></trkpt><trkpt lat="43.729362322307296" lon="12.868065249347234"><ele>109.99999999999999</ele><time>2026-04-07T13:53:09Z</time></trkpt><trkpt lat="43.72930207793246" lon="12.86814685510191"><ele>110.0</ele><time>2026-04-07T13:53:10Z</time></trkpt><trkpt lat="43.72924487615391" lon="12.86821759617971"><ele>110.0</ele><time>2026-04-07T13:53:11Z</time></trkpt><trkpt lat="43.72918084967759" lon="12.868303396824679"><ele>110.0</ele><time>2026-04-07T13:53:12Z</time></trkpt><trkpt lat="43.72910781232361" lon="12.868384445656329"><ele>109.99999999999999</ele><time>2026-04-07T13:53:13Z</time></trkpt><trkpt lat="43.72904409874662" lon="12.868461528162573"><ele>110.0</ele><time>2026-04-07T13:53:14Z</time></trkpt><trkpt lat="43.72899390982739" lon="12.868572187343181"><ele>108.66666666666666</ele><time>2026-04-07T13:53:15Z</time></trkpt><trkpt lat="43.728932479882374" lon="12.868668824557322"><ele>107.33333333333333</ele><time>2026-04-07T13:53:16Z</time></trkpt><trkpt lat="43.728878248102916" lon="12.86877301818975"><ele>106.0</ele><time>2026-04-07T13:53:17Z</time></trkpt><trkpt lat="43.72882312961596" lon="12.868875944949998"><ele>104.66666666666666</ele><time>2026-04-07T13:53:18Z</time></trkpt><trkpt lat="43.72876637944975" lon="12.868956711305456"><ele>103.33333333333333</ele><time>2026-04-07T13:53:19Z</time></trkpt><trkpt lat="43.72870771937377" lon="12.869028855628635"><ele>102.0</ele><time>2026-04-07T13:53:20Z</time></trkpt><trkpt lat="43.728707855788656" lon="12.869137943807557"><ele>102.0</ele><time>2026-04-07T13:53:21Z</time></trkpt><trkpt lat="43.72867910324524" lon="12.869229716316552"><ele>102.0</ele><time>2026-04-07T13:53:22Z</time></trkpt><trkpt lat="43.72866400011037" lon="12.869324990484426"><ele>102.0</ele><time>2026-04-07T13:53:23Z</time></trkpt><trkpt lat="43.7286543611519" lon="12.869411946884732"><ele>102.0</ele><time>2026-04-07T13:53:24Z</time></trkpt><trkpt lat="43.72863162488989" lon="12.86950912079333"><ele>102.0</ele><time>2026-04-07T13:53:25Z</time></trkpt><trkpt lat="43.728607379303355" lon="12.869672536728828"><ele>102.0</ele><time>2026-04-07T13:53:27Z</time></trkpt><trkpt lat="43.72855893283915" lon="12.869817211899552"><ele>101.39999999999999</ele><time>2026-04-07T13:53:29Z</time></trkpt><trkpt lat="43.72848861513336" lon="12.86992341731206"><ele>100.8</ele><time>2026-04-07T13:53:31.001Z</time></trkpt><trkpt lat="43.72841183632545" lon="12.869985045900046"><ele>100.2</ele><time>2026-04-07T13:53:33.001Z</time></trkpt><trkpt lat="43.72832862673975" lon="12.870053833871344"><ele>99.6</ele><time>2026-04-07T13:53:35.001Z</time></trkpt><trkpt lat="43.72825847125905" lon="12.870117811828264"><ele>99.0</ele><time>2026-04-07T13:53:37.001Z</time></trkpt><trkpt lat="43.72819799742246" lon="12.870202175967393"><ele>99.0</ele><time>2026-04-07T13:53:39.001Z</time></trkpt><trkpt lat="43.728144102646574" lon="12.870292936154026"><ele>99.0</ele><time>2026-04-07T13:53:41.001Z</time></trkpt><trkpt lat="43.728098575507865" lon="12.870395912628208"><ele>99.0</ele><time>2026-04-07T13:53:43.001Z</time></trkpt><trkpt lat="43.72805983823338" lon="12.870503259343025"><ele>99.0</ele><time>2026-04-07T13:53:45.001Z</time></trkpt><trkpt lat="43.728026567008925" lon="12.87064389938426"><ele>99.0</ele><time>2026-04-07T13:53:47.001Z</time></trkpt><trkpt lat="43.72801809622002" lon="12.870774906796427"><ele>99.0</ele><time>2026-04-07T13:53:49.001Z</time></trkpt><trkpt lat="43.728054416087886" lon="12.870919855402933"><ele>99.0</ele><time>2026-04-07T13:53:51.001Z</time></trkpt><trkpt lat="43.72807545165832" lon="12.871079913780655"><ele>99.0</ele><time>2026-04-07T13:53:53.001Z</time></trkpt><trkpt lat="43.728099265243365" lon="12.871171398596573"><ele>99.0</ele><time>2026-04-07T13:53:54.001Z</time></trkpt><trkpt lat="43.7281247909942" lon="12.871262178265445"><ele>99.0</ele><time>2026-04-07T13:53:55.001Z</time></trkpt><trkpt lat="43.72815300805232" lon="12.871363903074046"><ele>99.0</ele><time>2026-04-07T13:53:56.001Z</time></trkpt><trkpt lat="43.728180557636676" lon="12.87148351618663"><ele>97.83333333333333</ele><time>2026-04-07T13:53:57.001Z</time></trkpt><trkpt lat="43.728198430442774" lon="12.87157918849168"><ele>96.66666666666667</ele><time>2026-04-07T13:53:58.001Z</time></trkpt><trkpt lat="43.72821440876765" lon="12.871684877480599"><ele>95.5</ele><time>2026-04-07T13:53:59.001Z</time></trkpt><trkpt lat="43.728228758045894" lon="12.871788039011019"><ele>94.33333333333334</ele><time>2026-04-07T13:54:00.001Z</time></trkpt><trkpt lat="43.72823951708999" lon="12.87188048901987"><ele>93.16666666666667</ele><time>2026-04-07T13:54:01.001Z</time></trkpt><trkpt lat="43.72824057185819" lon="12.872051317933902"><ele>92.0</ele><time>2026-04-07T13:54:03.001Z</time></trkpt><trkpt lat="43.728225373463516" lon="12.872141856637352"><ele>90.85714285714286</ele><time>2026-04-07T13:54:04.001Z</time></trkpt><trkpt lat="43.72820498474385" lon="12.872228805860345"><ele>89.71428571428571</ele><time>2026-04-07T13:54:05.001Z</time></trkpt><trkpt lat="43.72819094789447" lon="12.872324447484052"><ele>88.57142857142857</ele><time>2026-04-07T13:54:06.001Z</time></trkpt><trkpt lat="43.72818628058849" lon="12.87241567242138"><ele>87.42857142857143</ele><time>2026-04-07T13:54:07.001Z</time></trkpt><trkpt lat="43.728182818410346" lon="12.872506323236015"><ele>86.28571428571428</ele><time>2026-04-07T13:54:08.001Z</time></trkpt><trkpt lat="43.72817988312" lon="12.872607778941727"><ele>85.14285714285714</ele><time>2026-04-07T13:54:09.001Z</time></trkpt><trkpt lat="43.728177126851584" lon="12.872703046770711"><ele>84.0</ele><time>2026-04-07T13:54:10.001Z</time></trkpt><trkpt lat="43.72817109336161" lon="12.872809954592865"><ele>83.5</ele><time>2026-04-07T13:54:11.001Z</time></trkpt><trkpt lat="43.72816073254605" lon="12.872918019205045"><ele>83.0</ele><time>2026-04-07T13:54:12.001Z</time></trkpt><trkpt lat="43.72814681358898" lon="12.873039292220312"><ele>82.5</ele><time>2026-04-07T13:54:13.001Z</time></trkpt><trkpt lat="43.72813270339994" lon="12.873147304200685"><ele>82.0</ele><time>2026-04-07T13:54:14.001Z</time></trkpt><trkpt lat="43.728118417530766" lon="12.873256660987513"><ele>81.5</ele><time>2026-04-07T13:54:15.001Z</time></trkpt><trkpt lat="43.728103580351075" lon="12.873378337111559"><ele>81.0</ele><time>2026-04-07T13:54:16.001Z</time></trkpt><trkpt lat="43.72809003706201" lon="12.873501926369284"><ele>80.16666666666667</ele><time>2026-04-07T13:54:17.001Z</time></trkpt><trkpt lat="43.72807684042715" lon="12.873624876593794"><ele>79.33333333333333</ele><time>2026-04-07T13:54:18.001Z</time></trkpt><trkpt lat="43.72806277328215" lon="12.873746674944389"><ele>78.5</ele><time>2026-04-07T13:54:19.001Z</time></trkpt><trkpt lat="43.728048712208036" lon="12.873860357159923"><ele>77.66666666666666</ele><time>2026-04-07T13:54:20.001Z</time></trkpt><trkpt lat="43.72803058127302" lon="12.873969035300862"><ele>76.83333333333333</ele><time>2026-04-07T13:54:21.001Z</time></trkpt><trkpt lat="43.728008105679166" lon="12.874080798796882"><ele>76.0</ele><time>2026-04-07T13:54:22Z</time></trkpt><trkpt lat="43.72796994996508" lon="12.874180277253423"><ele>76.0</ele><time>2026-04-07T13:54:23Z</time></trkpt><trkpt lat="43.72791391743767" lon="12.87426562958597"><ele>76.0</ele><time>2026-04-07T13:54:24Z</time></trkpt><trkpt lat="43.727863536753276" lon="12.874360360184474"><ele>76.0</ele><time>2026-04-07T13:54:25Z</time></trkpt><trkpt lat="43.72782763471715" lon="12.874458752049366"><ele>76.0</ele><time>2026-04-07T13:54:26Z</time></trkpt><trkpt lat="43.72780441234104" lon="12.874574313905907"><ele>76.0</ele><time>2026-04-07T13:54:27Z</time></trkpt><trkpt lat="43.72778101419216" lon="12.874684583432654"><ele>76.0</ele><time>2026-04-07T13:54:28Z</time></trkpt><trkpt lat="43.727756918943676" lon="12.87479123190943"><ele>75.83333333333333</ele><time>2026-04-07T13:54:29Z</time></trkpt><trkpt lat="43.72773295796523" lon="12.874902733569213"><ele>75.66666666666666</ele><time>2026-04-07T13:54:30Z</time></trkpt><trkpt lat="43.72771029758167" lon="12.875010876775594"><ele>75.5</ele><time>2026-04-07T13:54:31Z</time></trkpt><trkpt lat="43.72768824852557" lon="12.875121880167457"><ele>75.33333333333333</ele><time>2026-04-07T13:54:32Z</time></trkpt><trkpt lat="43.727666132358344" lon="12.875241274224328"><ele>75.16666666666667</ele><time>2026-04-07T13:54:33Z</time></trkpt><trkpt lat="43.72764599001414" lon="12.87535793785421"><ele>75.0</ele><time>2026-04-07T13:54:34Z</time></trkpt><trkpt lat="43.727640220675866" lon="12.875479413374965"><ele>74.6</ele><time>2026-04-07T13:54:35Z</time></trkpt><trkpt lat="43.727627191413546" lon="12.875611855142862"><ele>74.2</ele><time>2026-04-07T13:54:36Z</time></trkpt><trkpt lat="43.727621705154824" lon="12.875744160593012"><ele>73.8</ele><time>2026-04-07T13:54:37Z</time></trkpt><trkpt lat="43.727624977802414" lon="12.875878850621882"><ele>73.4</ele><time>2026-04-07T13:54:38Z</time></trkpt><trkpt lat="43.72761744956816" lon="12.876011432998732"><ele>73.0</ele><time>2026-04-07T13:54:39Z</time></trkpt><trkpt lat="43.72762915357211" lon="12.876140585672132"><ele>72.6</ele><time>2026-04-07T13:54:40Z</time></trkpt><trkpt lat="43.727618954342276" lon="12.876268204175256"><ele>72.19999999999999</ele><time>2026-04-07T13:54:41Z</time></trkpt><trkpt lat="43.72757192657389" lon="12.876386850186138"><ele>71.8</ele><time>2026-04-07T13:54:42Z</time></trkpt><trkpt lat="43.72753161035082" lon="12.876502810935344"><ele>71.39999999999999</ele><time>2026-04-07T13:54:43Z</time></trkpt><trkpt lat="43.72748222553842" lon="12.876603053402288"><ele>71.0</ele><time>2026-04-07T13:54:44Z</time></trkpt><trkpt lat="43.72742714121062" lon="12.876705859964435"><ele>70.39999999999999</ele><time>2026-04-07T13:54:45Z</time></trkpt><trkpt lat="43.727368588936926" lon="12.876806088432295"><ele>69.8</ele><time>2026-04-07T13:54:46Z</time></trkpt><trkpt lat="43.727309165104565" lon="12.876910482509322"><ele>69.19999999999999</ele><time>2026-04-07T13:54:47Z</time></trkpt><trkpt lat="43.72725159065527" lon="12.87701836713137"><ele>68.6</ele><time>2026-04-07T13:54:48Z</time></trkpt><trkpt lat="43.72718887887649" lon="12.877133991147105"><ele>68.0</ele><time>2026-04-07T13:54:49Z</time></trkpt><trkpt lat="43.727138280538725" lon="12.877226315630068"><ele>68.0</ele><time>2026-04-07T13:54:50Z</time></trkpt><trkpt lat="43.72708466852041" lon="12.877320710228803"><ele>68.0</ele><time>2026-04-07T13:54:51Z</time></trkpt><trkpt lat="43.72703003773661" lon="12.877405990106565"><ele>68.0</ele><time>2026-04-07T13:54:52Z</time></trkpt><trkpt lat="43.7269816789252" lon="12.877466536403839"><ele>68.0</ele><time>2026-04-07T13:54:53Z</time></trkpt><trkpt lat="43.72690258393399" lon="12.877480813283965"><ele>68.0</ele><time>2026-04-07T13:54:55Z</time></trkpt><trkpt lat="43.72684019556122" lon="12.877495953873005"><ele>68.0</ele><time>2026-04-07T13:54:57Z</time></trkpt><trkpt lat="43.72681079933084" lon="12.877588514076852"><ele>68.0</ele><time>2026-04-07T13:55:21Z</time></trkpt><trkpt lat="43.72686714081947" lon="12.87769356585364"><ele>68.0</ele><time>2026-04-07T13:55:23Z</time></trkpt><trkpt lat="43.72696042564494" lon="12.877789692116538"><ele>68.0</ele><time>2026-04-07T13:55:25Z</time></trkpt><trkpt lat="43.72702216061276" lon="12.87783863259569"><ele>68.0</ele><time>2026-04-07T13:55:26Z</time></trkpt><trkpt lat="43.727091209299026" lon="12.877886717733654"><ele>68.0</ele><time>2026-04-07T13:55:27Z</time></trkpt><trkpt lat="43.727165800722645" lon="12.877933554650925"><ele>68.0</ele><time>2026-04-07T13:55:28Z</time></trkpt><trkpt lat="43.727246677599666" lon="12.877983929733631"><ele>68.4</ele><time>2026-04-07T13:55:29Z</time></trkpt><trkpt lat="43.72733055746604" lon="12.878033556909664"><ele>68.8</ele><time>2026-04-07T13:55:30Z</time></trkpt><trkpt lat="43.727419542813834" lon="12.878082585178436"><ele>69.2</ele><time>2026-04-07T13:55:31Z</time></trkpt><trkpt lat="43.72750902198461" lon="12.878130974191157"><ele>69.6</ele><time>2026-04-07T13:55:32Z</time></trkpt><trkpt lat="43.72760072647907" lon="12.878179811977255"><ele>70.0</ele><time>2026-04-07T13:55:33Z</time></trkpt><trkpt lat="43.72769158066017" lon="12.878227857145733"><ele>71.4</ele><time>2026-04-07T13:55:34Z</time></trkpt><trkpt lat="43.72778220966775" lon="12.878272976293678"><ele>72.8</ele><time>2026-04-07T13:55:35Z</time></trkpt><trkpt lat="43.72787707033185" lon="12.878305298230556"><ele>74.2</ele><time>2026-04-07T13:55:36Z</time></trkpt><trkpt lat="43.72797541017104" lon="12.878319377083384"><ele>75.6</ele><time>2026-04-07T13:55:37Z</time></trkpt><trkpt lat="43.72807436644914" lon="12.878311279738801"><ele>77.0</ele><time>2026-04-07T13:55:38Z</time></trkpt><trkpt lat="43.72817380431695" lon="12.878293677202667"><ele>77.0</ele><time>2026-04-07T13:55:39Z</time></trkpt><trkpt lat="43.728271479737" lon="12.87824696373078"><ele>77.0</ele><time>2026-04-07T13:55:40Z</time></trkpt><trkpt lat="43.72836658871557" lon="12.878194768704398"><ele>77.0</ele><time>2026-04-07T13:55:41Z</time></trkpt><trkpt lat="43.728440493630764" lon="12.878125090740637"><ele>77.0</ele><time>2026-04-07T13:55:42Z</time></trkpt><trkpt lat="43.72853835765232" lon="12.87803018229392"><ele>77.0</ele><time>2026-04-07T13:55:43Z</time></trkpt><trkpt lat="43.728618059244134" lon="12.877933357287395"><ele>78.2</ele><time>2026-04-07T13:55:44Z</time></trkpt><trkpt lat="43.72869329019056" lon="12.877825157754044"><ele>79.4</ele><time>2026-04-07T13:55:45Z</time></trkpt><trkpt lat="43.72876661141827" lon="12.877708249809704"><ele>80.60000000000001</ele><time>2026-04-07T13:55:46.001Z</time></trkpt><trkpt lat="43.72884494447018" lon="12.8776007073866"><ele>81.80000000000001</ele><time>2026-04-07T13:55:47.001Z</time></trkpt><trkpt lat="43.7289196648884" lon="12.877487436975944"><ele>83.0</ele><time>2026-04-07T13:55:48.001Z</time></trkpt><trkpt lat="43.72899593153004" lon="12.877373645814743"><ele>83.0</ele><time>2026-04-07T13:55:49.001Z</time></trkpt><trkpt lat="43.72906823958811" lon="12.877260104967345"><ele>83.0</ele><time>2026-04-07T13:55:50.001Z</time></trkpt><trkpt lat="43.729144409212786" lon="12.877148650783564"><ele>83.0</ele><time>2026-04-07T13:55:51.001Z</time></trkpt><trkpt lat="43.72921445783791" lon="12.87703852164752"><ele>83.0</ele><time>2026-04-07T13:55:52.001Z</time></trkpt><trkpt lat="43.72928567358677" lon="12.876926455971983"><ele>83.0</ele><time>2026-04-07T13:55:53.001Z</time></trkpt><trkpt lat="43.72935616716345" lon="12.876819328767098"><ele>85.0</ele><time>2026-04-07T13:55:54.001Z</time></trkpt><trkpt lat="43.72942827105884" lon="12.876733977735572"><ele>87.0</ele><time>2026-04-07T13:55:55.001Z</time></trkpt><trkpt lat="43.72949133827887" lon="12.876682527176902"><ele>89.0</ele><time>2026-04-07T13:55:56.001Z</time></trkpt><trkpt lat="43.72956413968291" lon="12.876671098424723"><ele>91.0</ele><time>2026-04-07T13:55:57.001Z</time></trkpt><trkpt lat="43.729636660566804" lon="12.876702414071437"><ele>93.0</ele><time>2026-04-07T13:55:58.001Z</time></trkpt><trkpt lat="43.72970493911442" lon="12.876762664550824"><ele>95.0</ele><time>2026-04-07T13:55:59.001Z</time></trkpt><trkpt lat="43.72975448490958" lon="12.876853089090519"><ele>95.16666666666667</ele><time>2026-04-07T13:56:00.001Z</time></trkpt><trkpt lat="43.72977391891666" lon="12.876964965933672"><ele>95.33333333333334</ele><time>2026-04-07T13:56:01.001Z</time></trkpt><trkpt lat="43.729742446120056" lon="12.877084065692843"><ele>95.5</ele><time>2026-04-07T13:56:02.001Z</time></trkpt><trkpt lat="43.7296934801704" lon="12.877175343618227"><ele>95.66666666666667</ele><time>2026-04-07T13:56:03.001Z</time></trkpt><trkpt lat="43.729636632773754" lon="12.877276785572677"><ele>95.83333333333333</ele><time>2026-04-07T13:56:04.001Z</time></trkpt><trkpt lat="43.729570792257014" lon="12.877368273201805"><ele>96.0</ele><time>2026-04-07T13:56:05.001Z</time></trkpt><trkpt lat="43.729505926390075" lon="12.87746195928358"><ele>96.0</ele><time>2026-04-07T13:56:06.001Z</time></trkpt><trkpt lat="43.72943604105744" lon="12.87755984770297"><ele>96.0</ele><time>2026-04-07T13:56:07.001Z</time></trkpt><trkpt lat="43.72937184117708" lon="12.877660079443206"><ele>96.0</ele><time>2026-04-07T13:56:08.001Z</time></trkpt><trkpt lat="43.729302282541056" lon="12.877760787705096"><ele>96.0</ele><time>2026-04-07T13:56:09.001Z</time></trkpt><trkpt lat="43.729249334361285" lon="12.877879312756143"><ele>96.0</ele><time>2026-04-07T13:56:10.001Z</time></trkpt><trkpt lat="43.72921093220006" lon="12.877999114284503"><ele>94.0</ele><time>2026-04-07T13:56:11.001Z</time></trkpt><trkpt lat="43.72919033169287" lon="12.878128013372523"><ele>92.0</ele><time>2026-04-07T13:56:12.001Z</time></trkpt><trkpt lat="43.72918656576227" lon="12.878262470938205"><ele>90.0</ele><time>2026-04-07T13:56:13.001Z</time></trkpt><trkpt lat="43.72920148837568" lon="12.878397455834762"><ele>88.0</ele><time>2026-04-07T13:56:14.001Z</time></trkpt><trkpt lat="43.729237234086895" lon="12.878523948499504"><ele>86.0</ele><time>2026-04-07T13:56:15Z</time></trkpt><trkpt lat="43.72928994701764" lon="12.878644476915543"><ele>86.0</ele><time>2026-04-07T13:56:16Z</time></trkpt><trkpt lat="43.72935689950949" lon="12.87875035018966"><ele>86.0</ele><time>2026-04-07T13:56:17Z</time></trkpt><trkpt lat="43.72943784714045" lon="12.878848024831601"><ele>86.0</ele><time>2026-04-07T13:56:18Z</time></trkpt><trkpt lat="43.72952677012368" lon="12.878936714674305"><ele>86.0</ele><time>2026-04-07T13:56:19Z</time></trkpt><trkpt lat="43.7296189291271" lon="12.87902506664364"><ele>86.0</ele><time>2026-04-07T13:56:20Z</time></trkpt><trkpt lat="43.729709417978846" lon="12.879122003130174"><ele>87.0</ele><time>2026-04-07T13:56:21Z</time></trkpt><trkpt lat="43.72979562197763" lon="12.8792278623997"><ele>88.0</ele><time>2026-04-07T13:56:22Z</time></trkpt><trkpt lat="43.72987390963546" lon="12.879345084968394"><ele>89.0</ele><time>2026-04-07T13:56:23Z</time></trkpt><trkpt lat="43.72994869859484" lon="12.879451377064697"><ele>90.0</ele><time>2026-04-07T13:56:24Z</time></trkpt><trkpt lat="43.73000741235657" lon="12.879556904389403"><ele>91.0</ele><time>2026-04-07T13:56:25Z</time></trkpt><trkpt lat="43.730062374550556" lon="12.879657168800314"><ele>91.0</ele><time>2026-04-07T13:56:26Z</time></trkpt><trkpt lat="43.73010311804632" lon="12.879741721577508"><ele>91.0</ele><time>2026-04-07T13:56:27Z</time></trkpt><trkpt lat="43.7301328593051" lon="12.879823095290579"><ele>91.0</ele><time>2026-04-07T13:56:28Z</time></trkpt><trkpt lat="43.73016019972874" lon="12.879954563719709"><ele>91.0</ele><time>2026-04-07T13:56:30Z</time></trkpt><trkpt lat="43.73005338206154" lon="12.8801677667816"><ele>91.0</ele><time>2026-04-07T13:56:33Z</time></trkpt><trkpt lat="43.729992171460054" lon="12.880208543286509"><ele>90.5</ele><time>2026-04-07T13:56:35Z</time></trkpt><trkpt lat="43.72994199127707" lon="12.880272146489387"><ele>90.0</ele><time>2026-04-07T13:56:38Z</time></trkpt><trkpt lat="43.72989390379891" lon="12.880341112482308"><ele>89.5</ele><time>2026-04-07T13:57:01Z</time></trkpt><trkpt lat="43.729842950632026" lon="12.880419115965578"><ele>89.0</ele><time>2026-04-07T13:57:04Z</time></trkpt><trkpt lat="43.729767818071494" lon="12.880497728836563"><ele>88.5</ele><time>2026-04-07T13:57:06Z</time></trkpt><trkpt lat="43.7297135989648" lon="12.880560251063295"><ele>88.0</ele><time>2026-04-07T13:57:08Z</time></trkpt><trkpt lat="43.72976509540928" lon="12.880483271502438"><ele>88.0</ele><time>2026-04-07T13:57:23Z</time></trkpt><trkpt lat="43.72987478651766" lon="12.88043190546649"><ele>88.0</ele><time>2026-04-07T13:57:24Z</time></trkpt><trkpt lat="43.729960191999695" lon="12.880326965891355"><ele>88.0</ele><time>2026-04-07T13:57:27Z</time></trkpt><trkpt lat="43.730053299971935" lon="12.88022080681047"><ele>88.0</ele><time>2026-04-07T13:57:29Z</time></trkpt><trkpt lat="43.73014426819384" lon="12.88013042151637"><ele>88.60000000000001</ele><time>2026-04-07T13:57:31Z</time></trkpt><trkpt lat="43.73022011531031" lon="12.880063172223972"><ele>89.2</ele><time>2026-04-07T13:57:33Z</time></trkpt><trkpt lat="43.730254155119304" lon="12.879977138384726"><ele>89.8</ele><time>2026-04-07T13:57:37Z</time></trkpt><trkpt lat="43.73023102728297" lon="12.879857076622777"><ele>90.4</ele><time>2026-04-07T13:57:39Z</time></trkpt><trkpt lat="43.73014163381885" lon="12.879723533417055"><ele>91.0</ele><time>2026-04-07T13:57:41Z</time></trkpt><trkpt lat="43.730093985181206" lon="12.879641574992954"><ele>91.0</ele><time>2026-04-07T13:57:42Z</time></trkpt><trkpt lat="43.73004073131244" lon="12.879554425891193"><ele>91.0</ele><time>2026-04-07T13:57:43Z</time></trkpt><trkpt lat="43.72998553879813" lon="12.879462292980465"><ele>91.0</ele><time>2026-04-07T13:57:44Z</time></trkpt><trkpt lat="43.72992209597369" lon="12.879359816470632"><ele>91.0</ele><time>2026-04-07T13:57:45Z</time></trkpt><trkpt lat="43.729855245409965" lon="12.879254808844651"><ele>91.0</ele><time>2026-04-07T13:57:46Z</time></trkpt><trkpt lat="43.729783050493104" lon="12.879150029693067"><ele>91.6</ele><time>2026-04-07T13:57:47Z</time></trkpt><trkpt lat="43.72969850488973" lon="12.879064561627438"><ele>92.19999999999999</ele><time>2026-04-07T13:57:48Z</time></trkpt><trkpt lat="43.72962068054523" lon="12.87898281377676"><ele>92.80000000000001</ele><time>2026-04-07T13:57:49Z</time></trkpt><trkpt lat="43.72954157849451" lon="12.878903688638863"><ele>93.4</ele><time>2026-04-07T13:57:50Z</time></trkpt><trkpt lat="43.729468005252286" lon="12.878825522366363"><ele>94.0</ele><time>2026-04-07T13:57:51Z</time></trkpt><trkpt lat="43.729398107740735" lon="12.878748103053695"><ele>92.66666666666666</ele><time>2026-04-07T13:57:52Z</time></trkpt><trkpt lat="43.72934440050455" lon="12.878656465037823"><ele>91.33333333333333</ele><time>2026-04-07T13:57:53Z</time></trkpt><trkpt lat="43.72928957239352" lon="12.878568155125254"><ele>90.0</ele><time>2026-04-07T13:57:54Z</time></trkpt><trkpt lat="43.729245608666965" lon="12.878464280855594"><ele>88.66666666666667</ele><time>2026-04-07T13:57:55Z</time></trkpt><trkpt lat="43.729219563904266" lon="12.878339666725594"><ele>87.33333333333334</ele><time>2026-04-07T13:57:56Z</time></trkpt><trkpt lat="43.72920598144017" lon="12.878211310440193"><ele>86.0</ele><time>2026-04-07T13:57:57Z</time></trkpt><trkpt lat="43.72921313287691" lon="12.878089474112484"><ele>85.83333333333334</ele><time>2026-04-07T13:57:58Z</time></trkpt><trkpt lat="43.72923864658889" lon="12.877978915315818"><ele>85.66666666666667</ele><time>2026-04-07T13:57:59Z</time></trkpt><trkpt lat="43.72927959822526" lon="12.877871665608728"><ele>85.5</ele><time>2026-04-07T13:58:00Z</time></trkpt><trkpt lat="43.729334814248155" lon="12.877776108365111"><ele>85.33333333333333</ele><time>2026-04-07T13:58:01Z</time></trkpt><trkpt lat="43.729401416809864" lon="12.877687903895634"><ele>85.16666666666666</ele><time>2026-04-07T13:58:02Z</time></trkpt><trkpt lat="43.72946429335565" lon="12.87759765603434"><ele>85.0</ele><time>2026-04-07T13:58:03Z</time></trkpt><trkpt lat="43.72953310170469" lon="12.877504899188205"><ele>86.83333333333333</ele><time>2026-04-07T13:58:04Z</time></trkpt><trkpt lat="43.72960026837053" lon="12.877406235237306"><ele>88.66666666666666</ele><time>2026-04-07T13:58:05Z</time></trkpt><trkpt lat="43.729661023732646" lon="12.877312798987914"><ele>90.5</ele><time>2026-04-07T13:58:06Z</time></trkpt><trkpt lat="43.72971908285609" lon="12.877219521433375"><ele>92.33333333333333</ele><time>2026-04-07T13:58:07Z</time></trkpt><trkpt lat="43.729767913377465" lon="12.877124335278731"><ele>94.16666666666667</ele><time>2026-04-07T13:58:08Z</time></trkpt><trkpt lat="43.72980331200919" lon="12.87701763026822"><ele>96.0</ele><time>2026-04-07T13:58:09Z</time></trkpt><trkpt lat="43.72980631151969" lon="12.876904799360796"><ele>96.0</ele><time>2026-04-07T13:58:10Z</time></trkpt><trkpt lat="43.72977774096216" lon="12.876789762433189"><ele>96.0</ele><time>2026-04-07T13:58:11Z</time></trkpt><trkpt lat="43.729701299135" lon="12.87660051080103"><ele>96.0</ele><time>2026-04-07T13:58:13Z</time></trkpt><trkpt lat="43.72970869595" lon="12.876506497137017"><ele>96.0</ele><time>2026-04-07T13:58:14Z</time></trkpt><trkpt lat="43.72973447032234" lon="12.876412537799368"><ele>96.0</ele><time>2026-04-07T13:58:15Z</time></trkpt><trkpt lat="43.729769030114966" lon="12.876314622574464"><ele>95.83333333333333</ele><time>2026-04-07T13:58:16Z</time></trkpt><trkpt lat="43.7298034866232" lon="12.876208421035138"><ele>95.66666666666667</ele><time>2026-04-07T13:58:17Z</time></trkpt><trkpt lat="43.729840721164486" lon="12.876098223145132"><ele>95.5</ele><time>2026-04-07T13:58:18Z</time></trkpt><trkpt lat="43.72987768838318" lon="12.875986288548136"><ele>95.33333333333334</ele><time>2026-04-07T13:58:19Z</time></trkpt><trkpt lat="43.72991381050285" lon="12.87586888610495"><ele>95.16666666666667</ele><time>2026-04-07T13:58:20Z</time></trkpt><trkpt lat="43.729952755200095" lon="12.875750865040056"><ele>95.0</ele><time>2026-04-07T13:58:21Z</time></trkpt><trkpt lat="43.729994328852854" lon="12.875634712023588"><ele>93.6</ele><time>2026-04-07T13:58:22Z</time></trkpt><trkpt lat="43.73004484872706" lon="12.875523719328644"><ele>92.2</ele><time>2026-04-07T13:58:23Z</time></trkpt><trkpt lat="43.73010710327637" lon="12.875426640758025"><ele>90.80000000000001</ele><time>2026-04-07T13:58:24Z</time></trkpt><trkpt lat="43.73018431583901" lon="12.875341058895012"><ele>89.4</ele><time>2026-04-07T13:58:25Z</time></trkpt><trkpt lat="43.73026749290483" lon="12.875280203431297"><ele>88.0</ele><time>2026-04-07T13:58:26Z</time></trkpt><trkpt lat="43.73034943567184" lon="12.875234656787478"><ele>90.33333333333333</ele><time>2026-04-07T13:58:27Z</time></trkpt><trkpt lat="43.73042297767869" lon="12.875173458181127"><ele>92.66666666666666</ele><time>2026-04-07T13:58:28Z</time></trkpt><trkpt lat="43.730469376649665" lon="12.875094713766357"><ele>95.0</ele><time>2026-04-07T13:58:29Z</time></trkpt><trkpt lat="43.73049752219686" lon="12.875002361132275"><ele>97.33333333333333</ele><time>2026-04-07T13:58:30Z</time></trkpt><trkpt lat="43.73051960948131" lon="12.874897565021257"><ele>99.66666666666667</ele><time>2026-04-07T13:58:31Z</time></trkpt><trkpt lat="43.730540362165925" lon="12.8747956028568"><ele>102.0</ele><time>2026-04-07T13:58:32Z</time></trkpt><trkpt lat="43.73056980055221" lon="12.87470433563093"><ele>102.0</ele><time>2026-04-07T13:58:33Z</time></trkpt><trkpt lat="43.73060430865464" lon="12.874608999993528"><ele>102.0</ele><time>2026-04-07T13:58:34Z</time></trkpt><trkpt lat="43.73062530570422" lon="12.874502616972546"><ele>102.0</ele><time>2026-04-07T13:58:35Z</time></trkpt><trkpt lat="43.73063558265312" lon="12.87439095279063"><ele>102.0</ele><time>2026-04-07T13:58:36Z</time></trkpt><trkpt lat="43.73064479502547" lon="12.874273698015637"><ele>102.0</ele><time>2026-04-07T13:58:37Z</time></trkpt><trkpt lat="43.730653142632896" lon="12.874160358140546"><ele>102.0</ele><time>2026-04-07T13:58:38Z</time></trkpt><trkpt lat="43.73065736542112" lon="12.874054029320899"><ele>100.16666666666667</ele><time>2026-04-07T13:58:39Z</time></trkpt><trkpt lat="43.730665859937204" lon="12.873940183081496"><ele>98.33333333333333</ele><time>2026-04-07T13:58:40Z</time></trkpt><trkpt lat="43.73068492764532" lon="12.873827909092311"><ele>96.5</ele><time>2026-04-07T13:58:41Z</time></trkpt><trkpt lat="43.73072042566019" lon="12.873723766607752"><ele>94.66666666666666</ele><time>2026-04-07T13:58:42Z</time></trkpt><trkpt lat="43.730752601445374" lon="12.873618031016301"><ele>92.83333333333333</ele><time>2026-04-07T13:58:43Z</time></trkpt><trkpt lat="43.73078993235911" lon="12.873510845071504"><ele>91.0</ele><time>2026-04-07T13:58:44Z</time></trkpt><trkpt lat="43.73082436235713" lon="12.873410845394645"><ele>90.0</ele><time>2026-04-07T13:58:45Z</time></trkpt><trkpt lat="43.73086151452657" lon="12.873303304593824"><ele>89.0</ele><time>2026-04-07T13:58:46Z</time></trkpt><trkpt lat="43.73090183320367" lon="12.8731935948035"><ele>88.0</ele><time>2026-04-07T13:58:47Z</time></trkpt><trkpt lat="43.73094228288533" lon="12.873078417071431"><ele>87.0</ele><time>2026-04-07T13:58:48Z</time></trkpt><trkpt lat="43.73098493315566" lon="12.8729676400028"><ele>86.0</ele><time>2026-04-07T13:58:49Z</time></trkpt><trkpt lat="43.731029624764346" lon="12.872859674019253"><ele>85.0</ele><time>2026-04-07T13:58:50Z</time></trkpt><trkpt lat="43.73107517714815" lon="12.872752230662678"><ele>86.2</ele><time>2026-04-07T13:58:51Z</time></trkpt><trkpt lat="43.73112432613873" lon="12.872654340341308"><ele>87.4</ele><time>2026-04-07T13:58:52Z</time></trkpt><trkpt lat="43.73118055283051" lon="12.872556732783504"><ele>88.6</ele><time>2026-04-07T13:58:53Z</time></trkpt><trkpt lat="43.731244916314274" lon="12.872465464683584"><ele>89.8</ele><time>2026-04-07T13:58:54Z</time></trkpt><trkpt lat="43.731315489360355" lon="12.872376822035484"><ele>91.0</ele><time>2026-04-07T13:58:55Z</time></trkpt><trkpt lat="43.73138662264768" lon="12.872299451212191"><ele>91.0</ele><time>2026-04-07T13:58:56Z</time></trkpt><trkpt lat="43.73145187735146" lon="12.872217360487298"><ele>91.0</ele><time>2026-04-07T13:58:57Z</time></trkpt><trkpt lat="43.731513001431466" lon="12.87212601610222"><ele>91.0</ele><time>2026-04-07T13:58:58Z</time></trkpt><trkpt lat="43.731567840082775" lon="12.872033477814055"><ele>91.0</ele><time>2026-04-07T13:58:59Z</time></trkpt><trkpt lat="43.731629660519964" lon="12.87195307697573"><ele>91.0</ele><time>2026-04-07T13:59:00Z</time></trkpt><trkpt lat="43.73169849967234" lon="12.871874998024591"><ele>91.0</ele><time>2026-04-07T13:59:01Z</time></trkpt><trkpt lat="43.73177051770895" lon="12.871799745225479"><ele>90.19999999999999</ele><time>2026-04-07T13:59:02Z</time></trkpt><trkpt lat="43.73184413913314" lon="12.871724387360016"><ele>89.39999999999999</ele><time>2026-04-07T13:59:03Z</time></trkpt><trkpt lat="43.73191391831838" lon="12.871641232317659"><ele>88.6</ele><time>2026-04-07T13:59:04Z</time></trkpt><trkpt lat="43.73197840956124" lon="12.871550286910495"><ele>87.8</ele><time>2026-04-07T13:59:05Z</time></trkpt><trkpt lat="43.732045175994244" lon="12.871460654125302"><ele>87.0</ele><time>2026-04-07T13:59:06Z</time></trkpt><trkpt lat="43.73211596437566" lon="12.871374638426587"><ele>89.0</ele><time>2026-04-07T13:59:07Z</time></trkpt><trkpt lat="43.73218935144915" lon="12.87129442665462"><ele>91.0</ele><time>2026-04-07T13:59:08Z</time></trkpt><trkpt lat="43.7322701638971" lon="12.871220101827548"><ele>93.0</ele><time>2026-04-07T13:59:09Z</time></trkpt><trkpt lat="43.73234847507118" lon="12.871151812198736"><ele>95.0</ele><time>2026-04-07T13:59:10Z</time></trkpt><trkpt lat="43.7324211885804" lon="12.871073718992031"><ele>97.0</ele><time>2026-04-07T13:59:11Z</time></trkpt><trkpt lat="43.732501964595045" lon="12.870998936421662"><ele>96.6</ele><time>2026-04-07T13:59:12Z</time></trkpt><trkpt lat="43.73258004046159" lon="12.87091682608063"><ele>96.19999999999999</ele><time>2026-04-07T13:59:13Z</time></trkpt><trkpt lat="43.73265859492088" lon="12.870836412758438"><ele>95.8</ele><time>2026-04-07T13:59:14Z</time></trkpt><trkpt lat="43.73273395034346" lon="12.870754180797002"><ele>95.4</ele><time>2026-04-07T13:59:15Z</time></trkpt><trkpt lat="43.73280513110352" lon="12.870672531546337"><ele>95.0</ele><time>2026-04-07T13:59:16Z</time></trkpt><trkpt lat="43.732867214427486" lon="12.870576757257306"><ele>95.83333333333334</ele><time>2026-04-07T13:59:17Z</time></trkpt><trkpt lat="43.73291959001855" lon="12.870472337002171"><ele>96.66666666666667</ele><time>2026-04-07T13:59:18Z</time></trkpt><trkpt lat="43.73295906567598" lon="12.87036361867045"><ele>97.5</ele><time>2026-04-07T13:59:19Z</time></trkpt><trkpt lat="43.73299531426268" lon="12.870255740648341"><ele>98.33333333333334</ele><time>2026-04-07T13:59:20Z</time></trkpt><trkpt lat="43.733021211631645" lon="12.870136903568108"><ele>99.16666666666667</ele><time>2026-04-07T13:59:21Z</time></trkpt><trkpt lat="43.73304433428402" lon="12.870015326292215"><ele>100.0</ele><time>2026-04-07T13:59:22Z</time></trkpt><trkpt lat="43.733076136128474" lon="12.869902276695015"><ele>100.0</ele><time>2026-04-07T13:59:23Z</time></trkpt><trkpt lat="43.7331187351532" lon="12.869788437042383"><ele>100.0</ele><time>2026-04-07T13:59:24Z</time></trkpt><trkpt lat="43.73317248318237" lon="12.86967472033697"><ele>100.0</ele><time>2026-04-07T13:59:25Z</time></trkpt><trkpt lat="43.73324020732852" lon="12.869560708471768"><ele>100.0</ele><time>2026-04-07T13:59:26Z</time></trkpt><trkpt lat="43.7333100839738" lon="12.869453371329529"><ele>100.0</ele><time>2026-04-07T13:59:27Z</time></trkpt><trkpt lat="43.73338216399285" lon="12.869349082724584"><ele>98.6</ele><time>2026-04-07T13:59:28Z</time></trkpt><trkpt lat="43.73345108871758" lon="12.86924094452758"><ele>97.2</ele><time>2026-04-07T13:59:29Z</time></trkpt><trkpt lat="43.73352128134975" lon="12.869136396146958"><ele>95.80000000000001</ele><time>2026-04-07T13:59:30Z</time></trkpt><trkpt lat="43.73360043569031" lon="12.86904090729928"><ele>94.4</ele><time>2026-04-07T13:59:31Z</time></trkpt><trkpt lat="43.73368711069525" lon="12.868949735863072"><ele>93.0</ele><time>2026-04-07T13:59:32Z</time></trkpt><trkpt lat="43.73376818887794" lon="12.868871368299718"><ele>94.5</ele><time>2026-04-07T13:59:33Z</time></trkpt><trkpt lat="43.733838328790235" lon="12.868800984150756"><ele>96.0</ele><time>2026-04-07T13:59:34Z</time></trkpt><trkpt lat="43.73389863588621" lon="12.868738172609094"><ele>97.5</ele><time>2026-04-07T13:59:35Z</time></trkpt><trkpt lat="43.733955284708934" lon="12.868673313604408"><ele>99.0</ele><time>2026-04-07T13:59:36Z</time></trkpt><trkpt lat="43.73400626785567" lon="12.868618138325658"><ele>100.5</ele><time>2026-04-07T13:59:37Z</time></trkpt><trkpt lat="43.734090074939445" lon="12.86852445266083"><ele>102.0</ele><time>2026-04-07T13:59:39Z</time></trkpt><trkpt lat="43.73416204427422" lon="12.868439407193383"><ele>102.0</ele><time>2026-04-07T13:59:41Z</time></trkpt><trkpt lat="43.734264167493286" lon="12.868323886776057"><ele>102.0</ele><time>2026-04-07T13:59:43Z</time></trkpt><trkpt lat="43.73432984785525" lon="12.868255303560662"><ele>102.0</ele><time>2026-04-07T13:59:44Z</time></trkpt><trkpt lat="43.734399681120344" lon="12.868176514475365"><ele>102.0</ele><time>2026-04-07T13:59:45Z</time></trkpt><trkpt lat="43.73448028833787" lon="12.868093019908535"><ele>102.0</ele><time>2026-04-07T13:59:46Z</time></trkpt><trkpt lat="43.73456321017596" lon="12.868010967017465"><ele>103.19999999999999</ele><time>2026-04-07T13:59:47Z</time></trkpt><trkpt lat="43.73464887663924" lon="12.867928474920152"><ele>104.4</ele><time>2026-04-07T13:59:48Z</time></trkpt><trkpt lat="43.73473647982254" lon="12.86785367193005"><ele>105.60000000000001</ele><time>2026-04-07T13:59:49Z</time></trkpt><trkpt lat="43.73482948559122" lon="12.867789973224587"><ele>106.80000000000001</ele><time>2026-04-07T13:59:50Z</time></trkpt><trkpt lat="43.73493113339138" lon="12.867739959727563"><ele>108.0</ele><time>2026-04-07T13:59:51Z</time></trkpt><trkpt lat="43.7350291978632" lon="12.867689201514597"><ele>108.0</ele><time>2026-04-07T13:59:52Z</time></trkpt><trkpt lat="43.73512460461617" lon="12.867634745092925"><ele>108.00000000000001</ele><time>2026-04-07T13:59:53Z</time></trkpt><trkpt lat="43.73521385926666" lon="12.8675858518843"><ele>108.00000000000001</ele><time>2026-04-07T13:59:54Z</time></trkpt><trkpt lat="43.7352911338793" lon="12.867521807630549"><ele>108.0</ele><time>2026-04-07T13:59:55Z</time></trkpt><trkpt lat="43.73536273910277" lon="12.867450558141329"><ele>108.0</ele><time>2026-04-07T13:59:56Z</time></trkpt><trkpt lat="43.73544089844454" lon="12.867381159805406"><ele>109.33333333333333</ele><time>2026-04-07T13:59:57Z</time></trkpt><trkpt lat="43.73551028642309" lon="12.867297784437019"><ele>110.66666666666666</ele><time>2026-04-07T13:59:58Z</time></trkpt><trkpt lat="43.73557417316419" lon="12.867210502737255"><ele>112.0</ele><time>2026-04-07T13:59:59Z</time></trkpt><trkpt lat="43.73563762363039" lon="12.867128690315278"><ele>113.33333333333333</ele><time>2026-04-07T14:00:00Z</time></trkpt><trkpt lat="43.7357002441487" lon="12.86704319263817"><ele>114.66666666666666</ele><time>2026-04-07T14:00:01Z</time></trkpt><trkpt lat="43.735762840540424" lon="12.866956570108028"><ele>116.0</ele><time>2026-04-07T14:00:02Z</time></trkpt><trkpt lat="43.73582649210639" lon="12.866870991149899"><ele>116.0</ele><time>2026-04-07T14:00:03Z</time></trkpt><trkpt lat="43.735889139108046" lon="12.866785282439153"><ele>116.0</ele><time>2026-04-07T14:00:04Z</time></trkpt><trkpt lat="43.73595557312075" lon="12.8667020294244"><ele>116.0</ele><time>2026-04-07T14:00:05Z</time></trkpt><trkpt lat="43.73602671691862" lon="12.866627614818372"><ele>116.0</ele><time>2026-04-07T14:00:06Z</time></trkpt><trkpt lat="43.73610657081075" lon="12.866563853110206"><ele>116.0</ele><time>2026-04-07T14:00:07Z</time></trkpt><trkpt lat="43.73618802768448" lon="12.866506233014245"><ele>116.66666666666666</ele><time>2026-04-07T14:00:08Z</time></trkpt><trkpt lat="43.73627499684127" lon="12.86646655722395"><ele>117.33333333333333</ele><time>2026-04-07T14:00:09Z</time></trkpt><trkpt lat="43.73635347045301" lon="12.86642624301727"><ele>118.0</ele><time>2026-04-07T14:00:10Z</time></trkpt><trkpt lat="43.73643992418559" lon="12.86636634488759"><ele>118.66666666666666</ele><time>2026-04-07T14:00:11Z</time></trkpt><trkpt lat="43.73650598344001" lon="12.86630601807465"><ele>119.33333333333333</ele><time>2026-04-07T14:00:12Z</time></trkpt><trkpt lat="43.73656098357776" lon="12.866243579509565"><ele>120.0</ele><time>2026-04-07T14:00:13Z</time></trkpt><trkpt lat="43.7366059240619" lon="12.866150534061472"><ele>120.0</ele><time>2026-04-07T14:00:14Z</time></trkpt><trkpt lat="43.73665367031389" lon="12.866032225529725"><ele>120.0</ele><time>2026-04-07T14:00:15Z</time></trkpt><trkpt lat="43.73670132979328" lon="12.865899894321453"><ele>120.0</ele><time>2026-04-07T14:00:16Z</time></trkpt><trkpt lat="43.73676348302091" lon="12.865776045342068"><ele>120.0</ele><time>2026-04-07T14:00:17Z</time></trkpt><trkpt lat="43.73683029262865" lon="12.865649288806503"><ele>120.0</ele><time>2026-04-07T14:00:18Z</time></trkpt><trkpt lat="43.73688348297712" lon="12.865504329488486"><ele>121.2</ele><time>2026-04-07T14:00:19Z</time></trkpt><trkpt lat="43.73693014064619" lon="12.865363985176863"><ele>122.4</ele><time>2026-04-07T14:00:20Z</time></trkpt><trkpt lat="43.73694845039839" lon="12.865242953651116"><ele>123.6</ele><time>2026-04-07T14:00:21Z</time></trkpt><trkpt lat="43.73697194286387" lon="12.865135954752889"><ele>124.8</ele><time>2026-04-07T14:00:23Z</time></trkpt><trkpt lat="43.737007651142854" lon="12.8650054038167"><ele>126.0</ele><time>2026-04-07T14:00:29Z</time></trkpt><trkpt lat="43.73703647842402" lon="12.864878203301904"><ele>126.19999999999999</ele><time>2026-04-07T14:00:31Z</time></trkpt><trkpt lat="43.73709463071313" lon="12.864724852836817"><ele>126.39999999999999</ele><time>2026-04-07T14:00:33Z</time></trkpt><trkpt lat="43.73714926687513" lon="12.864589120787539"><ele>126.6</ele><time>2026-04-07T14:00:35Z</time></trkpt><trkpt lat="43.73715998335023" lon="12.864468393979948"><ele>126.8</ele><time>2026-04-07T14:00:37Z</time></trkpt><trkpt lat="43.737123529601504" lon="12.864370656647642"><ele>127.0</ele><time>2026-04-07T14:00:39Z</time></trkpt><trkpt lat="43.737053954141636" lon="12.864274569073773"><ele>125.0</ele><time>2026-04-07T14:00:41Z</time></trkpt><trkpt lat="43.73695901535262" lon="12.864187012722327"><ele>122.99999999999999</ele><time>2026-04-07T14:00:43Z</time></trkpt><trkpt lat="43.736852924437834" lon="12.864064227460657"><ele>120.99999999999999</ele><time>2026-04-07T14:00:45Z</time></trkpt><trkpt lat="43.73678463541545" lon="12.864027487283472"><ele>119.0</ele><time>2026-04-07T14:00:46Z</time></trkpt><trkpt lat="43.73673357488075" lon="12.863976324728188"><ele>117.0</ele><time>2026-04-07T14:00:47Z</time></trkpt><trkpt lat="43.73665362983398" lon="12.863865491206147"><ele>115.0</ele><time>2026-04-07T14:00:49Z</time></trkpt><trkpt lat="43.73657808012922" lon="12.863755137947159"><ele>112.99999999999999</ele><time>2026-04-07T14:00:51Z</time></trkpt><trkpt lat="43.736554785216605" lon="12.863609920824304"><ele>110.99999999999999</ele><time>2026-04-07T14:00:53Z</time></trkpt><trkpt lat="43.73657811886714" lon="12.863480862521811"><ele>109.0</ele><time>2026-04-07T14:00:55Z</time></trkpt><trkpt lat="43.73659412875805" lon="12.86334501480036"><ele>107.0</ele><time>2026-04-07T14:00:57Z</time></trkpt><trkpt lat="43.73657474944807" lon="12.863209462998556"><ele>105.39999999999999</ele><time>2026-04-07T14:00:59Z</time></trkpt><trkpt lat="43.736540012509344" lon="12.863072111385472"><ele>103.79999999999998</ele><time>2026-04-07T14:01:01Z</time></trkpt><trkpt lat="43.73649894564959" lon="12.86291094202795"><ele>102.2</ele><time>2026-04-07T14:01:03Z</time></trkpt><trkpt lat="43.736464762753435" lon="12.862835753088493"><ele>100.6</ele><time>2026-04-07T14:01:04Z</time></trkpt><trkpt lat="43.736411763185494" lon="12.86278633072601"><ele>99.0</ele><time>2026-04-07T14:01:05Z</time></trkpt><trkpt lat="43.73634815687486" lon="12.862649026069471"><ele>97.83333333333333</ele><time>2026-04-07T14:01:07Z</time></trkpt><trkpt lat="43.73630305630949" lon="12.862570583478286"><ele>96.66666666666667</ele><time>2026-04-07T14:01:08Z</time></trkpt><trkpt lat="43.73625808666842" lon="12.862490732014194"><ele>95.5</ele><time>2026-04-07T14:01:09Z</time></trkpt><trkpt lat="43.73624633068017" lon="12.862388529831238"><ele>94.33333333333334</ele><time>2026-04-07T14:01:10Z</time></trkpt><trkpt lat="43.73624854175493" lon="12.862281048711957"><ele>93.16666666666667</ele><time>2026-04-07T14:01:11Z</time></trkpt><trkpt lat="43.736270538450675" lon="12.862172957024768"><ele>92.0</ele><time>2026-04-07T14:01:12Z</time></trkpt><trkpt lat="43.736300833706174" lon="12.862064979494283"><ele>92.0</ele><time>2026-04-07T14:01:13Z</time></trkpt><trkpt lat="43.736331192113866" lon="12.861949561585565"><ele>92.0</ele><time>2026-04-07T14:01:14Z</time></trkpt><trkpt lat="43.736375307272475" lon="12.861842902118358"><ele>92.0</ele><time>2026-04-07T14:01:15Z</time></trkpt><trkpt lat="43.73641464726304" lon="12.861729894095584"><ele>92.0</ele><time>2026-04-07T14:01:16Z</time></trkpt><trkpt lat="43.73645643146925" lon="12.861615856796199"><ele>92.0</ele><time>2026-04-07T14:01:17Z</time></trkpt><trkpt lat="43.736504147637376" lon="12.861503476595164"><ele>91.83333333333334</ele><time>2026-04-07T14:01:18Z</time></trkpt><trkpt lat="43.736553690662234" lon="12.861392986088132"><ele>91.66666666666667</ele><time>2026-04-07T14:01:19Z</time></trkpt><trkpt lat="43.73659812107143" lon="12.861294892001478"><ele>91.5</ele><time>2026-04-07T14:01:20Z</time></trkpt><trkpt lat="43.73664161908404" lon="12.861207337801089"><ele>91.33333333333333</ele><time>2026-04-07T14:01:21Z</time></trkpt><trkpt lat="43.736693000344076" lon="12.861118973733207"><ele>91.16666666666666</ele><time>2026-04-07T14:01:22Z</time></trkpt><trkpt lat="43.736750561586625" lon="12.86104674858148"><ele>91.0</ele><time>2026-04-07T14:01:23Z</time></trkpt><trkpt lat="43.7368207131142" lon="12.860984233708779"><ele>92.66666666666666</ele><time>2026-04-07T14:01:24Z</time></trkpt><trkpt lat="43.736903632589055" lon="12.860934120039506"><ele>94.33333333333333</ele><time>2026-04-07T14:01:25Z</time></trkpt><trkpt lat="43.7369919844829" lon="12.860893043643433"><ele>96.0</ele><time>2026-04-07T14:01:26Z</time></trkpt><trkpt lat="43.73707761312582" lon="12.860843387317146"><ele>97.66666666666666</ele><time>2026-04-07T14:01:27Z</time></trkpt><trkpt lat="43.737148615216334" lon="12.860793268956067"><ele>99.33333333333333</ele><time>2026-04-07T14:01:28Z</time></trkpt><trkpt lat="43.737204182655" lon="12.860738570884024"><ele>101.0</ele><time>2026-04-07T14:01:29Z</time></trkpt><trkpt lat="43.737258830182654" lon="12.860682251116955"><ele>101.0</ele><time>2026-04-07T14:01:30Z</time></trkpt><trkpt lat="43.73731565387076" lon="12.860633691715876"><ele>101.0</ele><time>2026-04-07T14:01:31Z</time></trkpt><trkpt lat="43.73737118270322" lon="12.860575017085086"><ele>101.0</ele><time>2026-04-07T14:01:32Z</time></trkpt><trkpt lat="43.737436755825584" lon="12.860527872237288"><ele>101.0</ele><time>2026-04-07T14:01:33Z</time></trkpt><trkpt lat="43.73750823097551" lon="12.860493405413962"><ele>101.0</ele><time>2026-04-07T14:01:34Z</time></trkpt><trkpt lat="43.73758683502408" lon="12.860484560345132"><ele>101.0</ele><time>2026-04-07T14:01:35Z</time></trkpt><trkpt lat="43.73766988645497" lon="12.860485989409652"><ele>101.0</ele><time>2026-04-07T14:01:36Z</time></trkpt><trkpt lat="43.73774758894111" lon="12.860495742187029"><ele>102.42857142857143</ele><time>2026-04-07T14:01:37Z</time></trkpt><trkpt lat="43.73782306418095" lon="12.860514807165043"><ele>103.85714285714286</ele><time>2026-04-07T14:01:38Z</time></trkpt><trkpt lat="43.737894546739874" lon="12.860529566661741"><ele>105.28571428571428</ele><time>2026-04-07T14:01:39Z</time></trkpt><trkpt lat="43.73797034125709" lon="12.860560368076206"><ele>106.71428571428572</ele><time>2026-04-07T14:01:40Z</time></trkpt><trkpt lat="43.73804032909848" lon="12.860587752116288"><ele>108.14285714285715</ele><time>2026-04-07T14:01:41Z</time></trkpt><trkpt lat="43.73810703935749" lon="12.860594374311939"><ele>109.57142857142857</ele><time>2026-04-07T14:01:42Z</time></trkpt><trkpt lat="43.73817816249569" lon="12.860566594466354"><ele>111.0</ele><time>2026-04-07T14:01:43Z</time></trkpt><trkpt lat="43.738252384694704" lon="12.860512163573897"><ele>111.0</ele><time>2026-04-07T14:01:44Z</time></trkpt><trkpt lat="43.73832804719935" lon="12.860448342118396"><ele>111.0</ele><time>2026-04-07T14:01:45Z</time></trkpt><trkpt lat="43.73840398520625" lon="12.860388041559686"><ele>111.0</ele><time>2026-04-07T14:01:46Z</time></trkpt><trkpt lat="43.73848176328127" lon="12.860321598278263"><ele>111.0</ele><time>2026-04-07T14:01:47Z</time></trkpt><trkpt lat="43.73856482200175" lon="12.860258356833741"><ele>111.0</ele><time>2026-04-07T14:01:48Z</time></trkpt><trkpt lat="43.73864001018191" lon="12.860184317552312"><ele>110.5</ele><time>2026-04-07T14:01:49Z</time></trkpt><trkpt lat="43.73871342537637" lon="12.860112284397418"><ele>110.0</ele><time>2026-04-07T14:01:50Z</time></trkpt><trkpt lat="43.73878752372272" lon="12.860056499017517"><ele>109.5</ele><time>2026-04-07T14:01:51Z</time></trkpt><trkpt lat="43.73887192115652" lon="12.860010565952665"><ele>109.0</ele><time>2026-04-07T14:01:52Z</time></trkpt><trkpt lat="43.738962014624036" lon="12.85998098268057"><ele>108.5</ele><time>2026-04-07T14:01:53Z</time></trkpt><trkpt lat="43.73904953961291" lon="12.859953425372485"><ele>108.0</ele><time>2026-04-07T14:01:54Z</time></trkpt><trkpt lat="43.739139146100655" lon="12.859936517586267"><ele>108.0</ele><time>2026-04-07T14:01:55Z</time></trkpt><trkpt lat="43.73922183163234" lon="12.85992720577986"><ele>108.0</ele><time>2026-04-07T14:01:56Z</time></trkpt><trkpt lat="43.739290767045375" lon="12.859905204033067"><ele>108.0</ele><time>2026-04-07T14:01:57Z</time></trkpt><trkpt lat="43.73935067471843" lon="12.859852715914824"><ele>108.0</ele><time>2026-04-07T14:01:58Z</time></trkpt><trkpt lat="43.73940907811252" lon="12.859777939164612"><ele>108.0</ele><time>2026-04-07T14:01:59Z</time></trkpt><trkpt lat="43.739463319754314" lon="12.859695706901073"><ele>108.0</ele><time>2026-04-07T14:02:00Z</time></trkpt><trkpt lat="43.73953082418886" lon="12.859621885655464"><ele>109.83333333333333</ele><time>2026-04-07T14:02:01Z</time></trkpt><trkpt lat="43.7396004695159" lon="12.859551706148233"><ele>111.66666666666666</ele><time>2026-04-07T14:02:02Z</time></trkpt><trkpt lat="43.73967219013636" lon="12.859488531518226"><ele>113.5</ele><time>2026-04-07T14:02:03Z</time></trkpt><trkpt lat="43.73974540758519" lon="12.859435652417934"><ele>115.33333333333333</ele><time>2026-04-07T14:02:04Z</time></trkpt><trkpt lat="43.73981493561463" lon="12.859385256678209"><ele>117.16666666666666</ele><time>2026-04-07T14:02:05Z</time></trkpt><trkpt lat="43.73988030874569" lon="12.85932371001706"><ele>119.0</ele><time>2026-04-07T14:02:06Z</time></trkpt><trkpt lat="43.73993753324819" lon="12.859245228009375"><ele>118.99999999999999</ele><time>2026-04-07T14:02:07Z</time></trkpt><trkpt lat="43.73999207673902" lon="12.859155281661687"><ele>119.0</ele><time>2026-04-07T14:02:08Z</time></trkpt><trkpt lat="43.740031908163324" lon="12.859050158837059"><ele>119.0</ele><time>2026-04-07T14:02:09Z</time></trkpt><trkpt lat="43.740047389318924" lon="12.858940234616423"><ele>119.0</ele><time>2026-04-07T14:02:10Z</time></trkpt><trkpt lat="43.7400584267817" lon="12.858835184514989"><ele>118.99999999999999</ele><time>2026-04-07T14:02:11Z</time></trkpt><trkpt lat="43.74008134204604" lon="12.858735550482509"><ele>119.0</ele><time>2026-04-07T14:02:12Z</time></trkpt><trkpt lat="43.740118064311325" lon="12.85864196393988"><ele>118.99999999999999</ele><time>2026-04-07T14:02:13Z</time></trkpt><trkpt lat="43.740159553332674" lon="12.858553969878095"><ele>119.0</ele><time>2026-04-07T14:02:14Z</time></trkpt><trkpt lat="43.74021161821065" lon="12.858467088146112"><ele>119.0</ele><time>2026-04-07T14:02:15Z</time></trkpt><trkpt lat="43.74027833721154" lon="12.858386546410005"><ele>119.0</ele><time>2026-04-07T14:02:16Z</time></trkpt><trkpt lat="43.74033470010708" lon="12.858301488675542"><ele>118.99999999999999</ele><time>2026-04-07T14:02:17Z</time></trkpt><trkpt lat="43.74041288117819" lon="12.858241096624129"><ele>119.0</ele><time>2026-04-07T14:02:18Z</time></trkpt><trkpt lat="43.740489422106386" lon="12.858164599006262"><ele>119.66666666666666</ele><time>2026-04-07T14:02:19Z</time></trkpt><trkpt lat="43.74055199887592" lon="12.858079395579095"><ele>120.33333333333333</ele><time>2026-04-07T14:02:20Z</time></trkpt><trkpt lat="43.74063411869504" lon="12.858023361719846"><ele>121.0</ele><time>2026-04-07T14:02:21Z</time></trkpt><trkpt lat="43.74070770814156" lon="12.857957013486711"><ele>121.66666666666666</ele><time>2026-04-07T14:02:22Z</time></trkpt><trkpt lat="43.74077533670138" lon="12.85788459393333"><ele>122.33333333333333</ele><time>2026-04-07T14:02:23Z</time></trkpt><trkpt lat="43.74085956309122" lon="12.857838137694795"><ele>123.0</ele><time>2026-04-07T14:02:24Z</time></trkpt><trkpt lat="43.74092910968766" lon="12.857770431980642"><ele>123.0</ele><time>2026-04-07T14:02:25Z</time></trkpt><trkpt lat="43.74100107471712" lon="12.857704531779682"><ele>123.0</ele><time>2026-04-07T14:02:26Z</time></trkpt><trkpt lat="43.741084811811476" lon="12.857665636356254"><ele>123.0</ele><time>2026-04-07T14:02:27Z</time></trkpt><trkpt lat="43.74115647957543" lon="12.85761120277268"><ele>123.0</ele><time>2026-04-07T14:02:28Z</time></trkpt><trkpt lat="43.74122786936157" lon="12.857548224611207"><ele>123.0</ele><time>2026-04-07T14:02:29Z</time></trkpt><trkpt lat="43.74128813177501" lon="12.857474593020218"><ele>123.0</ele><time>2026-04-07T14:02:30Z</time></trkpt><trkpt lat="43.74135690626508" lon="12.857398202559297"><ele>124.0</ele><time>2026-04-07T14:02:31Z</time></trkpt><trkpt lat="43.74143062125101" lon="12.857330898123084"><ele>125.0</ele><time>2026-04-07T14:02:32Z</time></trkpt><trkpt lat="43.741510202175625" lon="12.857264987654794"><ele>126.0</ele><time>2026-04-07T14:02:33Z</time></trkpt><trkpt lat="43.741588395234075" lon="12.857201603482562"><ele>127.0</ele><time>2026-04-07T14:02:34Z</time></trkpt><trkpt lat="43.74166023462308" lon="12.857138938219009"><ele>128.0</ele><time>2026-04-07T14:02:35Z</time></trkpt><trkpt lat="43.74173112740424" lon="12.85708689581664"><ele>129.0</ele><time>2026-04-07T14:02:36Z</time></trkpt><trkpt lat="43.74181095267803" lon="12.857052081606962"><ele>130.5</ele><time>2026-04-07T14:02:37Z</time></trkpt><trkpt lat="43.741888202421826" lon="12.857005992856854"><ele>132.0</ele><time>2026-04-07T14:02:38Z</time></trkpt><trkpt lat="43.74197227697568" lon="12.856967090633601"><ele>133.5</ele><time>2026-04-07T14:02:39Z</time></trkpt><trkpt lat="43.742054761503084" lon="12.856923017491471"><ele>135.0</ele><time>2026-04-07T14:02:40Z</time></trkpt><trkpt lat="43.74214421342734" lon="12.856880850611502"><ele>136.5</ele><time>2026-04-07T14:02:41Z</time></trkpt><trkpt lat="43.74222826047903" lon="12.856839900327785"><ele>138.0</ele><time>2026-04-07T14:02:42Z</time></trkpt><trkpt lat="43.74230840262444" lon="12.85680804841871"><ele>137.66666666666666</ele><time>2026-04-07T14:02:43Z</time></trkpt><trkpt lat="43.74238733572546" lon="12.856771633230556"><ele>137.33333333333334</ele><time>2026-04-07T14:02:44Z</time></trkpt><trkpt lat="43.742467259055886" lon="12.856746151069009"><ele>137.0</ele><time>2026-04-07T14:02:45Z</time></trkpt><trkpt lat="43.74254282763398" lon="12.856719400246853"><ele>136.66666666666669</ele><time>2026-04-07T14:02:46Z</time></trkpt><trkpt lat="43.74262491502443" lon="12.85669383407111"><ele>136.33333333333334</ele><time>2026-04-07T14:02:47Z</time></trkpt><trkpt lat="43.74269953186337" lon="12.856661221410091"><ele>136.0</ele><time>2026-04-07T14:02:48Z</time></trkpt><trkpt lat="43.74276537502724" lon="12.856643168907597"><ele>136.0</ele><time>2026-04-07T14:02:49Z</time></trkpt><trkpt lat="43.74283478156241" lon="12.856621321077103"><ele>136.0</ele><time>2026-04-07T14:02:50Z</time></trkpt><trkpt lat="43.74290688327016" lon="12.856600585081383"><ele>136.0</ele><time>2026-04-07T14:02:51Z</time></trkpt><trkpt lat="43.742980103188046" lon="12.856573134643115"><ele>136.0</ele><time>2026-04-07T14:02:52Z</time></trkpt><trkpt lat="43.743046799552246" lon="12.85655249035269"><ele>136.0</ele><time>2026-04-07T14:02:53Z</time></trkpt><trkpt lat="43.74311250062647" lon="12.856536878594866"><ele>136.0</ele><time>2026-04-07T14:02:54Z</time></trkpt><trkpt lat="43.743214379485856" lon="12.856516833400871"><ele>136.0</ele><time>2026-04-07T14:02:56Z</time></trkpt><trkpt lat="43.74328400484286" lon="12.856510653123534"><ele>136.0</ele><time>2026-04-07T14:02:58Z</time></trkpt><trkpt lat="43.74336799998683" lon="12.856508264647887"><ele>136.0</ele><time>2026-04-07T14:03:01Z</time></trkpt><trkpt lat="43.7434280174259" lon="12.856436654529414"><ele>136.0</ele><time>2026-04-07T14:03:03Z</time></trkpt><trkpt lat="43.74347624150897" lon="12.856321818075854"><ele>136.0</ele><time>2026-04-07T14:03:05Z</time></trkpt><trkpt lat="43.74349493288065" lon="12.856197328024926"><ele>136.0</ele><time>2026-04-07T14:03:07Z</time></trkpt><trkpt lat="43.743488283156374" lon="12.85610128546077"><ele>136.0</ele><time>2026-04-07T14:03:09Z</time></trkpt><trkpt lat="43.743492476396" lon="12.855985152875633"><ele>136.0</ele><time>2026-04-07T14:03:11Z</time></trkpt><trkpt lat="43.74347693386454" lon="12.855885132863651"><ele>136.0</ele><time>2026-04-07T14:03:13Z</time></trkpt><trkpt lat="43.743459300696166" lon="12.855792208759485"><ele>136.0</ele><time>2026-04-07T14:03:16Z</time></trkpt><trkpt lat="43.74343877462871" lon="12.855689295072365"><ele>136.0</ele><time>2026-04-07T14:03:18Z</time></trkpt><trkpt lat="43.743407138650255" lon="12.855569458462377"><ele>136.0</ele><time>2026-04-07T14:03:20Z</time></trkpt><trkpt lat="43.743366423350224" lon="12.855440268706364"><ele>134.2</ele><time>2026-04-07T14:03:22Z</time></trkpt><trkpt lat="43.74332396806627" lon="12.855308322106804"><ele>132.39999999999998</ele><time>2026-04-07T14:03:24Z</time></trkpt><trkpt lat="43.74327889757319" lon="12.855156329924558"><ele>130.6</ele><time>2026-04-07T14:03:26Z</time></trkpt><trkpt lat="43.74322312982786" lon="12.855005496670888"><ele>128.79999999999998</ele><time>2026-04-07T14:03:28Z</time></trkpt><trkpt lat="43.74318550111006" lon="12.85487960816351"><ele>127.0</ele><time>2026-04-07T14:03:30Z</time></trkpt><trkpt lat="43.743135810289296" lon="12.854778856266341"><ele>125.19999999999999</ele><time>2026-04-07T14:03:32Z</time></trkpt><trkpt lat="43.74306663230674" lon="12.854700957307509"><ele>123.39999999999999</ele><time>2026-04-07T14:03:34Z</time></trkpt><trkpt lat="43.742980871224816" lon="12.854602758495076"><ele>121.60000000000001</ele><time>2026-04-07T14:03:36Z</time></trkpt><trkpt lat="43.74292504418722" lon="12.85454908066847"><ele>119.80000000000001</ele><time>2026-04-07T14:03:37Z</time></trkpt><trkpt lat="43.74281897737689" lon="12.854479881369658"><ele>118.0</ele><time>2026-04-07T14:03:39Z</time></trkpt><trkpt lat="43.74270151618111" lon="12.854424935238248"><ele>116.60000000000001</ele><time>2026-04-07T14:03:41Z</time></trkpt><trkpt lat="43.74264130379294" lon="12.854452916078912"><ele>115.20000000000002</ele><time>2026-04-07T14:03:42Z</time></trkpt><trkpt lat="43.742534613993406" lon="12.854479824010802"><ele>113.8</ele><time>2026-04-07T14:03:44Z</time></trkpt><trkpt lat="43.74245866336095" lon="12.854478115237354"><ele>112.4</ele><time>2026-04-07T14:03:46Z</time></trkpt><trkpt lat="43.742435728865885" lon="12.85435854576756"><ele>111.0</ele><time>2026-04-07T14:03:49Z</time></trkpt><trkpt lat="43.74254909740896" lon="12.854307222893732"><ele>110.83333333333333</ele><time>2026-04-07T14:03:51Z</time></trkpt><trkpt lat="43.742653041603596" lon="12.854232745028423"><ele>110.66666666666666</ele><time>2026-04-07T14:03:53Z</time></trkpt><trkpt lat="43.74269259157746" lon="12.854159203749866"><ele>110.5</ele><time>2026-04-07T14:03:54Z</time></trkpt><trkpt lat="43.742729434355205" lon="12.854078999742786"><ele>110.33333333333333</ele><time>2026-04-07T14:03:55Z</time></trkpt><trkpt lat="43.74277078422927" lon="12.85398817288258"><ele>110.16666666666666</ele><time>2026-04-07T14:03:56Z</time></trkpt><trkpt lat="43.742812231311134" lon="12.853897716301491"><ele>110.0</ele><time>2026-04-07T14:03:57Z</time></trkpt><trkpt lat="43.74285723047255" lon="12.853812447604026"><ele>111.42857142857142</ele><time>2026-04-07T14:03:58Z</time></trkpt><trkpt lat="43.74290228683392" lon="12.85372809081062"><ele>112.85714285714286</ele><time>2026-04-07T14:03:59Z</time></trkpt><trkpt lat="43.74296896810169" lon="12.853670252768673"><ele>114.28571428571428</ele><time>2026-04-07T14:04:00Z</time></trkpt><trkpt lat="43.743022121662094" lon="12.853600366039378"><ele>115.71428571428571</ele><time>2026-04-07T14:04:01Z</time></trkpt><trkpt lat="43.74308630236429" lon="12.853562340339074"><ele>117.14285714285714</ele><time>2026-04-07T14:04:02Z</time></trkpt><trkpt lat="43.74315064591201" lon="12.853529263319604"><ele>118.57142857142857</ele><time>2026-04-07T14:04:03Z</time></trkpt><trkpt lat="43.74322247225166" lon="12.853517503921276"><ele>120.0</ele><time>2026-04-07T14:04:04Z</time></trkpt><trkpt lat="43.74329452463008" lon="12.85351265927604"><ele>120.0</ele><time>2026-04-07T14:04:05Z</time></trkpt><trkpt lat="43.74336469346495" lon="12.853505848713905"><ele>120.0</ele><time>2026-04-07T14:04:06Z</time></trkpt><trkpt lat="43.743429433721325" lon="12.853516380701071"><ele>120.0</ele><time>2026-04-07T14:04:07Z</time></trkpt><trkpt lat="43.743517602721056" lon="12.853514940494343"><ele>120.0</ele><time>2026-04-07T14:04:08Z</time></trkpt><trkpt lat="43.74359892770774" lon="12.853494775607691"><ele>120.0</ele><time>2026-04-07T14:04:09Z</time></trkpt><trkpt lat="43.74366971542052" lon="12.853482831354636"><ele>120.0</ele><time>2026-04-07T14:04:10Z</time></trkpt><trkpt lat="43.74373701795882" lon="12.853452750403964"><ele>120.0</ele><time>2026-04-07T14:04:11Z</time></trkpt><trkpt lat="43.74379612744703" lon="12.853398915404298"><ele>121.85714285714286</ele><time>2026-04-07T14:04:12Z</time></trkpt><trkpt lat="43.74385424017579" lon="12.85334716562131"><ele>123.71428571428571</ele><time>2026-04-07T14:04:13Z</time></trkpt><trkpt lat="43.743909880702795" lon="12.853278163900518"><ele>125.57142857142857</ele><time>2026-04-07T14:04:14Z</time></trkpt><trkpt lat="43.74396178255832" lon="12.853211230132185"><ele>127.42857142857143</ele><time>2026-04-07T14:04:15Z</time></trkpt><trkpt lat="43.74401055920325" lon="12.853140935054238"><ele>129.28571428571428</ele><time>2026-04-07T14:04:16Z</time></trkpt><trkpt lat="43.74407544887847" lon="12.85312172341949"><ele>131.14285714285714</ele><time>2026-04-07T14:04:17Z</time></trkpt><trkpt lat="43.74413891967795" lon="12.85314571729467"><ele>133.0</ele><time>2026-04-07T14:04:18Z</time></trkpt><trkpt lat="43.744203266327375" lon="12.85317743473262"><ele>133.0</ele><time>2026-04-07T14:04:19Z</time></trkpt><trkpt lat="43.74426577611156" lon="12.853221677319704"><ele>133.0</ele><time>2026-04-07T14:04:20Z</time></trkpt><trkpt lat="43.744326680651085" lon="12.853265897871616"><ele>133.0</ele><time>2026-04-07T14:04:21Z</time></trkpt><trkpt lat="43.744390254697855" lon="12.853311551791482"><ele>133.0</ele><time>2026-04-07T14:04:22Z</time></trkpt><trkpt lat="43.744456266789676" lon="12.85336200726713"><ele>133.0</ele><time>2026-04-07T14:04:23Z</time></trkpt><trkpt lat="43.7445285230784" lon="12.853421476863558"><ele>133.0</ele><time>2026-04-07T14:04:24Z</time></trkpt><trkpt lat="43.744600546967185" lon="12.853481476983877"><ele>135.5</ele><time>2026-04-07T14:04:25Z</time></trkpt><trkpt lat="43.744670544086496" lon="12.853534363160417"><ele>138.0</ele><time>2026-04-07T14:04:26Z</time></trkpt><trkpt lat="43.744735831569145" lon="12.8535944076307"><ele>140.5</ele><time>2026-04-07T14:04:27Z</time></trkpt><trkpt lat="43.74480472958204" lon="12.853643825090831"><ele>143.0</ele><time>2026-04-07T14:04:28Z</time></trkpt><trkpt lat="43.744871655968495" lon="12.853688167228054"><ele>145.5</ele><time>2026-04-07T14:04:29Z</time></trkpt><trkpt lat="43.74493764238439" lon="12.853742481725718"><ele>148.0</ele><time>2026-04-07T14:04:30Z</time></trkpt><trkpt lat="43.74500400808051" lon="12.85379328381581"><ele>148.0</ele><time>2026-04-07T14:04:31Z</time></trkpt><trkpt lat="43.745071226744855" lon="12.853843550164893"><ele>148.0</ele><time>2026-04-07T14:04:32Z</time></trkpt><trkpt lat="43.745134247970746" lon="12.853903808117414"><ele>148.0</ele><time>2026-04-07T14:04:33Z</time></trkpt><trkpt lat="43.745193928176036" lon="12.85397185406059"><ele>148.0</ele><time>2026-04-07T14:04:34Z</time></trkpt><trkpt lat="43.74525283503923" lon="12.854048452278974"><ele>148.0</ele><time>2026-04-07T14:04:35Z</time></trkpt><trkpt lat="43.745300546941046" lon="12.854136401736563"><ele>148.0</ele><time>2026-04-07T14:04:36Z</time></trkpt><trkpt lat="43.74536287110851" lon="12.854193503427773"><ele>149.6</ele><time>2026-04-07T14:04:37Z</time></trkpt><trkpt lat="43.74541540771553" lon="12.854259315551266"><ele>151.20000000000002</ele><time>2026-04-07T14:04:38Z</time></trkpt><trkpt lat="43.74550484986583" lon="12.854362783612578"><ele>152.8</ele><time>2026-04-07T14:04:40Z</time></trkpt><trkpt lat="43.74557135718693" lon="12.854473623663425"><ele>154.4</ele><time>2026-04-07T14:04:42Z</time></trkpt><trkpt lat="43.745520794997866" lon="12.854577362551138"><ele>156.0</ele><time>2026-04-07T14:04:44Z</time></trkpt><trkpt lat="43.74543714998545" lon="12.854594050120085"><ele>157.0</ele><time>2026-04-07T14:04:46Z</time></trkpt><trkpt lat="43.74533058975175" lon="12.854656399198186"><ele>158.0</ele><time>2026-04-07T14:04:48Z</time></trkpt><trkpt lat="43.74527227743817" lon="12.854689830102648"><ele>159.0</ele><time>2026-04-07T14:04:49Z</time></trkpt><trkpt lat="43.74521383109259" lon="12.85472793569933"><ele>160.0</ele><time>2026-04-07T14:04:50Z</time></trkpt><trkpt lat="43.745152083663136" lon="12.854775430456831"><ele>161.0</ele><time>2026-04-07T14:04:51Z</time></trkpt><trkpt lat="43.74509568791954" lon="12.854835516763652"><ele>162.0</ele><time>2026-04-07T14:04:52Z</time></trkpt><trkpt lat="43.74504383171499" lon="12.85489707203033"><ele>162.0</ele><time>2026-04-07T14:04:53Z</time></trkpt><trkpt lat="43.7449937951399" lon="12.854967305666554"><ele>162.0</ele><time>2026-04-07T14:04:54Z</time></trkpt><trkpt lat="43.744947754316875" lon="12.85504124488121"><ele>162.0</ele><time>2026-04-07T14:04:55Z</time></trkpt><trkpt lat="43.744907564422824" lon="12.855125922408371"><ele>162.0</ele><time>2026-04-07T14:04:56Z</time></trkpt><trkpt lat="43.744889371901344" lon="12.855211714622824"><ele>162.0</ele><time>2026-04-07T14:04:57Z</time></trkpt><trkpt lat="43.744917008208766" lon="12.855318697628299"><ele>162.0</ele><time>2026-04-07T14:04:58Z</time></trkpt><trkpt lat="43.74494016777397" lon="12.855406470159249"><ele>162.0</ele><time>2026-04-07T14:04:59Z</time></trkpt><trkpt lat="43.74498443829629" lon="12.855488556765122"><ele>163.0</ele><time>2026-04-07T14:05:00Z</time></trkpt><trkpt lat="43.74502814110687" lon="12.855560942572513"><ele>164.0</ele><time>2026-04-07T14:05:01Z</time></trkpt><trkpt lat="43.745126908472116" lon="12.855646752003189"><ele>165.0</ele><time>2026-04-07T14:05:03Z</time></trkpt><trkpt lat="43.74523772336211" lon="12.855640169872107"><ele>166.0</ele><time>2026-04-07T14:05:05Z</time></trkpt><trkpt lat="43.745369069260846" lon="12.85559769919802"><ele>167.0</ele><time>2026-04-07T14:05:07Z</time></trkpt><trkpt lat="43.74544048172087" lon="12.85558201483182"><ele>170.0</ele><time>2026-04-07T14:05:08Z</time></trkpt><trkpt lat="43.74551639444385" lon="12.855571967696811"><ele>173.0</ele><time>2026-04-07T14:05:09Z</time></trkpt><trkpt lat="43.74559383583563" lon="12.855571558918514"><ele>176.0</ele><time>2026-04-07T14:05:10Z</time></trkpt><trkpt lat="43.74566240104522" lon="12.855559808191591"><ele>179.0</ele><time>2026-04-07T14:05:11Z</time></trkpt><trkpt lat="43.74573012447689" lon="12.855562028315587"><ele>182.0</ele><time>2026-04-07T14:05:12Z</time></trkpt><trkpt lat="43.7458528007444" lon="12.855578767865445"><ele>185.0</ele><time>2026-04-07T14:05:14Z</time></trkpt><trkpt lat="43.74592142475358" lon="12.855577411113735"><ele>185.0</ele><time>2026-04-07T14:05:15Z</time></trkpt><trkpt lat="43.74598699529836" lon="12.855583297636757"><ele>185.0</ele><time>2026-04-07T14:05:16Z</time></trkpt><trkpt lat="43.7460587813834" lon="12.855582749659211"><ele>185.0</ele><time>2026-04-07T14:05:17Z</time></trkpt><trkpt lat="43.74612909926888" lon="12.855586788599293"><ele>185.0</ele><time>2026-04-07T14:05:18Z</time></trkpt><trkpt lat="43.74626105730776" lon="12.855609789591023"><ele>185.0</ele><time>2026-04-07T14:05:20Z</time></trkpt><trkpt lat="43.74638326139686" lon="12.855650262059491"><ele>187.33333333333331</ele><time>2026-04-07T14:05:22Z</time></trkpt><trkpt lat="43.746486391664924" lon="12.85570092595283"><ele>189.66666666666666</ele><time>2026-04-07T14:05:24Z</time></trkpt><trkpt lat="43.746604673271726" lon="12.855751272892975"><ele>192.0</ele><time>2026-04-07T14:05:26Z</time></trkpt><trkpt lat="43.746671778916394" lon="12.855786411674675"><ele>194.33333333333331</ele><time>2026-04-07T14:05:27Z</time></trkpt><trkpt lat="43.74674105548709" lon="12.855826791079759"><ele>196.66666666666666</ele><time>2026-04-07T14:05:28Z</time></trkpt><trkpt lat="43.746804507785924" lon="12.855855977720342"><ele>199.0</ele><time>2026-04-07T14:05:29Z</time></trkpt><trkpt lat="43.74686962247799" lon="12.85589608375507"><ele>199.6</ele><time>2026-04-07T14:05:30Z</time></trkpt><trkpt lat="43.746931662927274" lon="12.855928594083084"><ele>200.2</ele><time>2026-04-07T14:05:31Z</time></trkpt><trkpt lat="43.74702438837791" lon="12.85598286272137"><ele>200.79999999999998</ele><time>2026-04-07T14:05:33Z</time></trkpt><trkpt lat="43.747116789872265" lon="12.856021255821865"><ele>201.39999999999998</ele><time>2026-04-07T14:05:35Z</time></trkpt><trkpt lat="43.74721695609916" lon="12.85609006449837"><ele>202.0</ele><time>2026-04-07T14:05:37Z</time></trkpt><trkpt lat="43.747311823301125" lon="12.856175604242447"><ele>206.0</ele><time>2026-04-07T14:05:39Z</time></trkpt><trkpt lat="43.74740844401693" lon="12.856258964221576"><ele>210.0</ele><time>2026-04-07T14:05:41Z</time></trkpt><trkpt lat="43.74745815843081" lon="12.85631629007928"><ele>214.0</ele><time>2026-04-07T14:05:42Z</time></trkpt><trkpt lat="43.74754047424249" lon="12.856394782216018"><ele>218.0</ele><time>2026-04-07T14:05:44Z</time></trkpt><trkpt lat="43.74762017777505" lon="12.856507873748141"><ele>222.0</ele><time>2026-04-07T14:05:46Z</time></trkpt><trkpt lat="43.747658109002806" lon="12.856581419570112"><ele>221.0</ele><time>2026-04-07T14:05:47Z</time></trkpt><trkpt lat="43.747727712677126" lon="12.856733931272363"><ele>220.0</ele><time>2026-04-07T14:05:49Z</time></trkpt><trkpt lat="43.74773290185248" lon="12.856837690416045"><ele>219.0</ele><time>2026-04-07T14:05:50Z</time></trkpt><trkpt lat="43.74773065372834" lon="12.85693057757545"><ele>218.0</ele><time>2026-04-07T14:05:51Z</time></trkpt><trkpt lat="43.74772940588959" lon="12.857031758730155"><ele>217.0</ele><time>2026-04-07T14:05:52Z</time></trkpt><trkpt lat="43.74772516364555" lon="12.857133137560375"><ele>216.0</ele><time>2026-04-07T14:05:53Z</time></trkpt><trkpt lat="43.74772856005621" lon="12.857235507183994"><ele>218.33333333333334</ele><time>2026-04-07T14:05:54Z</time></trkpt><trkpt lat="43.74773575900558" lon="12.85733296046259"><ele>220.66666666666669</ele><time>2026-04-07T14:05:55Z</time></trkpt><trkpt lat="43.747746071258575" lon="12.857440905493052"><ele>223.0</ele><time>2026-04-07T14:05:56Z</time></trkpt><trkpt lat="43.74775323597779" lon="12.857546194358301"><ele>225.33333333333334</ele><time>2026-04-07T14:05:57Z</time></trkpt><trkpt lat="43.74781704396548" lon="12.85763434242651"><ele>227.66666666666669</ele><time>2026-04-07T14:05:58Z</time></trkpt><trkpt lat="43.74787375093077" lon="12.857712275183939"><ele>230.0</ele><time>2026-04-07T14:05:59Z</time></trkpt><trkpt lat="43.74794378002329" lon="12.857773393304711"><ele>230.50000000000003</ele><time>2026-04-07T14:06:00Z</time></trkpt><trkpt lat="43.74801350797294" lon="12.857842030350367"><ele>231.0</ele><time>2026-04-07T14:06:01Z</time></trkpt><trkpt lat="43.74809027512491" lon="12.857902858248371"><ele>231.5</ele><time>2026-04-07T14:06:02Z</time></trkpt><trkpt lat="43.74816298834709" lon="12.85795702930039"><ele>232.0</ele><time>2026-04-07T14:06:03Z</time></trkpt><trkpt lat="43.748240873174154" lon="12.85800326064844"><ele>232.50000000000003</ele><time>2026-04-07T14:06:04Z</time></trkpt><trkpt lat="43.74831543076064" lon="12.85805234213063"><ele>233.0</ele><time>2026-04-07T14:06:05Z</time></trkpt><trkpt lat="43.748392394371095" lon="12.858095860007886"><ele>233.00000000000003</ele><time>2026-04-07T14:06:06Z</time></trkpt><trkpt lat="43.748469796091406" lon="12.858138186810214"><ele>233.0</ele><time>2026-04-07T14:06:07Z</time></trkpt><trkpt lat="43.748544485542794" lon="12.85816782285546"><ele>233.0</ele><time>2026-04-07T14:06:08Z</time></trkpt><trkpt lat="43.74862147931354" lon="12.858164501442479"><ele>233.0</ele><time>2026-04-07T14:06:09Z</time></trkpt><trkpt lat="43.74869624357674" lon="12.858170967037982"><ele>233.00000000000003</ele><time>2026-04-07T14:06:10Z</time></trkpt><trkpt lat="43.748772823515004" lon="12.85819821183595"><ele>233.0</ele><time>2026-04-07T14:06:11Z</time></trkpt><trkpt lat="43.74884815557992" lon="12.85820554570595"><ele>234.16666666666669</ele><time>2026-04-07T14:06:12Z</time></trkpt><trkpt lat="43.74892604031264" lon="12.858201459237513"><ele>235.33333333333334</ele><time>2026-04-07T14:06:13Z</time></trkpt><trkpt lat="43.7490069686771" lon="12.858205309390351"><ele>236.5</ele><time>2026-04-07T14:06:14Z</time></trkpt><trkpt lat="43.74909064156748" lon="12.85820187134992"><ele>237.66666666666669</ele><time>2026-04-07T14:06:15Z</time></trkpt><trkpt lat="43.749178027788204" lon="12.85821149665883"><ele>238.83333333333334</ele><time>2026-04-07T14:06:16Z</time></trkpt><trkpt lat="43.74925656022008" lon="12.858216333010752"><ele>240.0</ele><time>2026-04-07T14:06:17Z</time></trkpt><trkpt lat="43.74933758917808" lon="12.858219102665538"><ele>241.33333333333334</ele><time>2026-04-07T14:06:18Z</time></trkpt><trkpt lat="43.74941921063454" lon="12.85822627423393"><ele>242.66666666666669</ele><time>2026-04-07T14:06:19Z</time></trkpt><trkpt lat="43.74949821444619" lon="12.858237598202608"><ele>244.0</ele><time>2026-04-07T14:06:20Z</time></trkpt><trkpt lat="43.749583008086276" lon="12.858227277492267"><ele>245.33333333333334</ele><time>2026-04-07T14:06:21Z</time></trkpt><trkpt lat="43.74965893333663" lon="12.858197573015197"><ele>246.66666666666669</ele><time>2026-04-07T14:06:22Z</time></trkpt><trkpt lat="43.74973013029768" lon="12.85813671846692"><ele>248.0</ele><time>2026-04-07T14:06:23Z</time></trkpt><trkpt lat="43.74979432722777" lon="12.858074717656764"><ele>248.00000000000003</ele><time>2026-04-07T14:06:24Z</time></trkpt><trkpt lat="43.74985582807741" lon="12.858019031759515"><ele>248.0</ele><time>2026-04-07T14:06:25Z</time></trkpt><trkpt lat="43.74992418692192" lon="12.857970025305614"><ele>248.0</ele><time>2026-04-07T14:06:26Z</time></trkpt><trkpt lat="43.749998177290536" lon="12.857918298303336"><ele>248.0</ele><time>2026-04-07T14:06:27Z</time></trkpt><trkpt lat="43.75008456308794" lon="12.857881233726669"><ele>248.00000000000003</ele><time>2026-04-07T14:06:28Z</time></trkpt><trkpt lat="43.750165146500024" lon="12.857833907740675"><ele>248.0</ele><time>2026-04-07T14:06:29Z</time></trkpt><trkpt lat="43.75024692601019" lon="12.857794551544778"><ele>250.33333333333334</ele><time>2026-04-07T14:06:30Z</time></trkpt><trkpt lat="43.7503312520693" lon="12.857762053892616"><ele>252.66666666666669</ele><time>2026-04-07T14:06:31Z</time></trkpt><trkpt lat="43.7504162214137" lon="12.857729381905099"><ele>255.0</ele><time>2026-04-07T14:06:32Z</time></trkpt><trkpt lat="43.75050158339212" lon="12.857700709607027"><ele>257.3333333333333</ele><time>2026-04-07T14:06:33Z</time></trkpt><trkpt lat="43.75058994071234" lon="12.857676122341886"><ele>259.66666666666663</ele><time>2026-04-07T14:06:34Z</time></trkpt><trkpt lat="43.75067731610966" lon="12.857657791988474"><ele>262.0</ele><time>2026-04-07T14:06:35Z</time></trkpt><trkpt lat="43.75076670490691" lon="12.857654113827401"><ele>262.0</ele><time>2026-04-07T14:06:36Z</time></trkpt><trkpt lat="43.7508563584676" lon="12.857658787301926"><ele>262.0</ele><time>2026-04-07T14:06:37Z</time></trkpt><trkpt lat="43.750937264179996" lon="12.857650263691925"><ele>262.0</ele><time>2026-04-07T14:06:38Z</time></trkpt><trkpt lat="43.75101298954272" lon="12.857648537075038"><ele>262.0</ele><time>2026-04-07T14:06:39Z</time></trkpt><trkpt lat="43.75108203775716" lon="12.857643991452544"><ele>262.0</ele><time>2026-04-07T14:06:40Z</time></trkpt><trkpt lat="43.751185447417676" lon="12.857620245692312"><ele>262.0</ele><time>2026-04-07T14:06:42Z</time></trkpt><trkpt lat="43.75126374952735" lon="12.857612409970761"><ele>264.8333333333333</ele><time>2026-04-07T14:06:44.999Z</time></trkpt><trkpt lat="43.751326774804916" lon="12.857512893647558"><ele>267.66666666666663</ele><time>2026-04-07T14:06:46.999Z</time></trkpt><trkpt lat="43.751368327143034" lon="12.857346971775728"><ele>270.5</ele><time>2026-04-07T14:06:48.999Z</time></trkpt><trkpt lat="43.75139315096101" lon="12.857259639722201"><ele>273.3333333333333</ele><time>2026-04-07T14:06:49.999Z</time></trkpt><trkpt lat="43.751417153926475" lon="12.85716236291689"><ele>276.1666666666667</ele><time>2026-04-07T14:06:50.999Z</time></trkpt><trkpt lat="43.75144801236936" lon="12.857062411656926"><ele>279.0</ele><time>2026-04-07T14:06:51.999Z</time></trkpt><trkpt lat="43.75146236875188" lon="12.856947720349455"><ele>279.0</ele><time>2026-04-07T14:06:52.999Z</time></trkpt><trkpt lat="43.751480751631625" lon="12.856846622007348"><ele>279.0</ele><time>2026-04-07T14:06:53.999Z</time></trkpt><trkpt lat="43.751497809510326" lon="12.856752418572897"><ele>279.0</ele><time>2026-04-07T14:06:55Z</time></trkpt><trkpt lat="43.751529693791326" lon="12.856673633206876"><ele>279.0</ele><time>2026-04-07T14:06:56Z</time></trkpt><trkpt lat="43.75154430227725" lon="12.856545724212204"><ele>279.0</ele><time>2026-04-07T14:06:58Z</time></trkpt><trkpt lat="43.75162577936379" lon="12.856443933528448"><ele>279.0</ele><time>2026-04-07T14:07:01Z</time></trkpt><trkpt lat="43.751743502227235" lon="12.85646424015421"><ele>279.6666666666667</ele><time>2026-04-07T14:07:03Z</time></trkpt><trkpt lat="43.751852945694786" lon="12.856529240246845"><ele>280.3333333333333</ele><time>2026-04-07T14:07:05Z</time></trkpt><trkpt lat="43.7519227585635" lon="12.856578930677088"><ele>281.0</ele><time>2026-04-07T14:07:06Z</time></trkpt><trkpt lat="43.75199067186227" lon="12.856634484562285"><ele>281.66666666666663</ele><time>2026-04-07T14:07:07Z</time></trkpt><trkpt lat="43.752051442658406" lon="12.856706151410886"><ele>282.3333333333333</ele><time>2026-04-07T14:07:08Z</time></trkpt><trkpt lat="43.75209930688784" lon="12.856790607071893"><ele>283.0</ele><time>2026-04-07T14:07:09Z</time></trkpt><trkpt lat="43.75214769966815" lon="12.856874912597183"><ele>283.0</ele><time>2026-04-07T14:07:10Z</time></trkpt><trkpt lat="43.75218414107859" lon="12.856978725179598"><ele>283.0</ele><time>2026-04-07T14:07:11Z</time></trkpt><trkpt lat="43.75220907987649" lon="12.857087853602684"><ele>283.0</ele><time>2026-04-07T14:07:12Z</time></trkpt><trkpt lat="43.75223390529674" lon="12.857197800880224"><ele>283.0</ele><time>2026-04-07T14:07:13Z</time></trkpt><trkpt lat="43.75225840695652" lon="12.857309440551386"><ele>283.0</ele><time>2026-04-07T14:07:14Z</time></trkpt><trkpt lat="43.752283003201505" lon="12.857420519050365"><ele>283.0</ele><time>2026-04-07T14:07:15Z</time></trkpt><trkpt lat="43.75231290727686" lon="12.857530148574792"><ele>284.16666666666663</ele><time>2026-04-07T14:07:16Z</time></trkpt><trkpt lat="43.75234550913292" lon="12.857638879727117"><ele>285.3333333333333</ele><time>2026-04-07T14:07:17Z</time></trkpt><trkpt lat="43.75237933022999" lon="12.857744564563074"><ele>286.5</ele><time>2026-04-07T14:07:18Z</time></trkpt><trkpt lat="43.752424649396545" lon="12.857844182856901"><ele>287.6666666666667</ele><time>2026-04-07T14:07:19Z</time></trkpt><trkpt lat="43.75247928805826" lon="12.85793877083743"><ele>288.83333333333337</ele><time>2026-04-07T14:07:20Z</time></trkpt><trkpt lat="43.7525418821006" lon="12.858027856225586"><ele>290.0</ele><time>2026-04-07T14:07:21Z</time></trkpt><trkpt lat="43.75261370952917" lon="12.858100896310031"><ele>290.0</ele><time>2026-04-07T14:07:22Z</time></trkpt><trkpt lat="43.752695385364035" lon="12.858166913195054"><ele>290.0</ele><time>2026-04-07T14:07:23Z</time></trkpt><trkpt lat="43.75277688660227" lon="12.85822175514108"><ele>290.0</ele><time>2026-04-07T14:07:24Z</time></trkpt><trkpt lat="43.752854473692274" lon="12.85828837267305"><ele>290.0</ele><time>2026-04-07T14:07:25Z</time></trkpt><trkpt lat="43.752925860922836" lon="12.85836467056332"><ele>290.0</ele><time>2026-04-07T14:07:26Z</time></trkpt><trkpt lat="43.75299846744285" lon="12.85844117408341"><ele>292.0</ele><time>2026-04-07T14:07:27Z</time></trkpt><trkpt lat="43.75306764692603" lon="12.85852269805627"><ele>294.0</ele><time>2026-04-07T14:07:28Z</time></trkpt><trkpt lat="43.75313547443712" lon="12.858609540528303"><ele>296.0</ele><time>2026-04-07T14:07:29Z</time></trkpt><trkpt lat="43.75319432526391" lon="12.858703766382583"><ele>298.0</ele><time>2026-04-07T14:07:30Z</time></trkpt><trkpt lat="43.753256621549255" lon="12.858795580803308"><ele>300.0</ele><time>2026-04-07T14:07:31Z</time></trkpt><trkpt lat="43.75332300227886" lon="12.858881591487808"><ele>300.0</ele><time>2026-04-07T14:07:32Z</time></trkpt><trkpt lat="43.75339571155659" lon="12.858963264538351"><ele>300.0</ele><time>2026-04-07T14:07:33Z</time></trkpt><trkpt lat="43.75346961993537" lon="12.85904066071093"><ele>300.0</ele><time>2026-04-07T14:07:34Z</time></trkpt><trkpt lat="43.75354534280427" lon="12.859121816369903"><ele>300.0</ele><time>2026-04-07T14:07:35Z</time></trkpt><trkpt lat="43.75362269021672" lon="12.859205986632956"><ele>300.0</ele><time>2026-04-07T14:07:36Z</time></trkpt><trkpt lat="43.75368636371321" lon="12.8592886469175"><ele>301.0</ele><time>2026-04-07T14:07:37Z</time></trkpt><trkpt lat="43.75374365301483" lon="12.859364211342735"><ele>302.0</ele><time>2026-04-07T14:07:38Z</time></trkpt><trkpt lat="43.75379167839216" lon="12.859427714352448"><ele>303.0</ele><time>2026-04-07T14:07:39Z</time></trkpt><trkpt lat="43.75385459402469" lon="12.859511697230301"><ele>304.0</ele><time>2026-04-07T14:07:41Z</time></trkpt><trkpt lat="43.75391440323148" lon="12.859556245857451"><ele>305.0</ele><time>2026-04-07T14:07:47Z</time></trkpt><trkpt lat="43.75400258412686" lon="12.859657111727895"><ele>306.0</ele><time>2026-04-07T14:07:49Z</time></trkpt><trkpt lat="43.754057079929744" lon="12.859717030157107"><ele>306.0</ele><time>2026-04-07T14:07:50Z</time></trkpt><trkpt lat="43.75411071619599" lon="12.859771514547973"><ele>306.0</ele><time>2026-04-07T14:07:51Z</time></trkpt><trkpt lat="43.75420369085015" lon="12.859872749311787"><ele>306.0</ele><time>2026-04-07T14:07:53Z</time></trkpt><trkpt lat="43.75426332559895" lon="12.859919328046919"><ele>306.0</ele><time>2026-04-07T14:07:54Z</time></trkpt><trkpt lat="43.75431707666662" lon="12.859985546759377"><ele>306.0</ele><time>2026-04-07T14:07:55Z</time></trkpt><trkpt lat="43.75436689157853" lon="12.860062363428614"><ele>306.0</ele><time>2026-04-07T14:07:56Z</time></trkpt><trkpt lat="43.75440654924847" lon="12.860157262604531"><ele>306.2</ele><time>2026-04-07T14:07:57Z</time></trkpt><trkpt lat="43.75443460252498" lon="12.860264922233036"><ele>306.40000000000003</ele><time>2026-04-07T14:07:58Z</time></trkpt><trkpt lat="43.754459139345336" lon="12.860381958056209"><ele>306.6</ele><time>2026-04-07T14:07:59Z</time></trkpt><trkpt lat="43.75448358074237" lon="12.860499852641704"><ele>306.8</ele><time>2026-04-07T14:08:00Z</time></trkpt><trkpt lat="43.75452188144553" lon="12.860620062046506"><ele>307.0</ele><time>2026-04-07T14:08:01Z</time></trkpt><trkpt lat="43.75456801786334" lon="12.860738644450457"><ele>307.0</ele><time>2026-04-07T14:08:02Z</time></trkpt><trkpt lat="43.75462049728595" lon="12.860853450737467"><ele>307.0</ele><time>2026-04-07T14:08:03Z</time></trkpt><trkpt lat="43.754671885813366" lon="12.86097238125555"><ele>307.0</ele><time>2026-04-07T14:08:04Z</time></trkpt><trkpt lat="43.7547338903099" lon="12.861076204717108"><ele>307.0</ele><time>2026-04-07T14:08:05Z</time></trkpt><trkpt lat="43.75479207753669" lon="12.861185929212182"><ele>307.0</ele><time>2026-04-07T14:08:06Z</time></trkpt><trkpt lat="43.75486177348815" lon="12.861280283862206"><ele>307.6</ele><time>2026-04-07T14:08:07Z</time></trkpt><trkpt lat="43.75492350419043" lon="12.861375960705043"><ele>308.2</ele><time>2026-04-07T14:08:08Z</time></trkpt><trkpt lat="43.754983046348826" lon="12.861476245660205"><ele>308.8</ele><time>2026-04-07T14:08:09Z</time></trkpt><trkpt lat="43.75504587454357" lon="12.86157096548827"><ele>309.4</ele><time>2026-04-07T14:08:10Z</time></trkpt><trkpt lat="43.75511140418518" lon="12.861664596411448"><ele>310.0</ele><time>2026-04-07T14:08:11Z</time></trkpt><trkpt lat="43.75517676315184" lon="12.861754239385915"><ele>313.8</ele><time>2026-04-07T14:08:12Z</time></trkpt><trkpt lat="43.75525083107793" lon="12.861832938144588"><ele>317.6</ele><time>2026-04-07T14:08:13Z</time></trkpt><trkpt lat="43.755335234698485" lon="12.861893747326324"><ele>321.4</ele><time>2026-04-07T14:08:14Z</time></trkpt><trkpt lat="43.755427906044424" lon="12.86193860397096"><ele>325.2</ele><time>2026-04-07T14:08:15Z</time></trkpt><trkpt lat="43.755520323758" lon="12.861970470247183"><ele>329.0</ele><time>2026-04-07T14:08:16Z</time></trkpt><trkpt lat="43.75561694823939" lon="12.86198245813754"><ele>329.0</ele><time>2026-04-07T14:08:17Z</time></trkpt><trkpt lat="43.7557127764569" lon="12.86197376424985"><ele>329.0</ele><time>2026-04-07T14:08:18Z</time></trkpt><trkpt lat="43.755801371661526" lon="12.861930378843219"><ele>329.0</ele><time>2026-04-07T14:08:19Z</time></trkpt><trkpt lat="43.75589007669091" lon="12.861887583530757"><ele>329.0</ele><time>2026-04-07T14:08:20Z</time></trkpt><trkpt lat="43.755975614073044" lon="12.861847083124033"><ele>329.0</ele><time>2026-04-07T14:08:21Z</time></trkpt><trkpt lat="43.75606872721084" lon="12.861840330622874"><ele>330.6</ele><time>2026-04-07T14:08:22Z</time></trkpt><trkpt lat="43.75616192845316" lon="12.86179315556834"><ele>332.2</ele><time>2026-04-07T14:08:23Z</time></trkpt><trkpt lat="43.75626165106241" lon="12.861764884501595"><ele>333.8</ele><time>2026-04-07T14:08:24Z</time></trkpt><trkpt lat="43.75636299139874" lon="12.861733685141772"><ele>335.40000000000003</ele><time>2026-04-07T14:08:25Z</time></trkpt><trkpt lat="43.75646758666072" lon="12.86171088927933"><ele>337.0</ele><time>2026-04-07T14:08:26Z</time></trkpt><trkpt lat="43.75657171145679" lon="12.861716661488785"><ele>337.0</ele><time>2026-04-07T14:08:27Z</time></trkpt><trkpt lat="43.75667381270606" lon="12.861721978599808"><ele>337.0</ele><time>2026-04-07T14:08:28Z</time></trkpt><trkpt lat="43.75677485275395" lon="12.861733895132733"><ele>337.0</ele><time>2026-04-07T14:08:29Z</time></trkpt><trkpt lat="43.75687674436406" lon="12.861747066950423"><ele>337.0</ele><time>2026-04-07T14:08:30Z</time></trkpt><trkpt lat="43.75698016005999" lon="12.861744314035242"><ele>337.0</ele><time>2026-04-07T14:08:31Z</time></trkpt><trkpt lat="43.75708367962973" lon="12.861752302402106"><ele>338.40000000000003</ele><time>2026-04-07T14:08:32Z</time></trkpt><trkpt lat="43.75718885923244" lon="12.861746540764715"><ele>339.8</ele><time>2026-04-07T14:08:33Z</time></trkpt><trkpt lat="43.75729177514092" lon="12.86172635672874"><ele>341.2</ele><time>2026-04-07T14:08:34Z</time></trkpt><trkpt lat="43.757397599167064" lon="12.861699988691429"><ele>342.6</ele><time>2026-04-07T14:08:35Z</time></trkpt><trkpt lat="43.7575078054431" lon="12.86166201603552"><ele>344.0</ele><time>2026-04-07T14:08:36Z</time></trkpt><trkpt lat="43.75761599197076" lon="12.861611735520672"><ele>342.6</ele><time>2026-04-07T14:08:37Z</time></trkpt><trkpt lat="43.75772367244276" lon="12.861565862182381"><ele>341.2</ele><time>2026-04-07T14:08:38Z</time></trkpt><trkpt lat="43.75782122957365" lon="12.861512501622986"><ele>339.8</ele><time>2026-04-07T14:08:39Z</time></trkpt><trkpt lat="43.757920936260966" lon="12.861451336483574"><ele>338.40000000000003</ele><time>2026-04-07T14:08:40Z</time></trkpt><trkpt lat="43.758022505631445" lon="12.861418835424502"><ele>337.0</ele><time>2026-04-07T14:08:41Z</time></trkpt><trkpt lat="43.758116060165165" lon="12.861407852858258"><ele>337.0</ele><time>2026-04-07T14:08:42Z</time></trkpt><trkpt lat="43.758217731814334" lon="12.861420612588264"><ele>337.0</ele><time>2026-04-07T14:08:43Z</time></trkpt><trkpt lat="43.75832206353224" lon="12.861436645547036"><ele>337.0</ele><time>2026-04-07T14:08:44Z</time></trkpt><trkpt lat="43.7584272668525" lon="12.861454319619533"><ele>337.0</ele><time>2026-04-07T14:08:45Z</time></trkpt><trkpt lat="43.758528951005815" lon="12.861449604382326"><ele>337.0</ele><time>2026-04-07T14:08:46Z</time></trkpt><trkpt lat="43.75863114215605" lon="12.861423729040624"><ele>337.0</ele><time>2026-04-07T14:08:47Z</time></trkpt><trkpt lat="43.75873650677222" lon="12.861375492496714"><ele>337.0</ele><time>2026-04-07T14:08:48Z</time></trkpt><trkpt lat="43.75884493617345" lon="12.861347861490461"><ele>337.0</ele><time>2026-04-07T14:08:48.999Z</time></trkpt><trkpt lat="43.75896027554416" lon="12.861347487510908"><ele>337.0</ele><time>2026-04-07T14:08:49.999Z</time></trkpt><trkpt lat="43.75907034296818" lon="12.861421092644791"><ele>337.0</ele><time>2026-04-07T14:08:50.999Z</time></trkpt><trkpt lat="43.759190315481725" lon="12.861469365337738"><ele>337.0</ele><time>2026-04-07T14:08:51.999Z</time></trkpt><trkpt lat="43.75930667869286" lon="12.86153833797568"><ele>337.0</ele><time>2026-04-07T14:08:52.999Z</time></trkpt><trkpt lat="43.7594297602278" lon="12.861589113528709"><ele>337.0</ele><time>2026-04-07T14:08:53.999Z</time></trkpt><trkpt lat="43.759554729454656" lon="12.861637833568876"><ele>338.0</ele><time>2026-04-07T14:08:54.999Z</time></trkpt><trkpt lat="43.75968253509107" lon="12.861676334671486"><ele>339.0</ele><time>2026-04-07T14:08:55.999Z</time></trkpt><trkpt lat="43.75981124084353" lon="12.861720879455692"><ele>340.0</ele><time>2026-04-07T14:08:56.999Z</time></trkpt><trkpt lat="43.75994076724985" lon="12.861776192702745"><ele>341.0</ele><time>2026-04-07T14:08:57.999Z</time></trkpt><trkpt lat="43.76006706435969" lon="12.861838748685592"><ele>339.5</ele><time>2026-04-07T14:08:58.999Z</time></trkpt><trkpt lat="43.76019409001181" lon="12.861912116127495"><ele>338.0</ele><time>2026-04-07T14:08:59.999Z</time></trkpt><trkpt lat="43.76032057050736" lon="12.861985928387295"><ele>336.5</ele><time>2026-04-07T14:09:01Z</time></trkpt><trkpt lat="43.760440678245494" lon="12.862080361538002"><ele>335.0</ele><time>2026-04-07T14:09:02Z</time></trkpt><trkpt lat="43.760554461305055" lon="12.862186977672707"><ele>335.0</ele><time>2026-04-07T14:09:03Z</time></trkpt><trkpt lat="43.76065660980333" lon="12.862282356511013"><ele>335.0</ele><time>2026-04-07T14:09:04Z</time></trkpt><trkpt lat="43.76076016204804" lon="12.862374956839073"><ele>335.0</ele><time>2026-04-07T14:09:05Z</time></trkpt><trkpt lat="43.76086320254457" lon="12.862460193984129"><ele>335.0</ele><time>2026-04-07T14:09:06Z</time></trkpt><trkpt lat="43.76096115090939" lon="12.862551625351822"><ele>334.0</ele><time>2026-04-07T14:09:07Z</time></trkpt><trkpt lat="43.76105803928858" lon="12.86266133220873"><ele>333.0</ele><time>2026-04-07T14:09:08Z</time></trkpt><trkpt lat="43.76114766803566" lon="12.862772610365186"><ele>332.0</ele><time>2026-04-07T14:09:09Z</time></trkpt><trkpt lat="43.761229230287654" lon="12.862882024359875"><ele>331.0</ele><time>2026-04-07T14:09:10Z</time></trkpt><trkpt lat="43.7613050584978" lon="12.8629946244236"><ele>331.0</ele><time>2026-04-07T14:09:11Z</time></trkpt><trkpt lat="43.76137705671514" lon="12.863107999544308"><ele>331.0</ele><time>2026-04-07T14:09:12Z</time></trkpt><trkpt lat="43.761445806499125" lon="12.8632211462533"><ele>331.0</ele><time>2026-04-07T14:09:13Z</time></trkpt><trkpt lat="43.761506128699324" lon="12.863338234012893"><ele>331.0</ele><time>2026-04-07T14:09:14Z</time></trkpt><trkpt lat="43.761542842280754" lon="12.863469276126521"><ele>331.0</ele><time>2026-04-07T14:09:15Z</time></trkpt><trkpt lat="43.76159355955604" lon="12.863593713824228"><ele>328.8</ele><time>2026-04-07T14:09:16Z</time></trkpt><trkpt lat="43.76159672998995" lon="12.863741361048952"><ele>326.6</ele><time>2026-04-07T14:09:17Z</time></trkpt><trkpt lat="43.761610094491644" lon="12.8638850474121"><ele>324.4</ele><time>2026-04-07T14:09:18Z</time></trkpt><trkpt lat="43.76162137393179" lon="12.864014606689615"><ele>322.2</ele><time>2026-04-07T14:09:19Z</time></trkpt><trkpt lat="43.761647935428115" lon="12.864136199906117"><ele>320.0</ele><time>2026-04-07T14:09:20Z</time></trkpt><trkpt lat="43.76166548465756" lon="12.864252068650272"><ele>318.5</ele><time>2026-04-07T14:09:21Z</time></trkpt><trkpt lat="43.761699574891395" lon="12.86435289493486"><ele>317.0</ele><time>2026-04-07T14:09:22Z</time></trkpt><trkpt lat="43.76174999264519" lon="12.864436587532143"><ele>315.5</ele><time>2026-04-07T14:09:23Z</time></trkpt><trkpt lat="43.76181734742073" lon="12.864492302234316"><ele>314.0</ele><time>2026-04-07T14:09:24Z</time></trkpt><trkpt lat="43.76190067678076" lon="12.864507768161504"><ele>312.5</ele><time>2026-04-07T14:09:25Z</time></trkpt><trkpt lat="43.761997925183955" lon="12.864484253483965"><ele>311.0</ele><time>2026-04-07T14:09:26Z</time></trkpt><trkpt lat="43.76208929821952" lon="12.864453965726998"><ele>311.0</ele><time>2026-04-07T14:09:27Z</time></trkpt><trkpt lat="43.762184705712215" lon="12.864443160822985"><ele>311.0</ele><time>2026-04-07T14:09:28Z</time></trkpt><trkpt lat="43.76228400410233" lon="12.864478545468076"><ele>311.0</ele><time>2026-04-07T14:09:29Z</time></trkpt><trkpt lat="43.76238087754279" lon="12.864539106717332"><ele>311.0</ele><time>2026-04-07T14:09:30Z</time></trkpt><trkpt lat="43.76248195928939" lon="12.864610128442996"><ele>311.0</ele><time>2026-04-07T14:09:31Z</time></trkpt><trkpt lat="43.76258999524307" lon="12.864680706818326"><ele>311.0</ele><time>2026-04-07T14:09:32Z</time></trkpt><trkpt lat="43.76269585356529" lon="12.864747969868898"><ele>311.0</ele><time>2026-04-07T14:09:33Z</time></trkpt><trkpt lat="43.76280303120978" lon="12.864820132562189"><ele>311.0</ele><time>2026-04-07T14:09:34Z</time></trkpt><trkpt lat="43.76291484318999" lon="12.864892204792659"><ele>311.0</ele><time>2026-04-07T14:09:35Z</time></trkpt><trkpt lat="43.763021759163806" lon="12.86498875009823"><ele>311.25</ele><time>2026-04-07T14:09:36Z</time></trkpt><trkpt lat="43.763113960647544" lon="12.865094152821738"><ele>311.5</ele><time>2026-04-07T14:09:37Z</time></trkpt><trkpt lat="43.76319935867844" lon="12.865202767056696"><ele>311.75</ele><time>2026-04-07T14:09:38Z</time></trkpt><trkpt lat="43.76327936503303" lon="12.86532240832935"><ele>312.0</ele><time>2026-04-07T14:09:39Z</time></trkpt><trkpt lat="43.76338482985002" lon="12.865425939466546"><ele>311.0</ele><time>2026-04-07T14:09:40Z</time></trkpt><trkpt lat="43.7634790156912" lon="12.865540164918077"><ele>310.0</ele><time>2026-04-07T14:09:41Z</time></trkpt><trkpt lat="43.76357816655796" lon="12.865654429116782"><ele>309.0</ele><time>2026-04-07T14:09:42Z</time></trkpt><trkpt lat="43.76367516555434" lon="12.86577226311946"><ele>308.0</ele><time>2026-04-07T14:09:43Z</time></trkpt><trkpt lat="43.763777193637054" lon="12.86587158103466"><ele>308.75</ele><time>2026-04-07T14:09:44Z</time></trkpt><trkpt lat="43.763849187277366" lon="12.866003345023302"><ele>309.5</ele><time>2026-04-07T14:09:45Z</time></trkpt><trkpt lat="43.76392135519793" lon="12.866145075927687"><ele>310.25</ele><time>2026-04-07T14:09:46Z</time></trkpt><trkpt lat="43.76398549425144" lon="12.866298252890644"><ele>311.0</ele><time>2026-04-07T14:09:47Z</time></trkpt><trkpt lat="43.76404857328914" lon="12.866451502848465"><ele>311.0</ele><time>2026-04-07T14:09:48Z</time></trkpt><trkpt lat="43.76409345666977" lon="12.866616053699278"><ele>311.0</ele><time>2026-04-07T14:09:49Z</time></trkpt><trkpt lat="43.76411714463267" lon="12.866786875536503"><ele>311.0</ele><time>2026-04-07T14:09:50Z</time></trkpt><trkpt lat="43.76416631868105" lon="12.866953318873803"><ele>311.0</ele><time>2026-04-07T14:09:51Z</time></trkpt><trkpt lat="43.76420486132212" lon="12.867097551879755"><ele>311.25</ele><time>2026-04-07T14:09:52Z</time></trkpt><trkpt lat="43.76423792214671" lon="12.867259120965743"><ele>311.5</ele><time>2026-04-07T14:09:53Z</time></trkpt><trkpt lat="43.764287445871496" lon="12.867411059429365"><ele>311.75</ele><time>2026-04-07T14:09:54Z</time></trkpt><trkpt lat="43.76433718949134" lon="12.867557512967664"><ele>312.0</ele><time>2026-04-07T14:09:55Z</time></trkpt><trkpt lat="43.76437430221777" lon="12.867710209758457"><ele>312.8</ele><time>2026-04-07T14:09:56Z</time></trkpt><trkpt lat="43.76443828761552" lon="12.867840716185938"><ele>313.6</ele><time>2026-04-07T14:09:57Z</time></trkpt><trkpt lat="43.76449001743942" lon="12.867968717593632"><ele>314.40000000000003</ele><time>2026-04-07T14:09:58Z</time></trkpt><trkpt lat="43.76452902847421" lon="12.868077378571133"><ele>315.2</ele><time>2026-04-07T14:09:59Z</time></trkpt><trkpt lat="43.76456882582028" lon="12.868169504087682"><ele>316.0</ele><time>2026-04-07T14:10:00Z</time></trkpt><trkpt lat="43.76460534492154" lon="12.868254189171555"><ele>316.0</ele><time>2026-04-07T14:10:01Z</time></trkpt><trkpt lat="43.76466505850191" lon="12.868371958710727"><ele>316.0</ele><time>2026-04-07T14:10:03Z</time></trkpt><trkpt lat="43.764716181574464" lon="12.868465941806324"><ele>316.0</ele><time>2026-04-07T14:10:05Z</time></trkpt><trkpt lat="43.764785442096354" lon="12.86857346803641"><ele>316.0</ele><time>2026-04-07T14:10:07Z</time></trkpt><trkpt lat="43.76488455777801" lon="12.86869306784576"><ele>316.0</ele><time>2026-04-07T14:10:09Z</time></trkpt><trkpt lat="43.76492081506735" lon="12.868785338985559"><ele>315.16666666666663</ele><time>2026-04-07T14:10:10Z</time></trkpt><trkpt lat="43.76497174867365" lon="12.868865915703893"><ele>314.3333333333333</ele><time>2026-04-07T14:10:11Z</time></trkpt><trkpt lat="43.765028102055474" lon="12.86895674528971"><ele>313.5</ele><time>2026-04-07T14:10:12Z</time></trkpt><trkpt lat="43.765084823080976" lon="12.869050810295468"><ele>312.6666666666667</ele><time>2026-04-07T14:10:13Z</time></trkpt><trkpt lat="43.76514632385973" lon="12.869152802069939"><ele>311.83333333333337</ele><time>2026-04-07T14:10:14Z</time></trkpt><trkpt lat="43.76521240810012" lon="12.869255011020291"><ele>311.0</ele><time>2026-04-07T14:10:15Z</time></trkpt><trkpt lat="43.7652779351282" lon="12.869346433461008"><ele>310.1666666666667</ele><time>2026-04-07T14:10:16Z</time></trkpt><trkpt lat="43.765347348409406" lon="12.869427228091764"><ele>309.33333333333337</ele><time>2026-04-07T14:10:17Z</time></trkpt><trkpt lat="43.765419373308134" lon="12.869495626802646"><ele>308.5</ele><time>2026-04-07T14:10:18Z</time></trkpt><trkpt lat="43.76549032455695" lon="12.869531392075661"><ele>307.6666666666667</ele><time>2026-04-07T14:10:19Z</time></trkpt><trkpt lat="43.76554168965646" lon="12.86958802855863"><ele>306.8333333333333</ele><time>2026-04-07T14:10:20Z</time></trkpt><trkpt lat="43.76559206694037" lon="12.869646104724401"><ele>306.0</ele><time>2026-04-07T14:10:21Z</time></trkpt><trkpt lat="43.7656469959633" lon="12.869705058472746"><ele>306.0</ele><time>2026-04-07T14:10:22Z</time></trkpt><trkpt lat="43.76569447757521" lon="12.869778272625858"><ele>306.0</ele><time>2026-04-07T14:10:23Z</time></trkpt><trkpt lat="43.76576842590272" lon="12.869882972595734"><ele>306.0</ele><time>2026-04-07T14:10:25Z</time></trkpt><trkpt lat="43.76582756741737" lon="12.869967034505231"><ele>306.0</ele><time>2026-04-07T14:10:27Z</time></trkpt><trkpt lat="43.76588470193849" lon="12.870013953352945"><ele>306.0</ele><time>2026-04-07T14:10:30Z</time></trkpt><trkpt lat="43.76594255532299" lon="12.870060219174878"><ele>306.0</ele><time>2026-04-07T14:10:32Z</time></trkpt><trkpt lat="43.766021054991185" lon="12.869870021715979"><ele>304.0</ele><time>2026-04-07T14:10:34Z</time></trkpt><trkpt lat="43.76607098786531" lon="12.869700911547644"><ele>302.0</ele><time>2026-04-07T14:10:36Z</time></trkpt><trkpt lat="43.76609778915347" lon="12.869601921071128"><ele>300.0</ele><time>2026-04-07T14:10:37Z</time></trkpt><trkpt lat="43.76611791483828" lon="12.869496072130605"><ele>298.0</ele><time>2026-04-07T14:10:38Z</time></trkpt><trkpt lat="43.76613095713642" lon="12.869378794424392"><ele>296.0</ele><time>2026-04-07T14:10:39Z</time></trkpt><trkpt lat="43.766138701651876" lon="12.869255648310297"><ele>296.0</ele><time>2026-04-07T14:10:40Z</time></trkpt><trkpt lat="43.76614925701504" lon="12.869129475829064"><ele>296.0</ele><time>2026-04-07T14:10:41Z</time></trkpt><trkpt lat="43.766169469054496" lon="12.86900835507776"><ele>296.0</ele><time>2026-04-07T14:10:42Z</time></trkpt><trkpt lat="43.76620570250862" lon="12.868887703888628"><ele>296.0</ele><time>2026-04-07T14:10:43Z</time></trkpt><trkpt lat="43.76625319757515" lon="12.868774342543883"><ele>296.0</ele><time>2026-04-07T14:10:44Z</time></trkpt><trkpt lat="43.76631112802602" lon="12.86866825752655"><ele>296.0</ele><time>2026-04-07T14:10:45Z</time></trkpt><trkpt lat="43.766378436787136" lon="12.86857298450566"><ele>296.0</ele><time>2026-04-07T14:10:46Z</time></trkpt><trkpt lat="43.76645146738877" lon="12.868483727936514"><ele>296.0</ele><time>2026-04-07T14:10:47Z</time></trkpt><trkpt lat="43.76652484230204" lon="12.868396317085805"><ele>296.0</ele><time>2026-04-07T14:10:48Z</time></trkpt><trkpt lat="43.766590894928726" lon="12.868287377247169"><ele>296.0</ele><time>2026-04-07T14:10:49Z</time></trkpt><trkpt lat="43.766660555330255" lon="12.868183412581354"><ele>296.6</ele><time>2026-04-07T14:10:50Z</time></trkpt><trkpt lat="43.766730818987455" lon="12.868082051818446"><ele>297.20000000000005</ele><time>2026-04-07T14:10:51Z</time></trkpt><trkpt lat="43.76680762120582" lon="12.86798585600616"><ele>297.79999999999995</ele><time>2026-04-07T14:10:52Z</time></trkpt><trkpt lat="43.76689087623114" lon="12.86789640107014"><ele>298.4</ele><time>2026-04-07T14:10:53Z</time></trkpt><trkpt lat="43.76698029776426" lon="12.867819890123872"><ele>299.0</ele><time>2026-04-07T14:10:54Z</time></trkpt><trkpt lat="43.76708015225835" lon="12.867774528794413"><ele>299.0</ele><time>2026-04-07T14:10:55Z</time></trkpt><trkpt lat="43.76719226316345" lon="12.867725703276983"><ele>299.0</ele><time>2026-04-07T14:10:56Z</time></trkpt><trkpt lat="43.76729806973035" lon="12.867670934129015"><ele>299.0</ele><time>2026-04-07T14:10:57Z</time></trkpt><trkpt lat="43.76740680240392" lon="12.867617249323791"><ele>299.0</ele><time>2026-04-07T14:10:58Z</time></trkpt><trkpt lat="43.767516400702654" lon="12.867566459194013"><ele>300.25</ele><time>2026-04-07T14:10:59Z</time></trkpt><trkpt lat="43.767622689343725" lon="12.867502201364823"><ele>301.5</ele><time>2026-04-07T14:11:00Z</time></trkpt><trkpt lat="43.76773185617007" lon="12.867451908412228"><ele>302.75</ele><time>2026-04-07T14:11:01Z</time></trkpt><trkpt lat="43.76783686653552" lon="12.867400029861779"><ele>304.0</ele><time>2026-04-07T14:11:02Z</time></trkpt><trkpt lat="43.76794049120234" lon="12.867358659736327"><ele>304.0</ele><time>2026-04-07T14:11:03Z</time></trkpt><trkpt lat="43.76802943101203" lon="12.86731496566557"><ele>304.0</ele><time>2026-04-07T14:11:04Z</time></trkpt><trkpt lat="43.76809525697202" lon="12.867277441888165"><ele>304.0</ele><time>2026-04-07T14:11:05Z</time></trkpt><trkpt lat="43.76821141260924" lon="12.867208080934766"><ele>304.0</ele><time>2026-04-07T14:11:07Z</time></trkpt><trkpt lat="43.76826870164465" lon="12.867162459710341"><ele>304.0</ele><time>2026-04-07T14:11:08Z</time></trkpt><trkpt lat="43.76832010218298" lon="12.867110591013985"><ele>304.0</ele><time>2026-04-07T14:11:09Z</time></trkpt><trkpt lat="43.76838007081926" lon="12.867050057542214"><ele>304.0</ele><time>2026-04-07T14:11:10Z</time></trkpt><trkpt lat="43.76844517676284" lon="12.866977228858033"><ele>304.0</ele><time>2026-04-07T14:11:11Z</time></trkpt><trkpt lat="43.76851182241852" lon="12.866891264715395"><ele>304.0</ele><time>2026-04-07T14:11:12Z</time></trkpt><trkpt lat="43.76856971872525" lon="12.866790955060967"><ele>304.0</ele><time>2026-04-07T14:11:13Z</time></trkpt><trkpt lat="43.76861848033667" lon="12.866679750107062"><ele>304.0</ele><time>2026-04-07T14:11:14Z</time></trkpt><trkpt lat="43.768660896886985" lon="12.866561967325252"><ele>307.4</ele><time>2026-04-07T14:11:15Z</time></trkpt><trkpt lat="43.76869784570336" lon="12.866444726951741"><ele>310.79999999999995</ele><time>2026-04-07T14:11:16Z</time></trkpt><trkpt lat="43.76872420019616" lon="12.866324678119383"><ele>314.20000000000005</ele><time>2026-04-07T14:11:17Z</time></trkpt><trkpt lat="43.768728417323274" lon="12.866191552684665"><ele>317.6</ele><time>2026-04-07T14:11:18Z</time></trkpt><trkpt lat="43.768706185649165" lon="12.866057348669768"><ele>321.0</ele><time>2026-04-07T14:11:19Z</time></trkpt><trkpt lat="43.76865694483258" lon="12.86593515887023"><ele>320.40000000000003</ele><time>2026-04-07T14:11:20Z</time></trkpt><trkpt lat="43.76859910538008" lon="12.865825409959815"><ele>319.8</ele><time>2026-04-07T14:11:21Z</time></trkpt><trkpt lat="43.76855460913318" lon="12.865714411241392"><ele>319.20000000000005</ele><time>2026-04-07T14:11:22Z</time></trkpt><trkpt lat="43.7685188926698" lon="12.865596618445176"><ele>318.6</ele><time>2026-04-07T14:11:23Z</time></trkpt><trkpt lat="43.7685006866788" lon="12.865462640211627"><ele>318.0</ele><time>2026-04-07T14:11:24Z</time></trkpt><trkpt lat="43.76849589306186" lon="12.865321110055088"><ele>318.0</ele><time>2026-04-07T14:11:25Z</time></trkpt><trkpt lat="43.76850302353724" lon="12.86516934472046"><ele>318.0</ele><time>2026-04-07T14:11:26Z</time></trkpt><trkpt lat="43.76851550905318" lon="12.865017155480535"><ele>318.0</ele><time>2026-04-07T14:11:27Z</time></trkpt><trkpt lat="43.768521536789116" lon="12.86486465154756"><ele>318.0</ele><time>2026-04-07T14:11:28Z</time></trkpt><trkpt lat="43.76853421319631" lon="12.86471792753268"><ele>318.0</ele><time>2026-04-07T14:11:29Z</time></trkpt><trkpt lat="43.7685505315201" lon="12.864582066464028"><ele>320.1666666666667</ele><time>2026-04-07T14:11:30Z</time></trkpt><trkpt lat="43.76856951001963" lon="12.864475916507502"><ele>322.3333333333333</ele><time>2026-04-07T14:11:31Z</time></trkpt><trkpt lat="43.76859452252924" lon="12.864386151570029"><ele>324.5</ele><time>2026-04-07T14:11:32Z</time></trkpt><trkpt lat="43.76864362594402" lon="12.864319758098437"><ele>326.66666666666663</ele><time>2026-04-07T14:11:33Z</time></trkpt><trkpt lat="43.76872554878534" lon="12.864282354221942"><ele>328.8333333333333</ele><time>2026-04-07T14:11:34Z</time></trkpt><trkpt lat="43.768820945749205" lon="12.86427805629801"><ele>331.0</ele><time>2026-04-07T14:11:35Z</time></trkpt><trkpt lat="43.76892003887167" lon="12.864305337238614"><ele>331.8</ele><time>2026-04-07T14:11:36Z</time></trkpt><trkpt lat="43.76902581201461" lon="12.864329596840626"><ele>332.6</ele><time>2026-04-07T14:11:37Z</time></trkpt><trkpt lat="43.76913402893307" lon="12.864346103371133"><ele>333.4</ele><time>2026-04-07T14:11:38Z</time></trkpt><trkpt lat="43.769243687706016" lon="12.864359556307333"><ele>334.2</ele><time>2026-04-07T14:11:39Z</time></trkpt><trkpt lat="43.76935052225262" lon="12.864361690903664"><ele>335.0</ele><time>2026-04-07T14:11:40Z</time></trkpt><trkpt lat="43.769454432115495" lon="12.864334090939806"><ele>336.8</ele><time>2026-04-07T14:11:41Z</time></trkpt><trkpt lat="43.76955925221888" lon="12.864295814149035"><ele>338.6</ele><time>2026-04-07T14:11:42Z</time></trkpt><trkpt lat="43.76966201529024" lon="12.864249639956716"><ele>340.4</ele><time>2026-04-07T14:11:43Z</time></trkpt><trkpt lat="43.76976307821372" lon="12.864194937085875"><ele>342.2</ele><time>2026-04-07T14:11:44Z</time></trkpt><trkpt lat="43.76985797891003" lon="12.864119009278223"><ele>344.0</ele><time>2026-04-07T14:11:45Z</time></trkpt><trkpt lat="43.769952520409184" lon="12.864033079644061"><ele>344.0</ele><time>2026-04-07T14:11:46Z</time></trkpt><trkpt lat="43.77004048316113" lon="12.863924634679213"><ele>344.0</ele><time>2026-04-07T14:11:47Z</time></trkpt><trkpt lat="43.77011918259423" lon="12.863807611586754"><ele>344.0</ele><time>2026-04-07T14:11:48Z</time></trkpt><trkpt lat="43.77018215754275" lon="12.863671170403057"><ele>344.0</ele><time>2026-04-07T14:11:49Z</time></trkpt><trkpt lat="43.7702355731671" lon="12.863532836962571"><ele>345.4</ele><time>2026-04-07T14:11:50Z</time></trkpt><trkpt lat="43.770287016134986" lon="12.863388484327658"><ele>346.79999999999995</ele><time>2026-04-07T14:11:51Z</time></trkpt><trkpt lat="43.77036279144889" lon="12.863273161386838"><ele>348.20000000000005</ele><time>2026-04-07T14:11:52Z</time></trkpt><trkpt lat="43.77043293948899" lon="12.863159160051104"><ele>349.6</ele><time>2026-04-07T14:11:53Z</time></trkpt><trkpt lat="43.770514893561526" lon="12.8630578680072"><ele>351.0</ele><time>2026-04-07T14:11:54Z</time></trkpt><trkpt lat="43.77060459710227" lon="12.862962735380208"><ele>351.0</ele><time>2026-04-07T14:11:55Z</time></trkpt><trkpt lat="43.77070359874287" lon="12.862898684459923"><ele>351.0</ele><time>2026-04-07T14:11:56Z</time></trkpt><trkpt lat="43.770812297079516" lon="12.862833620192982"><ele>351.0</ele><time>2026-04-07T14:11:57Z</time></trkpt><trkpt lat="43.770929502097395" lon="12.862822173125434"><ele>351.0</ele><time>2026-04-07T14:11:58Z</time></trkpt><trkpt lat="43.77105084354116" lon="12.862814548425387"><ele>350.75</ele><time>2026-04-07T14:11:59Z</time></trkpt><trkpt lat="43.771171421211896" lon="12.862779402501705"><ele>350.5</ele><time>2026-04-07T14:12:00Z</time></trkpt><trkpt lat="43.771286147586814" lon="12.862741599519513"><ele>350.25</ele><time>2026-04-07T14:12:01Z</time></trkpt><trkpt lat="43.77139932279736" lon="12.862670916420889"><ele>350.0</ele><time>2026-04-07T14:12:02Z</time></trkpt><trkpt lat="43.77150340369995" lon="12.862565249416011"><ele>350.0</ele><time>2026-04-07T14:12:03Z</time></trkpt><trkpt lat="43.77159971001528" lon="12.86244375616664"><ele>350.0</ele><time>2026-04-07T14:12:04Z</time></trkpt><trkpt lat="43.771695687696045" lon="12.862318330727046"><ele>350.0</ele><time>2026-04-07T14:12:05Z</time></trkpt><trkpt lat="43.77179432895014" lon="12.862201657337119"><ele>350.0</ele><time>2026-04-07T14:12:06Z</time></trkpt><trkpt lat="43.77187900936701" lon="12.862055420135453"><ele>350.25</ele><time>2026-04-07T14:12:07Z</time></trkpt><trkpt lat="43.77196685709712" lon="12.861913007695753"><ele>350.5</ele><time>2026-04-07T14:12:08Z</time></trkpt><trkpt lat="43.772056716391425" lon="12.861771061257386"><ele>350.75</ele><time>2026-04-07T14:12:09Z</time></trkpt><trkpt lat="43.772147683050775" lon="12.861632561742615"><ele>351.0</ele><time>2026-04-07T14:12:10Z</time></trkpt><trkpt lat="43.772237346033236" lon="12.861491979548681"><ele>351.0</ele><time>2026-04-07T14:12:11Z</time></trkpt><trkpt lat="43.772325299769086" lon="12.86134793263162"><ele>351.0</ele><time>2026-04-07T14:12:12Z</time></trkpt><trkpt lat="43.772412887753696" lon="12.8612141855629"><ele>351.0</ele><time>2026-04-07T14:12:13Z</time></trkpt><trkpt lat="43.77248999677728" lon="12.861071926913127"><ele>351.0</ele><time>2026-04-07T14:12:14Z</time></trkpt><trkpt lat="43.77256619118871" lon="12.860926827694083"><ele>349.25</ele><time>2026-04-07T14:12:15Z</time></trkpt><trkpt lat="43.772639706636504" lon="12.860778192233697"><ele>347.5</ele><time>2026-04-07T14:12:16Z</time></trkpt><trkpt lat="43.77270958298789" lon="12.860630242004"><ele>345.75</ele><time>2026-04-07T14:12:17Z</time></trkpt><trkpt lat="43.77277819874616" lon="12.860487538999642"><ele>344.0</ele><time>2026-04-07T14:12:18Z</time></trkpt><trkpt lat="43.77284069378074" lon="12.86034288701334"><ele>343.75</ele><time>2026-04-07T14:12:19Z</time></trkpt><trkpt lat="43.77289920579357" lon="12.860189465385123"><ele>343.5</ele><time>2026-04-07T14:12:20Z</time></trkpt><trkpt lat="43.77294777904213" lon="12.860021932242521"><ele>343.25</ele><time>2026-04-07T14:12:21Z</time></trkpt><trkpt lat="43.77298427917957" lon="12.859843525528401"><ele>343.0</ele><time>2026-04-07T14:12:22Z</time></trkpt><trkpt lat="43.77300053989599" lon="12.859654960753161"><ele>343.0</ele><time>2026-04-07T14:12:23Z</time></trkpt><trkpt lat="43.77300868704492" lon="12.859461591639198"><ele>343.0</ele><time>2026-04-07T14:12:24Z</time></trkpt><trkpt lat="43.77301415329384" lon="12.8592649764144"><ele>343.0</ele><time>2026-04-07T14:12:25Z</time></trkpt><trkpt lat="43.77302185314481" lon="12.859069099589355"><ele>343.0</ele><time>2026-04-07T14:12:26Z</time></trkpt><trkpt lat="43.773028591541156" lon="12.858878531077762"><ele>343.0</ele><time>2026-04-07T14:12:27Z</time></trkpt><trkpt lat="43.77303188468092" lon="12.858689019272841"><ele>343.0</ele><time>2026-04-07T14:12:28Z</time></trkpt><trkpt lat="43.77303543282846" lon="12.858514976430877"><ele>343.0</ele><time>2026-04-07T14:12:29Z</time></trkpt><trkpt lat="43.77304114044835" lon="12.858351772583196"><ele>343.0</ele><time>2026-04-07T14:12:30Z</time></trkpt><trkpt lat="43.77304933902674" lon="12.858181429919957"><ele>343.0</ele><time>2026-04-07T14:12:31Z</time></trkpt><trkpt lat="43.77305798453262" lon="12.858007764019156"><ele>343.0</ele><time>2026-04-07T14:12:32Z</time></trkpt><trkpt lat="43.77306515458659" lon="12.857841585597777"><ele>343.0</ele><time>2026-04-07T14:12:33Z</time></trkpt><trkpt lat="43.773069379770845" lon="12.85768298561214"><ele>343.0</ele><time>2026-04-07T14:12:34Z</time></trkpt><trkpt lat="43.77307514507028" lon="12.857520573352394"><ele>343.0</ele><time>2026-04-07T14:12:35Z</time></trkpt><trkpt lat="43.77309323963427" lon="12.85735957395675"><ele>343.0</ele><time>2026-04-07T14:12:36Z</time></trkpt><trkpt lat="43.77312099282567" lon="12.857193049678296"><ele>343.0</ele><time>2026-04-07T14:12:37Z</time></trkpt><trkpt lat="43.77315823599215" lon="12.857024982224843"><ele>343.0</ele><time>2026-04-07T14:12:38Z</time></trkpt><trkpt lat="43.77320308632172" lon="12.856867555759024"><ele>344.75</ele><time>2026-04-07T14:12:39Z</time></trkpt><trkpt lat="43.7732558831749" lon="12.856722462366255"><ele>346.5</ele><time>2026-04-07T14:12:40Z</time></trkpt><trkpt lat="43.77330525811758" lon="12.85658620297622"><ele>348.25</ele><time>2026-04-07T14:12:41Z</time></trkpt><trkpt lat="43.77335980533187" lon="12.85644544361835"><ele>350.0</ele><time>2026-04-07T14:12:42Z</time></trkpt><trkpt lat="43.77342336537122" lon="12.856312470871394"><ele>350.0</ele><time>2026-04-07T14:12:43Z</time></trkpt><trkpt lat="43.77350016909542" lon="12.856198139106615"><ele>350.0</ele><time>2026-04-07T14:12:44Z</time></trkpt><trkpt lat="43.7735894542574" lon="12.85609521107236"><ele>350.0</ele><time>2026-04-07T14:12:45Z</time></trkpt><trkpt lat="43.77368133521067" lon="12.855991649734932"><ele>350.0</ele><time>2026-04-07T14:12:46Z</time></trkpt><trkpt lat="43.7737812270855" lon="12.855902506218003"><ele>349.0</ele><time>2026-04-07T14:12:47Z</time></trkpt><trkpt lat="43.773872199398944" lon="12.855816544938902"><ele>348.0</ele><time>2026-04-07T14:12:48Z</time></trkpt><trkpt lat="43.77395898065707" lon="12.855729464436102"><ele>347.0</ele><time>2026-04-07T14:12:49Z</time></trkpt><trkpt lat="43.77404986206848" lon="12.855640369439781"><ele>346.0</ele><time>2026-04-07T14:12:50Z</time></trkpt><trkpt lat="43.774135406114034" lon="12.855562084931407"><ele>345.0</ele><time>2026-04-07T14:12:51Z</time></trkpt><trkpt lat="43.77424891483882" lon="12.855472801609993"><ele>343.75</ele><time>2026-04-07T14:12:52Z</time></trkpt><trkpt lat="43.77436116979842" lon="12.855384227374683"><ele>342.5</ele><time>2026-04-07T14:12:53Z</time></trkpt><trkpt lat="43.77448518538783" lon="12.855328122199772"><ele>341.25</ele><time>2026-04-07T14:12:54Z</time></trkpt><trkpt lat="43.77462169174427" lon="12.8553109660369"><ele>340.0</ele><time>2026-04-07T14:12:55Z</time></trkpt><trkpt lat="43.774739678614935" lon="12.855260903262648"><ele>340.0</ele><time>2026-04-07T14:12:56Z</time></trkpt><trkpt lat="43.77485986506614" lon="12.855239765078423"><ele>340.0</ele><time>2026-04-07T14:12:57Z</time></trkpt><trkpt lat="43.77498391667021" lon="12.85521678837467"><ele>340.0</ele><time>2026-04-07T14:12:58Z</time></trkpt><trkpt lat="43.775105561651344" lon="12.85518625590879"><ele>340.0</ele><time>2026-04-07T14:12:59Z</time></trkpt><trkpt lat="43.77522522019467" lon="12.855158402347081"><ele>341.5</ele><time>2026-04-07T14:13:00Z</time></trkpt><trkpt lat="43.775336023857776" lon="12.855119515540252"><ele>343.0</ele><time>2026-04-07T14:13:01Z</time></trkpt><trkpt lat="43.77545270624696" lon="12.85507823254958"><ele>344.5</ele><time>2026-04-07T14:13:02Z</time></trkpt><trkpt lat="43.775562951175395" lon="12.85502210981127"><ele>346.0</ele><time>2026-04-07T14:13:03Z</time></trkpt><trkpt lat="43.7756731373723" lon="12.854956357322344"><ele>346.0</ele><time>2026-04-07T14:13:04Z</time></trkpt><trkpt lat="43.77577965125422" lon="12.854874063967799"><ele>346.0</ele><time>2026-04-07T14:13:05Z</time></trkpt><trkpt lat="43.775885781315814" lon="12.85478449849533"><ele>346.0</ele><time>2026-04-07T14:13:06Z</time></trkpt><trkpt lat="43.77598624405272" lon="12.854691246697627"><ele>346.0</ele><time>2026-04-07T14:13:07Z</time></trkpt><trkpt lat="43.77608560420089" lon="12.854599432839455"><ele>346.4</ele><time>2026-04-07T14:13:08Z</time></trkpt><trkpt lat="43.77618179533593" lon="12.854529309230836"><ele>346.8</ele><time>2026-04-07T14:13:09Z</time></trkpt><trkpt lat="43.77629550847047" lon="12.854470546838597"><ele>347.2</ele><time>2026-04-07T14:13:10Z</time></trkpt><trkpt lat="43.77637196127699" lon="12.854371386314144"><ele>347.59999999999997</ele><time>2026-04-07T14:13:11Z</time></trkpt><trkpt lat="43.776462301816885" lon="12.854285399392658"><ele>348.0</ele><time>2026-04-07T14:13:12Z</time></trkpt><trkpt lat="43.77655702621427" lon="12.854201875788592"><ele>348.0</ele><time>2026-04-07T14:13:13Z</time></trkpt><trkpt lat="43.776652273464464" lon="12.854119358811927"><ele>348.0</ele><time>2026-04-07T14:13:14Z</time></trkpt><trkpt lat="43.776745762617395" lon="12.85403506969866"><ele>348.0</ele><time>2026-04-07T14:13:15Z</time></trkpt><trkpt lat="43.776840695401454" lon="12.85395370186828"><ele>348.0</ele><time>2026-04-07T14:13:16Z</time></trkpt><trkpt lat="43.77693435130751" lon="12.8538718861682"><ele>348.0</ele><time>2026-04-07T14:13:17Z</time></trkpt><trkpt lat="43.77702581480635" lon="12.85379334208093"><ele>348.0</ele><time>2026-04-07T14:13:18Z</time></trkpt><trkpt lat="43.77711553383044" lon="12.85370929414549"><ele>348.0</ele><time>2026-04-07T14:13:19Z</time></trkpt><trkpt lat="43.77720785780401" lon="12.853628921008582"><ele>348.0</ele><time>2026-04-07T14:13:20Z</time></trkpt><trkpt lat="43.77730093711571" lon="12.853544493388993"><ele>348.0</ele><time>2026-04-07T14:13:21Z</time></trkpt><trkpt lat="43.77739575512176" lon="12.853463428715324"><ele>348.0</ele><time>2026-04-07T14:13:22Z</time></trkpt><trkpt lat="43.777495081993024" lon="12.853377855045062"><ele>348.0</ele><time>2026-04-07T14:13:23Z</time></trkpt><trkpt lat="43.77759503454863" lon="12.853303114998763"><ele>348.0</ele><time>2026-04-07T14:13:24Z</time></trkpt><trkpt lat="43.777694683561606" lon="12.853214015036547"><ele>348.0</ele><time>2026-04-07T14:13:25Z</time></trkpt><trkpt lat="43.777792698410614" lon="12.853126082340966"><ele>348.0</ele><time>2026-04-07T14:13:26Z</time></trkpt><trkpt lat="43.777892588570445" lon="12.853034596343521"><ele>349.5</ele><time>2026-04-07T14:13:27Z</time></trkpt><trkpt lat="43.77797757596622" lon="12.852921282722702"><ele>351.0</ele><time>2026-04-07T14:13:28Z</time></trkpt><trkpt lat="43.77804271189815" lon="12.852785781620168"><ele>352.5</ele><time>2026-04-07T14:13:29Z</time></trkpt><trkpt lat="43.77807891626281" lon="12.852632872457379"><ele>354.0</ele><time>2026-04-07T14:13:30Z</time></trkpt><trkpt lat="43.77810266617484" lon="12.852481814181019"><ele>355.79999999999995</ele><time>2026-04-07T14:13:31Z</time></trkpt><trkpt lat="43.77812935077401" lon="12.852336034217407"><ele>357.59999999999997</ele><time>2026-04-07T14:13:32Z</time></trkpt><trkpt lat="43.77815461002495" lon="12.852191832725596"><ele>359.4</ele><time>2026-04-07T14:13:33Z</time></trkpt><trkpt lat="43.7781717360698" lon="12.852047114180115"><ele>361.2</ele><time>2026-04-07T14:13:34Z</time></trkpt><trkpt lat="43.77819099616926" lon="12.851911175154461"><ele>363.0</ele><time>2026-04-07T14:13:35Z</time></trkpt><trkpt lat="43.778219962531026" lon="12.851772872323092"><ele>363.1666666666667</ele><time>2026-04-07T14:13:36Z</time></trkpt><trkpt lat="43.778248786176" lon="12.851636143805532"><ele>363.3333333333333</ele><time>2026-04-07T14:13:37Z</time></trkpt><trkpt lat="43.77827958825295" lon="12.851513529040277"><ele>363.5</ele><time>2026-04-07T14:13:38Z</time></trkpt><trkpt lat="43.778312337898214" lon="12.851414663422885"><ele>363.66666666666663</ele><time>2026-04-07T14:13:39Z</time></trkpt><trkpt lat="43.77835332102939" lon="12.85134780466921"><ele>363.8333333333333</ele><time>2026-04-07T14:13:40Z</time></trkpt><trkpt lat="43.77846381827503" lon="12.851356713394695"><ele>364.0</ele><time>2026-04-07T14:13:42Z</time></trkpt><trkpt lat="43.778517887396504" lon="12.85142143080101"><ele>364.0</ele><time>2026-04-07T14:13:43Z</time></trkpt><trkpt lat="43.77853878247746" lon="12.851532125251207"><ele>364.0</ele><time>2026-04-07T14:13:44Z</time></trkpt><trkpt lat="43.77849804269874" lon="12.851644078127757"><ele>364.0</ele><time>2026-04-07T14:13:45Z</time></trkpt><trkpt lat="43.778478833488776" lon="12.851759713713745"><ele>364.0</ele><time>2026-04-07T14:13:46Z</time></trkpt><trkpt lat="43.77847758208211" lon="12.851875209807043"><ele>364.0</ele><time>2026-04-07T14:13:47Z</time></trkpt><trkpt lat="43.77847757147385" lon="12.85199317660899"><ele>364.0</ele><time>2026-04-07T14:13:48Z</time></trkpt><trkpt lat="43.778501733957185" lon="12.85211754152527"><ele>367.4</ele><time>2026-04-07T14:13:49Z</time></trkpt><trkpt lat="43.778546201641284" lon="12.852232868888182"><ele>370.79999999999995</ele><time>2026-04-07T14:13:50Z</time></trkpt><trkpt lat="43.77860370282406" lon="12.852341321983625"><ele>374.20000000000005</ele><time>2026-04-07T14:13:51Z</time></trkpt><trkpt lat="43.778693113947" lon="12.852414021927828"><ele>377.6</ele><time>2026-04-07T14:13:52Z</time></trkpt><trkpt lat="43.77878799131119" lon="12.85246367177677"><ele>381.0</ele><time>2026-04-07T14:13:53Z</time></trkpt><trkpt lat="43.778882225696904" lon="12.852513650261965"><ele>381.0</ele><time>2026-04-07T14:13:54Z</time></trkpt><trkpt lat="43.77897362731919" lon="12.852565547033654"><ele>381.0</ele><time>2026-04-07T14:13:55Z</time></trkpt><trkpt lat="43.77906074119919" lon="12.852625808044666"><ele>381.0</ele><time>2026-04-07T14:13:56Z</time></trkpt><trkpt lat="43.77914241587116" lon="12.85268985443467"><ele>381.0</ele><time>2026-04-07T14:13:57Z</time></trkpt><trkpt lat="43.77921798658752" lon="12.852755603912653"><ele>381.0</ele><time>2026-04-07T14:13:58Z</time></trkpt><trkpt lat="43.779288777363874" lon="12.852820737782073"><ele>382.6666666666667</ele><time>2026-04-07T14:13:59Z</time></trkpt><trkpt lat="43.77935910932502" lon="12.852889818656694"><ele>384.33333333333337</ele><time>2026-04-07T14:14:00Z</time></trkpt><trkpt lat="43.77941528096268" lon="12.852983190186892"><ele>386.0</ele><time>2026-04-07T14:14:01Z</time></trkpt><trkpt lat="43.77948780503496" lon="12.853048403782983"><ele>387.6666666666667</ele><time>2026-04-07T14:14:02Z</time></trkpt><trkpt lat="43.779547725494886" lon="12.853138521928122"><ele>389.33333333333337</ele><time>2026-04-07T14:14:03Z</time></trkpt><trkpt lat="43.77961614753027" lon="12.85321933522587"><ele>391.0</ele><time>2026-04-07T14:14:04Z</time></trkpt><trkpt lat="43.77968406533985" lon="12.853302374073015"><ele>391.0</ele><time>2026-04-07T14:14:05Z</time></trkpt><trkpt lat="43.779758046702725" lon="12.853385508175524"><ele>391.0</ele><time>2026-04-07T14:14:06Z</time></trkpt><trkpt lat="43.77983639680091" lon="12.853466880591315"><ele>391.0</ele><time>2026-04-07T14:14:07Z</time></trkpt><trkpt lat="43.779924225694415" lon="12.8535440976437"><ele>391.0</ele><time>2026-04-07T14:14:08Z</time></trkpt><trkpt lat="43.78001047661365" lon="12.85363111041687"><ele>391.0</ele><time>2026-04-07T14:14:09Z</time></trkpt><trkpt lat="43.78007941226579" lon="12.853746838002113"><ele>391.4</ele><time>2026-04-07T14:14:10Z</time></trkpt><trkpt lat="43.78014791979894" lon="12.853857915910533"><ele>391.8</ele><time>2026-04-07T14:14:11Z</time></trkpt><trkpt lat="43.78022771375566" lon="12.853965727500828"><ele>392.2</ele><time>2026-04-07T14:14:12Z</time></trkpt><trkpt lat="43.780297846631434" lon="12.854082811348087"><ele>392.59999999999997</ele><time>2026-04-07T14:14:13Z</time></trkpt><trkpt lat="43.780361581128794" lon="12.854207293482823"><ele>393.0</ele><time>2026-04-07T14:14:14Z</time></trkpt><trkpt lat="43.780438361913944" lon="12.854324403235637"><ele>393.0</ele><time>2026-04-07T14:14:15Z</time></trkpt><trkpt lat="43.78049813985629" lon="12.854442533123771"><ele>393.0</ele><time>2026-04-07T14:14:16Z</time></trkpt><trkpt lat="43.78056441368067" lon="12.85455301922965"><ele>393.0</ele><time>2026-04-07T14:14:17Z</time></trkpt><trkpt lat="43.78064092013442" lon="12.854646189686903"><ele>393.0</ele><time>2026-04-07T14:14:18Z</time></trkpt><trkpt lat="43.780731635919466" lon="12.854711818568186"><ele>393.0</ele><time>2026-04-07T14:14:19Z</time></trkpt><trkpt lat="43.780834352273" lon="12.85474473910021"><ele>393.0</ele><time>2026-04-07T14:14:20Z</time></trkpt><trkpt lat="43.780942125750954" lon="12.85478247498107"><ele>393.0</ele><time>2026-04-07T14:14:21Z</time></trkpt><trkpt lat="43.781038726448614" lon="12.854863821060347"><ele>393.0</ele><time>2026-04-07T14:14:22Z</time></trkpt><trkpt lat="43.7811445952454" lon="12.85493415337309"><ele>393.0</ele><time>2026-04-07T14:14:23Z</time></trkpt><trkpt lat="43.78123106116856" lon="12.855029012577726"><ele>395.2</ele><time>2026-04-07T14:14:24Z</time></trkpt><trkpt lat="43.781319995098094" lon="12.855107202326774"><ele>397.4</ele><time>2026-04-07T14:14:25Z</time></trkpt><trkpt lat="43.781417413573735" lon="12.855153752222058"><ele>399.59999999999997</ele><time>2026-04-07T14:14:26Z</time></trkpt><trkpt lat="43.781521348761366" lon="12.855164749152959"><ele>401.79999999999995</ele><time>2026-04-07T14:14:27Z</time></trkpt><trkpt lat="43.78162798691785" lon="12.855139515423998"><ele>404.0</ele><time>2026-04-07T14:14:28Z</time></trkpt><trkpt lat="43.781722319663274" lon="12.855090984881645"><ele>404.0</ele><time>2026-04-07T14:14:29Z</time></trkpt><trkpt lat="43.78180793074924" lon="12.855018897731304"><ele>404.0</ele><time>2026-04-07T14:14:30.001Z</time></trkpt><trkpt lat="43.78188168970231" lon="12.854919675279344"><ele>404.0</ele><time>2026-04-07T14:14:31.001Z</time></trkpt><trkpt lat="43.78194266493088" lon="12.854795999231008"><ele>404.0</ele><time>2026-04-07T14:14:32.001Z</time></trkpt><trkpt lat="43.781992814606355" lon="12.854664666861243"><ele>404.0</ele><time>2026-04-07T14:14:33.001Z</time></trkpt><trkpt lat="43.78204531905692" lon="12.854537853496765"><ele>402.6</ele><time>2026-04-07T14:14:34.001Z</time></trkpt><trkpt lat="43.782096004653056" lon="12.854418639071293"><ele>401.2</ele><time>2026-04-07T14:14:35.001Z</time></trkpt><trkpt lat="43.78214930411629" lon="12.854322319501708"><ele>399.8</ele><time>2026-04-07T14:14:36.001Z</time></trkpt><trkpt lat="43.782204967998354" lon="12.854232667548784"><ele>398.40000000000003</ele><time>2026-04-07T14:14:37.001Z</time></trkpt><trkpt lat="43.782277519784365" lon="12.854160058472791"><ele>397.0</ele><time>2026-04-07T14:14:38.001Z</time></trkpt><trkpt lat="43.782364124712515" lon="12.854109394306327"><ele>400.8</ele><time>2026-04-07T14:14:39.001Z</time></trkpt><trkpt lat="43.78245856062143" lon="12.85409116540485"><ele>404.6</ele><time>2026-04-07T14:14:40.001Z</time></trkpt><trkpt lat="43.78256141648378" lon="12.854096881233014"><ele>408.40000000000003</ele><time>2026-04-07T14:14:41.001Z</time></trkpt><trkpt lat="43.78265625577082" lon="12.854159554365456"><ele>412.20000000000005</ele><time>2026-04-07T14:14:42.001Z</time></trkpt><trkpt lat="43.782752449248406" lon="12.854220702923943"><ele>416.0</ele><time>2026-04-07T14:14:43.001Z</time></trkpt><trkpt lat="43.782850370271085" lon="12.854284571026598"><ele>415.4</ele><time>2026-04-07T14:14:44.001Z</time></trkpt><trkpt lat="43.78294751576437" lon="12.854332032725326"><ele>414.8</ele><time>2026-04-07T14:14:45.001Z</time></trkpt><trkpt lat="43.78302843369984" lon="12.85439055609603"><ele>414.2</ele><time>2026-04-07T14:14:46.001Z</time></trkpt><trkpt lat="43.78311027956043" lon="12.85445865897387"><ele>413.59999999999997</ele><time>2026-04-07T14:14:47.001Z</time></trkpt><trkpt lat="43.783196476024536" lon="12.854515811807834"><ele>413.0</ele><time>2026-04-07T14:14:48.001Z</time></trkpt><trkpt lat="43.78328598438339" lon="12.854579249891522"><ele>413.0</ele><time>2026-04-07T14:14:49.001Z</time></trkpt><trkpt lat="43.78336091404144" lon="12.854672322816052"><ele>413.0</ele><time>2026-04-07T14:14:50.001Z</time></trkpt><trkpt lat="43.78342925144863" lon="12.85476885216504"><ele>413.0</ele><time>2026-04-07T14:14:51.001Z</time></trkpt><trkpt lat="43.78348277297882" lon="12.854876863597756"><ele>413.0</ele><time>2026-04-07T14:14:52.001Z</time></trkpt><trkpt lat="43.78353400736015" lon="12.85499257992767"><ele>413.0</ele><time>2026-04-07T14:14:53.001Z</time></trkpt><trkpt lat="43.783596262499145" lon="12.855103525284239"><ele>413.0</ele><time>2026-04-07T14:14:54.001Z</time></trkpt><trkpt lat="43.783645161555235" lon="12.85523641662751"><ele>413.0</ele><time>2026-04-07T14:14:55.001Z</time></trkpt><trkpt lat="43.78369009579551" lon="12.855379263431312"><ele>413.0</ele><time>2026-04-07T14:14:56.001Z</time></trkpt><trkpt lat="43.783733144060214" lon="12.855510828385416"><ele>413.0</ele><time>2026-04-07T14:14:57.001Z</time></trkpt><trkpt lat="43.783779839039724" lon="12.855621131057294"><ele>413.0</ele><time>2026-04-07T14:14:58.001Z</time></trkpt><trkpt lat="43.783832787408194" lon="12.855717073270215"><ele>413.0</ele><time>2026-04-07T14:14:59.001Z</time></trkpt><trkpt lat="43.7838898257755" lon="12.855804270787063"><ele>413.0</ele><time>2026-04-07T14:15:00.001Z</time></trkpt><trkpt lat="43.783987835593145" lon="12.855834360414743"><ele>413.0</ele><time>2026-04-07T14:15:01.001Z</time></trkpt><trkpt lat="43.78409325895844" lon="12.855855251722222"><ele>413.0</ele><time>2026-04-07T14:15:02.001Z</time></trkpt><trkpt lat="43.784200192374975" lon="12.855846519599423"><ele>413.0</ele><time>2026-04-07T14:15:03.001Z</time></trkpt><trkpt lat="43.78429705398423" lon="12.8558035887004"><ele>413.2</ele><time>2026-04-07T14:15:04.001Z</time></trkpt><trkpt lat="43.784384707331704" lon="12.85575451992231"><ele>413.4</ele><time>2026-04-07T14:15:05.001Z</time></trkpt><trkpt lat="43.784478381483396" lon="12.855715294075102"><ele>413.59999999999997</ele><time>2026-04-07T14:15:06.001Z</time></trkpt><trkpt lat="43.78456806400267" lon="12.855691577481753"><ele>413.79999999999995</ele><time>2026-04-07T14:15:07Z</time></trkpt><trkpt lat="43.784657965588295" lon="12.855688288633713"><ele>414.0</ele><time>2026-04-07T14:15:08.001Z</time></trkpt><trkpt lat="43.78475384834007" lon="12.855728778931248"><ele>414.0</ele><time>2026-04-07T14:15:09.001Z</time></trkpt><trkpt lat="43.784834162238" lon="12.855841124941666"><ele>414.0</ele><time>2026-04-07T14:15:10.001Z</time></trkpt><trkpt lat="43.78492299741971" lon="12.855941893261816"><ele>414.0</ele><time>2026-04-07T14:15:11.001Z</time></trkpt><trkpt lat="43.78499804291313" lon="12.856058706593002"><ele>414.0</ele><time>2026-04-07T14:15:12.001Z</time></trkpt><trkpt lat="43.7850577856884" lon="12.856184432252414"><ele>411.2</ele><time>2026-04-07T14:15:13.001Z</time></trkpt><trkpt lat="43.78511615859991" lon="12.856310231230774"><ele>408.4</ele><time>2026-04-07T14:15:14.001Z</time></trkpt><trkpt lat="43.78518689805394" lon="12.856422904394584"><ele>405.6</ele><time>2026-04-07T14:15:15.001Z</time></trkpt><trkpt lat="43.7852496954941" lon="12.856535257436926"><ele>402.8</ele><time>2026-04-07T14:15:16Z</time></trkpt><trkpt lat="43.7853259612781" lon="12.856615599051562"><ele>400.0</ele><time>2026-04-07T14:15:17Z</time></trkpt><trkpt lat="43.78540397575951" lon="12.85669820785183"><ele>400.0</ele><time>2026-04-07T14:15:18Z</time></trkpt><trkpt lat="43.78548437651567" lon="12.856779594673382"><ele>400.0</ele><time>2026-04-07T14:15:19Z</time></trkpt><trkpt lat="43.785575011687946" lon="12.856866207520097"><ele>400.0</ele><time>2026-04-07T14:15:20Z</time></trkpt><trkpt lat="43.78567048378021" lon="12.856940796922567"><ele>400.0</ele><time>2026-04-07T14:15:21Z</time></trkpt><trkpt lat="43.785772933919816" lon="12.856995300729611"><ele>400.0</ele><time>2026-04-07T14:15:22Z</time></trkpt><trkpt lat="43.785885240898" lon="12.857041941358995"><ele>396.2</ele><time>2026-04-07T14:15:23Z</time></trkpt><trkpt lat="43.78600068709695" lon="12.857084727834346"><ele>392.4</ele><time>2026-04-07T14:15:24Z</time></trkpt><trkpt lat="43.78610768600243" lon="12.85713643483896"><ele>388.6</ele><time>2026-04-07T14:15:25Z</time></trkpt><trkpt lat="43.78619944289533" lon="12.857177240609728"><ele>384.8</ele><time>2026-04-07T14:15:26Z</time></trkpt><trkpt lat="43.786280211691434" lon="12.857205951122681"><ele>381.0</ele><time>2026-04-07T14:15:27Z</time></trkpt><trkpt lat="43.78635002516571" lon="12.857216877277601"><ele>381.0</ele><time>2026-04-07T14:15:28Z</time></trkpt><trkpt lat="43.78642094529261" lon="12.857213581700178"><ele>381.0</ele><time>2026-04-07T14:15:29Z</time></trkpt><trkpt lat="43.78656104615158" lon="12.857123514825748"><ele>381.0</ele><time>2026-04-07T14:15:31Z</time></trkpt><trkpt lat="43.786618187889786" lon="12.857072810358506"><ele>381.0</ele><time>2026-04-07T14:15:32Z</time></trkpt><trkpt lat="43.78671960604842" lon="12.857000880128895"><ele>381.0</ele><time>2026-04-07T14:15:34Z</time></trkpt><trkpt lat="43.78684177543359" lon="12.857048507791939"><ele>377.8333333333333</ele><time>2026-04-07T14:15:36Z</time></trkpt><trkpt lat="43.78689347867827" lon="12.857134236768857"><ele>374.6666666666667</ele><time>2026-04-07T14:15:37Z</time></trkpt><trkpt lat="43.78689606276516" lon="12.857266377667246"><ele>371.5</ele><time>2026-04-07T14:15:38Z</time></trkpt><trkpt lat="43.78690357236655" lon="12.857394813583012"><ele>368.33333333333337</ele><time>2026-04-07T14:15:39Z</time></trkpt><trkpt lat="43.78691565858001" lon="12.85751799580422"><ele>365.1666666666667</ele><time>2026-04-07T14:15:40Z</time></trkpt><trkpt lat="43.78691807663704" lon="12.857638107133909"><ele>362.0</ele><time>2026-04-07T14:15:41Z</time></trkpt><trkpt lat="43.78690091553993" lon="12.857747768588823"><ele>361.6666666666667</ele><time>2026-04-07T14:15:42Z</time></trkpt><trkpt lat="43.78686734841815" lon="12.857848156417806"><ele>361.33333333333337</ele><time>2026-04-07T14:15:43Z</time></trkpt><trkpt lat="43.78681262515311" lon="12.857943369710835"><ele>361.0</ele><time>2026-04-07T14:15:44Z</time></trkpt><trkpt lat="43.78675137349481" lon="12.858051624993015"><ele>360.6666666666667</ele><time>2026-04-07T14:15:45Z</time></trkpt><trkpt lat="43.78670057426357" lon="12.85813184614618"><ele>360.3333333333333</ele><time>2026-04-07T14:15:46Z</time></trkpt><trkpt lat="43.78663884784723" lon="12.858171597830937"><ele>360.0</ele><time>2026-04-07T14:15:47Z</time></trkpt><trkpt lat="43.786572362418816" lon="12.85817671701154"><ele>361.6666666666667</ele><time>2026-04-07T14:15:48Z</time></trkpt><trkpt lat="43.78650061637759" lon="12.858153474605011"><ele>363.3333333333333</ele><time>2026-04-07T14:15:49Z</time></trkpt><trkpt lat="43.7864307139003" lon="12.85810692927125"><ele>365.0</ele><time>2026-04-07T14:15:50Z</time></trkpt><trkpt lat="43.78634391709966" lon="12.858063195662705"><ele>366.66666666666663</ele><time>2026-04-07T14:15:52Z</time></trkpt><trkpt lat="43.78627278484341" lon="12.858119317711319"><ele>368.3333333333333</ele><time>2026-04-07T14:15:54Z</time></trkpt><trkpt lat="43.786283750928966" lon="12.858261917293238"><ele>370.0</ele><time>2026-04-07T14:15:56.001Z</time></trkpt><trkpt lat="43.786350771468776" lon="12.858332668295406"><ele>370.0</ele><time>2026-04-07T14:15:57.001Z</time></trkpt><trkpt lat="43.78641614408366" lon="12.858383424922701"><ele>370.0</ele><time>2026-04-07T14:15:58.001Z</time></trkpt><trkpt lat="43.78649595697111" lon="12.858441069972255"><ele>370.0</ele><time>2026-04-07T14:15:59.001Z</time></trkpt><trkpt lat="43.786560542787235" lon="12.858522517824488"><ele>370.0</ele><time>2026-04-07T14:16:00.001Z</time></trkpt><trkpt lat="43.7866303876006" lon="12.858609978782413"><ele>370.0</ele><time>2026-04-07T14:16:01.001Z</time></trkpt><trkpt lat="43.78668589702198" lon="12.858713844099476"><ele>370.0</ele><time>2026-04-07T14:16:02.001Z</time></trkpt><trkpt lat="43.78672331858649" lon="12.858832213039491"><ele>368.0</ele><time>2026-04-07T14:16:03.001Z</time></trkpt><trkpt lat="43.78677361946316" lon="12.858954260657587"><ele>366.0</ele><time>2026-04-07T14:16:04.001Z</time></trkpt><trkpt lat="43.78682148401127" lon="12.859074906991731"><ele>364.0</ele><time>2026-04-07T14:16:05.001Z</time></trkpt><trkpt lat="43.78687369259681" lon="12.8591874991561"><ele>362.0</ele><time>2026-04-07T14:16:06.001Z</time></trkpt><trkpt lat="43.786937741735386" lon="12.859276417905757"><ele>360.0</ele><time>2026-04-07T14:16:07.001Z</time></trkpt><trkpt lat="43.787025652405426" lon="12.859308829268425"><ele>358.3333333333333</ele><time>2026-04-07T14:16:08.001Z</time></trkpt><trkpt lat="43.78709945915704" lon="12.859343884467998"><ele>356.6666666666667</ele><time>2026-04-07T14:16:09.001Z</time></trkpt><trkpt lat="43.787176860994016" lon="12.85937206248857"><ele>355.0</ele><time>2026-04-07T14:16:10.001Z</time></trkpt><trkpt lat="43.78725664579668" lon="12.859393439700467"><ele>353.33333333333337</ele><time>2026-04-07T14:16:11.001Z</time></trkpt><trkpt lat="43.7873341291648" lon="12.859411956229556"><ele>351.6666666666667</ele><time>2026-04-07T14:16:12.001Z</time></trkpt><trkpt lat="43.78740007248391" lon="12.859418043670395"><ele>350.0</ele><time>2026-04-07T14:16:13.001Z</time></trkpt><trkpt lat="43.78750310745274" lon="12.859396767123886"><ele>350.0</ele><time>2026-04-07T14:16:15.001Z</time></trkpt><trkpt lat="43.78759434391348" lon="12.859342823492788"><ele>350.0</ele><time>2026-04-07T14:16:17.001Z</time></trkpt><trkpt lat="43.78770375266655" lon="12.859372372417399"><ele>350.0</ele><time>2026-04-07T14:16:19.001Z</time></trkpt><trkpt lat="43.787765790240705" lon="12.859425268846307"><ele>350.0</ele><time>2026-04-07T14:16:20.001Z</time></trkpt><trkpt lat="43.787838934156376" lon="12.85947444286113"><ele>350.0</ele><time>2026-04-07T14:16:21.001Z</time></trkpt><trkpt lat="43.7879182035167" lon="12.85952904292057"><ele>352.8</ele><time>2026-04-07T14:16:22.001Z</time></trkpt><trkpt lat="43.78800613154594" lon="12.859586740383161"><ele>355.6</ele><time>2026-04-07T14:16:23.001Z</time></trkpt><trkpt lat="43.788099099922135" lon="12.859641874253619"><ele>358.4</ele><time>2026-04-07T14:16:24.001Z</time></trkpt><trkpt lat="43.78819384377433" lon="12.859699211506557"><ele>361.2</ele><time>2026-04-07T14:16:25.001Z</time></trkpt><trkpt lat="43.78828026053468" lon="12.85976770890959"><ele>364.0</ele><time>2026-04-07T14:16:26.001Z</time></trkpt><trkpt lat="43.788354318298126" lon="12.85983227625809"><ele>364.0</ele><time>2026-04-07T14:16:27.001Z</time></trkpt><trkpt lat="43.78841878291966" lon="12.859886625995147"><ele>364.0</ele><time>2026-04-07T14:16:28.001Z</time></trkpt><trkpt lat="43.78852385296723" lon="12.859930750234891"><ele>364.0</ele><time>2026-04-07T14:16:30.001Z</time></trkpt><trkpt lat="43.78863602472465" lon="12.85985468256331"><ele>364.0</ele><time>2026-04-07T14:16:32.001Z</time></trkpt><trkpt lat="43.78869210105315" lon="12.859793630351083"><ele>364.0</ele><time>2026-04-07T14:16:33.001Z</time></trkpt><trkpt lat="43.78876999007498" lon="12.859740659550774"><ele>367.2</ele><time>2026-04-07T14:16:34.001Z</time></trkpt><trkpt lat="43.7888596587183" lon="12.85970049950409"><ele>370.4</ele><time>2026-04-07T14:16:35.001Z</time></trkpt><trkpt lat="43.78895493867229" lon="12.859662603785038"><ele>373.6</ele><time>2026-04-07T14:16:36.001Z</time></trkpt><trkpt lat="43.789062765036086" lon="12.859631461386064"><ele>376.8</ele><time>2026-04-07T14:16:37.001Z</time></trkpt><trkpt lat="43.78917762542503" lon="12.859605422922042"><ele>380.0</ele><time>2026-04-07T14:16:38.001Z</time></trkpt><trkpt lat="43.789295026420724" lon="12.859579728704755"><ele>380.75</ele><time>2026-04-07T14:16:39.001Z</time></trkpt><trkpt lat="43.78941735442018" lon="12.859569037907006"><ele>381.5</ele><time>2026-04-07T14:16:40.001Z</time></trkpt><trkpt lat="43.78953455955823" lon="12.859566391138266"><ele>382.25</ele><time>2026-04-07T14:16:41.001Z</time></trkpt><trkpt lat="43.789642069622055" lon="12.859568519521332"><ele>383.0</ele><time>2026-04-07T14:16:42.001Z</time></trkpt><trkpt lat="43.78974435775517" lon="12.859569608767128"><ele>383.0</ele><time>2026-04-07T14:16:43.001Z</time></trkpt><trkpt lat="43.78983742568051" lon="12.859563238314893"><ele>383.0</ele><time>2026-04-07T14:16:44.001Z</time></trkpt><trkpt lat="43.78993778298551" lon="12.859569796025994"><ele>383.0</ele><time>2026-04-07T14:16:45.001Z</time></trkpt><trkpt lat="43.79004097166586" lon="12.859564855580725"><ele>383.0</ele><time>2026-04-07T14:16:46.001Z</time></trkpt><trkpt lat="43.790144340685245" lon="12.859601666603698"><ele>383.0</ele><time>2026-04-07T14:16:47.001Z</time></trkpt><trkpt lat="43.79023874123333" lon="12.859623095859986"><ele>378.79999999999995</ele><time>2026-04-07T14:16:48.001Z</time></trkpt><trkpt lat="43.790328093309505" lon="12.859650606567516"><ele>374.6</ele><time>2026-04-07T14:16:49.001Z</time></trkpt><trkpt lat="43.79041890347651" lon="12.85968539014514"><ele>370.4</ele><time>2026-04-07T14:16:50.001Z</time></trkpt><trkpt lat="43.79050569087496" lon="12.859734076628389"><ele>366.20000000000005</ele><time>2026-04-07T14:16:51.001Z</time></trkpt><trkpt lat="43.790585259488" lon="12.859796655384486"><ele>362.0</ele><time>2026-04-07T14:16:52.001Z</time></trkpt><trkpt lat="43.790654812234486" lon="12.859873665245116"><ele>362.0</ele><time>2026-04-07T14:16:53.001Z</time></trkpt><trkpt lat="43.79072585249572" lon="12.859964869930572"><ele>362.0</ele><time>2026-04-07T14:16:54.001Z</time></trkpt><trkpt lat="43.79080217779998" lon="12.860062695346747"><ele>362.0</ele><time>2026-04-07T14:16:55.001Z</time></trkpt><trkpt lat="43.790893596408374" lon="12.860163525887359"><ele>362.0</ele><time>2026-04-07T14:16:56.001Z</time></trkpt><trkpt lat="43.7909796704327" lon="12.86029691924836"><ele>362.0</ele><time>2026-04-07T14:16:57.001Z</time></trkpt><trkpt lat="43.79107547761017" lon="12.86042175470109"><ele>357.75</ele><time>2026-04-07T14:16:58.001Z</time></trkpt><trkpt lat="43.79116885584426" lon="12.860543425387503"><ele>353.5</ele><time>2026-04-07T14:16:59.001Z</time></trkpt><trkpt lat="43.79126151069231" lon="12.860661888436937"><ele>349.25</ele><time>2026-04-07T14:17:00.001Z</time></trkpt><trkpt lat="43.79135702804954" lon="12.860770826127924"><ele>345.0</ele><time>2026-04-07T14:17:01.001Z</time></trkpt><trkpt lat="43.79147692465259" lon="12.860840408352216"><ele>345.0</ele><time>2026-04-07T14:17:02.001Z</time></trkpt><trkpt lat="43.79158513343795" lon="12.860939966665395"><ele>345.0</ele><time>2026-04-07T14:17:03.001Z</time></trkpt><trkpt lat="43.791700042986044" lon="12.860999661540237"><ele>345.0</ele><time>2026-04-07T14:17:04.001Z</time></trkpt><trkpt lat="43.79181797820048" lon="12.861037757225604"><ele>345.0</ele><time>2026-04-07T14:17:05.001Z</time></trkpt><trkpt lat="43.79193860720799" lon="12.861096068597613"><ele>343.5</ele><time>2026-04-07T14:17:06.001Z</time></trkpt><trkpt lat="43.79206612294183" lon="12.861146238625405"><ele>342.0</ele><time>2026-04-07T14:17:07.001Z</time></trkpt><trkpt lat="43.792186880404934" lon="12.861207904608088"><ele>340.5</ele><time>2026-04-07T14:17:08.001Z</time></trkpt><trkpt lat="43.792286296555936" lon="12.861289619923301"><ele>339.0</ele><time>2026-04-07T14:17:09.001Z</time></trkpt><trkpt lat="43.79238264009559" lon="12.861351315756316"><ele>339.0</ele><time>2026-04-07T14:17:10.001Z</time></trkpt><trkpt lat="43.79247593326863" lon="12.861412843758275"><ele>339.0</ele><time>2026-04-07T14:17:11.001Z</time></trkpt><trkpt lat="43.79257117956024" lon="12.861481723044585"><ele>339.0</ele><time>2026-04-07T14:17:12.001Z</time></trkpt><trkpt lat="43.792667590349254" lon="12.861558370263637"><ele>339.0</ele><time>2026-04-07T14:17:13.001Z</time></trkpt><trkpt lat="43.79274984155638" lon="12.861631547894978"><ele>339.0</ele><time>2026-04-07T14:17:14.001Z</time></trkpt><trkpt lat="43.792820011229075" lon="12.86170513160076"><ele>337.5</ele><time>2026-04-07T14:17:15.001Z</time></trkpt><trkpt lat="43.79288764420304" lon="12.86177362679959"><ele>336.0</ele><time>2026-04-07T14:17:16.001Z</time></trkpt><trkpt lat="43.79295214520952" lon="12.861837340991507"><ele>334.5</ele><time>2026-04-07T14:17:17.001Z</time></trkpt><trkpt lat="43.79301759231958" lon="12.861874430038856"><ele>333.0</ele><time>2026-04-07T14:17:18.001Z</time></trkpt><trkpt lat="43.793070247811414" lon="12.861954002679022"><ele>331.5</ele><time>2026-04-07T14:17:19.001Z</time></trkpt><trkpt lat="43.79313346270189" lon="12.862015981403863"><ele>330.0</ele><time>2026-04-07T14:17:20.001Z</time></trkpt><trkpt lat="43.7931951903001" lon="12.862075168552343"><ele>329.3333333333333</ele><time>2026-04-07T14:17:21.001Z</time></trkpt><trkpt lat="43.79326200765844" lon="12.86213958088353"><ele>328.6666666666667</ele><time>2026-04-07T14:17:22.001Z</time></trkpt><trkpt lat="43.793325793628846" lon="12.862204295404375"><ele>328.0</ele><time>2026-04-07T14:17:23.001Z</time></trkpt><trkpt lat="43.79338575108806" lon="12.862266650635405"><ele>327.33333333333337</ele><time>2026-04-07T14:17:24.001Z</time></trkpt><trkpt lat="43.79344000981294" lon="12.86232716829212"><ele>326.6666666666667</ele><time>2026-04-07T14:17:25.001Z</time></trkpt><trkpt lat="43.79349632235914" lon="12.862371119645948"><ele>326.0</ele><time>2026-04-07T14:17:26.001Z</time></trkpt><trkpt lat="43.793516992013956" lon="12.862527496484091"><ele>324.0</ele><time>2026-04-07T14:17:28.001Z</time></trkpt><trkpt lat="43.79346607945316" lon="12.862665710282688"><ele>322.0</ele><time>2026-04-07T14:17:30.001Z</time></trkpt><trkpt lat="43.793440732159375" lon="12.862769498507314"><ele>320.0</ele><time>2026-04-07T14:17:32.001Z</time></trkpt><trkpt lat="43.793444729959624" lon="12.862902824450696"><ele>318.0</ele><time>2026-04-07T14:17:34.001Z</time></trkpt><trkpt lat="43.793512112261816" lon="12.862951235761479"><ele>316.0</ele><time>2026-04-07T14:17:35.001Z</time></trkpt><trkpt lat="43.79357974418409" lon="12.86300355923794"><ele>314.0</ele><time>2026-04-07T14:17:36.001Z</time></trkpt><trkpt lat="43.7936620492046" lon="12.863061972380844"><ele>314.0</ele><time>2026-04-07T14:17:37.001Z</time></trkpt><trkpt lat="43.79374289597642" lon="12.863123491125283"><ele>314.0</ele><time>2026-04-07T14:17:38.001Z</time></trkpt><trkpt lat="43.79383555040228" lon="12.863195277628389"><ele>314.0</ele><time>2026-04-07T14:17:39.001Z</time></trkpt><trkpt lat="43.79392641711871" lon="12.86327386151675"><ele>314.0</ele><time>2026-04-07T14:17:40.001Z</time></trkpt><trkpt lat="43.79402635328269" lon="12.863352370610741"><ele>314.0</ele><time>2026-04-07T14:17:41.001Z</time></trkpt><trkpt lat="43.79412086390634" lon="12.863435791671717"><ele>309.0</ele><time>2026-04-07T14:17:42.001Z</time></trkpt><trkpt lat="43.79421444748371" lon="12.863508169413008"><ele>304.0</ele><time>2026-04-07T14:17:43.001Z</time></trkpt><trkpt lat="43.79430488546621" lon="12.86358388738157"><ele>299.0</ele><time>2026-04-07T14:17:44.001Z</time></trkpt><trkpt lat="43.79438971511005" lon="12.863649208886201"><ele>294.0</ele><time>2026-04-07T14:17:45.001Z</time></trkpt><trkpt lat="43.79447232777601" lon="12.863706418946505"><ele>289.0</ele><time>2026-04-07T14:17:46.001Z</time></trkpt><trkpt lat="43.79455184308467" lon="12.863740570176537"><ele>288.3333333333333</ele><time>2026-04-07T14:17:47.001Z</time></trkpt><trkpt lat="43.79463359141594" lon="12.863754650377706"><ele>287.66666666666663</ele><time>2026-04-07T14:17:48.001Z</time></trkpt><trkpt lat="43.79471983480094" lon="12.863757605156778"><ele>287.0</ele><time>2026-04-07T14:17:49.001Z</time></trkpt><trkpt lat="43.79480891869132" lon="12.863732703566615"><ele>286.3333333333333</ele><time>2026-04-07T14:17:50.001Z</time></trkpt><trkpt lat="43.794892173401344" lon="12.863690346249976"><ele>285.6666666666667</ele><time>2026-04-07T14:17:51.001Z</time></trkpt><trkpt lat="43.794970154539804" lon="12.863646607662112"><ele>285.0</ele><time>2026-04-07T14:17:52.001Z</time></trkpt><trkpt lat="43.795043424981415" lon="12.863596698527957"><ele>285.0</ele><time>2026-04-07T14:17:53.001Z</time></trkpt><trkpt lat="43.79510965290998" lon="12.863542129125824"><ele>285.0</ele><time>2026-04-07T14:17:54.001Z</time></trkpt><trkpt lat="43.79516467538231" lon="12.863487594280075"><ele>285.0</ele><time>2026-04-07T14:17:55.001Z</time></trkpt><trkpt lat="43.79523688639031" lon="12.863367829519214"><ele>285.0</ele><time>2026-04-07T14:17:57.001Z</time></trkpt><trkpt lat="43.79528932441947" lon="12.863234372498377"><ele>285.0</ele><time>2026-04-07T14:17:59.001Z</time></trkpt><trkpt lat="43.79530773905717" lon="12.863100379778581"><ele>283.2857142857143</ele><time>2026-04-07T14:18:01.001Z</time></trkpt><trkpt lat="43.795300313594616" lon="12.863004795870237"><ele>281.57142857142856</ele><time>2026-04-07T14:18:03.001Z</time></trkpt><trkpt lat="43.79533739627468" lon="12.8628908527054"><ele>279.8571428571429</ele><time>2026-04-07T14:18:06.001Z</time></trkpt><trkpt lat="43.79540604923534" lon="12.862916821543362"><ele>278.1428571428571</ele><time>2026-04-07T14:18:08.001Z</time></trkpt><trkpt lat="43.79540967445745" lon="12.863012782442196"><ele>276.42857142857144</ele><time>2026-04-07T14:18:09.001Z</time></trkpt><trkpt lat="43.79541547282177" lon="12.863104919327574"><ele>274.7142857142857</ele><time>2026-04-07T14:18:10.001Z</time></trkpt><trkpt lat="43.79541216061053" lon="12.86319969782991"><ele>273.0</ele><time>2026-04-07T14:18:11.001Z</time></trkpt><trkpt lat="43.795408747865075" lon="12.863299880138317"><ele>273.0</ele><time>2026-04-07T14:18:12.001Z</time></trkpt><trkpt lat="43.795402097970594" lon="12.863417045959077"><ele>273.0</ele><time>2026-04-07T14:18:13.001Z</time></trkpt><trkpt lat="43.79538871591777" lon="12.8635304644991"><ele>273.0</ele><time>2026-04-07T14:18:14.001Z</time></trkpt><trkpt lat="43.7953732504685" lon="12.863649551086626"><ele>273.0</ele><time>2026-04-07T14:18:15.001Z</time></trkpt><trkpt lat="43.7953497927644" lon="12.863767108120463"><ele>273.0</ele><time>2026-04-07T14:18:16.001Z</time></trkpt><trkpt lat="43.79531461634192" lon="12.863886465614575"><ele>273.0</ele><time>2026-04-07T14:18:17.001Z</time></trkpt><trkpt lat="43.795265736922424" lon="12.864000724777048"><ele>272.3333333333333</ele><time>2026-04-07T14:18:18.001Z</time></trkpt><trkpt lat="43.795202800551365" lon="12.864111287038781"><ele>271.6666666666667</ele><time>2026-04-07T14:18:19.001Z</time></trkpt><trkpt lat="43.795130933982115" lon="12.864206182055984"><ele>271.0</ele><time>2026-04-07T14:18:20.001Z</time></trkpt><trkpt lat="43.795073326050804" lon="12.864267629214472"><ele>270.33333333333337</ele><time>2026-04-07T14:18:21.001Z</time></trkpt><trkpt lat="43.79501638920603" lon="12.86431417512509"><ele>269.6666666666667</ele><time>2026-04-07T14:18:22.001Z</time></trkpt><trkpt lat="43.794941079309986" lon="12.864392293125661"><ele>269.0</ele><time>2026-04-07T14:18:24.001Z</time></trkpt><trkpt lat="43.7949675084611" lon="12.864539355740659"><ele>267.4</ele><time>2026-04-07T14:18:26.001Z</time></trkpt><trkpt lat="43.795028744265124" lon="12.864595739489236"><ele>265.79999999999995</ele><time>2026-04-07T14:18:27.001Z</time></trkpt><trkpt lat="43.7951203153563" lon="12.864613722074894"><ele>264.20000000000005</ele><time>2026-04-07T14:18:28.001Z</time></trkpt><trkpt lat="43.79521424688993" lon="12.864628029963459"><ele>262.6</ele><time>2026-04-07T14:18:29.001Z</time></trkpt><trkpt lat="43.795315067181924" lon="12.864637210652738"><ele>261.0</ele><time>2026-04-07T14:18:30.001Z</time></trkpt><trkpt lat="43.79541306376072" lon="12.864640115653788"><ele>260.6666666666667</ele><time>2026-04-07T14:18:31.001Z</time></trkpt><trkpt lat="43.79550842516872" lon="12.864625760168924"><ele>260.3333333333333</ele><time>2026-04-07T14:18:32.001Z</time></trkpt><trkpt lat="43.7955976197951" lon="12.864586332666237"><ele>260.0</ele><time>2026-04-07T14:18:33.001Z</time></trkpt><trkpt lat="43.795678255890344" lon="12.864532467299389"><ele>259.66666666666663</ele><time>2026-04-07T14:18:34.001Z</time></trkpt><trkpt lat="43.79575219441267" lon="12.864479645546835"><ele>259.3333333333333</ele><time>2026-04-07T14:18:35.001Z</time></trkpt><trkpt lat="43.79580361855892" lon="12.864412843378243"><ele>259.0</ele><time>2026-04-07T14:18:36.001Z</time></trkpt><trkpt lat="43.79584712159513" lon="12.864342112316685"><ele>260.66666666666663</ele><time>2026-04-07T14:18:37.001Z</time></trkpt><trkpt lat="43.79587350168312" lon="12.864185640244552"><ele>262.3333333333333</ele><time>2026-04-07T14:18:39.001Z</time></trkpt><trkpt lat="43.79587345336199" lon="12.864097734579461"><ele>264.0</ele><time>2026-04-07T14:18:40.001Z</time></trkpt><trkpt lat="43.79586668222667" lon="12.864003595706443"><ele>265.6666666666667</ele><time>2026-04-07T14:18:41.001Z</time></trkpt><trkpt lat="43.79587096856142" lon="12.863897892468218"><ele>267.33333333333337</ele><time>2026-04-07T14:18:42.001Z</time></trkpt><trkpt lat="43.795886588137" lon="12.863774127549693"><ele>269.0</ele><time>2026-04-07T14:18:43.001Z</time></trkpt><trkpt lat="43.79590608003795" lon="12.863652172393031"><ele>269.0</ele><time>2026-04-07T14:18:44.001Z</time></trkpt><trkpt lat="43.79592331197578" lon="12.863537645233157"><ele>269.0</ele><time>2026-04-07T14:18:45.001Z</time></trkpt><trkpt lat="43.79595373523523" lon="12.863439785452538"><ele>269.0</ele><time>2026-04-07T14:18:46.001Z</time></trkpt><trkpt lat="43.79599756131326" lon="12.863373978645477"><ele>269.0</ele><time>2026-04-07T14:18:47.001Z</time></trkpt><trkpt lat="43.79608168259817" lon="12.863333064123914"><ele>269.0</ele><time>2026-04-07T14:18:49.001Z</time></trkpt><trkpt lat="43.7961466079838" lon="12.86333990560707"><ele>269.0</ele><time>2026-04-07T14:18:51.001Z</time></trkpt><trkpt lat="43.79622947005247" lon="12.863423357748486"><ele>266.0</ele><time>2026-04-07T14:18:53.001Z</time></trkpt><trkpt lat="43.796273846059336" lon="12.863505815136033"><ele>263.0</ele><time>2026-04-07T14:18:54.001Z</time></trkpt><trkpt lat="43.79632127485899" lon="12.86359818014271"><ele>260.0</ele><time>2026-04-07T14:18:55.001Z</time></trkpt><trkpt lat="43.7963802257895" lon="12.863709075381136"><ele>257.0</ele><time>2026-04-07T14:18:56.001Z</time></trkpt><trkpt lat="43.7964516110878" lon="12.86382838905056"><ele>254.0</ele><time>2026-04-07T14:18:57.001Z</time></trkpt><trkpt lat="43.79653296060981" lon="12.86395663388637"><ele>254.0</ele><time>2026-04-07T14:18:58.001Z</time></trkpt><trkpt lat="43.7966130244026" lon="12.864086818125863"><ele>254.0</ele><time>2026-04-07T14:18:59.001Z</time></trkpt><trkpt lat="43.796686616398176" lon="12.864217097773746"><ele>254.0</ele><time>2026-04-07T14:19:00.001Z</time></trkpt><trkpt lat="43.79674916848635" lon="12.864337311621727"><ele>254.0</ele><time>2026-04-07T14:19:01.001Z</time></trkpt><trkpt lat="43.79680633866265" lon="12.864464132368465"><ele>252.39999999999998</ele><time>2026-04-07T14:19:02.001Z</time></trkpt><trkpt lat="43.796863260611296" lon="12.864591556146609"><ele>250.79999999999998</ele><time>2026-04-07T14:19:03.001Z</time></trkpt><trkpt lat="43.79691628303215" lon="12.864708106773778"><ele>249.20000000000002</ele><time>2026-04-07T14:19:04.001Z</time></trkpt><trkpt lat="43.79696851222333" lon="12.864825983665204"><ele>247.60000000000002</ele><time>2026-04-07T14:19:05.001Z</time></trkpt><trkpt lat="43.79701661117387" lon="12.86493669347501"><ele>246.0</ele><time>2026-04-07T14:19:06.001Z</time></trkpt><trkpt lat="43.79706118928489" lon="12.865039661350615"><ele>246.00000000000003</ele><time>2026-04-07T14:19:07.001Z</time></trkpt><trkpt lat="43.79710523260853" lon="12.865131468220754"><ele>246.0</ele><time>2026-04-07T14:19:08.001Z</time></trkpt><trkpt lat="43.7971449588116" lon="12.86521261196002"><ele>246.00000000000003</ele><time>2026-04-07T14:19:09.001Z</time></trkpt><trkpt lat="43.79718050606619" lon="12.865291691892857"><ele>246.00000000000003</ele><time>2026-04-07T14:19:10.001Z</time></trkpt><trkpt lat="43.79722963157349" lon="12.865364991217325"><ele>246.0</ele><time>2026-04-07T14:19:11.001Z</time></trkpt><trkpt lat="43.79727826317321" lon="12.865432885287136"><ele>246.00000000000003</ele><time>2026-04-07T14:19:12.001Z</time></trkpt><trkpt lat="43.79732955880842" lon="12.865496400802844"><ele>246.00000000000003</ele><time>2026-04-07T14:19:13.001Z</time></trkpt><trkpt lat="43.79741222351898" lon="12.86560037128848"><ele>246.0</ele><time>2026-04-07T14:19:15.001Z</time></trkpt><trkpt lat="43.797492035864636" lon="12.865692728725518"><ele>246.00000000000003</ele><time>2026-04-07T14:19:17.001Z</time></trkpt><trkpt lat="43.79755308715913" lon="12.865810589863386"><ele>246.00000000000003</ele><time>2026-04-07T14:19:19.001Z</time></trkpt><trkpt lat="43.79756142420723" lon="12.865968281890215"><ele>246.0</ele><time>2026-04-07T14:19:21.001Z</time></trkpt><trkpt lat="43.7975825390532" lon="12.866052067129585"><ele>246.0</ele><time>2026-04-07T14:19:22.001Z</time></trkpt><trkpt lat="43.79761497445174" lon="12.866143088640547"><ele>245.0</ele><time>2026-04-07T14:19:23.001Z</time></trkpt><trkpt lat="43.797666196478325" lon="12.866213419125932"><ele>244.0</ele><time>2026-04-07T14:19:24.001Z</time></trkpt><trkpt lat="43.797711505491506" lon="12.866306177821109"><ele>243.0</ele><time>2026-04-07T14:19:25.001Z</time></trkpt><trkpt lat="43.79775843569178" lon="12.866396017846345"><ele>242.0</ele><time>2026-04-07T14:19:26.001Z</time></trkpt><trkpt lat="43.797811821055596" lon="12.866481145445704"><ele>241.0</ele><time>2026-04-07T14:19:27.001Z</time></trkpt><trkpt lat="43.79785827085575" lon="12.866572891354382"><ele>240.0</ele><time>2026-04-07T14:19:28.001Z</time></trkpt><trkpt lat="43.79790602290659" lon="12.86665409438906"><ele>240.0</ele><time>2026-04-07T14:19:29.001Z</time></trkpt><trkpt lat="43.79795748934441" lon="12.86675437227589"><ele>240.0</ele><time>2026-04-07T14:19:30.001Z</time></trkpt><trkpt lat="43.79800516412012" lon="12.866876559255841"><ele>240.0</ele><time>2026-04-07T14:19:31.001Z</time></trkpt><trkpt lat="43.7980640201337" lon="12.86698722902396"><ele>240.0</ele><time>2026-04-07T14:19:32.001Z</time></trkpt><trkpt lat="43.79811389749321" lon="12.867094133106283"><ele>240.0</ele><time>2026-04-07T14:19:33.001Z</time></trkpt><trkpt lat="43.79815446800615" lon="12.867212531573555"><ele>237.2</ele><time>2026-04-07T14:19:34.001Z</time></trkpt><trkpt lat="43.79820509804478" lon="12.867317072892998"><ele>234.4</ele><time>2026-04-07T14:19:35.001Z</time></trkpt><trkpt lat="43.79827303756316" lon="12.867424185571878"><ele>231.60000000000002</ele><time>2026-04-07T14:19:36.001Z</time></trkpt><trkpt lat="43.79832920645017" lon="12.867544598824875"><ele>228.8</ele><time>2026-04-07T14:19:37.001Z</time></trkpt><trkpt lat="43.7983823543953" lon="12.86765801262195"><ele>226.0</ele><time>2026-04-07T14:19:38.001Z</time></trkpt><trkpt lat="43.79842855616606" lon="12.867767951132748"><ele>224.99999999999997</ele><time>2026-04-07T14:19:39.001Z</time></trkpt><trkpt lat="43.79847394874842" lon="12.867862655545094"><ele>224.0</ele><time>2026-04-07T14:19:40.001Z</time></trkpt><trkpt lat="43.79851498781816" lon="12.867944884637438"><ele>223.0</ele><time>2026-04-07T14:19:41.001Z</time></trkpt><trkpt lat="43.798568384139806" lon="12.868015911066514"><ele>222.0</ele><time>2026-04-07T14:19:42.001Z</time></trkpt><trkpt lat="43.798643175393025" lon="12.868080146230975"><ele>220.99999999999997</ele><time>2026-04-07T14:19:43.001Z</time></trkpt><trkpt lat="43.79871734420866" lon="12.868168730247332"><ele>220.0</ele><time>2026-04-07T14:19:44.001Z</time></trkpt><trkpt lat="43.79880414524811" lon="12.868246491262754"><ele>219.99999999999997</ele><time>2026-04-07T14:19:45.001Z</time></trkpt><trkpt lat="43.798891416367965" lon="12.868320078852934"><ele>220.0</ele><time>2026-04-07T14:19:46.001Z</time></trkpt><trkpt lat="43.79897536300111" lon="12.868387940882403"><ele>220.0</ele><time>2026-04-07T14:19:47.001Z</time></trkpt><trkpt lat="43.7990595208405" lon="12.868437686105636"><ele>220.0</ele><time>2026-04-07T14:19:48.001Z</time></trkpt><trkpt lat="43.79911737631704" lon="12.868498131855805"><ele>219.99999999999997</ele><time>2026-04-07T14:19:49.001Z</time></trkpt><trkpt lat="43.799177585969126" lon="12.868556537115893"><ele>220.0</ele><time>2026-04-07T14:19:50.001Z</time></trkpt><trkpt lat="43.7992325624935" lon="12.868609923258562"><ele>216.66666666666666</ele><time>2026-04-07T14:19:51.001Z</time></trkpt><trkpt lat="43.79933087129704" lon="12.868705565178463"><ele>213.33333333333331</ele><time>2026-04-07T14:19:53.001Z</time></trkpt><trkpt lat="43.79941720939687" lon="12.868748969727354"><ele>210.0</ele><time>2026-04-07T14:19:55.001Z</time></trkpt><trkpt lat="43.79947862220873" lon="12.868795995076198"><ele>206.66666666666669</ele><time>2026-04-07T14:19:57.001Z</time></trkpt><trkpt lat="43.799541700631536" lon="12.86884429588167"><ele>203.33333333333334</ele><time>2026-04-07T14:19:59.001Z</time></trkpt><trkpt lat="43.79960212062973" lon="12.868889030819778"><ele>200.0</ele><time>2026-04-07T14:20:01.001Z</time></trkpt><trkpt lat="43.799688711875845" lon="12.868951699163329"><ele>200.00000000000003</ele><time>2026-04-07T14:20:03.001Z</time></trkpt><trkpt lat="43.79978480870982" lon="12.869010635062354"><ele>200.0</ele><time>2026-04-07T14:20:05.001Z</time></trkpt><trkpt lat="43.799893967899045" lon="12.869066606849554"><ele>200.0</ele><time>2026-04-07T14:20:07.001Z</time></trkpt><trkpt lat="43.79996039181765" lon="12.86909349766791"><ele>200.0</ele><time>2026-04-07T14:20:08.001Z</time></trkpt><trkpt lat="43.80003085752549" lon="12.869117923907693"><ele>200.00000000000003</ele><time>2026-04-07T14:20:09.001Z</time></trkpt><trkpt lat="43.800101124182184" lon="12.869156091606278"><ele>200.0</ele><time>2026-04-07T14:20:10.001Z</time></trkpt><trkpt lat="43.800180858629936" lon="12.869166375999335"><ele>199.66666666666669</ele><time>2026-04-07T14:20:11.001Z</time></trkpt><trkpt lat="43.800265295671004" lon="12.869166893820838"><ele>199.33333333333334</ele><time>2026-04-07T14:20:12.001Z</time></trkpt><trkpt lat="43.80034493555097" lon="12.869186184955307"><ele>199.0</ele><time>2026-04-07T14:20:13.001Z</time></trkpt><trkpt lat="43.80042749987868" lon="12.869213218716995"><ele>198.66666666666669</ele><time>2026-04-07T14:20:14.001Z</time></trkpt><trkpt lat="43.800504680885254" lon="12.869246228937628"><ele>198.33333333333334</ele><time>2026-04-07T14:20:15.001Z</time></trkpt><trkpt lat="43.800577934513676" lon="12.869283067458325"><ele>198.0</ele><time>2026-04-07T14:20:16.001Z</time></trkpt><trkpt lat="43.80064530661097" lon="12.869321152786632"><ele>193.8</ele><time>2026-04-07T14:20:17.001Z</time></trkpt><trkpt lat="43.80070355490584" lon="12.869359454138381"><ele>189.60000000000002</ele><time>2026-04-07T14:20:18.001Z</time></trkpt><trkpt lat="43.80078812511095" lon="12.869420884568298"><ele>185.39999999999998</ele><time>2026-04-07T14:20:20.001Z</time></trkpt><trkpt lat="43.80086745089404" lon="12.869460341257314"><ele>181.2</ele><time>2026-04-07T14:20:22.001Z</time></trkpt><trkpt lat="43.80095762328675" lon="12.869556559451075"><ele>177.0</ele><time>2026-04-07T14:20:24.001Z</time></trkpt><trkpt lat="43.80105028901947" lon="12.869636015033672"><ele>177.0</ele><time>2026-04-07T14:20:26.001Z</time></trkpt><trkpt lat="43.80114024953227" lon="12.869708210037311"><ele>177.0</ele><time>2026-04-07T14:20:28.001Z</time></trkpt><trkpt lat="43.80122800410412" lon="12.869761241088918"><ele>177.0</ele><time>2026-04-07T14:20:30.001Z</time></trkpt><trkpt lat="43.801322981210966" lon="12.86981020333455"><ele>177.0</ele><time>2026-04-07T14:20:32.001Z</time></trkpt><trkpt lat="43.80143066258493" lon="12.869865714862447"><ele>177.0</ele><time>2026-04-07T14:20:34.001Z</time></trkpt><trkpt lat="43.801533532391346" lon="12.869924309222755"><ele>177.0</ele><time>2026-04-07T14:20:36.001Z</time></trkpt><trkpt lat="43.801612819847335" lon="12.869977312637976"><ele>177.0</ele><time>2026-04-07T14:20:38.001Z</time></trkpt><trkpt lat="43.80166952140384" lon="12.870016266299187"><ele>177.0</ele><time>2026-04-07T14:20:40.001Z</time></trkpt><trkpt lat="43.801728128056794" lon="12.87005789355559"><ele>177.0</ele><time>2026-04-07T14:20:42.001Z</time></trkpt><trkpt lat="43.80179028625371" lon="12.870103697017534"><ele>177.0</ele><time>2026-04-07T14:20:44.001Z</time></trkpt><trkpt lat="43.801865316267865" lon="12.870161955921626"><ele>177.0</ele><time>2026-04-07T14:20:46.001Z</time></trkpt><trkpt lat="43.80195353265804" lon="12.870236285966644"><ele>174.33333333333334</ele><time>2026-04-07T14:20:48.001Z</time></trkpt><trkpt lat="43.80204879198939" lon="12.870325047942549"><ele>171.66666666666666</ele><time>2026-04-07T14:20:50.001Z</time></trkpt><trkpt lat="43.802143612251506" lon="12.870422368662211"><ele>169.0</ele><time>2026-04-07T14:20:52.001Z</time></trkpt><trkpt lat="43.802195146189156" lon="12.870478791407146"><ele>166.33333333333331</ele><time>2026-04-07T14:20:53.001Z</time></trkpt><trkpt lat="43.80225745027674" lon="12.870527936744637"><ele>163.66666666666666</ele><time>2026-04-07T14:20:54.001Z</time></trkpt><trkpt lat="43.80230187662893" lon="12.8705967229484"><ele>161.0</ele><time>2026-04-07T14:20:55.001Z</time></trkpt><trkpt lat="43.80234409918382" lon="12.870670162842531"><ele>161.0</ele><time>2026-04-07T14:20:56.001Z</time></trkpt><trkpt lat="43.802387231020006" lon="12.870743307519342"><ele>161.0</ele><time>2026-04-07T14:20:57.001Z</time></trkpt><trkpt lat="43.802430838909864" lon="12.87081354691825"><ele>161.0</ele><time>2026-04-07T14:20:58.001Z</time></trkpt><trkpt lat="43.802519717798084" lon="12.870913670797982"><ele>161.0</ele><time>2026-04-07T14:21:00.001Z</time></trkpt><trkpt lat="43.80258079143357" lon="12.870945016084917"><ele>161.0</ele><time>2026-04-07T14:21:01.001Z</time></trkpt><trkpt lat="43.80264963687189" lon="12.870977020647876"><ele>161.0</ele><time>2026-04-07T14:21:02.001Z</time></trkpt><trkpt lat="43.80270987392568" lon="12.871017993315887"><ele>158.16666666666666</ele><time>2026-04-07T14:21:03.001Z</time></trkpt><trkpt lat="43.80277595989662" lon="12.871061910288374"><ele>155.33333333333331</ele><time>2026-04-07T14:21:04.001Z</time></trkpt><trkpt lat="43.80284340782815" lon="12.871096263076147"><ele>152.5</ele><time>2026-04-07T14:21:05.001Z</time></trkpt><trkpt lat="43.802906731623025" lon="12.871150970870719"><ele>149.66666666666666</ele><time>2026-04-07T14:21:06.001Z</time></trkpt><trkpt lat="43.80297388537612" lon="12.871189032273621"><ele>146.83333333333334</ele><time>2026-04-07T14:21:07.001Z</time></trkpt><trkpt lat="43.803053341765754" lon="12.871219528131904"><ele>144.0</ele><time>2026-04-07T14:21:08.001Z</time></trkpt><trkpt lat="43.80313367545447" lon="12.871218572964406"><ele>144.00000000000003</ele><time>2026-04-07T14:21:09.001Z</time></trkpt><trkpt lat="43.803213499605896" lon="12.871214991610925"><ele>144.0</ele><time>2026-04-07T14:21:10.001Z</time></trkpt><trkpt lat="43.80328366680243" lon="12.871190480841555"><ele>144.0</ele><time>2026-04-07T14:21:11.001Z</time></trkpt><trkpt lat="43.80333993739449" lon="12.87112400714765"><ele>144.0</ele><time>2026-04-07T14:21:12.001Z</time></trkpt><trkpt lat="43.80338729288347" lon="12.871049874707388"><ele>144.0</ele><time>2026-04-07T14:21:13.001Z</time></trkpt><trkpt lat="43.80343243755507" lon="12.870970600286443"><ele>144.00000000000003</ele><time>2026-04-07T14:21:14.001Z</time></trkpt><trkpt lat="43.803497750454774" lon="12.870918692114413"><ele>144.0</ele><time>2026-04-07T14:21:15.001Z</time></trkpt><trkpt lat="43.803576722914016" lon="12.870898407394078"><ele>144.33333333333334</ele><time>2026-04-07T14:21:16.001Z</time></trkpt><trkpt lat="43.80366340185241" lon="12.870913080847133"><ele>144.66666666666666</ele><time>2026-04-07T14:21:17.001Z</time></trkpt><trkpt lat="43.803751754465495" lon="12.87094645715408"><ele>145.0</ele><time>2026-04-07T14:21:18.001Z</time></trkpt><trkpt lat="43.803835860943074" lon="12.871001817014724"><ele>145.33333333333331</ele><time>2026-04-07T14:21:19.001Z</time></trkpt><trkpt lat="43.803902378069516" lon="12.87108413286124"><ele>145.66666666666666</ele><time>2026-04-07T14:21:20.001Z</time></trkpt><trkpt lat="43.8039620209711" lon="12.871163493601339"><ele>146.0</ele><time>2026-04-07T14:21:21.001Z</time></trkpt><trkpt lat="43.804012101767036" lon="12.871248097090218"><ele>146.0</ele><time>2026-04-07T14:21:22.001Z</time></trkpt><trkpt lat="43.804058027353" lon="12.871324682448334"><ele>146.0</ele><time>2026-04-07T14:21:23.001Z</time></trkpt><trkpt lat="43.80413131318731" lon="12.871451452494137"><ele>146.0</ele><time>2026-04-07T14:21:25.001Z</time></trkpt><trkpt lat="43.80417333722268" lon="12.871522753084127"><ele>146.0</ele><time>2026-04-07T14:21:27.001Z</time></trkpt><trkpt lat="43.80423099399891" lon="12.871576530734734"><ele>146.0</ele><time>2026-04-07T14:21:37.001Z</time></trkpt><trkpt lat="43.80429259480455" lon="12.871654821253525"><ele>146.0</ele><time>2026-04-07T14:21:41.001Z</time></trkpt><trkpt lat="43.80434298619553" lon="12.871726593432582"><ele>144.16666666666666</ele><time>2026-04-07T14:21:44.001Z</time></trkpt><trkpt lat="43.80440704810328" lon="12.871803070636549"><ele>142.33333333333331</ele><time>2026-04-07T14:21:47.001Z</time></trkpt><trkpt lat="43.80446129158794" lon="12.871867754761952"><ele>140.5</ele><time>2026-04-07T14:21:49.001Z</time></trkpt><trkpt lat="43.80451925020378" lon="12.871943386313266"><ele>138.66666666666666</ele><time>2026-04-07T14:21:51.001Z</time></trkpt><trkpt lat="43.80458717880083" lon="12.87201544332762"><ele>136.83333333333334</ele><time>2026-04-07T14:21:53.001Z</time></trkpt><trkpt lat="43.80466017008727" lon="12.872071618859266"><ele>135.0</ele><time>2026-04-07T14:21:55.001Z</time></trkpt><trkpt lat="43.80471195427021" lon="12.872173117105172"><ele>135.0</ele><time>2026-04-07T14:21:57.001Z</time></trkpt><trkpt lat="43.80475501032121" lon="12.87228756216217"><ele>135.0</ele><time>2026-04-07T14:21:59.001Z</time></trkpt><trkpt lat="43.80481480052647" lon="12.872368897812002"><ele>135.0</ele><time>2026-04-07T14:22:01.001Z</time></trkpt><trkpt lat="43.804856085781466" lon="12.87247552294251"><ele>135.0</ele><time>2026-04-07T14:22:03.001Z</time></trkpt><trkpt lat="43.80492912920785" lon="12.872558555648075"><ele>135.0</ele><time>2026-04-07T14:22:05.001Z</time></trkpt><trkpt lat="43.8049869466274" lon="12.872676411691621"><ele>133.28571428571428</ele><time>2026-04-07T14:22:07.001Z</time></trkpt><trkpt lat="43.805035004377636" lon="12.872739188374984"><ele>131.57142857142856</ele><time>2026-04-07T14:22:08.001Z</time></trkpt><trkpt lat="43.805094876851285" lon="12.872786473061076"><ele>129.85714285714286</ele><time>2026-04-07T14:22:09.001Z</time></trkpt><trkpt lat="43.80515034357881" lon="12.8728492613177"><ele>128.14285714285714</ele><time>2026-04-07T14:22:10.001Z</time></trkpt><trkpt lat="43.80520713021044" lon="12.872912414811383"><ele>126.42857142857143</ele><time>2026-04-07T14:22:11.001Z</time></trkpt><trkpt lat="43.80526557965795" lon="12.872982772643137"><ele>124.71428571428572</ele><time>2026-04-07T14:22:12.001Z</time></trkpt><trkpt lat="43.80531920920078" lon="12.873053682233254"><ele>123.00000000000001</ele><time>2026-04-07T14:22:13.001Z</time></trkpt><trkpt lat="43.805371121611245" lon="12.873139591777125"><ele>122.2</ele><time>2026-04-07T14:22:14.001Z</time></trkpt><trkpt lat="43.805443455309835" lon="12.873187213901344"><ele>121.4</ele><time>2026-04-07T14:22:15.001Z</time></trkpt><trkpt lat="43.80551248685366" lon="12.873256805394414"><ele>120.60000000000001</ele><time>2026-04-07T14:22:16.001Z</time></trkpt><trkpt lat="43.80559291976353" lon="12.873323887634399"><ele>119.80000000000001</ele><time>2026-04-07T14:22:17.001Z</time></trkpt><trkpt lat="43.80567359407474" lon="12.873397675606466"><ele>119.0</ele><time>2026-04-07T14:22:18.001Z</time></trkpt><trkpt lat="43.805760265323705" lon="12.873455074320644"><ele>117.2</ele><time>2026-04-07T14:22:19.001Z</time></trkpt><trkpt lat="43.80584744238068" lon="12.8735259582906"><ele>115.4</ele><time>2026-04-07T14:22:20.001Z</time></trkpt><trkpt lat="43.80594284184876" lon="12.873594840726973"><ele>113.6</ele><time>2026-04-07T14:22:21.001Z</time></trkpt><trkpt lat="43.80602544322986" lon="12.873661789904887"><ele>111.8</ele><time>2026-04-07T14:22:22.001Z</time></trkpt><trkpt lat="43.80610842510124" lon="12.873728386264178"><ele>110.0</ele><time>2026-04-07T14:22:23.001Z</time></trkpt><trkpt lat="43.80619166966476" lon="12.873799779472574"><ele>109.2</ele><time>2026-04-07T14:22:24.001Z</time></trkpt><trkpt lat="43.806259806906866" lon="12.873875508708752"><ele>108.4</ele><time>2026-04-07T14:22:25.001Z</time></trkpt><trkpt lat="43.80631848223998" lon="12.873952294955918"><ele>107.6</ele><time>2026-04-07T14:22:26.001Z</time></trkpt><trkpt lat="43.80633576690866" lon="12.874093667675098"><ele>106.8</ele><time>2026-04-07T14:22:27.001Z</time></trkpt><trkpt lat="43.80639112643104" lon="12.874226843999594"><ele>106.0</ele><time>2026-04-07T14:22:28.001Z</time></trkpt><trkpt lat="43.80645950027225" lon="12.874349927351455"><ele>104.75</ele><time>2026-04-07T14:22:29.001Z</time></trkpt><trkpt lat="43.80650241526688" lon="12.874494833772664"><ele>103.5</ele><time>2026-04-07T14:22:30.001Z</time></trkpt><trkpt lat="43.80656294433912" lon="12.874640591120555"><ele>102.25</ele><time>2026-04-07T14:22:31.001Z</time></trkpt><trkpt lat="43.80662009349056" lon="12.874778209351417"><ele>101.0</ele><time>2026-04-07T14:22:32.001Z</time></trkpt><trkpt lat="43.806675397435065" lon="12.874910132961984"><ele>101.0</ele><time>2026-04-07T14:22:33.001Z</time></trkpt><trkpt lat="43.806731526607855" lon="12.875041496253907"><ele>101.0</ele><time>2026-04-07T14:22:34.001Z</time></trkpt><trkpt lat="43.80679348795481" lon="12.875159089149518"><ele>101.0</ele><time>2026-04-07T14:22:35.001Z</time></trkpt><trkpt lat="43.80684426896067" lon="12.875278162230355"><ele>101.0</ele><time>2026-04-07T14:22:36.001Z</time></trkpt><trkpt lat="43.806882117449305" lon="12.875393936220101"><ele>101.0</ele><time>2026-04-07T14:22:37.001Z</time></trkpt><trkpt lat="43.80692895191671" lon="12.8755039127634"><ele>98.6</ele><time>2026-04-07T14:22:38.001Z</time></trkpt><trkpt lat="43.80697709091939" lon="12.875617650340471"><ele>96.19999999999999</ele><time>2026-04-07T14:22:39.001Z</time></trkpt><trkpt lat="43.80702637659215" lon="12.875734097238105"><ele>93.80000000000001</ele><time>2026-04-07T14:22:40.001Z</time></trkpt><trkpt lat="43.807082832442944" lon="12.875837368132611"><ele>91.4</ele><time>2026-04-07T14:22:41.001Z</time></trkpt><trkpt lat="43.80712013577735" lon="12.875951791953627"><ele>89.0</ele><time>2026-04-07T14:22:42.001Z</time></trkpt><trkpt lat="43.807161732627925" lon="12.876064525469795"><ele>88.5</ele><time>2026-04-07T14:22:43.001Z</time></trkpt><trkpt lat="43.807208595646955" lon="12.876172133615439"><ele>88.0</ele><time>2026-04-07T14:22:44.001Z</time></trkpt><trkpt lat="43.8072533106164" lon="12.87627488946353"><ele>87.5</ele><time>2026-04-07T14:22:45.001Z</time></trkpt><trkpt lat="43.807279927676746" lon="12.876389520981844"><ele>87.0</ele><time>2026-04-07T14:22:46.001Z</time></trkpt><trkpt lat="43.80731871399537" lon="12.876486643697715"><ele>86.5</ele><time>2026-04-07T14:22:47.001Z</time></trkpt><trkpt lat="43.8073606621963" lon="12.876591683868186"><ele>86.0</ele><time>2026-04-07T14:22:48.001Z</time></trkpt><trkpt lat="43.80740315925674" lon="12.876698098364104"><ele>85.16666666666667</ele><time>2026-04-07T14:22:49.001Z</time></trkpt><trkpt lat="43.807445706814605" lon="12.876805060700828"><ele>84.33333333333334</ele><time>2026-04-07T14:22:50.001Z</time></trkpt><trkpt lat="43.807486609438726" lon="12.876910967370522"><ele>83.5</ele><time>2026-04-07T14:22:51.001Z</time></trkpt><trkpt lat="43.807526591770234" lon="12.877014491234966"><ele>82.66666666666667</ele><time>2026-04-07T14:22:52.001Z</time></trkpt><trkpt lat="43.80756349565138" lon="12.877109711211066"><ele>81.83333333333333</ele><time>2026-04-07T14:22:53.001Z</time></trkpt><trkpt lat="43.80759989052325" lon="12.877201801282263"><ele>81.0</ele><time>2026-04-07T14:22:54.001Z</time></trkpt><trkpt lat="43.807653361385924" lon="12.87729355553139"><ele>80.16666666666667</ele><time>2026-04-07T14:22:55.001Z</time></trkpt><trkpt lat="43.807688186004576" lon="12.877387936263014"><ele>79.33333333333333</ele><time>2026-04-07T14:22:56.001Z</time></trkpt><trkpt lat="43.80772507163832" lon="12.877477504228631"><ele>78.5</ele><time>2026-04-07T14:22:57.001Z</time></trkpt><trkpt lat="43.80777395148294" lon="12.877563269855392"><ele>77.66666666666666</ele><time>2026-04-07T14:22:58.001Z</time></trkpt><trkpt lat="43.807826637093186" lon="12.877651265215517"><ele>76.83333333333333</ele><time>2026-04-07T14:22:59.001Z</time></trkpt><trkpt lat="43.80788632401416" lon="12.877735716009044"><ele>76.0</ele><time>2026-04-07T14:23:00.001Z</time></trkpt><trkpt lat="43.80795252462913" lon="12.877817877251115"><ele>75.8</ele><time>2026-04-07T14:23:01.001Z</time></trkpt><trkpt lat="43.80802935143824" lon="12.877893496353957"><ele>75.6</ele><time>2026-04-07T14:23:02.001Z</time></trkpt><trkpt lat="43.808117153927505" lon="12.87796591014557"><ele>75.4</ele><time>2026-04-07T14:23:03.001Z</time></trkpt><trkpt lat="43.80820100009091" lon="12.878042548453132"><ele>75.2</ele><time>2026-04-07T14:23:04.001Z</time></trkpt><trkpt lat="43.8082840120655" lon="12.878104009473422"><ele>75.0</ele><time>2026-04-07T14:23:05.001Z</time></trkpt><trkpt lat="43.808356040681076" lon="12.8781639725819"><ele>75.0</ele><time>2026-04-07T14:23:06.001Z</time></trkpt><trkpt lat="43.808421861996415" lon="12.87821042013225"><ele>75.0</ele><time>2026-04-07T14:23:08.001Z</time></trkpt><trkpt lat="43.80847965834596" lon="12.878257829452743"><ele>75.0</ele><time>2026-04-07T14:23:10.001Z</time></trkpt><trkpt lat="43.80858501134398" lon="12.878340561793447"><ele>75.0</ele><time>2026-04-07T14:23:12.001Z</time></trkpt><trkpt lat="43.80864996821533" lon="12.878385680407654"><ele>75.0</ele><time>2026-04-07T14:23:13.001Z</time></trkpt><trkpt lat="43.80872358269202" lon="12.87843710877991"><ele>75.0</ele><time>2026-04-07T14:23:14.001Z</time></trkpt><trkpt lat="43.80880400430637" lon="12.878483578659269"><ele>74.4</ele><time>2026-04-07T14:23:15.001Z</time></trkpt><trkpt lat="43.80888755311963" lon="12.87852912445457"><ele>73.8</ele><time>2026-04-07T14:23:16.001Z</time></trkpt><trkpt lat="43.808974695574314" lon="12.878580483810593"><ele>73.2</ele><time>2026-04-07T14:23:17.001Z</time></trkpt><trkpt lat="43.80906193012711" lon="12.878638936981513"><ele>72.6</ele><time>2026-04-07T14:23:18.001Z</time></trkpt><trkpt lat="43.809155402498845" lon="12.878669523477797"><ele>72.0</ele><time>2026-04-07T14:23:19.001Z</time></trkpt><trkpt lat="43.80924934151273" lon="12.878719749381247"><ele>72.4</ele><time>2026-04-07T14:23:20.001Z</time></trkpt><trkpt lat="43.809343919063416" lon="12.878784861028073"><ele>72.80000000000001</ele><time>2026-04-07T14:23:21.001Z</time></trkpt><trkpt lat="43.809436175415016" lon="12.878844304175853"><ele>73.2</ele><time>2026-04-07T14:23:22.001Z</time></trkpt><trkpt lat="43.809524584494014" lon="12.878909719577406"><ele>73.60000000000001</ele><time>2026-04-07T14:23:23.001Z</time></trkpt><trkpt lat="43.80959871950892" lon="12.879003084429774"><ele>74.0</ele><time>2026-04-07T14:23:24.001Z</time></trkpt><trkpt lat="43.809672863089354" lon="12.879075491996781"><ele>74.0</ele><time>2026-04-07T14:23:25.001Z</time></trkpt><trkpt lat="43.80974168779575" lon="12.879146366807722"><ele>74.0</ele><time>2026-04-07T14:23:26.001Z</time></trkpt><trkpt lat="43.809809717337096" lon="12.879219081654313"><ele>74.0</ele><time>2026-04-07T14:23:27.001Z</time></trkpt><trkpt lat="43.80987603952439" lon="12.879290748182624"><ele>74.0</ele><time>2026-04-07T14:23:28.001Z</time></trkpt><trkpt lat="43.809943643688484" lon="12.879367682308226"><ele>74.0</ele><time>2026-04-07T14:23:29.001Z</time></trkpt><trkpt lat="43.8100138737624" lon="12.879447130387858"><ele>74.0</ele><time>2026-04-07T14:23:30.001Z</time></trkpt><trkpt lat="43.81008366899128" lon="12.87952413618274"><ele>73.60000000000001</ele><time>2026-04-07T14:23:31.001Z</time></trkpt><trkpt lat="43.810154576104935" lon="12.879602368676936"><ele>73.2</ele><time>2026-04-07T14:23:32.001Z</time></trkpt><trkpt lat="43.810223963117416" lon="12.879681206314034"><ele>72.80000000000001</ele><time>2026-04-07T14:23:33.001Z</time></trkpt><trkpt lat="43.81029125112165" lon="12.879761709604214"><ele>72.4</ele><time>2026-04-07T14:23:34.001Z</time></trkpt><trkpt lat="43.81036145063141" lon="12.879844720451487"><ele>72.0</ele><time>2026-04-07T14:23:35.001Z</time></trkpt><trkpt lat="43.81043436164453" lon="12.879923315985307"><ele>72.0</ele><time>2026-04-07T14:23:36.001Z</time></trkpt><trkpt lat="43.81051129398107" lon="12.879998754904664"><ele>72.0</ele><time>2026-04-07T14:23:37.001Z</time></trkpt><trkpt lat="43.81058983238097" lon="12.880077594913866"><ele>72.0</ele><time>2026-04-07T14:23:38.001Z</time></trkpt><trkpt lat="43.81067362455742" lon="12.880163046764665"><ele>72.0</ele><time>2026-04-07T14:23:39.001Z</time></trkpt><trkpt lat="43.81075816991696" lon="12.880247832994332"><ele>72.0</ele><time>2026-04-07T14:23:40.001Z</time></trkpt><trkpt lat="43.81085107274403" lon="12.88030999145827"><ele>71.5</ele><time>2026-04-07T14:23:41.001Z</time></trkpt><trkpt lat="43.810928970766305" lon="12.8803894101864"><ele>71.0</ele><time>2026-04-07T14:23:42.001Z</time></trkpt><trkpt lat="43.811009147628795" lon="12.880456843621355"><ele>70.5</ele><time>2026-04-07T14:23:43.001Z</time></trkpt><trkpt lat="43.81107792627999" lon="12.880523774239855"><ele>70.0</ele><time>2026-04-07T14:23:44.001Z</time></trkpt><trkpt lat="43.811140125164286" lon="12.880578854026437"><ele>69.5</ele><time>2026-04-07T14:23:45.001Z</time></trkpt><trkpt lat="43.811194298920626" lon="12.880624445487975"><ele>69.0</ele><time>2026-04-07T14:23:46.001Z</time></trkpt><trkpt lat="43.811266100670174" lon="12.88070286887253"><ele>69.0</ele><time>2026-04-07T14:23:48.001Z</time></trkpt><trkpt lat="43.81136152040537" lon="12.88072234794454"><ele>69.0</ele><time>2026-04-07T14:23:50.001Z</time></trkpt><trkpt lat="43.81143175115484" lon="12.880740609667626"><ele>69.0</ele><time>2026-04-07T14:23:51.001Z</time></trkpt><trkpt lat="43.81151235365657" lon="12.880756536258527"><ele>69.0</ele><time>2026-04-07T14:23:52.001Z</time></trkpt><trkpt lat="43.811598697069364" lon="12.880758807141275"><ele>69.0</ele><time>2026-04-07T14:23:53.001Z</time></trkpt><trkpt lat="43.81169075318704" lon="12.88076915712823"><ele>69.0</ele><time>2026-04-07T14:23:54.001Z</time></trkpt><trkpt lat="43.81178306800364" lon="12.880794399724492"><ele>68.60000000000001</ele><time>2026-04-07T14:23:55.001Z</time></trkpt><trkpt lat="43.811875202513775" lon="12.880808419450519"><ele>68.2</ele><time>2026-04-07T14:23:56.001Z</time></trkpt><trkpt lat="43.811967923722925" lon="12.880826083485504"><ele>67.80000000000001</ele><time>2026-04-07T14:23:57.001Z</time></trkpt><trkpt lat="43.8120707592988" lon="12.880837436043231"><ele>67.4</ele><time>2026-04-07T14:23:58.001Z</time></trkpt><trkpt lat="43.81217435681516" lon="12.880845657608752"><ele>67.0</ele><time>2026-04-07T14:23:59.001Z</time></trkpt><trkpt lat="43.8122772564681" lon="12.880859952771457"><ele>67.0</ele><time>2026-04-07T14:24:00.001Z</time></trkpt><trkpt lat="43.812381878433655" lon="12.880861985725176"><ele>67.0</ele><time>2026-04-07T14:24:01.001Z</time></trkpt><trkpt lat="43.812481479870584" lon="12.880882841009402"><ele>67.0</ele><time>2026-04-07T14:24:02.001Z</time></trkpt><trkpt lat="43.812591361269796" lon="12.880906131048327"><ele>67.0</ele><time>2026-04-07T14:24:03.001Z</time></trkpt><trkpt lat="43.812702402599136" lon="12.88092703321605"><ele>67.0</ele><time>2026-04-07T14:24:04.001Z</time></trkpt><trkpt lat="43.81281297874975" lon="12.880949076617366"><ele>66.5</ele><time>2026-04-07T14:24:05.001Z</time></trkpt><trkpt lat="43.81292706026293" lon="12.880967341063494"><ele>66.0</ele><time>2026-04-07T14:24:06.001Z</time></trkpt><trkpt lat="43.81304287468395" lon="12.880985149600324"><ele>65.5</ele><time>2026-04-07T14:24:07.001Z</time></trkpt><trkpt lat="43.81315152407687" lon="12.881012738818361"><ele>65.0</ele><time>2026-04-07T14:24:08.001Z</time></trkpt><trkpt lat="43.81326250588334" lon="12.88103427265492"><ele>65.0</ele><time>2026-04-07T14:24:09.001Z</time></trkpt><trkpt lat="43.81336850459739" lon="12.881055031850766"><ele>65.0</ele><time>2026-04-07T14:24:10.001Z</time></trkpt><trkpt lat="43.81346916333607" lon="12.881080226979462"><ele>65.0</ele><time>2026-04-07T14:24:11.001Z</time></trkpt><trkpt lat="43.81357571612326" lon="12.881106446228397"><ele>65.0</ele><time>2026-04-07T14:24:12.001Z</time></trkpt><trkpt lat="43.813677838993236" lon="12.88114248746643"><ele>65.0</ele><time>2026-04-07T14:24:13.001Z</time></trkpt><trkpt lat="43.81378430432595" lon="12.881175980826345"><ele>64.8</ele><time>2026-04-07T14:24:14.001Z</time></trkpt><trkpt lat="43.813886859215515" lon="12.881216589109956"><ele>64.6</ele><time>2026-04-07T14:24:15.001Z</time></trkpt><trkpt lat="43.81399183249265" lon="12.88125629710805"><ele>64.4</ele><time>2026-04-07T14:24:16.001Z</time></trkpt><trkpt lat="43.81409767285693" lon="12.88129847827082"><ele>64.2</ele><time>2026-04-07T14:24:17.001Z</time></trkpt><trkpt lat="43.814205821497254" lon="12.881335676395082"><ele>64.0</ele><time>2026-04-07T14:24:18.001Z</time></trkpt><trkpt lat="43.814318832053054" lon="12.8813745681184"><ele>63.5</ele><time>2026-04-07T14:24:19.001Z</time></trkpt><trkpt lat="43.81442945413604" lon="12.881413210599549"><ele>63.0</ele><time>2026-04-07T14:24:20.001Z</time></trkpt><trkpt lat="43.81453519041428" lon="12.881447996133947"><ele>62.5</ele><time>2026-04-07T14:24:21.001Z</time></trkpt><trkpt lat="43.814647099465425" lon="12.881485411711997"><ele>62.0</ele><time>2026-04-07T14:24:22.001Z</time></trkpt><trkpt lat="43.81476068357828" lon="12.881518470921549"><ele>62.0</ele><time>2026-04-07T14:24:23.001Z</time></trkpt><trkpt lat="43.81487030190972" lon="12.8815463243572"><ele>62.0</ele><time>2026-04-07T14:24:24.001Z</time></trkpt><trkpt lat="43.8149805027337" lon="12.88156833497824"><ele>62.0</ele><time>2026-04-07T14:24:25.001Z</time></trkpt><trkpt lat="43.81508563120261" lon="12.881591007323527"><ele>62.0</ele><time>2026-04-07T14:24:26.001Z</time></trkpt><trkpt lat="43.815185978659436" lon="12.881611089352438"><ele>62.0</ele><time>2026-04-07T14:24:27.001Z</time></trkpt><trkpt lat="43.815288969259726" lon="12.8816361853324"><ele>62.0</ele><time>2026-04-07T14:24:28.001Z</time></trkpt><trkpt lat="43.81539027792699" lon="12.88165321975203"><ele>62.0</ele><time>2026-04-07T14:24:29.001Z</time></trkpt><trkpt lat="43.81549482222392" lon="12.881668503823231"><ele>62.0</ele><time>2026-04-07T14:24:30.001Z</time></trkpt><trkpt lat="43.81559620185364" lon="12.88169428413921"><ele>62.0</ele><time>2026-04-07T14:24:31.001Z</time></trkpt><trkpt lat="43.81570534932615" lon="12.88170901334391"><ele>62.0</ele><time>2026-04-07T14:24:32.001Z</time></trkpt><trkpt lat="43.81581282661861" lon="12.881732421008246"><ele>62.0</ele><time>2026-04-07T14:24:33.001Z</time></trkpt><trkpt lat="43.81592194255597" lon="12.881758089336778"><ele>62.0</ele><time>2026-04-07T14:24:34.001Z</time></trkpt><trkpt lat="43.8160247911992" lon="12.88178019702069"><ele>62.0</ele><time>2026-04-07T14:24:35.001Z</time></trkpt><trkpt lat="43.81612844304095" lon="12.881813328698518"><ele>62.0</ele><time>2026-04-07T14:24:36.001Z</time></trkpt><trkpt lat="43.816229160626364" lon="12.881844319375872"><ele>62.0</ele><time>2026-04-07T14:24:37.001Z</time></trkpt><trkpt lat="43.81633124529709" lon="12.881884830323527"><ele>61.75</ele><time>2026-04-07T14:24:38.001Z</time></trkpt><trkpt lat="43.816434688584415" lon="12.881926408903219"><ele>61.5</ele><time>2026-04-07T14:24:39.001Z</time></trkpt><trkpt lat="43.81654307911409" lon="12.881978373222996"><ele>61.25</ele><time>2026-04-07T14:24:40.001Z</time></trkpt><trkpt lat="43.81665192212302" lon="12.882041543458472"><ele>61.0</ele><time>2026-04-07T14:24:41.001Z</time></trkpt><trkpt lat="43.81675802214275" lon="12.882114050516355"><ele>60.75</ele><time>2026-04-07T14:24:42.001Z</time></trkpt><trkpt lat="43.816865236871" lon="12.882191303152622"><ele>60.5</ele><time>2026-04-07T14:24:43.001Z</time></trkpt><trkpt lat="43.81697292226333" lon="12.88227305965598"><ele>60.25</ele><time>2026-04-07T14:24:44.001Z</time></trkpt><trkpt lat="43.81707851650379" lon="12.882351448345608"><ele>60.0</ele><time>2026-04-07T14:24:45.001Z</time></trkpt><trkpt lat="43.817183480837784" lon="12.882430462386438"><ele>60.0</ele><time>2026-04-07T14:24:46.001Z</time></trkpt><trkpt lat="43.81729339345047" lon="12.882509144697572"><ele>60.0</ele><time>2026-04-07T14:24:47.001Z</time></trkpt><trkpt lat="43.81740311070569" lon="12.882579241790857"><ele>60.0</ele><time>2026-04-07T14:24:48.001Z</time></trkpt><trkpt lat="43.817512611597124" lon="12.88265101100043"><ele>60.0</ele><time>2026-04-07T14:24:49.001Z</time></trkpt><trkpt lat="43.817625081672404" lon="12.882727040841843"><ele>59.75</ele><time>2026-04-07T14:24:50.001Z</time></trkpt><trkpt lat="43.81771800181196" lon="12.88281506380532"><ele>59.5</ele><time>2026-04-07T14:24:51.001Z</time></trkpt><trkpt lat="43.81783479705109" lon="12.882884761038444"><ele>59.25</ele><time>2026-04-07T14:24:52.001Z</time></trkpt><trkpt lat="43.8179390796191" lon="12.88295735863972"><ele>59.0</ele><time>2026-04-07T14:24:53.001Z</time></trkpt><trkpt lat="43.818039757876086" lon="12.883042571277189"><ele>59.0</ele><time>2026-04-07T14:24:54.001Z</time></trkpt><trkpt lat="43.81812859466968" lon="12.883156282271615"><ele>59.0</ele><time>2026-04-07T14:24:55.001Z</time></trkpt><trkpt lat="43.81822353442002" lon="12.88325769183557"><ele>59.0</ele><time>2026-04-07T14:24:56.001Z</time></trkpt><trkpt lat="43.81832845119248" lon="12.88334640678434"><ele>59.0</ele><time>2026-04-07T14:24:57.001Z</time></trkpt><trkpt lat="43.81840859626997" lon="12.883476300745127"><ele>58.75</ele><time>2026-04-07T14:24:58.001Z</time></trkpt><trkpt lat="43.8184896425806" lon="12.883595767103799"><ele>58.5</ele><time>2026-04-07T14:24:59.001Z</time></trkpt><trkpt lat="43.818567977670384" lon="12.883722107358889"><ele>58.25</ele><time>2026-04-07T14:25:00.001Z</time></trkpt><trkpt lat="43.818645140345446" lon="12.883846556639465"><ele>58.0</ele><time>2026-04-07T14:25:01.001Z</time></trkpt><trkpt lat="43.81872013577182" lon="12.883968198821021"><ele>57.99999999999999</ele><time>2026-04-07T14:25:02.001Z</time></trkpt><trkpt lat="43.818793980956194" lon="12.884084429580534"><ele>58.0</ele><time>2026-04-07T14:25:03.001Z</time></trkpt><trkpt lat="43.81885816700502" lon="12.884183644297968"><ele>58.0</ele><time>2026-04-07T14:25:04.001Z</time></trkpt><trkpt lat="43.81890989298448" lon="12.884263599106605"><ele>58.0</ele><time>2026-04-07T14:25:05.001Z</time></trkpt><trkpt lat="43.81896805267038" lon="12.884325718885162"><ele>57.99999999999999</ele><time>2026-04-07T14:25:06.001Z</time></trkpt><trkpt lat="43.81901150684597" lon="12.884403119059977"><ele>58.0</ele><time>2026-04-07T14:25:07.001Z</time></trkpt><trkpt lat="43.81906014809103" lon="12.884476303580719"><ele>57.85714285714286</ele><time>2026-04-07T14:25:08.001Z</time></trkpt><trkpt lat="43.81910065539451" lon="12.884549429714827"><ele>57.714285714285715</ele><time>2026-04-07T14:25:09.001Z</time></trkpt><trkpt lat="43.819145540943445" lon="12.884620008400256"><ele>57.57142857142857</ele><time>2026-04-07T14:25:10.001Z</time></trkpt><trkpt lat="43.81918705900932" lon="12.884687442341013"><ele>57.42857142857143</ele><time>2026-04-07T14:25:11.001Z</time></trkpt><trkpt lat="43.819220879124806" lon="12.884764346016125"><ele>57.28571428571428</ele><time>2026-04-07T14:25:12.001Z</time></trkpt><trkpt lat="43.81926251710925" lon="12.884841612393773"><ele>57.14285714285714</ele><time>2026-04-07T14:25:13.001Z</time></trkpt><trkpt lat="43.81926593328702" lon="12.884948915552311"><ele>57.0</ele><time>2026-04-07T14:25:14.001Z</time></trkpt><trkpt lat="43.81929304223854" lon="12.885044300953705"><ele>57.42857142857142</ele><time>2026-04-07T14:25:15.001Z</time></trkpt><trkpt lat="43.819332163969584" lon="12.88512291681545"><ele>57.85714285714285</ele><time>2026-04-07T14:25:16.001Z</time></trkpt><trkpt lat="43.81935488226179" lon="12.885208079755703"><ele>58.285714285714285</ele><time>2026-04-07T14:25:17.001Z</time></trkpt><trkpt lat="43.819387064619264" lon="12.8852890539016"><ele>58.71428571428571</ele><time>2026-04-07T14:25:18.001Z</time></trkpt><trkpt lat="43.819427575133496" lon="12.885365819824328"><ele>59.14285714285714</ele><time>2026-04-07T14:25:19.001Z</time></trkpt><trkpt lat="43.81947279051145" lon="12.885437957644912"><ele>59.57142857142857</ele><time>2026-04-07T14:25:20.001Z</time></trkpt><trkpt lat="43.81952215738847" lon="12.88550730264879"><ele>60.0</ele><time>2026-04-07T14:25:21.001Z</time></trkpt><trkpt lat="43.81957147550113" lon="12.885570215381232"><ele>60.0</ele><time>2026-04-07T14:25:22.001Z</time></trkpt><trkpt lat="43.81962919041772" lon="12.885630533075961"><ele>60.0</ele><time>2026-04-07T14:25:23.001Z</time></trkpt><trkpt lat="43.81968840645634" lon="12.885690575922293"><ele>60.0</ele><time>2026-04-07T14:25:24.001Z</time></trkpt><trkpt lat="43.81974831760713" lon="12.88574585951459"><ele>60.0</ele><time>2026-04-07T14:25:25.001Z</time></trkpt><trkpt lat="43.819811072778236" lon="12.885799097310253"><ele>60.0</ele><time>2026-04-07T14:25:26.001Z</time></trkpt><trkpt lat="43.81987140388874" lon="12.885859456142272"><ele>60.0</ele><time>2026-04-07T14:25:27.001Z</time></trkpt><trkpt lat="43.819932853015224" lon="12.885916087890731"><ele>60.0</ele><time>2026-04-07T14:25:28.001Z</time></trkpt><trkpt lat="43.8199979290066" lon="12.885978758544582"><ele>60.333333333333336</ele><time>2026-04-07T14:25:29.001Z</time></trkpt><trkpt lat="43.820059640851625" lon="12.886038489309605"><ele>60.66666666666667</ele><time>2026-04-07T14:25:30.001Z</time></trkpt><trkpt lat="43.82012475700024" lon="12.886102501813621"><ele>61.0</ele><time>2026-04-07T14:25:31.001Z</time></trkpt><trkpt lat="43.82019103272178" lon="12.886165024284216"><ele>61.333333333333336</ele><time>2026-04-07T14:25:32.001Z</time></trkpt><trkpt lat="43.82026107123903" lon="12.88624558113606"><ele>61.66666666666667</ele><time>2026-04-07T14:25:33.001Z</time></trkpt><trkpt lat="43.820337975838626" lon="12.886315582779236"><ele>62.0</ele><time>2026-04-07T14:25:34.001Z</time></trkpt><trkpt lat="43.82041752025965" lon="12.886387987305456"><ele>62.6</ele><time>2026-04-07T14:25:35.001Z</time></trkpt><trkpt lat="43.820495890186486" lon="12.886459322868333"><ele>63.2</ele><time>2026-04-07T14:25:36.001Z</time></trkpt><trkpt lat="43.82057745708316" lon="12.886533609346326"><ele>63.8</ele><time>2026-04-07T14:25:37.001Z</time></trkpt><trkpt lat="43.82066871185388" lon="12.886596162618224"><ele>64.4</ele><time>2026-04-07T14:25:38.001Z</time></trkpt><trkpt lat="43.820750451261226" lon="12.886678542035375"><ele>65.0</ele><time>2026-04-07T14:25:39.001Z</time></trkpt><trkpt lat="43.8208260829482" lon="12.886764166925273"><ele>65.4</ele><time>2026-04-07T14:25:40.001Z</time></trkpt><trkpt lat="43.82089477448672" lon="12.88686055952143"><ele>65.8</ele><time>2026-04-07T14:25:41.001Z</time></trkpt><trkpt lat="43.82098491296515" lon="12.886934970034998"><ele>66.2</ele><time>2026-04-07T14:25:42.001Z</time></trkpt><trkpt lat="43.82106685104732" lon="12.887014865096761"><ele>66.6</ele><time>2026-04-07T14:25:43.001Z</time></trkpt><trkpt lat="43.821145580598284" lon="12.887099296768199"><ele>67.0</ele><time>2026-04-07T14:25:44.001Z</time></trkpt><trkpt lat="43.821221017760436" lon="12.88718762286429"><ele>68.6</ele><time>2026-04-07T14:25:45.001Z</time></trkpt><trkpt lat="43.821306020775914" lon="12.887251467442853"><ele>70.2</ele><time>2026-04-07T14:25:46.001Z</time></trkpt><trkpt lat="43.8213810089778" lon="12.887330586220482"><ele>71.8</ele><time>2026-04-07T14:25:47.001Z</time></trkpt><trkpt lat="43.82145665727223" lon="12.887397853595376"><ele>73.4</ele><time>2026-04-07T14:25:48.001Z</time></trkpt><trkpt lat="43.82153221472952" lon="12.887469239780017"><ele>75.0</ele><time>2026-04-07T14:25:49.001Z</time></trkpt><trkpt lat="43.821609331354765" lon="12.887535053510028"><ele>74.83333333333333</ele><time>2026-04-07T14:25:50.001Z</time></trkpt><trkpt lat="43.82168536994735" lon="12.887602675382006"><ele>74.66666666666667</ele><time>2026-04-07T14:25:51.001Z</time></trkpt><trkpt lat="43.8217563610836" lon="12.887666642688476"><ele>74.5</ele><time>2026-04-07T14:25:52.001Z</time></trkpt><trkpt lat="43.82183142568375" lon="12.887724601050751"><ele>74.33333333333334</ele><time>2026-04-07T14:25:53.001Z</time></trkpt><trkpt lat="43.82191272521415" lon="12.88777830715639"><ele>74.16666666666667</ele><time>2026-04-07T14:25:54.001Z</time></trkpt><trkpt lat="43.821991058217534" lon="12.88784406524726"><ele>74.0</ele><time>2026-04-07T14:25:55.001Z</time></trkpt><trkpt lat="43.822073318683344" lon="12.887893212765714"><ele>75.6</ele><time>2026-04-07T14:25:56.001Z</time></trkpt><trkpt lat="43.82215394922506" lon="12.887946593074242"><ele>77.2</ele><time>2026-04-07T14:25:57.001Z</time></trkpt><trkpt lat="43.82223593410004" lon="12.88800757456273"><ele>78.8</ele><time>2026-04-07T14:25:58.001Z</time></trkpt><trkpt lat="43.82231542239403" lon="12.888086952720784"><ele>80.39999999999999</ele><time>2026-04-07T14:25:59.001Z</time></trkpt><trkpt lat="43.822393488136356" lon="12.888148791881104"><ele>82.0</ele><time>2026-04-07T14:26:00.001Z</time></trkpt><trkpt lat="43.82247721233095" lon="12.88821702835744"><ele>82.0</ele><time>2026-04-07T14:26:01.001Z</time></trkpt><trkpt lat="43.82255896452488" lon="12.888287088467358"><ele>82.0</ele><time>2026-04-07T14:26:02.001Z</time></trkpt><trkpt lat="43.8226441230549" lon="12.888347394915959"><ele>82.0</ele><time>2026-04-07T14:26:03.001Z</time></trkpt><trkpt lat="43.82272500179792" lon="12.888408423674678"><ele>82.0</ele><time>2026-04-07T14:26:04.001Z</time></trkpt><trkpt lat="43.82281821866757" lon="12.888439915924243"><ele>82.0</ele><time>2026-04-07T14:26:05.001Z</time></trkpt><trkpt lat="43.822895522514884" lon="12.888491623265395"><ele>84.33333333333333</ele><time>2026-04-07T14:26:06.001Z</time></trkpt><trkpt lat="43.82297316649191" lon="12.88854529262708"><ele>86.66666666666666</ele><time>2026-04-07T14:26:07.001Z</time></trkpt><trkpt lat="43.82305211562882" lon="12.88859383855911"><ele>89.0</ele><time>2026-04-07T14:26:08.001Z</time></trkpt><trkpt lat="43.823114366726955" lon="12.888653658932958"><ele>91.33333333333333</ele><time>2026-04-07T14:26:09.001Z</time></trkpt><trkpt lat="43.82317860387424" lon="12.888721204125416"><ele>93.66666666666667</ele><time>2026-04-07T14:26:10.001Z</time></trkpt><trkpt lat="43.82324183235101" lon="12.888785170609562"><ele>96.0</ele><time>2026-04-07T14:26:11.001Z</time></trkpt><trkpt lat="43.82330987389695" lon="12.888846048249365"><ele>96.0</ele><time>2026-04-07T14:26:12.001Z</time></trkpt><trkpt lat="43.82337990189779" lon="12.888902153183246"><ele>96.0</ele><time>2026-04-07T14:26:13.001Z</time></trkpt><trkpt lat="43.8234460998773" lon="12.888951696535567"><ele>96.0</ele><time>2026-04-07T14:26:14.001Z</time></trkpt><trkpt lat="43.823512176741225" lon="12.889004972462805"><ele>96.0</ele><time>2026-04-07T14:26:15.001Z</time></trkpt><trkpt lat="43.82357721307864" lon="12.889060586341342"><ele>96.0</ele><time>2026-04-07T14:26:16.001Z</time></trkpt><trkpt lat="43.82364677022984" lon="12.88911498384014"><ele>96.0</ele><time>2026-04-07T14:26:17.001Z</time></trkpt><trkpt lat="43.82371965554003" lon="12.889145975956604"><ele>97.5</ele><time>2026-04-07T14:26:18.001Z</time></trkpt><trkpt lat="43.82379522107174" lon="12.889180081637525"><ele>99.0</ele><time>2026-04-07T14:26:19.001Z</time></trkpt><trkpt lat="43.82387155624028" lon="12.889235532557722"><ele>100.5</ele><time>2026-04-07T14:26:20.001Z</time></trkpt><trkpt lat="43.823955095026356" lon="12.889281976915468"><ele>102.0</ele><time>2026-04-07T14:26:21.001Z</time></trkpt><trkpt lat="43.82404097601802" lon="12.889319562609371"><ele>103.5</ele><time>2026-04-07T14:26:22.001Z</time></trkpt><trkpt lat="43.82413181838092" lon="12.889356707106455"><ele>105.0</ele><time>2026-04-07T14:26:23.001Z</time></trkpt><trkpt lat="43.82422793073497" lon="12.88938508889662"><ele>107.2</ele><time>2026-04-07T14:26:24.001Z</time></trkpt><trkpt lat="43.82432357090172" lon="12.889417961943874"><ele>109.4</ele><time>2026-04-07T14:26:25.001Z</time></trkpt><trkpt lat="43.824424336190084" lon="12.889441499861622"><ele>111.6</ele><time>2026-04-07T14:26:26.001Z</time></trkpt><trkpt lat="43.82452264409679" lon="12.889472949911726"><ele>113.8</ele><time>2026-04-07T14:26:27.001Z</time></trkpt><trkpt lat="43.82462330447378" lon="12.889510264978052"><ele>116.0</ele><time>2026-04-07T14:26:28.001Z</time></trkpt><trkpt lat="43.82472820863758" lon="12.889535600412596"><ele>116.0</ele><time>2026-04-07T14:26:29.001Z</time></trkpt><trkpt lat="43.82482496707061" lon="12.889572872864049"><ele>116.0</ele><time>2026-04-07T14:26:30.001Z</time></trkpt><trkpt lat="43.824928855052605" lon="12.889603286939685"><ele>116.0</ele><time>2026-04-07T14:26:31.001Z</time></trkpt><trkpt lat="43.825035424272926" lon="12.88963281371193"><ele>116.0</ele><time>2026-04-07T14:26:32.001Z</time></trkpt><trkpt lat="43.825142731180726" lon="12.889664866939448"><ele>116.0</ele><time>2026-04-07T14:26:33.001Z</time></trkpt><trkpt lat="43.82524232432922" lon="12.889708865153533"><ele>116.0</ele><time>2026-04-07T14:26:34.001Z</time></trkpt><trkpt lat="43.82533991200722" lon="12.889747742096175"><ele>116.0</ele><time>2026-04-07T14:26:35.001Z</time></trkpt><trkpt lat="43.82542696230108" lon="12.889781775167565"><ele>116.0</ele><time>2026-04-07T14:26:36.001Z</time></trkpt><trkpt lat="43.82551264893307" lon="12.889795029798409"><ele>116.0</ele><time>2026-04-07T14:26:37.001Z</time></trkpt><trkpt lat="43.825596058398204" lon="12.889805284759609"><ele>116.0</ele><time>2026-04-07T14:26:38.001Z</time></trkpt><trkpt lat="43.825694370098944" lon="12.889810872813701"><ele>116.0</ele><time>2026-04-07T14:26:39.001Z</time></trkpt><trkpt lat="43.82579943140411" lon="12.889828249595816"><ele>116.0</ele><time>2026-04-07T14:26:40.001Z</time></trkpt><trkpt lat="43.82591236253806" lon="12.889846535113211"><ele>116.0</ele><time>2026-04-07T14:26:41.001Z</time></trkpt><trkpt lat="43.826023189679034" lon="12.889868461594315"><ele>116.0</ele><time>2026-04-07T14:26:42.001Z</time></trkpt><trkpt lat="43.82613195760191" lon="12.889892356152718"><ele>116.0</ele><time>2026-04-07T14:26:43.001Z</time></trkpt><trkpt lat="43.826235260960715" lon="12.889909611139224"><ele>114.25</ele><time>2026-04-07T14:26:44.001Z</time></trkpt><trkpt lat="43.82633099968687" lon="12.889873663630123"><ele>112.5</ele><time>2026-04-07T14:26:45.001Z</time></trkpt><trkpt lat="43.82644979052926" lon="12.889834793048164"><ele>110.75</ele><time>2026-04-07T14:26:46.001Z</time></trkpt><trkpt lat="43.82657031563021" lon="12.889777818237004"><ele>109.0</ele><time>2026-04-07T14:26:47.001Z</time></trkpt><trkpt lat="43.8266907158854" lon="12.889726111394264"><ele>106.5</ele><time>2026-04-07T14:26:48.001Z</time></trkpt><trkpt lat="43.826814364642054" lon="12.88968590752383"><ele>104.0</ele><time>2026-04-07T14:26:49.001Z</time></trkpt><trkpt lat="43.82692783664634" lon="12.88964012687241"><ele>101.5</ele><time>2026-04-07T14:26:50.001Z</time></trkpt><trkpt lat="43.827051001733004" lon="12.889593443111476"><ele>99.0</ele><time>2026-04-07T14:26:51.001Z</time></trkpt><trkpt lat="43.827170336072896" lon="12.889550960171402"><ele>99.0</ele><time>2026-04-07T14:26:52.001Z</time></trkpt><trkpt lat="43.82728853863784" lon="12.889509560098743"><ele>99.0</ele><time>2026-04-07T14:26:53.001Z</time></trkpt><trkpt lat="43.82740135410034" lon="12.88945968657604"><ele>99.0</ele><time>2026-04-07T14:26:54.001Z</time></trkpt><trkpt lat="43.82751031619231" lon="12.88939587692798"><ele>99.0</ele><time>2026-04-07T14:26:55.001Z</time></trkpt><trkpt lat="43.827620893977496" lon="12.88932170249985"><ele>98.75</ele><time>2026-04-07T14:26:56.001Z</time></trkpt><trkpt lat="43.827722863322606" lon="12.88924108960621"><ele>98.5</ele><time>2026-04-07T14:26:57.001Z</time></trkpt><trkpt lat="43.82783555578721" lon="12.889164656653428"><ele>98.25</ele><time>2026-04-07T14:26:58.001Z</time></trkpt><trkpt lat="43.82794540265336" lon="12.889089538679466"><ele>98.0</ele><time>2026-04-07T14:26:59.001Z</time></trkpt><trkpt lat="43.82805405044585" lon="12.889025458858194"><ele>98.0</ele><time>2026-04-07T14:27:00.001Z</time></trkpt><trkpt lat="43.82815369351139" lon="12.888970427568928"><ele>98.0</ele><time>2026-04-07T14:27:01.001Z</time></trkpt><trkpt lat="43.82824954403006" lon="12.888922701863683"><ele>98.0</ele><time>2026-04-07T14:27:02.001Z</time></trkpt><trkpt lat="43.828336978561765" lon="12.888858786922587"><ele>98.0</ele><time>2026-04-07T14:27:03.001Z</time></trkpt><trkpt lat="43.82844562405678" lon="12.88880659950415"><ele>98.0</ele><time>2026-04-07T14:27:04.001Z</time></trkpt><trkpt lat="43.82855043939589" lon="12.888726140151997"><ele>98.25</ele><time>2026-04-07T14:27:05.001Z</time></trkpt><trkpt lat="43.82865991513825" lon="12.888651642464128"><ele>98.5</ele><time>2026-04-07T14:27:06.001Z</time></trkpt><trkpt lat="43.828766531994816" lon="12.888566792408943"><ele>98.75</ele><time>2026-04-07T14:27:07.001Z</time></trkpt><trkpt lat="43.82888066928369" lon="12.88848094325956"><ele>99.0</ele><time>2026-04-07T14:27:08.001Z</time></trkpt><trkpt lat="43.82900316754108" lon="12.8884052268812"><ele>99.0</ele><time>2026-04-07T14:27:09.001Z</time></trkpt><trkpt lat="43.829125848837435" lon="12.8883263594883"><ele>99.0</ele><time>2026-04-07T14:27:10.001Z</time></trkpt><trkpt lat="43.829250729823976" lon="12.888265613592992"><ele>99.0</ele><time>2026-04-07T14:27:11.001Z</time></trkpt><trkpt lat="43.82938225791533" lon="12.888227216951543"><ele>99.0</ele><time>2026-04-07T14:27:12.001Z</time></trkpt><trkpt lat="43.829507341132256" lon="12.888166243254021"><ele>98.0</ele><time>2026-04-07T14:27:13.001Z</time></trkpt><trkpt lat="43.82961980184172" lon="12.88811359080874"><ele>97.0</ele><time>2026-04-07T14:27:14.001Z</time></trkpt><trkpt lat="43.82972866469546" lon="12.888062473280371"><ele>96.0</ele><time>2026-04-07T14:27:15.001Z</time></trkpt><trkpt lat="43.829839957940145" lon="12.888012443875747"><ele>95.0</ele><time>2026-04-07T14:27:16.001Z</time></trkpt><trkpt lat="43.829961208488946" lon="12.8879700381432"><ele>95.0</ele><time>2026-04-07T14:27:17.001Z</time></trkpt><trkpt lat="43.8300869754245" lon="12.887921938904487"><ele>95.0</ele><time>2026-04-07T14:27:18.001Z</time></trkpt><trkpt lat="43.83021112736712" lon="12.8878757251037"><ele>95.0</ele><time>2026-04-07T14:27:19.001Z</time></trkpt><trkpt lat="43.83033687894287" lon="12.887829376506573"><ele>95.0</ele><time>2026-04-07T14:27:20.001Z</time></trkpt><trkpt lat="43.83044590718879" lon="12.887781338420284"><ele>94.0</ele><time>2026-04-07T14:27:21.001Z</time></trkpt><trkpt lat="43.83055788793605" lon="12.887736177737882"><ele>93.0</ele><time>2026-04-07T14:27:22.001Z</time></trkpt><trkpt lat="43.83066832826214" lon="12.887696126231079"><ele>92.0</ele><time>2026-04-07T14:27:23.001Z</time></trkpt><trkpt lat="43.83077964195252" lon="12.88765968643953"><ele>91.0</ele><time>2026-04-07T14:27:24.001Z</time></trkpt><trkpt lat="43.83089023753928" lon="12.887615834768736"><ele>94.25</ele><time>2026-04-07T14:27:25.001Z</time></trkpt><trkpt lat="43.83099547552948" lon="12.887549162498535"><ele>97.5</ele><time>2026-04-07T14:27:26.001Z</time></trkpt><trkpt lat="43.83110429892542" lon="12.88748431410986"><ele>100.75</ele><time>2026-04-07T14:27:27.001Z</time></trkpt><trkpt lat="43.83120562549317" lon="12.887409521414487"><ele>104.0</ele><time>2026-04-07T14:27:28.001Z</time></trkpt><trkpt lat="43.831307617265686" lon="12.887329714702627"><ele>103.99999999999999</ele><time>2026-04-07T14:27:29.001Z</time></trkpt><trkpt lat="43.83139859684992" lon="12.887255712960236"><ele>104.0</ele><time>2026-04-07T14:27:30.001Z</time></trkpt><trkpt lat="43.831476004453144" lon="12.887188586112767"><ele>104.0</ele><time>2026-04-07T14:27:31.001Z</time></trkpt><trkpt lat="43.83154659357191" lon="12.88713591404863"><ele>104.0</ele><time>2026-04-07T14:27:32.001Z</time></trkpt><trkpt lat="43.83160934917584" lon="12.887081913989391"><ele>103.99999999999999</ele><time>2026-04-07T14:27:33.001Z</time></trkpt><trkpt lat="43.831697851163156" lon="12.887029888327579"><ele>104.0</ele><time>2026-04-07T14:27:35.001Z</time></trkpt><trkpt lat="43.831759131995994" lon="12.886987802386766"><ele>103.83333333333333</ele><time>2026-04-07T14:27:37.001Z</time></trkpt><trkpt lat="43.83183004806311" lon="12.886974602056823"><ele>103.66666666666666</ele><time>2026-04-07T14:27:44.001Z</time></trkpt><trkpt lat="43.83186015994002" lon="12.88705597550054"><ele>103.5</ele><time>2026-04-07T14:27:45.001Z</time></trkpt><trkpt lat="43.83193581000325" lon="12.887180658503263"><ele>103.33333333333334</ele><time>2026-04-07T14:27:47.001Z</time></trkpt><trkpt lat="43.83198719721212" lon="12.887233247530233"><ele>103.16666666666667</ele><time>2026-04-07T14:27:48.001Z</time></trkpt><trkpt lat="43.83202759850385" lon="12.887325751557045"><ele>103.0</ele><time>2026-04-07T14:27:49.001Z</time></trkpt><trkpt lat="43.832076507695106" lon="12.887403063854226"><ele>103.00000000000001</ele><time>2026-04-07T14:27:50.001Z</time></trkpt><trkpt lat="43.832124129861256" lon="12.88747785177541"><ele>103.0</ele><time>2026-04-07T14:27:51.001Z</time></trkpt><trkpt lat="43.83217939772793" lon="12.887538788089298"><ele>103.0</ele><time>2026-04-07T14:27:52.001Z</time></trkpt><trkpt lat="43.83222312770015" lon="12.887605305924229"><ele>103.0</ele><time>2026-04-07T14:27:53.001Z</time></trkpt><trkpt lat="43.832295757421264" lon="12.887754727209035"><ele>103.00000000000001</ele><time>2026-04-07T14:27:55.001Z</time></trkpt><trkpt lat="43.83233968222431" lon="12.887838650580465"><ele>103.0</ele><time>2026-04-07T14:27:56.001Z</time></trkpt><trkpt lat="43.832388444190606" lon="12.88792969212773"><ele>103.16666666666667</ele><time>2026-04-07T14:27:57.001Z</time></trkpt><trkpt lat="43.83244718055329" lon="12.88800678786499"><ele>103.33333333333334</ele><time>2026-04-07T14:27:58.001Z</time></trkpt><trkpt lat="43.83250330815164" lon="12.888093518236243"><ele>103.5</ele><time>2026-04-07T14:27:59.001Z</time></trkpt><trkpt lat="43.8325470942414" lon="12.888186190165515"><ele>103.66666666666666</ele><time>2026-04-07T14:28:00.001Z</time></trkpt><trkpt lat="43.83261195618806" lon="12.888253124243217"><ele>103.83333333333333</ele><time>2026-04-07T14:28:01.001Z</time></trkpt><trkpt lat="43.83264899083511" lon="12.888360169600348"><ele>104.0</ele><time>2026-04-07T14:28:02.001Z</time></trkpt><trkpt lat="43.83270330388664" lon="12.888453217911298"><ele>103.71428571428571</ele><time>2026-04-07T14:28:03.001Z</time></trkpt><trkpt lat="43.83276571818901" lon="12.888514774585595"><ele>103.42857142857143</ele><time>2026-04-07T14:28:04.001Z</time></trkpt><trkpt lat="43.83280967424343" lon="12.88858399432601"><ele>103.14285714285714</ele><time>2026-04-07T14:28:05Z</time></trkpt><trkpt lat="43.83285427938022" lon="12.888659793369163"><ele>102.85714285714286</ele><time>2026-04-07T14:28:06Z</time></trkpt><trkpt lat="43.832900741057166" lon="12.888736635952913"><ele>102.57142857142858</ele><time>2026-04-07T14:28:07Z</time></trkpt><trkpt lat="43.832947024704495" lon="12.888802685299828"><ele>102.28571428571429</ele><time>2026-04-07T14:28:08Z</time></trkpt><trkpt lat="43.83298888042101" lon="12.888869967102528"><ele>102.0</ele><time>2026-04-07T14:28:09Z</time></trkpt><trkpt lat="43.83303574023856" lon="12.888944471902802"><ele>102.0</ele><time>2026-04-07T14:28:10Z</time></trkpt><trkpt lat="43.833079651949966" lon="12.889022746325267"><ele>102.0</ele><time>2026-04-07T14:28:11Z</time></trkpt><trkpt lat="43.833118010190944" lon="12.889104357545383"><ele>102.0</ele><time>2026-04-07T14:28:12Z</time></trkpt><trkpt lat="43.83315321657282" lon="12.889205116595145"><ele>102.0</ele><time>2026-04-07T14:28:13Z</time></trkpt><trkpt lat="43.833198375629856" lon="12.889299452773987"><ele>102.0</ele><time>2026-04-07T14:28:14Z</time></trkpt><trkpt lat="43.83321200451229" lon="12.889414504666233"><ele>102.0</ele><time>2026-04-07T14:28:15Z</time></trkpt><trkpt lat="43.83323676717423" lon="12.88951702216043"><ele>102.16666666666667</ele><time>2026-04-07T14:28:16Z</time></trkpt><trkpt lat="43.833260434004394" lon="12.88962076164425"><ele>102.33333333333334</ele><time>2026-04-07T14:28:17Z</time></trkpt><trkpt lat="43.833278799453666" lon="12.889722582081548"><ele>102.5</ele><time>2026-04-07T14:28:18Z</time></trkpt><trkpt lat="43.83329883897255" lon="12.88983483409661"><ele>102.66666666666667</ele><time>2026-04-07T14:28:19Z</time></trkpt><trkpt lat="43.833313450311486" lon="12.889941591799873"><ele>102.83333333333334</ele><time>2026-04-07T14:28:20Z</time></trkpt><trkpt lat="43.833325161820824" lon="12.890052104364907"><ele>103.0</ele><time>2026-04-07T14:28:21Z</time></trkpt><trkpt lat="43.83333801692724" lon="12.890168015283127"><ele>103.00000000000001</ele><time>2026-04-07T14:28:22Z</time></trkpt><trkpt lat="43.83334857548283" lon="12.890282655324034"><ele>103.0</ele><time>2026-04-07T14:28:23Z</time></trkpt><trkpt lat="43.83335535525359" lon="12.890386044210075"><ele>103.0</ele><time>2026-04-07T14:28:24Z</time></trkpt><trkpt lat="43.83336153302713" lon="12.890493983373862"><ele>103.0</ele><time>2026-04-07T14:28:25Z</time></trkpt><trkpt lat="43.83336597925554" lon="12.890609661981626"><ele>103.00000000000001</ele><time>2026-04-07T14:28:26Z</time></trkpt><trkpt lat="43.833370178292355" lon="12.890718909335328"><ele>103.0</ele><time>2026-04-07T14:28:27Z</time></trkpt><trkpt lat="43.83337502918926" lon="12.89083013625939"><ele>103.16666666666667</ele><time>2026-04-07T14:28:28Z</time></trkpt><trkpt lat="43.83338031163595" lon="12.890937702525617"><ele>103.33333333333334</ele><time>2026-04-07T14:28:29Z</time></trkpt><trkpt lat="43.833385199274396" lon="12.891041975251232"><ele>103.5</ele><time>2026-04-07T14:28:30Z</time></trkpt><trkpt lat="43.83339379398467" lon="12.891150061744275"><ele>103.66666666666666</ele><time>2026-04-07T14:28:31Z</time></trkpt><trkpt lat="43.83340378849295" lon="12.891240579055331"><ele>103.83333333333333</ele><time>2026-04-07T14:28:32Z</time></trkpt><trkpt lat="43.83341850832481" lon="12.891389516488035"><ele>104.0</ele><time>2026-04-07T14:28:34Z</time></trkpt><trkpt lat="43.83342497044591" lon="12.89148444493038"><ele>104.0</ele><time>2026-04-07T14:28:35Z</time></trkpt><trkpt lat="43.83342102202357" lon="12.891659568923297"><ele>104.0</ele><time>2026-04-07T14:28:37Z</time></trkpt><trkpt lat="43.83341406428619" lon="12.891832272806123"><ele>104.0</ele><time>2026-04-07T14:28:39Z</time></trkpt><trkpt lat="43.83340953846324" lon="12.891944612121542"><ele>104.0</ele><time>2026-04-07T14:28:41Z</time></trkpt><trkpt lat="43.83340454748845" lon="12.89210234020305"><ele>104.0</ele><time>2026-04-07T14:28:49Z</time></trkpt><trkpt lat="43.83340371102193" lon="12.89228809872618"><ele>103.99999999999999</ele><time>2026-04-07T14:28:51Z</time></trkpt><trkpt lat="43.833404213933335" lon="12.892387926593866"><ele>104.0</ele><time>2026-04-07T14:28:52Z</time></trkpt><trkpt lat="43.83340585890814" lon="12.892490786382082"><ele>104.0</ele><time>2026-04-07T14:28:53Z</time></trkpt><trkpt lat="43.83340749272564" lon="12.892587782276701"><ele>104.0</ele><time>2026-04-07T14:28:54Z</time></trkpt><trkpt lat="43.83341048660754" lon="12.89276552212256"><ele>103.99999999999999</ele><time>2026-04-07T14:28:56Z</time></trkpt><trkpt lat="43.83341186742966" lon="12.892861794760554"><ele>104.0</ele><time>2026-04-07T14:28:57Z</time></trkpt><trkpt lat="43.833413199089115" lon="12.892964240789327"><ele>103.83333333333333</ele><time>2026-04-07T14:28:58Z</time></trkpt><trkpt lat="43.833414549181526" lon="12.893068104889124"><ele>103.66666666666666</ele><time>2026-04-07T14:28:59Z</time></trkpt><trkpt lat="43.833415916688345" lon="12.893173308660483"><ele>103.5</ele><time>2026-04-07T14:29:00Z</time></trkpt><trkpt lat="43.833417346904085" lon="12.893283335860739"><ele>103.33333333333334</ele><time>2026-04-07T14:29:01Z</time></trkpt><trkpt lat="43.83341876388589" lon="12.893392345787909"><ele>103.16666666666667</ele><time>2026-04-07T14:29:02Z</time></trkpt><trkpt lat="43.833420489379336" lon="12.893507048222832"><ele>103.0</ele><time>2026-04-07T14:29:03Z</time></trkpt><trkpt lat="43.83342287656019" lon="12.893617564974821"><ele>102.83333333333334</ele><time>2026-04-07T14:29:04Z</time></trkpt><trkpt lat="43.83343975435608" lon="12.893740143877727"><ele>102.66666666666667</ele><time>2026-04-07T14:29:05Z</time></trkpt><trkpt lat="43.83342559748793" lon="12.893864871595593"><ele>102.5</ele><time>2026-04-07T14:29:06Z</time></trkpt><trkpt lat="43.83342486905001" lon="12.893976422838659"><ele>102.33333333333334</ele><time>2026-04-07T14:29:07Z</time></trkpt><trkpt lat="43.833424314596904" lon="12.894073738761124"><ele>102.16666666666667</ele><time>2026-04-07T14:29:08Z</time></trkpt><trkpt lat="43.83342376277556" lon="12.894170593075913"><ele>102.0</ele><time>2026-04-07T14:29:09Z</time></trkpt><trkpt lat="43.833423232784156" lon="12.894263615655797"><ele>102.33333333333333</ele><time>2026-04-07T14:29:10Z</time></trkpt><trkpt lat="43.833422543470625" lon="12.894384602179196"><ele>102.66666666666666</ele><time>2026-04-07T14:29:12Z</time></trkpt><trkpt lat="43.83342176019239" lon="12.894522081252369"><ele>103.0</ele><time>2026-04-07T14:29:14Z</time></trkpt><trkpt lat="43.83342119360158" lon="12.89462152769819"><ele>103.33333333333333</ele><time>2026-04-07T14:29:15Z</time></trkpt><trkpt lat="43.83342058414802" lon="12.894728497739743"><ele>103.66666666666666</ele><time>2026-04-07T14:29:16Z</time></trkpt><trkpt lat="43.83343449954829" lon="12.894837567107366"><ele>104.0</ele><time>2026-04-07T14:29:17Z</time></trkpt><trkpt lat="43.83343045212968" lon="12.894949667053536"><ele>103.99999999999999</ele><time>2026-04-07T14:29:18Z</time></trkpt><trkpt lat="43.83342921136026" lon="12.895066905888259"><ele>104.0</ele><time>2026-04-07T14:29:19Z</time></trkpt><trkpt lat="43.833449242346845" lon="12.895178524264663"><ele>104.0</ele><time>2026-04-07T14:29:20Z</time></trkpt><trkpt lat="43.83347722943022" lon="12.895280239876605"><ele>104.0</ele><time>2026-04-07T14:29:21Z</time></trkpt><trkpt lat="43.83350284908305" lon="12.895385629765789"><ele>103.99999999999999</ele><time>2026-04-07T14:29:22Z</time></trkpt><trkpt lat="43.83350842518421" lon="12.895490171568964"><ele>104.0</ele><time>2026-04-07T14:29:23Z</time></trkpt><trkpt lat="43.83352322863414" lon="12.89558488943285"><ele>103.28571428571428</ele><time>2026-04-07T14:29:24Z</time></trkpt><trkpt lat="43.833532614130654" lon="12.895679170478765"><ele>102.57142857142858</ele><time>2026-04-07T14:29:25Z</time></trkpt><trkpt lat="43.83353505393073" lon="12.895773254652202"><ele>101.85714285714286</ele><time>2026-04-07T14:29:26Z</time></trkpt><trkpt lat="43.83353534382751" lon="12.895871722720996"><ele>101.14285714285714</ele><time>2026-04-07T14:29:27Z</time></trkpt><trkpt lat="43.83353578980365" lon="12.895966225523889"><ele>100.42857142857142</ele><time>2026-04-07T14:29:28Z</time></trkpt><trkpt lat="43.83353803786712" lon="12.896070343472012"><ele>99.71428571428572</ele><time>2026-04-07T14:29:29Z</time></trkpt><trkpt lat="43.833541970009655" lon="12.896168855859095"><ele>99.0</ele><time>2026-04-07T14:29:30Z</time></trkpt><trkpt lat="43.833555346035574" lon="12.896288266128625"><ele>99.0</ele><time>2026-04-07T14:29:31Z</time></trkpt><trkpt lat="43.83357399640668" lon="12.896406695472411"><ele>99.0</ele><time>2026-04-07T14:29:32Z</time></trkpt><trkpt lat="43.83360150286229" lon="12.896536122024246"><ele>99.0</ele><time>2026-04-07T14:29:33Z</time></trkpt><trkpt lat="43.833642722444225" lon="12.89667230409063"><ele>99.0</ele><time>2026-04-07T14:29:34Z</time></trkpt><trkpt lat="43.83368251416096" lon="12.896808815690296"><ele>99.0</ele><time>2026-04-07T14:29:35Z</time></trkpt><trkpt lat="43.83371947889763" lon="12.896937675906361"><ele>98.83333333333333</ele><time>2026-04-07T14:29:36Z</time></trkpt><trkpt lat="43.83375392495377" lon="12.897057755968133"><ele>98.66666666666666</ele><time>2026-04-07T14:29:37Z</time></trkpt><trkpt lat="43.83378853774956" lon="12.897178417104657"><ele>98.5</ele><time>2026-04-07T14:29:38Z</time></trkpt><trkpt lat="43.833838399179484" lon="12.897289044004616"><ele>98.33333333333333</ele><time>2026-04-07T14:29:39Z</time></trkpt><trkpt lat="43.8338548040444" lon="12.897403583428435"><ele>98.16666666666666</ele><time>2026-04-07T14:29:40Z</time></trkpt><trkpt lat="43.83388828182321" lon="12.897501572817493"><ele>98.0</ele><time>2026-04-07T14:29:41Z</time></trkpt><trkpt lat="43.83392958811577" lon="12.89757955826982"><ele>98.0</ele><time>2026-04-07T14:29:42Z</time></trkpt><trkpt lat="43.8339873677129" lon="12.897623217541565"><ele>98.0</ele><time>2026-04-07T14:29:43Z</time></trkpt><trkpt lat="43.83404291865177" lon="12.897695395721298"><ele>98.0</ele><time>2026-04-07T14:29:45Z</time></trkpt><trkpt lat="43.8341400866822" lon="12.897576846080185"><ele>98.0</ele><time>2026-04-07T14:29:46Z</time></trkpt><trkpt lat="43.834213281302034" lon="12.897506146073331"><ele>98.0</ele><time>2026-04-07T14:29:47Z</time></trkpt><trkpt lat="43.83430532972323" lon="12.89743120660552"><ele>94.75</ele><time>2026-04-07T14:29:48Z</time></trkpt><trkpt lat="43.83441544120498" lon="12.89733562650948"><ele>91.5</ele><time>2026-04-07T14:29:49Z</time></trkpt><trkpt lat="43.83452730275219" lon="12.897241277124712"><ele>88.25</ele><time>2026-04-07T14:29:50Z</time></trkpt><trkpt lat="43.834640493000045" lon="12.897140973377486"><ele>85.0</ele><time>2026-04-07T14:29:51Z</time></trkpt><trkpt lat="43.83475652684541" lon="12.897061032973191"><ele>85.0</ele><time>2026-04-07T14:29:52Z</time></trkpt><trkpt lat="43.834863139659674" lon="12.896958798658149"><ele>85.0</ele><time>2026-04-07T14:29:53Z</time></trkpt><trkpt lat="43.83496596415214" lon="12.89685557250118"><ele>85.0</ele><time>2026-04-07T14:29:54Z</time></trkpt><trkpt lat="43.83505437851754" lon="12.896739551045625"><ele>85.0</ele><time>2026-04-07T14:29:55Z</time></trkpt><trkpt lat="43.83515264443377" lon="12.896643591175163"><ele>82.25</ele><time>2026-04-07T14:29:56Z</time></trkpt><trkpt lat="43.83524461640142" lon="12.896531623522032"><ele>79.5</ele><time>2026-04-07T14:29:57Z</time></trkpt><trkpt lat="43.835326437037104" lon="12.89642027875423"><ele>76.75</ele><time>2026-04-07T14:29:58Z</time></trkpt><trkpt lat="43.835402965869655" lon="12.896304542556294"><ele>74.0</ele><time>2026-04-07T14:29:59Z</time></trkpt><trkpt lat="43.83548512381195" lon="12.896189589541972"><ele>74.0</ele><time>2026-04-07T14:30:00Z</time></trkpt><trkpt lat="43.83557733559152" lon="12.896089898490555"><ele>74.0</ele><time>2026-04-07T14:30:01Z</time></trkpt><trkpt lat="43.83564577550321" lon="12.895964372949816"><ele>74.0</ele><time>2026-04-07T14:30:02Z</time></trkpt><trkpt lat="43.83573368941881" lon="12.89586186098357"><ele>74.0</ele><time>2026-04-07T14:30:03Z</time></trkpt><trkpt lat="43.83582826033187" lon="12.89576555895054"><ele>74.5</ele><time>2026-04-07T14:30:04Z</time></trkpt><trkpt lat="43.83592072736467" lon="12.895670296303479"><ele>75.0</ele><time>2026-04-07T14:30:05Z</time></trkpt><trkpt lat="43.83600806204672" lon="12.895575699767507"><ele>75.5</ele><time>2026-04-07T14:30:06Z</time></trkpt><trkpt lat="43.83609600429125" lon="12.895484267226227"><ele>76.0</ele><time>2026-04-07T14:30:07Z</time></trkpt><trkpt lat="43.83620053347554" lon="12.895399429871212"><ele>73.25</ele><time>2026-04-07T14:30:08Z</time></trkpt><trkpt lat="43.83630757149792" lon="12.895333672462781"><ele>70.5</ele><time>2026-04-07T14:30:09Z</time></trkpt><trkpt lat="43.83641226747978" lon="12.89527314560342"><ele>67.75</ele><time>2026-04-07T14:30:10Z</time></trkpt><trkpt lat="43.83652006854722" lon="12.895221056258091"><ele>65.0</ele><time>2026-04-07T14:30:11Z</time></trkpt><trkpt lat="43.83662553453729" lon="12.89517505097635"><ele>65.0</ele><time>2026-04-07T14:30:12Z</time></trkpt><trkpt lat="43.83673384201727" lon="12.895146320594938"><ele>65.0</ele><time>2026-04-07T14:30:13Z</time></trkpt><trkpt lat="43.83684183442642" lon="12.895117311589877"><ele>65.0</ele><time>2026-04-07T14:30:14Z</time></trkpt><trkpt lat="43.83695289084839" lon="12.895089862832567"><ele>65.0</ele><time>2026-04-07T14:30:15Z</time></trkpt><trkpt lat="43.83707219882694" lon="12.895063682741377"><ele>62.75</ele><time>2026-04-07T14:30:16Z</time></trkpt><trkpt lat="43.83719193919323" lon="12.895054475899435"><ele>60.5</ele><time>2026-04-07T14:30:17Z</time></trkpt><trkpt lat="43.83730759643707" lon="12.89506312831027"><ele>58.25</ele><time>2026-04-07T14:30:18Z</time></trkpt><trkpt lat="43.83742208420765" lon="12.8950600168516"><ele>56.0</ele><time>2026-04-07T14:30:19Z</time></trkpt><trkpt lat="43.83753213782988" lon="12.895040610691908"><ele>55.599999999999994</ele><time>2026-04-07T14:30:20Z</time></trkpt><trkpt lat="43.837636434877524" lon="12.89501867034019"><ele>55.199999999999996</ele><time>2026-04-07T14:30:21Z</time></trkpt><trkpt lat="43.83773878801339" lon="12.894993220923107"><ele>54.800000000000004</ele><time>2026-04-07T14:30:22Z</time></trkpt><trkpt lat="43.83784259051813" lon="12.894970369561706"><ele>54.400000000000006</ele><time>2026-04-07T14:30:23Z</time></trkpt><trkpt lat="43.83794519913686" lon="12.894933137631307"><ele>54.0</ele><time>2026-04-07T14:30:24Z</time></trkpt><trkpt lat="43.83804772693839" lon="12.894872530720328"><ele>54.0</ele><time>2026-04-07T14:30:25Z</time></trkpt><trkpt lat="43.838140293091584" lon="12.894785584708554"><ele>54.0</ele><time>2026-04-07T14:30:26Z</time></trkpt><trkpt lat="43.83822312999443" lon="12.89466861254373"><ele>54.0</ele><time>2026-04-07T14:30:27Z</time></trkpt><trkpt lat="43.83828022540975" lon="12.89453028220908"><ele>54.0</ele><time>2026-04-07T14:30:28Z</time></trkpt><trkpt lat="43.83831681545123" lon="12.894386159836586"><ele>54.0</ele><time>2026-04-07T14:30:29Z</time></trkpt><trkpt lat="43.83835755815167" lon="12.89425560175119"><ele>54.00000000000001</ele><time>2026-04-07T14:30:30Z</time></trkpt><trkpt lat="43.838415060625216" lon="12.894135207084584"><ele>54.00000000000001</ele><time>2026-04-07T14:30:31Z</time></trkpt><trkpt lat="43.83845261476612" lon="12.89399928173705"><ele>54.0</ele><time>2026-04-07T14:30:32Z</time></trkpt><trkpt lat="43.838501808086676" lon="12.893883010376923"><ele>54.0</ele><time>2026-04-07T14:30:33Z</time></trkpt><trkpt lat="43.838554152318295" lon="12.89377053335872"><ele>54.2</ele><time>2026-04-07T14:30:34Z</time></trkpt><trkpt lat="43.83859858668929" lon="12.893661547981779"><ele>54.400000000000006</ele><time>2026-04-07T14:30:35Z</time></trkpt><trkpt lat="43.83863586576654" lon="12.893552546915991"><ele>54.6</ele><time>2026-04-07T14:30:36Z</time></trkpt><trkpt lat="43.83869432472557" lon="12.893450895214015"><ele>54.8</ele><time>2026-04-07T14:30:37Z</time></trkpt><trkpt lat="43.83874587332755" lon="12.893344976571596"><ele>55.0</ele><time>2026-04-07T14:30:38Z</time></trkpt><trkpt lat="43.838795719102045" lon="12.893224958347599"><ele>54.99999999999999</ele><time>2026-04-07T14:30:39Z</time></trkpt><trkpt lat="43.83885251086123" lon="12.893121156828872"><ele>55.0</ele><time>2026-04-07T14:30:40Z</time></trkpt><trkpt lat="43.83891374657096" lon="12.893031624514286"><ele>55.0</ele><time>2026-04-07T14:30:41Z</time></trkpt><trkpt lat="43.83897021367364" lon="12.892946969847667"><ele>55.0</ele><time>2026-04-07T14:30:42Z</time></trkpt><trkpt lat="43.83901968218712" lon="12.892873879441712"><ele>54.99999999999999</ele><time>2026-04-07T14:30:43Z</time></trkpt><trkpt lat="43.83909144006658" lon="12.892797467850524"><ele>55.0</ele><time>2026-04-07T14:30:45Z</time></trkpt><trkpt lat="43.83915753133651" lon="12.8927677873158"><ele>54.99999999999999</ele><time>2026-04-07T14:30:48Z</time></trkpt><trkpt lat="43.83922433390475" lon="12.892804229667908"><ele>55.0</ele><time>2026-04-07T14:30:51Z</time></trkpt><trkpt lat="43.83921137205925" lon="12.892900404120198"><ele>55.0</ele><time>2026-04-07T14:30:52Z</time></trkpt><trkpt lat="43.83923186816495" lon="12.893009663845993"><ele>55.0</ele><time>2026-04-07T14:30:53Z</time></trkpt><trkpt lat="43.83924428819109" lon="12.8930955712288"><ele>55.0</ele><time>2026-04-07T14:30:54Z</time></trkpt><trkpt lat="43.839252431134106" lon="12.893199901696258"><ele>54.99999999999999</ele><time>2026-04-07T14:30:55Z</time></trkpt><trkpt lat="43.83926488447276" lon="12.893307510193452"><ele>55.0</ele><time>2026-04-07T14:30:56Z</time></trkpt><trkpt lat="43.839277712059825" lon="12.893423814957117"><ele>55.0</ele><time>2026-04-07T14:30:57Z</time></trkpt><trkpt lat="43.8392898533753" lon="12.893545108297369"><ele>55.0</ele><time>2026-04-07T14:30:58Z</time></trkpt><trkpt lat="43.8393020924133" lon="12.893669990589574"><ele>55.0</ele><time>2026-04-07T14:30:59Z</time></trkpt><trkpt lat="43.839316883629394" lon="12.89380423066207"><ele>55.0</ele><time>2026-04-07T14:31:00Z</time></trkpt><trkpt lat="43.83933010649791" lon="12.893937426875482"><ele>55.0</ele><time>2026-04-07T14:31:01Z</time></trkpt><trkpt lat="43.83934400668055" lon="12.89407564103855"><ele>54.2</ele><time>2026-04-07T14:31:02Z</time></trkpt><trkpt lat="43.839359084773236" lon="12.894214131906212"><ele>53.4</ele><time>2026-04-07T14:31:03Z</time></trkpt><trkpt lat="43.83937881312639" lon="12.894343182584924"><ele>52.599999999999994</ele><time>2026-04-07T14:31:04Z</time></trkpt><trkpt lat="43.83939579301084" lon="12.894475563044898"><ele>51.8</ele><time>2026-04-07T14:31:05Z</time></trkpt><trkpt lat="43.83946391348671" lon="12.894582214340698"><ele>51.0</ele><time>2026-04-07T14:31:06Z</time></trkpt><trkpt lat="43.83953763202509" lon="12.894667914962861"><ele>51.0</ele><time>2026-04-07T14:31:07Z</time></trkpt><trkpt lat="43.83962749794266" lon="12.894723167922798"><ele>51.0</ele><time>2026-04-07T14:31:08Z</time></trkpt><trkpt lat="43.83972569863493" lon="12.894749415066638"><ele>51.0</ele><time>2026-04-07T14:31:09Z</time></trkpt><trkpt lat="43.839831833706384" lon="12.894756369826695"><ele>51.0</ele><time>2026-04-07T14:31:10Z</time></trkpt><trkpt lat="43.839940993185266" lon="12.894756177411386"><ele>51.0</ele><time>2026-04-07T14:31:11Z</time></trkpt><trkpt lat="43.84005192029513" lon="12.89476470875066"><ele>51.75</ele><time>2026-04-07T14:31:12Z</time></trkpt><trkpt lat="43.84016498950079" lon="12.89476981749692"><ele>52.5</ele><time>2026-04-07T14:31:13Z</time></trkpt><trkpt lat="43.84027982233331" lon="12.894781076377843"><ele>53.25</ele><time>2026-04-07T14:31:14Z</time></trkpt><trkpt lat="43.84039474038056" lon="12.894774058468968"><ele>54.0</ele><time>2026-04-07T14:31:15Z</time></trkpt><trkpt lat="43.840508873298674" lon="12.894746766965206"><ele>54.0</ele><time>2026-04-07T14:31:16Z</time></trkpt><trkpt lat="43.840619002754075" lon="12.894699163519606"><ele>54.0</ele><time>2026-04-07T14:31:17Z</time></trkpt><trkpt lat="43.840725218091194" lon="12.894647709759381"><ele>54.0</ele><time>2026-04-07T14:31:18Z</time></trkpt><trkpt lat="43.840831386954655" lon="12.894602463781643"><ele>54.0</ele><time>2026-04-07T14:31:19Z</time></trkpt><trkpt lat="43.84093930745971" lon="12.894562951878662"><ele>54.6</ele><time>2026-04-07T14:31:20Z</time></trkpt><trkpt lat="43.8410504126872" lon="12.894541761914445"><ele>55.2</ele><time>2026-04-07T14:31:21Z</time></trkpt><trkpt lat="43.84116336876111" lon="12.894530806201967"><ele>55.800000000000004</ele><time>2026-04-07T14:31:22Z</time></trkpt><trkpt lat="43.84127077404479" lon="12.894522099572017"><ele>56.400000000000006</ele><time>2026-04-07T14:31:23Z</time></trkpt><trkpt lat="43.84137086529953" lon="12.894523099646023"><ele>57.0</ele><time>2026-04-07T14:31:24Z</time></trkpt><trkpt lat="43.84146730101723" lon="12.894524499985529"><ele>57.0</ele><time>2026-04-07T14:31:25Z</time></trkpt><trkpt lat="43.841551273356544" lon="12.894530992825523"><ele>57.0</ele><time>2026-04-07T14:31:26Z</time></trkpt><trkpt lat="43.841617814374985" lon="12.894536153463186"><ele>57.0</ele><time>2026-04-07T14:31:27Z</time></trkpt><trkpt lat="43.8417134362092" lon="12.89455016896713"><ele>57.0</ele><time>2026-04-07T14:31:29Z</time></trkpt><trkpt lat="43.841777403913945" lon="12.894558670094542"><ele>57.0</ele><time>2026-04-07T14:31:31Z</time></trkpt><trkpt lat="43.8418561642576" lon="12.894529163904835"><ele>57.0</ele><time>2026-04-07T14:31:34Z</time></trkpt><trkpt lat="43.84190401965052" lon="12.894465536994327"><ele>57.8</ele><time>2026-04-07T14:31:35Z</time></trkpt><trkpt lat="43.841952461400474" lon="12.894249680793909"><ele>58.6</ele><time>2026-04-07T14:31:37Z</time></trkpt><trkpt lat="43.84198321480279" lon="12.894150040463142"><ele>59.39999999999999</ele><time>2026-04-07T14:31:38Z</time></trkpt><trkpt lat="43.84201723979546" lon="12.894039314948676"><ele>60.199999999999996</ele><time>2026-04-07T14:31:39Z</time></trkpt><trkpt lat="43.842049845838844" lon="12.893916107566362"><ele>61.0</ele><time>2026-04-07T14:31:40Z</time></trkpt><trkpt lat="43.84208151410929" lon="12.893782785272446"><ele>61.0</ele><time>2026-04-07T14:31:41Z</time></trkpt><trkpt lat="43.84210700304144" lon="12.893642048223331"><ele>60.99999999999999</ele><time>2026-04-07T14:31:42Z</time></trkpt><trkpt lat="43.84213281862707" lon="12.89349847030289"><ele>60.99999999999999</ele><time>2026-04-07T14:31:43Z</time></trkpt><trkpt lat="43.84215508518184" lon="12.893350642510631"><ele>61.0</ele><time>2026-04-07T14:31:44Z</time></trkpt><trkpt lat="43.84217647768714" lon="12.893198267149353"><ele>61.0</ele><time>2026-04-07T14:31:45Z</time></trkpt><trkpt lat="43.842193910064935" lon="12.893042032686512"><ele>61.0</ele><time>2026-04-07T14:31:46Z</time></trkpt><trkpt lat="43.84220562052682" lon="12.892884420328237"><ele>61.0</ele><time>2026-04-07T14:31:47Z</time></trkpt><trkpt lat="43.84221098109949" lon="12.892714418411428"><ele>61.0</ele><time>2026-04-07T14:31:48Z</time></trkpt><trkpt lat="43.8422109139464" lon="12.892544051794461"><ele>61.0</ele><time>2026-04-07T14:31:49Z</time></trkpt><trkpt lat="43.84220611480076" lon="12.892375256022357"><ele>60.75</ele><time>2026-04-07T14:31:50Z</time></trkpt><trkpt lat="43.84221987505355" lon="12.892199938913693"><ele>60.5</ele><time>2026-04-07T14:31:51Z</time></trkpt><trkpt lat="43.84222763533637" lon="12.892025656690926"><ele>60.25</ele><time>2026-04-07T14:31:52Z</time></trkpt><trkpt lat="43.842234221286134" lon="12.891846379262777"><ele>60.0</ele><time>2026-04-07T14:31:53Z</time></trkpt><trkpt lat="43.84224035714321" lon="12.891671734358258"><ele>60.75</ele><time>2026-04-07T14:31:54Z</time></trkpt><trkpt lat="43.84224675885554" lon="12.89149430499923"><ele>61.5</ele><time>2026-04-07T14:31:55Z</time></trkpt><trkpt lat="43.842252369366896" lon="12.891315998033411"><ele>62.25</ele><time>2026-04-07T14:31:56Z</time></trkpt><trkpt lat="43.84225498986008" lon="12.891137127650408"><ele>63.0</ele><time>2026-04-07T14:31:57Z</time></trkpt><trkpt lat="43.84226368439629" lon="12.890954990718615"><ele>63.0</ele><time>2026-04-07T14:31:58Z</time></trkpt><trkpt lat="43.84227375581842" lon="12.890776637913339"><ele>63.0</ele><time>2026-04-07T14:31:59Z</time></trkpt><trkpt lat="43.84228944488259" lon="12.890598804592061"><ele>63.0</ele><time>2026-04-07T14:32:00Z</time></trkpt><trkpt lat="43.84230330664611" lon="12.890424901931144"><ele>63.0</ele><time>2026-04-07T14:32:01Z</time></trkpt><trkpt lat="43.84233353917202" lon="12.890257213898666"><ele>63.0</ele><time>2026-04-07T14:32:02Z</time></trkpt><trkpt lat="43.842360968928254" lon="12.89009311774544"><ele>63.0</ele><time>2026-04-07T14:32:03Z</time></trkpt><trkpt lat="43.842405549725484" lon="12.889942070836565"><ele>63.0</ele><time>2026-04-07T14:32:04Z</time></trkpt><trkpt lat="43.8424579887882" lon="12.889806185980103"><ele>63.0</ele><time>2026-04-07T14:32:05Z</time></trkpt><trkpt lat="43.842518076966726" lon="12.889673494360022"><ele>62.599999999999994</ele><time>2026-04-07T14:32:06Z</time></trkpt><trkpt lat="43.84258502491749" lon="12.889570062610389"><ele>62.199999999999996</ele><time>2026-04-07T14:32:07Z</time></trkpt><trkpt lat="43.8426470179936" lon="12.88947967206411"><ele>61.8</ele><time>2026-04-07T14:32:08Z</time></trkpt><trkpt lat="43.84270447907135" lon="12.889407846184426"><ele>61.4</ele><time>2026-04-07T14:32:09Z</time></trkpt><trkpt lat="43.842771884056816" lon="12.889305557421727"><ele>61.0</ele><time>2026-04-07T14:32:11Z</time></trkpt><trkpt lat="43.84264653180703" lon="12.889196126023208"><ele>61.0</ele><time>2026-04-07T14:32:15Z</time></trkpt><trkpt lat="43.84252353607402" lon="12.889238935307175"><ele>60.99999999999999</ele><time>2026-04-07T14:32:17Z</time></trkpt><trkpt lat="43.84244979555619" lon="12.889258823903914"><ele>60.99999999999999</ele><time>2026-04-07T14:32:18Z</time></trkpt><trkpt lat="43.842365992610084" lon="12.88927796497227"><ele>61.0</ele><time>2026-04-07T14:32:19Z</time></trkpt><trkpt lat="43.842278953199845" lon="12.889274861893368"><ele>61.0</ele><time>2026-04-07T14:32:20Z</time></trkpt><trkpt lat="43.842190375262845" lon="12.889241948862677"><ele>60.0</ele><time>2026-04-07T14:32:21Z</time></trkpt><trkpt lat="43.84210830767355" lon="12.88918560295115"><ele>58.99999999999999</ele><time>2026-04-07T14:32:22Z</time></trkpt><trkpt lat="43.84202766735067" lon="12.889109482674364"><ele>57.99999999999999</ele><time>2026-04-07T14:32:23Z</time></trkpt><trkpt lat="43.8419878477426" lon="12.88899074398386"><ele>57.0</ele><time>2026-04-07T14:32:24Z</time></trkpt><trkpt lat="43.84196675322746" lon="12.888866912884565"><ele>56.0</ele><time>2026-04-07T14:32:25Z</time></trkpt><trkpt lat="43.841943604702294" lon="12.888731303620904"><ele>56.0</ele><time>2026-04-07T14:32:26Z</time></trkpt><trkpt lat="43.841910687899194" lon="12.888587335275366"><ele>55.99999999999999</ele><time>2026-04-07T14:32:27Z</time></trkpt><trkpt lat="43.841890786531124" lon="12.888444819069502"><ele>55.99999999999999</ele><time>2026-04-07T14:32:28Z</time></trkpt><trkpt lat="43.84186613273676" lon="12.888305824841083"><ele>56.0</ele><time>2026-04-07T14:32:29Z</time></trkpt><trkpt lat="43.84183833010328" lon="12.888172848780862"><ele>56.0</ele><time>2026-04-07T14:32:30Z</time></trkpt><trkpt lat="43.841825883651" lon="12.888034262800042"><ele>56.199999999999996</ele><time>2026-04-07T14:32:31Z</time></trkpt><trkpt lat="43.84179534387463" lon="12.8878928418015"><ele>56.39999999999999</ele><time>2026-04-07T14:32:32Z</time></trkpt><trkpt lat="43.84176229111287" lon="12.887747813537297"><ele>56.6</ele><time>2026-04-07T14:32:33Z</time></trkpt><trkpt lat="43.84171347065537" lon="12.887610595405098"><ele>56.8</ele><time>2026-04-07T14:32:34Z</time></trkpt><trkpt lat="43.84167776162309" lon="12.887463564883843"><ele>57.0</ele><time>2026-04-07T14:32:35Z</time></trkpt><trkpt lat="43.841644140826126" lon="12.88732027411862"><ele>57.833333333333336</ele><time>2026-04-07T14:32:36Z</time></trkpt><trkpt lat="43.84159420752807" lon="12.887193390376556"><ele>58.66666666666667</ele><time>2026-04-07T14:32:37Z</time></trkpt><trkpt lat="43.841559781691956" lon="12.887066819683398"><ele>59.5</ele><time>2026-04-07T14:32:38Z</time></trkpt><trkpt lat="43.84150389864726" lon="12.886962645437972"><ele>60.333333333333336</ele><time>2026-04-07T14:32:39Z</time></trkpt><trkpt lat="43.84144142425136" lon="12.886878359657107"><ele>61.16666666666667</ele><time>2026-04-07T14:32:40Z</time></trkpt><trkpt lat="43.84140624925079" lon="12.886801574590827"><ele>62.0</ele><time>2026-04-07T14:32:41Z</time></trkpt><trkpt lat="43.841370038035706" lon="12.886702906569838"><ele>62.833333333333336</ele><time>2026-04-07T14:32:42Z</time></trkpt><trkpt lat="43.84136381191266" lon="12.88660973299885"><ele>63.66666666666667</ele><time>2026-04-07T14:32:43Z</time></trkpt><trkpt lat="43.841351952606246" lon="12.886508507488326"><ele>64.5</ele><time>2026-04-07T14:32:44Z</time></trkpt><trkpt lat="43.84135150640818" lon="12.886387532075526"><ele>65.33333333333333</ele><time>2026-04-07T14:32:45Z</time></trkpt><trkpt lat="43.8413581066271" lon="12.886260699242062"><ele>66.16666666666666</ele><time>2026-04-07T14:32:46Z</time></trkpt><trkpt lat="43.84136240773836" lon="12.886131503058019"><ele>67.0</ele><time>2026-04-07T14:32:47Z</time></trkpt><trkpt lat="43.84137421636345" lon="12.886008337499534"><ele>68.16666666666666</ele><time>2026-04-07T14:32:48Z</time></trkpt><trkpt lat="43.84139726358771" lon="12.885895276166764"><ele>69.33333333333333</ele><time>2026-04-07T14:32:49Z</time></trkpt><trkpt lat="43.84142989997351" lon="12.885780725621334"><ele>70.5</ele><time>2026-04-07T14:32:50Z</time></trkpt><trkpt lat="43.84146745310779" lon="12.885675459636657"><ele>71.66666666666667</ele><time>2026-04-07T14:32:51Z</time></trkpt><trkpt lat="43.84151526020061" lon="12.885574064838297"><ele>72.83333333333334</ele><time>2026-04-07T14:32:52Z</time></trkpt><trkpt lat="43.84156014432214" lon="12.885481359610806"><ele>74.0</ele><time>2026-04-07T14:32:53Z</time></trkpt><trkpt lat="43.84162198319909" lon="12.88539870140689"><ele>74.0</ele><time>2026-04-07T14:32:54Z</time></trkpt><trkpt lat="43.841693562070894" lon="12.885337739481246"><ele>74.0</ele><time>2026-04-07T14:32:55Z</time></trkpt><trkpt lat="43.84178809955307" lon="12.88530329483028"><ele>74.0</ele><time>2026-04-07T14:32:56Z</time></trkpt><trkpt lat="43.8418717518462" lon="12.88525318153672"><ele>74.0</ele><time>2026-04-07T14:32:57Z</time></trkpt><trkpt lat="43.84194793104301" lon="12.885176656014805"><ele>74.0</ele><time>2026-04-07T14:32:58Z</time></trkpt><trkpt lat="43.8420306706432" lon="12.885114087147008"><ele>76.0</ele><time>2026-04-07T14:32:59Z</time></trkpt><trkpt lat="43.84209810619639" lon="12.88503450301"><ele>78.0</ele><time>2026-04-07T14:33:00Z</time></trkpt><trkpt lat="43.842173550154484" lon="12.884954852628601"><ele>80.0</ele><time>2026-04-07T14:33:01Z</time></trkpt><trkpt lat="43.84225137027491" lon="12.884873102452095"><ele>82.0</ele><time>2026-04-07T14:33:02Z</time></trkpt><trkpt lat="43.842330391701175" lon="12.884786781922084"><ele>84.0</ele><time>2026-04-07T14:33:03Z</time></trkpt><trkpt lat="43.84240341628516" lon="12.884691683481249"><ele>84.0</ele><time>2026-04-07T14:33:04Z</time></trkpt><trkpt lat="43.84247197934997" lon="12.884584849297934"><ele>84.0</ele><time>2026-04-07T14:33:05Z</time></trkpt><trkpt lat="43.84254017045014" lon="12.884483175312889"><ele>84.0</ele><time>2026-04-07T14:33:06Z</time></trkpt><trkpt lat="43.84262066916896" lon="12.884392033934297"><ele>84.0</ele><time>2026-04-07T14:33:07Z</time></trkpt><trkpt lat="43.842698763344025" lon="12.884303718494348"><ele>84.0</ele><time>2026-04-07T14:33:08Z</time></trkpt><trkpt lat="43.842779508407965" lon="12.884216891200113"><ele>85.16666666666667</ele><time>2026-04-07T14:33:09Z</time></trkpt><trkpt lat="43.8428567762454" lon="12.884137908801346"><ele>86.33333333333333</ele><time>2026-04-07T14:33:10Z</time></trkpt><trkpt lat="43.84293472935549" lon="12.88406712808858"><ele>87.5</ele><time>2026-04-07T14:33:11Z</time></trkpt><trkpt lat="43.84301025167032" lon="12.884002810113149"><ele>88.66666666666666</ele><time>2026-04-07T14:33:12Z</time></trkpt><trkpt lat="43.84307442191172" lon="12.883946090346605"><ele>89.83333333333333</ele><time>2026-04-07T14:33:13Z</time></trkpt><trkpt lat="43.843126148853656" lon="12.883890997255138"><ele>91.0</ele><time>2026-04-07T14:33:14Z</time></trkpt><trkpt lat="43.84320202293656" lon="12.883804812384387"><ele>91.0</ele><time>2026-04-07T14:33:16Z</time></trkpt><trkpt lat="43.843307050151196" lon="12.883925964543277"><ele>91.0</ele><time>2026-04-07T14:33:23Z</time></trkpt><trkpt lat="43.843367434196935" lon="12.883971905994684"><ele>91.0</ele><time>2026-04-07T14:33:26Z</time></trkpt><trkpt lat="43.8434450104884" lon="12.883905143713415"><ele>91.0</ele><time>2026-04-07T14:33:29Z</time></trkpt></trkseg></trk></gpx>